<?xml version="1.0" encoding="UTF-8" standalone="no" ?>
<gpx xmlns="http://www.topografix.com/GPX/1/1" xmlns:xsi="http://www.w3.org/2001/XMLSchema-instance" xsi:schemaLocation="http://www.topografix.com/GPX/1/1 http://www.topografix.com/GPX/1/1/gpx.xsd" version="1.1" creator="VisuGPX - https://www.visugpx.com">
  <metadata>
    <name>Rando Fontenilles 2020 </name>
  </metadata>
  <trk>
    <name><![CDATA[une sortie à VTT]]></name>
    <trkseg>
      <trkpt lat="43.55298" lon="1.1719">
        <ele>213.629054</ele>
        <time>2020-09-20T06:32:27.000Z</time>
      </trkpt>
      <trkpt lat="43.55298" lon="1.17178">
        <ele>213.629054</ele>
        <time>2020-09-20T06:32:28.000Z</time>
      </trkpt>
      <trkpt lat="43.55303" lon="1.17143">
        <ele>213.629054</ele>
        <time>2020-09-20T06:32:34.000Z</time>
      </trkpt>
      <trkpt lat="43.55306" lon="1.17109">
        <ele>213.629054</ele>
        <time>2020-09-20T06:32:40.000Z</time>
      </trkpt>
      <trkpt lat="43.55307" lon="1.17098">
        <ele>213.629054</ele>
        <time>2020-09-20T06:32:43.000Z</time>
      </trkpt>
      <trkpt lat="43.5531" lon="1.17086">
        <ele>213.629054</ele>
        <time>2020-09-20T06:32:44.000Z</time>
      </trkpt>
      <trkpt lat="43.55312" lon="1.17075">
        <ele>213.629054</ele>
        <time>2020-09-20T06:32:46.000Z</time>
      </trkpt>
      <trkpt lat="43.55314" lon="1.17051">
        <ele>213.747561</ele>
        <time>2020-09-20T06:32:50.000Z</time>
      </trkpt>
      <trkpt lat="43.55319" lon="1.16989">
        <ele>214.177131</ele>
        <time>2020-09-20T06:33:00.000Z</time>
      </trkpt>
      <trkpt lat="43.55324" lon="1.16945">
        <ele>214.491744</ele>
        <time>2020-09-20T06:33:08.000Z</time>
      </trkpt>
      <trkpt lat="43.55327" lon="1.16929">
        <ele>214.603147</ele>
        <time>2020-09-20T06:33:11.000Z</time>
      </trkpt>
      <trkpt lat="43.55331" lon="1.16902">
        <ele>214.797658</ele>
        <time>2020-09-20T06:33:16.000Z</time>
      </trkpt>
      <trkpt lat="43.5533" lon="1.16878">
        <ele>214.962233</ele>
        <time>2020-09-20T06:33:20.000Z</time>
      </trkpt>
      <trkpt lat="43.5533" lon="1.16878">
        <ele>214.962233</ele>
        <time>2020-09-20T06:33:21.000Z</time>
      </trkpt>
      <trkpt lat="43.55338" lon="1.16837">
        <ele>215.260492</ele>
        <time>2020-09-20T06:33:27.000Z</time>
      </trkpt>
      <trkpt lat="43.55347" lon="1.16791">
        <ele>215.710607</ele>
        <time>2020-09-20T06:33:35.000Z</time>
      </trkpt>
      <trkpt lat="43.55348" lon="1.16786">
        <ele>215.773036</ele>
        <time>2020-09-20T06:33:36.000Z</time>
      </trkpt>
      <trkpt lat="43.5535" lon="1.16774">
        <ele>215.900029</ele>
        <time>2020-09-20T06:33:38.000Z</time>
      </trkpt>
      <trkpt lat="43.55359" lon="1.1674">
        <ele>216.286985</ele>
        <time>2020-09-20T06:33:45.000Z</time>
      </trkpt>
      <trkpt lat="43.55363" lon="1.16729">
        <ele>216.420027</ele>
        <time>2020-09-20T06:33:46.000Z</time>
      </trkpt>
      <trkpt lat="43.55368" lon="1.16719">
        <ele>216.55023</ele>
        <time>2020-09-20T06:33:49.000Z</time>
      </trkpt>
      <trkpt lat="43.55374" lon="1.1671">
        <ele>216.67195</ele>
        <time>2020-09-20T06:33:50.000Z</time>
      </trkpt>
      <trkpt lat="43.55381" lon="1.16698">
        <ele>216.841766</ele>
        <time>2020-09-20T06:33:53.000Z</time>
      </trkpt>
      <trkpt lat="43.55383" lon="1.16672">
        <ele>217.120247</ele>
        <time>2020-09-20T06:33:58.000Z</time>
      </trkpt>
      <trkpt lat="43.55384" lon="1.16667">
        <ele>217.178642</ele>
        <time>2020-09-20T06:33:59.000Z</time>
      </trkpt>
      <trkpt lat="43.5539" lon="1.16637">
        <ele>217.51506</ele>
        <time>2020-09-20T06:34:05.000Z</time>
      </trkpt>
      <trkpt lat="43.55394" lon="1.16623">
        <ele>217.665186</ele>
        <time>2020-09-20T06:34:08.000Z</time>
      </trkpt>
      <trkpt lat="43.55396" lon="1.16615">
        <ele>217.756801</ele>
        <time>2020-09-20T06:34:10.000Z</time>
      </trkpt>
      <trkpt lat="43.55401" lon="1.16595">
        <ele>217.984043</ele>
        <time>2020-09-20T06:34:14.000Z</time>
      </trkpt>
      <trkpt lat="43.55407" lon="1.16572">
        <ele>218.709143</ele>
        <time>2020-09-20T06:34:19.000Z</time>
      </trkpt>
      <trkpt lat="43.55413" lon="1.1655">
        <ele>219.41442</ele>
        <time>2020-09-20T06:34:22.000Z</time>
      </trkpt>
      <trkpt lat="43.55414" lon="1.16544">
        <ele>219.583915</ele>
        <time>2020-09-20T06:34:23.000Z</time>
      </trkpt>
      <trkpt lat="43.55412" lon="1.16529">
        <ele>220.054223</ele>
        <time>2020-09-20T06:34:26.000Z</time>
      </trkpt>
      <trkpt lat="43.5541" lon="1.16525">
        <ele>220.198322</ele>
        <time>2020-09-20T06:34:27.000Z</time>
      </trkpt>
      <trkpt lat="43.55408" lon="1.16517">
        <ele>220.448536</ele>
        <time>2020-09-20T06:34:29.000Z</time>
      </trkpt>
      <trkpt lat="43.55409" lon="1.16513">
        <ele>220.55383</ele>
        <time>2020-09-20T06:34:31.000Z</time>
      </trkpt>
      <trkpt lat="43.55408" lon="1.16508">
        <ele>220.729411</ele>
        <time>2020-09-20T06:34:32.000Z</time>
      </trkpt>
      <trkpt lat="43.55404" lon="1.16503">
        <ele>220.943482</ele>
        <time>2020-09-20T06:34:34.000Z</time>
      </trkpt>
      <trkpt lat="43.55398" lon="1.16501">
        <ele>221.184188</ele>
        <time>2020-09-20T06:34:36.000Z</time>
      </trkpt>
      <trkpt lat="43.55394" lon="1.16497">
        <ele>221.411335</ele>
        <time>2020-09-20T06:34:38.000Z</time>
      </trkpt>
      <trkpt lat="43.55392" lon="1.16488">
        <ele>221.684067</ele>
        <time>2020-09-20T06:34:40.000Z</time>
      </trkpt>
      <trkpt lat="43.55392" lon="1.16479">
        <ele>221.954741</ele>
        <time>2020-09-20T06:34:42.000Z</time>
      </trkpt>
      <trkpt lat="43.55398" lon="1.16459">
        <ele>222.589359</ele>
        <time>2020-09-20T06:34:47.000Z</time>
      </trkpt>
      <trkpt lat="43.55402" lon="1.1644">
        <ele>223.218306</ele>
        <time>2020-09-20T06:34:52.000Z</time>
      </trkpt>
      <trkpt lat="43.55404" lon="1.16433">
        <ele>223.427917</ele>
        <time>2020-09-20T06:34:54.000Z</time>
      </trkpt>
      <trkpt lat="43.55406" lon="1.16427">
        <ele>223.634619</ele>
        <time>2020-09-20T06:34:57.000Z</time>
      </trkpt>
      <trkpt lat="43.55408" lon="1.16421">
        <ele>223.832458</ele>
        <time>2020-09-20T06:34:58.000Z</time>
      </trkpt>
      <trkpt lat="43.55409" lon="1.16413">
        <ele>224.048453</ele>
        <time>2020-09-20T06:35:00.000Z</time>
      </trkpt>
      <trkpt lat="43.55412" lon="1.16403">
        <ele>224.388683</ele>
        <time>2020-09-20T06:35:04.000Z</time>
      </trkpt>
      <trkpt lat="43.55413" lon="1.164">
        <ele>224.501874</ele>
        <time>2020-09-20T06:35:07.000Z</time>
      </trkpt>
      <trkpt lat="43.55417" lon="1.16387">
        <ele>224.907888</ele>
        <time>2020-09-20T06:35:13.000Z</time>
      </trkpt>
      <trkpt lat="43.55419" lon="1.16379">
        <ele>225.183539</ele>
        <time>2020-09-20T06:35:18.000Z</time>
      </trkpt>
      <trkpt lat="43.5542" lon="1.16375">
        <ele>225.307897</ele>
        <time>2020-09-20T06:35:21.000Z</time>
      </trkpt>
      <trkpt lat="43.55424" lon="1.16362">
        <ele>225.821693</ele>
        <time>2020-09-20T06:35:26.000Z</time>
      </trkpt>
      <trkpt lat="43.55428" lon="1.16353">
        <ele>226.262132</ele>
        <time>2020-09-20T06:35:30.000Z</time>
      </trkpt>
      <trkpt lat="43.5543" lon="1.16349">
        <ele>226.46421</ele>
        <time>2020-09-20T06:35:32.000Z</time>
      </trkpt>
      <trkpt lat="43.5543" lon="1.16347">
        <ele>226.551817</ele>
        <time>2020-09-20T06:35:33.000Z</time>
      </trkpt>
      <trkpt lat="43.5543" lon="1.16342">
        <ele>226.761356</ele>
        <time>2020-09-20T06:35:36.000Z</time>
      </trkpt>
      <trkpt lat="43.55432" lon="1.1634">
        <ele>226.898918</ele>
        <time>2020-09-20T06:35:38.000Z</time>
      </trkpt>
      <trkpt lat="43.55433" lon="1.16339">
        <ele>226.975635</ele>
        <time>2020-09-20T06:35:40.000Z</time>
      </trkpt>
      <trkpt lat="43.55455" lon="1.16333">
        <ele>228.261706</ele>
        <time>2020-09-20T06:36:11.000Z</time>
      </trkpt>
      <trkpt lat="43.55458" lon="1.16331">
        <ele>228.432544</ele>
        <time>2020-09-20T06:36:12.000Z</time>
      </trkpt>
      <trkpt lat="43.55475" lon="1.1632">
        <ele>229.522144</ele>
        <time>2020-09-20T06:36:18.000Z</time>
      </trkpt>
      <trkpt lat="43.55485" lon="1.16311">
        <ele>230.19024</ele>
        <time>2020-09-20T06:36:22.000Z</time>
      </trkpt>
      <trkpt lat="43.55489" lon="1.16305">
        <ele>230.548243</ele>
        <time>2020-09-20T06:36:24.000Z</time>
      </trkpt>
      <trkpt lat="43.55489" lon="1.16305">
        <ele>230.548243</ele>
        <time>2020-09-20T06:36:25.000Z</time>
      </trkpt>
      <trkpt lat="43.55498" lon="1.16292">
        <ele>231.313257</ele>
        <time>2020-09-20T06:36:29.000Z</time>
      </trkpt>
      <trkpt lat="43.555" lon="1.1629">
        <ele>231.42014</ele>
        <time>2020-09-20T06:36:30.000Z</time>
      </trkpt>
      <trkpt lat="43.55503" lon="1.16288">
        <ele>231.632957</ele>
        <time>2020-09-20T06:36:33.000Z</time>
      </trkpt>
      <trkpt lat="43.55506" lon="1.16287">
        <ele>231.779027</ele>
        <time>2020-09-20T06:36:35.000Z</time>
      </trkpt>
      <trkpt lat="43.55515" lon="1.16291">
        <ele>232.366143</ele>
        <time>2020-09-20T06:36:43.000Z</time>
      </trkpt>
      <trkpt lat="43.55524" lon="1.1629">
        <ele>232.847477</ele>
        <time>2020-09-20T06:36:46.000Z</time>
      </trkpt>
      <trkpt lat="43.55526" lon="1.16284">
        <ele>233.126105</ele>
        <time>2020-09-20T06:36:49.000Z</time>
      </trkpt>
      <trkpt lat="43.55529" lon="1.16275">
        <ele>233.534783</ele>
        <time>2020-09-20T06:36:52.000Z</time>
      </trkpt>
      <trkpt lat="43.55529" lon="1.1627">
        <ele>233.744634</ele>
        <time>2020-09-20T06:36:54.000Z</time>
      </trkpt>
      <trkpt lat="43.55528" lon="1.16265">
        <ele>233.949371</ele>
        <time>2020-09-20T06:36:56.000Z</time>
      </trkpt>
      <trkpt lat="43.55531" lon="1.16258">
        <ele>234.284956</ele>
        <time>2020-09-20T06:36:59.000Z</time>
      </trkpt>
      <trkpt lat="43.55532" lon="1.16256">
        <ele>234.414036</ele>
        <time>2020-09-20T06:37:01.000Z</time>
      </trkpt>
      <trkpt lat="43.55541" lon="1.16247">
        <ele>234.999436</ele>
        <time>2020-09-20T06:37:05.000Z</time>
      </trkpt>
      <trkpt lat="43.55547" lon="1.16241">
        <ele>235.441948</ele>
        <time>2020-09-20T06:37:09.000Z</time>
      </trkpt>
      <trkpt lat="43.55553" lon="1.16231">
        <ele>235.923937</ele>
        <time>2020-09-20T06:37:13.000Z</time>
      </trkpt>
      <trkpt lat="43.55555" lon="1.16227">
        <ele>236.067534</ele>
        <time>2020-09-20T06:37:15.000Z</time>
      </trkpt>
      <trkpt lat="43.55559" lon="1.16223">
        <ele>236.254098</ele>
        <time>2020-09-20T06:37:16.000Z</time>
      </trkpt>
      <trkpt lat="43.55562" lon="1.16221">
        <ele>236.35501</ele>
        <time>2020-09-20T06:37:17.000Z</time>
      </trkpt>
      <trkpt lat="43.55566" lon="1.16215">
        <ele>236.602863</ele>
        <time>2020-09-20T06:37:21.000Z</time>
      </trkpt>
      <trkpt lat="43.5557" lon="1.1621">
        <ele>236.777516</ele>
        <time>2020-09-20T06:37:22.000Z</time>
      </trkpt>
      <trkpt lat="43.55572" lon="1.16208">
        <ele>236.870886</ele>
        <time>2020-09-20T06:37:23.000Z</time>
      </trkpt>
      <trkpt lat="43.55581" lon="1.16195">
        <ele>237.376133</ele>
        <time>2020-09-20T06:37:29.000Z</time>
      </trkpt>
      <trkpt lat="43.55583" lon="1.16193">
        <ele>237.458539</ele>
        <time>2020-09-20T06:37:30.000Z</time>
      </trkpt>
      <trkpt lat="43.55594" lon="1.16179">
        <ele>238.020978</ele>
        <time>2020-09-20T06:37:37.000Z</time>
      </trkpt>
      <trkpt lat="43.55598" lon="1.16175">
        <ele>238.201336</ele>
        <time>2020-09-20T06:37:39.000Z</time>
      </trkpt>
      <trkpt lat="43.55607" lon="1.16166">
        <ele>238.646131</ele>
        <time>2020-09-20T06:37:44.000Z</time>
      </trkpt>
      <trkpt lat="43.55607" lon="1.16166">
        <ele>238.646131</ele>
        <time>2020-09-20T06:37:45.000Z</time>
      </trkpt>
      <trkpt lat="43.55611" lon="1.16164">
        <ele>238.795766</ele>
        <time>2020-09-20T06:37:46.000Z</time>
      </trkpt>
      <trkpt lat="43.55622" lon="1.1615">
        <ele>239.364656</ele>
        <time>2020-09-20T06:37:52.000Z</time>
      </trkpt>
      <trkpt lat="43.55624" lon="1.16147">
        <ele>239.469301</ele>
        <time>2020-09-20T06:37:53.000Z</time>
      </trkpt>
      <trkpt lat="43.55627" lon="1.16139">
        <ele>239.701974</ele>
        <time>2020-09-20T06:37:56.000Z</time>
      </trkpt>
      <trkpt lat="43.55627" lon="1.16134">
        <ele>239.835548</ele>
        <time>2020-09-20T06:37:58.000Z</time>
      </trkpt>
      <trkpt lat="43.55629" lon="1.16131">
        <ele>239.953916</ele>
        <time>2020-09-20T06:38:01.000Z</time>
      </trkpt>
      <trkpt lat="43.55633" lon="1.16129">
        <ele>240.111478</ele>
        <time>2020-09-20T06:38:02.000Z</time>
      </trkpt>
      <trkpt lat="43.55641" lon="1.16119">
        <ele>240.504918</ele>
        <time>2020-09-20T06:38:07.000Z</time>
      </trkpt>
      <trkpt lat="43.5565" lon="1.16103">
        <ele>241.069832</ele>
        <time>2020-09-20T06:38:12.000Z</time>
      </trkpt>
      <trkpt lat="43.55654" lon="1.16099">
        <ele>241.241618</ele>
        <time>2020-09-20T06:38:14.000Z</time>
      </trkpt>
      <trkpt lat="43.55654" lon="1.16099">
        <ele>241.241618</ele>
        <time>2020-09-20T06:38:15.000Z</time>
      </trkpt>
      <trkpt lat="43.55665" lon="1.16088">
        <ele>241.738933</ele>
        <time>2020-09-20T06:38:21.000Z</time>
      </trkpt>
      <trkpt lat="43.55669" lon="1.16083">
        <ele>241.959369</ele>
        <time>2020-09-20T06:38:22.000Z</time>
      </trkpt>
      <trkpt lat="43.55674" lon="1.16077">
        <ele>242.205275</ele>
        <time>2020-09-20T06:38:25.000Z</time>
      </trkpt>
      <trkpt lat="43.55685" lon="1.16066">
        <ele>242.77642</ele>
        <time>2020-09-20T06:38:28.000Z</time>
      </trkpt>
      <trkpt lat="43.55687" lon="1.16063">
        <ele>242.934034</ele>
        <time>2020-09-20T06:38:29.000Z</time>
      </trkpt>
      <trkpt lat="43.55687" lon="1.16055">
        <ele>243.274699</ele>
        <time>2020-09-20T06:38:32.000Z</time>
      </trkpt>
      <trkpt lat="43.5569" lon="1.16044">
        <ele>243.733508</ele>
        <time>2020-09-20T06:38:37.000Z</time>
      </trkpt>
      <trkpt lat="43.5569" lon="1.16033">
        <ele>244.171845</ele>
        <time>2020-09-20T06:38:40.000Z</time>
      </trkpt>
      <trkpt lat="43.55688" lon="1.16024">
        <ele>244.57847</ele>
        <time>2020-09-20T06:38:44.000Z</time>
      </trkpt>
      <trkpt lat="43.55687" lon="1.16008">
        <ele>245.212236</ele>
        <time>2020-09-20T06:38:50.000Z</time>
      </trkpt>
      <trkpt lat="43.55687" lon="1.16008">
        <ele>245.212236</ele>
        <time>2020-09-20T06:38:51.000Z</time>
      </trkpt>
      <trkpt lat="43.55688" lon="1.16003">
        <ele>245.43488</ele>
        <time>2020-09-20T06:38:52.000Z</time>
      </trkpt>
      <trkpt lat="43.55689" lon="1.15997">
        <ele>245.671201</ele>
        <time>2020-09-20T06:38:55.000Z</time>
      </trkpt>
      <trkpt lat="43.55688" lon="1.15982">
        <ele>246.274406</ele>
        <time>2020-09-20T06:38:58.000Z</time>
      </trkpt>
      <trkpt lat="43.55689" lon="1.15978">
        <ele>246.442658</ele>
        <time>2020-09-20T06:38:59.000Z</time>
      </trkpt>
      <trkpt lat="43.55689" lon="1.15974">
        <ele>246.610074</ele>
        <time>2020-09-20T06:39:00.000Z</time>
      </trkpt>
      <trkpt lat="43.5569" lon="1.15965">
        <ele>246.981746</ele>
        <time>2020-09-20T06:39:03.000Z</time>
      </trkpt>
      <trkpt lat="43.5569" lon="1.15955">
        <ele>247.382729</ele>
        <time>2020-09-20T06:39:06.000Z</time>
      </trkpt>
      <trkpt lat="43.55689" lon="1.15944">
        <ele>247.844901</ele>
        <time>2020-09-20T06:39:10.000Z</time>
      </trkpt>
      <trkpt lat="43.55688" lon="1.15941">
        <ele>247.95376</ele>
        <time>2020-09-20T06:39:11.000Z</time>
      </trkpt>
      <trkpt lat="43.55689" lon="1.15938">
        <ele>248.058712</ele>
        <time>2020-09-20T06:39:13.000Z</time>
      </trkpt>
      <trkpt lat="43.55689" lon="1.15934">
        <ele>248.252887</ele>
        <time>2020-09-20T06:39:14.000Z</time>
      </trkpt>
      <trkpt lat="43.55689" lon="1.15934">
        <ele>248.252887</ele>
        <time>2020-09-20T06:39:15.000Z</time>
      </trkpt>
      <trkpt lat="43.55689" lon="1.15925">
        <ele>248.605002</ele>
        <time>2020-09-20T06:39:17.000Z</time>
      </trkpt>
      <trkpt lat="43.55693" lon="1.15921">
        <ele>248.880856</ele>
        <time>2020-09-20T06:39:20.000Z</time>
      </trkpt>
      <trkpt lat="43.55698" lon="1.15919">
        <ele>249.16085</ele>
        <time>2020-09-20T06:39:22.000Z</time>
      </trkpt>
      <trkpt lat="43.55701" lon="1.15916">
        <ele>249.358115</ele>
        <time>2020-09-20T06:39:24.000Z</time>
      </trkpt>
      <trkpt lat="43.55703" lon="1.15911">
        <ele>249.591434</ele>
        <time>2020-09-20T06:39:27.000Z</time>
      </trkpt>
      <trkpt lat="43.55704" lon="1.15905">
        <ele>249.859047</ele>
        <time>2020-09-20T06:39:30.000Z</time>
      </trkpt>
      <trkpt lat="43.55704" lon="1.15905">
        <ele>249.859047</ele>
        <time>2020-09-20T06:39:31.000Z</time>
      </trkpt>
      <trkpt lat="43.55703" lon="1.15894">
        <ele>250.303001</ele>
        <time>2020-09-20T06:39:34.000Z</time>
      </trkpt>
      <trkpt lat="43.55704" lon="1.15889">
        <ele>250.513056</ele>
        <time>2020-09-20T06:39:37.000Z</time>
      </trkpt>
      <trkpt lat="43.55703" lon="1.15884">
        <ele>250.709783</ele>
        <time>2020-09-20T06:39:38.000Z</time>
      </trkpt>
      <trkpt lat="43.557" lon="1.15874">
        <ele>251.134355</ele>
        <time>2020-09-20T06:39:43.000Z</time>
      </trkpt>
      <trkpt lat="43.55699" lon="1.15871">
        <ele>251.267986</ele>
        <time>2020-09-20T06:39:44.000Z</time>
      </trkpt>
      <trkpt lat="43.55699" lon="1.15871">
        <ele>251.267986</ele>
        <time>2020-09-20T06:39:45.000Z</time>
      </trkpt>
      <trkpt lat="43.55698" lon="1.15868">
        <ele>251.416477</ele>
        <time>2020-09-20T06:39:46.000Z</time>
      </trkpt>
      <trkpt lat="43.55698" lon="1.15863">
        <ele>251.603982</ele>
        <time>2020-09-20T06:39:48.000Z</time>
      </trkpt>
      <trkpt lat="43.55698" lon="1.15863">
        <ele>251.603982</ele>
        <time>2020-09-20T06:39:49.000Z</time>
      </trkpt>
      <trkpt lat="43.55695" lon="1.15856">
        <ele>251.91275</ele>
        <time>2020-09-20T06:39:52.000Z</time>
      </trkpt>
      <trkpt lat="43.55694" lon="1.15853">
        <ele>252.063594</ele>
        <time>2020-09-20T06:39:55.000Z</time>
      </trkpt>
      <trkpt lat="43.55691" lon="1.15847">
        <ele>252.342562</ele>
        <time>2020-09-20T06:39:58.000Z</time>
      </trkpt>
      <trkpt lat="43.55691" lon="1.15845">
        <ele>252.423691</ele>
        <time>2020-09-20T06:39:59.000Z</time>
      </trkpt>
      <trkpt lat="43.55688" lon="1.1584">
        <ele>252.777935</ele>
        <time>2020-09-20T06:40:03.000Z</time>
      </trkpt>
      <trkpt lat="43.55686" lon="1.15839">
        <ele>252.899555</ele>
        <time>2020-09-20T06:40:04.000Z</time>
      </trkpt>
      <trkpt lat="43.55683" lon="1.15839">
        <ele>253.221601</ele>
        <time>2020-09-20T06:40:07.000Z</time>
      </trkpt>
      <trkpt lat="43.55678" lon="1.15836">
        <ele>253.733044</ele>
        <time>2020-09-20T06:40:10.000Z</time>
      </trkpt>
      <trkpt lat="43.55677" lon="1.15834">
        <ele>253.888591</ele>
        <time>2020-09-20T06:40:11.000Z</time>
      </trkpt>
      <trkpt lat="43.55676" lon="1.15828">
        <ele>254.301393</ele>
        <time>2020-09-20T06:40:15.000Z</time>
      </trkpt>
      <trkpt lat="43.55676" lon="1.15822">
        <ele>254.6726</ele>
        <time>2020-09-20T06:40:17.000Z</time>
      </trkpt>
      <trkpt lat="43.55676" lon="1.1582">
        <ele>254.834357</ele>
        <time>2020-09-20T06:40:18.000Z</time>
      </trkpt>
      <trkpt lat="43.55677" lon="1.15816">
        <ele>255.105131</ele>
        <time>2020-09-20T06:40:20.000Z</time>
      </trkpt>
      <trkpt lat="43.55677" lon="1.15812">
        <ele>255.383205</ele>
        <time>2020-09-20T06:40:22.000Z</time>
      </trkpt>
      <trkpt lat="43.5568" lon="1.15804">
        <ele>255.966081</ele>
        <time>2020-09-20T06:40:26.000Z</time>
      </trkpt>
      <trkpt lat="43.55683" lon="1.158">
        <ele>256.326595</ele>
        <time>2020-09-20T06:40:28.000Z</time>
      </trkpt>
      <trkpt lat="43.55684" lon="1.15796">
        <ele>256.612856</ele>
        <time>2020-09-20T06:40:31.000Z</time>
      </trkpt>
      <trkpt lat="43.55686" lon="1.15791">
        <ele>257.011299</ele>
        <time>2020-09-20T06:40:33.000Z</time>
      </trkpt>
      <trkpt lat="43.55687" lon="1.15788">
        <ele>257.210461</ele>
        <time>2020-09-20T06:40:35.000Z</time>
      </trkpt>
      <trkpt lat="43.55688" lon="1.15786">
        <ele>257.353698</ele>
        <time>2020-09-20T06:40:36.000Z</time>
      </trkpt>
      <trkpt lat="43.55688" lon="1.15786">
        <ele>257.353698</ele>
        <time>2020-09-20T06:40:37.000Z</time>
      </trkpt>
      <trkpt lat="43.55693" lon="1.15773">
        <ele>258.315915</ele>
        <time>2020-09-20T06:40:43.000Z</time>
      </trkpt>
      <trkpt lat="43.55695" lon="1.15769">
        <ele>258.670089</ele>
        <time>2020-09-20T06:40:45.000Z</time>
      </trkpt>
      <trkpt lat="43.55699" lon="1.15761">
        <ele>259.323884</ele>
        <time>2020-09-20T06:40:49.000Z</time>
      </trkpt>
      <trkpt lat="43.55701" lon="1.15757">
        <ele>259.630469</ele>
        <time>2020-09-20T06:40:50.000Z</time>
      </trkpt>
      <trkpt lat="43.55706" lon="1.15746">
        <ele>260.482348</ele>
        <time>2020-09-20T06:40:56.000Z</time>
      </trkpt>
      <trkpt lat="43.55706" lon="1.15744">
        <ele>260.619494</ele>
        <time>2020-09-20T06:40:57.000Z</time>
      </trkpt>
      <trkpt lat="43.55707" lon="1.15743">
        <ele>260.748357</ele>
        <time>2020-09-20T06:40:58.000Z</time>
      </trkpt>
      <trkpt lat="43.55709" lon="1.15739">
        <ele>261.037775</ele>
        <time>2020-09-20T06:41:01.000Z</time>
      </trkpt>
      <trkpt lat="43.55713" lon="1.15734">
        <ele>261.558243</ele>
        <time>2020-09-20T06:41:04.000Z</time>
      </trkpt>
      <trkpt lat="43.55716" lon="1.1573">
        <ele>261.870887</ele>
        <time>2020-09-20T06:41:06.000Z</time>
      </trkpt>
      <trkpt lat="43.55716" lon="1.1573">
        <ele>261.870887</ele>
        <time>2020-09-20T06:41:07.000Z</time>
      </trkpt>
      <trkpt lat="43.55722" lon="1.15724">
        <ele>262.588734</ele>
        <time>2020-09-20T06:41:11.000Z</time>
      </trkpt>
      <trkpt lat="43.55724" lon="1.15718">
        <ele>262.993221</ele>
        <time>2020-09-20T06:41:14.000Z</time>
      </trkpt>
      <trkpt lat="43.55724" lon="1.15711">
        <ele>263.469746</ele>
        <time>2020-09-20T06:41:17.000Z</time>
      </trkpt>
      <trkpt lat="43.55723" lon="1.15704">
        <ele>263.976699</ele>
        <time>2020-09-20T06:41:20.000Z</time>
      </trkpt>
      <trkpt lat="43.55723" lon="1.157">
        <ele>264.201868</ele>
        <time>2020-09-20T06:41:22.000Z</time>
      </trkpt>
      <trkpt lat="43.55724" lon="1.15696">
        <ele>264.491686</ele>
        <time>2020-09-20T06:41:24.000Z</time>
      </trkpt>
      <trkpt lat="43.55724" lon="1.15696">
        <ele>264.491686</ele>
        <time>2020-09-20T06:41:25.000Z</time>
      </trkpt>
      <trkpt lat="43.55724" lon="1.15693">
        <ele>264.704222</ele>
        <time>2020-09-20T06:41:26.000Z</time>
      </trkpt>
      <trkpt lat="43.55724" lon="1.15692">
        <ele>264.779264</ele>
        <time>2020-09-20T06:41:28.000Z</time>
      </trkpt>
      <trkpt lat="43.55721" lon="1.15684">
        <ele>265.41153</ele>
        <time>2020-09-20T06:41:37.000Z</time>
      </trkpt>
      <trkpt lat="43.55721" lon="1.15679">
        <ele>265.737823</ele>
        <time>2020-09-20T06:41:38.000Z</time>
      </trkpt>
      <trkpt lat="43.5572" lon="1.15676">
        <ele>265.913705</ele>
        <time>2020-09-20T06:41:39.000Z</time>
      </trkpt>
      <trkpt lat="43.55717" lon="1.15672">
        <ele>266.319781</ele>
        <time>2020-09-20T06:41:41.000Z</time>
      </trkpt>
      <trkpt lat="43.55715" lon="1.15671">
        <ele>266.542053</ele>
        <time>2020-09-20T06:41:42.000Z</time>
      </trkpt>
      <trkpt lat="43.55702" lon="1.1566">
        <ele>267.896363</ele>
        <time>2020-09-20T06:41:48.000Z</time>
      </trkpt>
      <trkpt lat="43.55698" lon="1.15655">
        <ele>268.426179</ele>
        <time>2020-09-20T06:41:50.000Z</time>
      </trkpt>
      <trkpt lat="43.55698" lon="1.15646">
        <ele>269.022848</ele>
        <time>2020-09-20T06:41:52.000Z</time>
      </trkpt>
      <trkpt lat="43.55701" lon="1.15637">
        <ele>269.528732</ele>
        <time>2020-09-20T06:41:54.000Z</time>
      </trkpt>
      <trkpt lat="43.55701" lon="1.15637">
        <ele>269.528732</ele>
        <time>2020-09-20T06:41:55.000Z</time>
      </trkpt>
      <trkpt lat="43.55705" lon="1.15626">
        <ele>270.175372</ele>
        <time>2020-09-20T06:41:57.000Z</time>
      </trkpt>
      <trkpt lat="43.55707" lon="1.15623">
        <ele>270.371842</ele>
        <time>2020-09-20T06:41:58.000Z</time>
      </trkpt>
      <trkpt lat="43.55709" lon="1.15617">
        <ele>270.757485</ele>
        <time>2020-09-20T06:42:01.000Z</time>
      </trkpt>
      <trkpt lat="43.55715" lon="1.15601">
        <ele>271.669713</ele>
        <time>2020-09-20T06:42:05.000Z</time>
      </trkpt>
      <trkpt lat="43.55718" lon="1.15593">
        <ele>272.197332</ele>
        <time>2020-09-20T06:42:08.000Z</time>
      </trkpt>
      <trkpt lat="43.55723" lon="1.15581">
        <ele>272.878904</ele>
        <time>2020-09-20T06:42:12.000Z</time>
      </trkpt>
      <trkpt lat="43.55726" lon="1.15572">
        <ele>273.38702</ele>
        <time>2020-09-20T06:42:15.000Z</time>
      </trkpt>
      <trkpt lat="43.55727" lon="1.15569">
        <ele>273.559064</ele>
        <time>2020-09-20T06:42:16.000Z</time>
      </trkpt>
      <trkpt lat="43.55729" lon="1.15564">
        <ele>273.891931</ele>
        <time>2020-09-20T06:42:19.000Z</time>
      </trkpt>
      <trkpt lat="43.55734" lon="1.15546">
        <ele>274.880079</ele>
        <time>2020-09-20T06:42:24.000Z</time>
      </trkpt>
      <trkpt lat="43.55738" lon="1.15533">
        <ele>275.625275</ele>
        <time>2020-09-20T06:42:29.000Z</time>
      </trkpt>
      <trkpt lat="43.55741" lon="1.15526">
        <ele>276.092857</ele>
        <time>2020-09-20T06:42:32.000Z</time>
      </trkpt>
      <trkpt lat="43.55743" lon="1.15523">
        <ele>276.272965</ele>
        <time>2020-09-20T06:42:33.000Z</time>
      </trkpt>
      <trkpt lat="43.55748" lon="1.1551">
        <ele>277.04478</ele>
        <time>2020-09-20T06:42:38.000Z</time>
      </trkpt>
      <trkpt lat="43.55749" lon="1.15508">
        <ele>277.211257</ele>
        <time>2020-09-20T06:42:40.000Z</time>
      </trkpt>
      <trkpt lat="43.55749" lon="1.15508">
        <ele>277.22177</ele>
        <time>2020-09-20T06:42:42.000Z</time>
      </trkpt>
      <trkpt lat="43.55751" lon="1.15502">
        <ele>277.526409</ele>
        <time>2020-09-20T06:43:12.000Z</time>
      </trkpt>
      <trkpt lat="43.55753" lon="1.15497">
        <ele>277.815706</ele>
        <time>2020-09-20T06:43:14.000Z</time>
      </trkpt>
      <trkpt lat="43.55753" lon="1.15497">
        <ele>277.815706</ele>
        <time>2020-09-20T06:43:15.000Z</time>
      </trkpt>
      <trkpt lat="43.55755" lon="1.15486">
        <ele>278.434625</ele>
        <time>2020-09-20T06:43:19.000Z</time>
      </trkpt>
      <trkpt lat="43.55757" lon="1.15481">
        <ele>278.746132</ele>
        <time>2020-09-20T06:43:20.000Z</time>
      </trkpt>
      <trkpt lat="43.55758" lon="1.15478">
        <ele>278.907129</ele>
        <time>2020-09-20T06:43:21.000Z</time>
      </trkpt>
      <trkpt lat="43.55763" lon="1.15456">
        <ele>280.088945</ele>
        <time>2020-09-20T06:43:28.000Z</time>
      </trkpt>
      <trkpt lat="43.55763" lon="1.15453">
        <ele>280.269673</ele>
        <time>2020-09-20T06:43:29.000Z</time>
      </trkpt>
      <trkpt lat="43.55765" lon="1.15429">
        <ele>281.546396</ele>
        <time>2020-09-20T06:43:37.000Z</time>
      </trkpt>
      <trkpt lat="43.55764" lon="1.15422">
        <ele>281.907477</ele>
        <time>2020-09-20T06:43:38.000Z</time>
      </trkpt>
      <trkpt lat="43.55755" lon="1.15409">
        <ele>281.581556</ele>
        <time>2020-09-20T06:43:44.000Z</time>
      </trkpt>
      <trkpt lat="43.55746" lon="1.15405">
        <ele>281.111802</ele>
        <time>2020-09-20T06:43:49.000Z</time>
      </trkpt>
      <trkpt lat="43.55742" lon="1.15403">
        <ele>280.879245</ele>
        <time>2020-09-20T06:43:51.000Z</time>
      </trkpt>
      <trkpt lat="43.55738" lon="1.15397">
        <ele>280.597884</ele>
        <time>2020-09-20T06:43:52.000Z</time>
      </trkpt>
      <trkpt lat="43.55737" lon="1.15391">
        <ele>280.401445</ele>
        <time>2020-09-20T06:43:53.000Z</time>
      </trkpt>
      <trkpt lat="43.55735" lon="1.15385">
        <ele>280.172815</ele>
        <time>2020-09-20T06:43:54.000Z</time>
      </trkpt>
      <trkpt lat="43.55733" lon="1.15372">
        <ele>279.683336</ele>
        <time>2020-09-20T06:43:56.000Z</time>
      </trkpt>
      <trkpt lat="43.5573" lon="1.15359">
        <ele>279.234175</ele>
        <time>2020-09-20T06:43:58.000Z</time>
      </trkpt>
      <trkpt lat="43.55726" lon="1.15345">
        <ele>278.695929</ele>
        <time>2020-09-20T06:44:00.000Z</time>
      </trkpt>
      <trkpt lat="43.55726" lon="1.15345">
        <ele>278.695929</ele>
        <time>2020-09-20T06:44:01.000Z</time>
      </trkpt>
      <trkpt lat="43.55724" lon="1.15328">
        <ele>278.089779</ele>
        <time>2020-09-20T06:44:02.000Z</time>
      </trkpt>
      <trkpt lat="43.55721" lon="1.15311">
        <ele>277.471041</ele>
        <time>2020-09-20T06:44:04.000Z</time>
      </trkpt>
      <trkpt lat="43.55718" lon="1.15295">
        <ele>276.901161</ele>
        <time>2020-09-20T06:44:06.000Z</time>
      </trkpt>
      <trkpt lat="43.55716" lon="1.15288">
        <ele>276.656421</ele>
        <time>2020-09-20T06:44:09.000Z</time>
      </trkpt>
      <trkpt lat="43.55716" lon="1.15287">
        <ele>276.613204</ele>
        <time>2020-09-20T06:44:10.000Z</time>
      </trkpt>
      <trkpt lat="43.55714" lon="1.15278">
        <ele>276.284686</ele>
        <time>2020-09-20T06:44:30.000Z</time>
      </trkpt>
      <trkpt lat="43.55714" lon="1.15276">
        <ele>276.188813</ele>
        <time>2020-09-20T06:44:32.000Z</time>
      </trkpt>
      <trkpt lat="43.55714" lon="1.15276">
        <ele>276.182832</ele>
        <time>2020-09-20T06:44:33.000Z</time>
      </trkpt>
      <trkpt lat="43.55714" lon="1.15268">
        <ele>275.922697</ele>
        <time>2020-09-20T06:44:51.000Z</time>
      </trkpt>
      <trkpt lat="43.55713" lon="1.15262">
        <ele>275.704225</ele>
        <time>2020-09-20T06:44:53.000Z</time>
      </trkpt>
      <trkpt lat="43.55713" lon="1.15242">
        <ele>274.998479</ele>
        <time>2020-09-20T06:44:59.000Z</time>
      </trkpt>
      <trkpt lat="43.55713" lon="1.15214">
        <ele>274.005145</ele>
        <time>2020-09-20T06:45:06.000Z</time>
      </trkpt>
      <trkpt lat="43.5571" lon="1.15185">
        <ele>272.903997</ele>
        <time>2020-09-20T06:45:13.000Z</time>
      </trkpt>
      <trkpt lat="43.55704" lon="1.15154">
        <ele>271.458643</ele>
        <time>2020-09-20T06:45:19.000Z</time>
      </trkpt>
      <trkpt lat="43.55701" lon="1.15127">
        <ele>270.264808</ele>
        <time>2020-09-20T06:45:22.000Z</time>
      </trkpt>
      <trkpt lat="43.55699" lon="1.15112">
        <ele>269.580761</ele>
        <time>2020-09-20T06:45:24.000Z</time>
      </trkpt>
      <trkpt lat="43.55695" lon="1.15082">
        <ele>268.227621</ele>
        <time>2020-09-20T06:45:28.000Z</time>
      </trkpt>
      <trkpt lat="43.55694" lon="1.1507">
        <ele>267.676057</ele>
        <time>2020-09-20T06:45:30.000Z</time>
      </trkpt>
      <trkpt lat="43.55694" lon="1.1507">
        <ele>267.676057</ele>
        <time>2020-09-20T06:45:31.000Z</time>
      </trkpt>
      <trkpt lat="43.55693" lon="1.15061">
        <ele>267.280203</ele>
        <time>2020-09-20T06:45:33.000Z</time>
      </trkpt>
      <trkpt lat="43.55692" lon="1.15057">
        <ele>267.083196</ele>
        <time>2020-09-20T06:45:34.000Z</time>
      </trkpt>
      <trkpt lat="43.55692" lon="1.15056">
        <ele>267.03821</ele>
        <time>2020-09-20T06:45:37.000Z</time>
      </trkpt>
      <trkpt lat="43.55691" lon="1.15054">
        <ele>266.915133</ele>
        <time>2020-09-20T06:46:13.000Z</time>
      </trkpt>
      <trkpt lat="43.55688" lon="1.15052">
        <ele>266.702774</ele>
        <time>2020-09-20T06:46:14.000Z</time>
      </trkpt>
      <trkpt lat="43.55677" lon="1.15053">
        <ele>266.050405</ele>
        <time>2020-09-20T06:46:18.000Z</time>
      </trkpt>
      <trkpt lat="43.55661" lon="1.15059">
        <ele>265.009155</ele>
        <time>2020-09-20T06:46:22.000Z</time>
      </trkpt>
      <trkpt lat="43.55656" lon="1.15061">
        <ele>264.709216</ele>
        <time>2020-09-20T06:46:23.000Z</time>
      </trkpt>
      <trkpt lat="43.55651" lon="1.15063">
        <ele>264.374762</ele>
        <time>2020-09-20T06:46:24.000Z</time>
      </trkpt>
      <trkpt lat="43.5564" lon="1.15068">
        <ele>263.669822</ele>
        <time>2020-09-20T06:46:27.000Z</time>
      </trkpt>
      <trkpt lat="43.55622" lon="1.15077">
        <ele>262.48528</ele>
        <time>2020-09-20T06:46:29.000Z</time>
      </trkpt>
      <trkpt lat="43.55615" lon="1.15079">
        <ele>261.896321</ele>
        <time>2020-09-20T06:46:30.000Z</time>
      </trkpt>
      <trkpt lat="43.55601" lon="1.15084">
        <ele>260.51533</ele>
        <time>2020-09-20T06:46:32.000Z</time>
      </trkpt>
      <trkpt lat="43.55601" lon="1.15084">
        <ele>260.51533</ele>
        <time>2020-09-20T06:46:33.000Z</time>
      </trkpt>
      <trkpt lat="43.55579" lon="1.15091">
        <ele>258.416321</ele>
        <time>2020-09-20T06:46:35.000Z</time>
      </trkpt>
      <trkpt lat="43.55572" lon="1.15093">
        <ele>257.732963</ele>
        <time>2020-09-20T06:46:36.000Z</time>
      </trkpt>
      <trkpt lat="43.55572" lon="1.15093">
        <ele>257.732963</ele>
        <time>2020-09-20T06:46:37.000Z</time>
      </trkpt>
      <trkpt lat="43.55558" lon="1.15098">
        <ele>256.389514</ele>
        <time>2020-09-20T06:46:38.000Z</time>
      </trkpt>
      <trkpt lat="43.55551" lon="1.15099">
        <ele>255.728765</ele>
        <time>2020-09-20T06:46:39.000Z</time>
      </trkpt>
      <trkpt lat="43.55544" lon="1.15101">
        <ele>255.052863</ele>
        <time>2020-09-20T06:46:40.000Z</time>
      </trkpt>
      <trkpt lat="43.5553" lon="1.15105">
        <ele>253.679782</ele>
        <time>2020-09-20T06:46:42.000Z</time>
      </trkpt>
      <trkpt lat="43.55516" lon="1.15109">
        <ele>252.286331</ele>
        <time>2020-09-20T06:46:44.000Z</time>
      </trkpt>
      <trkpt lat="43.55508" lon="1.15111">
        <ele>251.562619</ele>
        <time>2020-09-20T06:46:45.000Z</time>
      </trkpt>
      <trkpt lat="43.55501" lon="1.15113">
        <ele>250.856133</ele>
        <time>2020-09-20T06:46:46.000Z</time>
      </trkpt>
      <trkpt lat="43.55486" lon="1.15117">
        <ele>249.425974</ele>
        <time>2020-09-20T06:46:48.000Z</time>
      </trkpt>
      <trkpt lat="43.55486" lon="1.15117">
        <ele>249.425974</ele>
        <time>2020-09-20T06:46:49.000Z</time>
      </trkpt>
      <trkpt lat="43.5547" lon="1.15121">
        <ele>247.909508</ele>
        <time>2020-09-20T06:46:50.000Z</time>
      </trkpt>
      <trkpt lat="43.55454" lon="1.15125">
        <ele>246.360838</ele>
        <time>2020-09-20T06:46:52.000Z</time>
      </trkpt>
      <trkpt lat="43.55438" lon="1.1513">
        <ele>244.943688</ele>
        <time>2020-09-20T06:46:54.000Z</time>
      </trkpt>
      <trkpt lat="43.55438" lon="1.1513">
        <ele>244.943688</ele>
        <time>2020-09-20T06:46:55.000Z</time>
      </trkpt>
      <trkpt lat="43.55404" lon="1.15141">
        <ele>242.767277</ele>
        <time>2020-09-20T06:46:58.000Z</time>
      </trkpt>
      <trkpt lat="43.55387" lon="1.15146">
        <ele>241.644117</ele>
        <time>2020-09-20T06:47:00.000Z</time>
      </trkpt>
      <trkpt lat="43.55387" lon="1.15146">
        <ele>241.644117</ele>
        <time>2020-09-20T06:47:01.000Z</time>
      </trkpt>
      <trkpt lat="43.55369" lon="1.15151">
        <ele>240.481247</ele>
        <time>2020-09-20T06:47:02.000Z</time>
      </trkpt>
      <trkpt lat="43.5535" lon="1.15156">
        <ele>239.275307</ele>
        <time>2020-09-20T06:47:04.000Z</time>
      </trkpt>
      <trkpt lat="43.55331" lon="1.15161">
        <ele>238.08153</ele>
        <time>2020-09-20T06:47:06.000Z</time>
      </trkpt>
      <trkpt lat="43.55312" lon="1.15166">
        <ele>236.861397</ele>
        <time>2020-09-20T06:47:08.000Z</time>
      </trkpt>
      <trkpt lat="43.55293" lon="1.15171">
        <ele>235.625534</ele>
        <time>2020-09-20T06:47:10.000Z</time>
      </trkpt>
      <trkpt lat="43.55273" lon="1.15176">
        <ele>234.375571</ele>
        <time>2020-09-20T06:47:12.000Z</time>
      </trkpt>
      <trkpt lat="43.55254" lon="1.15182">
        <ele>233.247294</ele>
        <time>2020-09-20T06:47:14.000Z</time>
      </trkpt>
      <trkpt lat="43.55226" lon="1.1519">
        <ele>231.687637</ele>
        <time>2020-09-20T06:47:17.000Z</time>
      </trkpt>
      <trkpt lat="43.55207" lon="1.15195">
        <ele>230.664589</ele>
        <time>2020-09-20T06:47:19.000Z</time>
      </trkpt>
      <trkpt lat="43.55179" lon="1.15201">
        <ele>229.123235</ele>
        <time>2020-09-20T06:47:22.000Z</time>
      </trkpt>
      <trkpt lat="43.5517" lon="1.15201">
        <ele>228.646012</ele>
        <time>2020-09-20T06:47:23.000Z</time>
      </trkpt>
      <trkpt lat="43.55163" lon="1.15199">
        <ele>228.237834</ele>
        <time>2020-09-20T06:47:24.000Z</time>
      </trkpt>
      <trkpt lat="43.55163" lon="1.15199">
        <ele>228.237834</ele>
        <time>2020-09-20T06:47:25.000Z</time>
      </trkpt>
      <trkpt lat="43.55153" lon="1.15193">
        <ele>227.633064</ele>
        <time>2020-09-20T06:47:26.000Z</time>
      </trkpt>
      <trkpt lat="43.55153" lon="1.15193">
        <ele>227.633064</ele>
        <time>2020-09-20T06:47:27.000Z</time>
      </trkpt>
      <trkpt lat="43.55148" lon="1.15184">
        <ele>227.222536</ele>
        <time>2020-09-20T06:47:28.000Z</time>
      </trkpt>
      <trkpt lat="43.55146" lon="1.15176">
        <ele>226.895399</ele>
        <time>2020-09-20T06:47:30.000Z</time>
      </trkpt>
      <trkpt lat="43.55141" lon="1.1517">
        <ele>226.496018</ele>
        <time>2020-09-20T06:47:32.000Z</time>
      </trkpt>
      <trkpt lat="43.55137" lon="1.15167">
        <ele>226.249958</ele>
        <time>2020-09-20T06:47:33.000Z</time>
      </trkpt>
      <trkpt lat="43.55112" lon="1.15146">
        <ele>224.682224</ele>
        <time>2020-09-20T06:47:38.000Z</time>
      </trkpt>
      <trkpt lat="43.55096" lon="1.15134">
        <ele>224.117142</ele>
        <time>2020-09-20T06:47:41.000Z</time>
      </trkpt>
      <trkpt lat="43.55062" lon="1.15106">
        <ele>223.66552</ele>
        <time>2020-09-20T06:47:48.000Z</time>
      </trkpt>
      <trkpt lat="43.55041" lon="1.15089">
        <ele>223.395931</ele>
        <time>2020-09-20T06:47:53.000Z</time>
      </trkpt>
      <trkpt lat="43.55038" lon="1.15087">
        <ele>223.349657</ele>
        <time>2020-09-20T06:47:54.000Z</time>
      </trkpt>
      <trkpt lat="43.55032" lon="1.15088">
        <ele>223.279669</ele>
        <time>2020-09-20T06:47:56.000Z</time>
      </trkpt>
      <trkpt lat="43.55027" lon="1.15092">
        <ele>223.217957</ele>
        <time>2020-09-20T06:47:58.000Z</time>
      </trkpt>
      <trkpt lat="43.55019" lon="1.1509">
        <ele>223.127052</ele>
        <time>2020-09-20T06:48:00.000Z</time>
      </trkpt>
      <trkpt lat="43.5501" lon="1.15086">
        <ele>223.018123</ele>
        <time>2020-09-20T06:48:02.000Z</time>
      </trkpt>
      <trkpt lat="43.5499" lon="1.15074">
        <ele>222.772576</ele>
        <time>2020-09-20T06:48:06.000Z</time>
      </trkpt>
      <trkpt lat="43.54956" lon="1.15053">
        <ele>222.360924</ele>
        <time>2020-09-20T06:48:13.000Z</time>
      </trkpt>
      <trkpt lat="43.54953" lon="1.1505">
        <ele>222.309568</ele>
        <time>2020-09-20T06:48:14.000Z</time>
      </trkpt>
      <trkpt lat="43.54946" lon="1.15037">
        <ele>222.187146</ele>
        <time>2020-09-20T06:48:17.000Z</time>
      </trkpt>
      <trkpt lat="43.54936" lon="1.15015">
        <ele>222.095364</ele>
        <time>2020-09-20T06:48:22.000Z</time>
      </trkpt>
      <trkpt lat="43.54914" lon="1.15001">
        <ele>221.981067</ele>
        <time>2020-09-20T06:48:26.000Z</time>
      </trkpt>
      <trkpt lat="43.54859" lon="1.14975">
        <ele>221.709009</ele>
        <time>2020-09-20T06:48:35.000Z</time>
      </trkpt>
      <trkpt lat="43.54853" lon="1.14973">
        <ele>221.680241</ele>
        <time>2020-09-20T06:48:37.000Z</time>
      </trkpt>
      <trkpt lat="43.5483" lon="1.14963">
        <ele>221.561983</ele>
        <time>2020-09-20T06:48:40.000Z</time>
      </trkpt>
      <trkpt lat="43.54817" lon="1.14959">
        <ele>221.502006</ele>
        <time>2020-09-20T06:48:42.000Z</time>
      </trkpt>
      <trkpt lat="43.54771" lon="1.14943">
        <ele>221.383806</ele>
        <time>2020-09-20T06:48:50.000Z</time>
      </trkpt>
      <trkpt lat="43.54749" lon="1.14934">
        <ele>221.465316</ele>
        <time>2020-09-20T06:48:55.000Z</time>
      </trkpt>
      <trkpt lat="43.54737" lon="1.14928">
        <ele>221.507628</ele>
        <time>2020-09-20T06:48:56.000Z</time>
      </trkpt>
      <trkpt lat="43.54715" lon="1.14917">
        <ele>221.591933</ele>
        <time>2020-09-20T06:49:01.000Z</time>
      </trkpt>
      <trkpt lat="43.54682" lon="1.14901">
        <ele>221.712958</ele>
        <time>2020-09-20T06:49:06.000Z</time>
      </trkpt>
      <trkpt lat="43.54682" lon="1.14901">
        <ele>221.712958</ele>
        <time>2020-09-20T06:49:07.000Z</time>
      </trkpt>
      <trkpt lat="43.54653" lon="1.14888">
        <ele>221.819601</ele>
        <time>2020-09-20T06:49:12.000Z</time>
      </trkpt>
      <trkpt lat="43.5465" lon="1.14886">
        <ele>221.830458</ele>
        <time>2020-09-20T06:49:14.000Z</time>
      </trkpt>
      <trkpt lat="43.54649" lon="1.14886">
        <ele>221.834282</ele>
        <time>2020-09-20T06:49:15.000Z</time>
      </trkpt>
      <trkpt lat="43.54641" lon="1.1489">
        <ele>221.861778</ele>
        <time>2020-09-20T06:49:18.000Z</time>
      </trkpt>
      <trkpt lat="43.54636" lon="1.14904">
        <ele>221.902512</ele>
        <time>2020-09-20T06:49:21.000Z</time>
      </trkpt>
      <trkpt lat="43.54632" lon="1.14916">
        <ele>221.935335</ele>
        <time>2020-09-20T06:49:24.000Z</time>
      </trkpt>
      <trkpt lat="43.54629" lon="1.14924">
        <ele>221.956872</ele>
        <time>2020-09-20T06:49:26.000Z</time>
      </trkpt>
      <trkpt lat="43.54618" lon="1.14948">
        <ele>221.998384</ele>
        <time>2020-09-20T06:49:32.000Z</time>
      </trkpt>
      <trkpt lat="43.54608" lon="1.14973">
        <ele>222.036171</ele>
        <time>2020-09-20T06:49:38.000Z</time>
      </trkpt>
      <trkpt lat="43.54604" lon="1.15004">
        <ele>222.077323</ele>
        <time>2020-09-20T06:49:44.000Z</time>
      </trkpt>
      <trkpt lat="43.54603" lon="1.15023">
        <ele>222.103303</ele>
        <time>2020-09-20T06:49:49.000Z</time>
      </trkpt>
      <trkpt lat="43.54601" lon="1.15034">
        <ele>222.118154</ele>
        <time>2020-09-20T06:49:50.000Z</time>
      </trkpt>
      <trkpt lat="43.546" lon="1.15051">
        <ele>222.141207</ele>
        <time>2020-09-20T06:49:53.000Z</time>
      </trkpt>
      <trkpt lat="43.54599" lon="1.15057">
        <ele>222.149122</ele>
        <time>2020-09-20T06:49:55.000Z</time>
      </trkpt>
      <trkpt lat="43.54597" lon="1.15069">
        <ele>222.165658</ele>
        <time>2020-09-20T06:49:56.000Z</time>
      </trkpt>
      <trkpt lat="43.54592" lon="1.15081">
        <ele>222.183106</ele>
        <time>2020-09-20T06:49:58.000Z</time>
      </trkpt>
      <trkpt lat="43.54587" lon="1.15091">
        <ele>222.199455</ele>
        <time>2020-09-20T06:50:00.000Z</time>
      </trkpt>
      <trkpt lat="43.54579" lon="1.1509">
        <ele>222.214749</ele>
        <time>2020-09-20T06:50:02.000Z</time>
      </trkpt>
      <trkpt lat="43.5457" lon="1.15073">
        <ele>222.241748</ele>
        <time>2020-09-20T06:50:05.000Z</time>
      </trkpt>
      <trkpt lat="43.54567" lon="1.15067">
        <ele>222.252076</ele>
        <time>2020-09-20T06:50:06.000Z</time>
      </trkpt>
      <trkpt lat="43.54559" lon="1.15055">
        <ele>222.273389</ele>
        <time>2020-09-20T06:50:08.000Z</time>
      </trkpt>
      <trkpt lat="43.54551" lon="1.15044">
        <ele>222.298707</ele>
        <time>2020-09-20T06:50:10.000Z</time>
      </trkpt>
      <trkpt lat="43.54546" lon="1.1504">
        <ele>222.386162</ele>
        <time>2020-09-20T06:50:11.000Z</time>
      </trkpt>
      <trkpt lat="43.54535" lon="1.15026">
        <ele>222.618426</ele>
        <time>2020-09-20T06:50:14.000Z</time>
      </trkpt>
      <trkpt lat="43.54525" lon="1.1501">
        <ele>222.853051</ele>
        <time>2020-09-20T06:50:17.000Z</time>
      </trkpt>
      <trkpt lat="43.54521" lon="1.15005">
        <ele>222.928315</ele>
        <time>2020-09-20T06:50:19.000Z</time>
      </trkpt>
      <trkpt lat="43.54496" lon="1.14962">
        <ele>223.546169</ele>
        <time>2020-09-20T06:50:26.000Z</time>
      </trkpt>
      <trkpt lat="43.54477" lon="1.1492">
        <ele>224.100471</ele>
        <time>2020-09-20T06:50:33.000Z</time>
      </trkpt>
      <trkpt lat="43.54462" lon="1.14882">
        <ele>224.580969</ele>
        <time>2020-09-20T06:50:39.000Z</time>
      </trkpt>
      <trkpt lat="43.54448" lon="1.14853">
        <ele>224.973661</ele>
        <time>2020-09-20T06:50:44.000Z</time>
      </trkpt>
      <trkpt lat="43.54441" lon="1.14842">
        <ele>225.107372</ele>
        <time>2020-09-20T06:50:46.000Z</time>
      </trkpt>
      <trkpt lat="43.54438" lon="1.14837">
        <ele>225.161486</ele>
        <time>2020-09-20T06:50:47.000Z</time>
      </trkpt>
      <trkpt lat="43.54414" lon="1.148">
        <ele>225.525445</ele>
        <time>2020-09-20T06:50:54.000Z</time>
      </trkpt>
      <trkpt lat="43.54392" lon="1.14769">
        <ele>225.845296</ele>
        <time>2020-09-20T06:51:00.000Z</time>
      </trkpt>
      <trkpt lat="43.5438" lon="1.14758">
        <ele>225.990625</ele>
        <time>2020-09-20T06:51:03.000Z</time>
      </trkpt>
      <trkpt lat="43.54366" lon="1.14746">
        <ele>226.1573</ele>
        <time>2020-09-20T06:51:06.000Z</time>
      </trkpt>
      <trkpt lat="43.54353" lon="1.14732">
        <ele>226.322603</ele>
        <time>2020-09-20T06:51:09.000Z</time>
      </trkpt>
      <trkpt lat="43.54341" lon="1.1472">
        <ele>226.478209</ele>
        <time>2020-09-20T06:51:12.000Z</time>
      </trkpt>
      <trkpt lat="43.54324" lon="1.14705">
        <ele>226.684875</ele>
        <time>2020-09-20T06:51:16.000Z</time>
      </trkpt>
      <trkpt lat="43.54316" lon="1.14696">
        <ele>226.786369</ele>
        <time>2020-09-20T06:51:19.000Z</time>
      </trkpt>
      <trkpt lat="43.54307" lon="1.14687">
        <ele>226.900393</ele>
        <time>2020-09-20T06:51:20.000Z</time>
      </trkpt>
      <trkpt lat="43.54299" lon="1.14679">
        <ele>227.140143</ele>
        <time>2020-09-20T06:51:22.000Z</time>
      </trkpt>
      <trkpt lat="43.5429" lon="1.1467">
        <ele>227.373465</ele>
        <time>2020-09-20T06:51:25.000Z</time>
      </trkpt>
      <trkpt lat="43.54282" lon="1.14661">
        <ele>227.614953</ele>
        <time>2020-09-20T06:51:26.000Z</time>
      </trkpt>
      <trkpt lat="43.54267" lon="1.14641">
        <ele>228.074048</ele>
        <time>2020-09-20T06:51:30.000Z</time>
      </trkpt>
      <trkpt lat="43.54261" lon="1.14631">
        <ele>228.293809</ele>
        <time>2020-09-20T06:51:32.000Z</time>
      </trkpt>
      <trkpt lat="43.54249" lon="1.14616">
        <ele>228.657187</ele>
        <time>2020-09-20T06:51:35.000Z</time>
      </trkpt>
      <trkpt lat="43.54245" lon="1.14611">
        <ele>228.778563</ele>
        <time>2020-09-20T06:51:36.000Z</time>
      </trkpt>
      <trkpt lat="43.54232" lon="1.1459">
        <ele>229.240532</ele>
        <time>2020-09-20T06:51:40.000Z</time>
      </trkpt>
      <trkpt lat="43.54225" lon="1.14579">
        <ele>229.471875</ele>
        <time>2020-09-20T06:51:42.000Z</time>
      </trkpt>
      <trkpt lat="43.54218" lon="1.14569">
        <ele>229.704459</ele>
        <time>2020-09-20T06:51:44.000Z</time>
      </trkpt>
      <trkpt lat="43.54208" lon="1.14554">
        <ele>230.025254</ele>
        <time>2020-09-20T06:51:47.000Z</time>
      </trkpt>
      <trkpt lat="43.54205" lon="1.1455">
        <ele>230.135061</ele>
        <time>2020-09-20T06:51:48.000Z</time>
      </trkpt>
      <trkpt lat="43.54183" lon="1.1452">
        <ele>230.83308</ele>
        <time>2020-09-20T06:51:54.000Z</time>
      </trkpt>
      <trkpt lat="43.54155" lon="1.1448">
        <ele>232.081311</ele>
        <time>2020-09-20T06:52:02.000Z</time>
      </trkpt>
      <trkpt lat="43.54152" lon="1.14476">
        <ele>232.241225</ele>
        <time>2020-09-20T06:52:03.000Z</time>
      </trkpt>
      <trkpt lat="43.54135" lon="1.14452">
        <ele>233.026627</ele>
        <time>2020-09-20T06:52:08.000Z</time>
      </trkpt>
      <trkpt lat="43.54117" lon="1.1443">
        <ele>233.825467</ele>
        <time>2020-09-20T06:52:13.000Z</time>
      </trkpt>
      <trkpt lat="43.54109" lon="1.14422">
        <ele>234.153338</ele>
        <time>2020-09-20T06:52:15.000Z</time>
      </trkpt>
      <trkpt lat="43.54082" lon="1.14392">
        <ele>235.287844</ele>
        <time>2020-09-20T06:52:22.000Z</time>
      </trkpt>
      <trkpt lat="43.54075" lon="1.14386">
        <ele>235.557093</ele>
        <time>2020-09-20T06:52:24.000Z</time>
      </trkpt>
      <trkpt lat="43.54069" lon="1.14388">
        <ele>235.77956</ele>
        <time>2020-09-20T06:52:26.000Z</time>
      </trkpt>
      <trkpt lat="43.54069" lon="1.14388">
        <ele>235.77956</ele>
        <time>2020-09-20T06:52:27.000Z</time>
      </trkpt>
      <trkpt lat="43.54063" lon="1.144">
        <ele>236.117862</ele>
        <time>2020-09-20T06:52:29.000Z</time>
      </trkpt>
      <trkpt lat="43.5406" lon="1.14401">
        <ele>236.225717</ele>
        <time>2020-09-20T06:52:30.000Z</time>
      </trkpt>
      <trkpt lat="43.5406" lon="1.14401">
        <ele>236.225717</ele>
        <time>2020-09-20T06:52:31.000Z</time>
      </trkpt>
      <trkpt lat="43.54041" lon="1.14396">
        <ele>236.879882</ele>
        <time>2020-09-20T06:52:35.000Z</time>
      </trkpt>
      <trkpt lat="43.54029" lon="1.14392">
        <ele>237.568557</ele>
        <time>2020-09-20T06:52:38.000Z</time>
      </trkpt>
      <trkpt lat="43.54013" lon="1.14384">
        <ele>238.528644</ele>
        <time>2020-09-20T06:52:42.000Z</time>
      </trkpt>
      <trkpt lat="43.54005" lon="1.14381">
        <ele>238.996367</ele>
        <time>2020-09-20T06:52:44.000Z</time>
      </trkpt>
      <trkpt lat="43.54001" lon="1.1438">
        <ele>239.230378</ele>
        <time>2020-09-20T06:52:45.000Z</time>
      </trkpt>
      <trkpt lat="43.53994" lon="1.14377">
        <ele>239.685012</ele>
        <time>2020-09-20T06:52:47.000Z</time>
      </trkpt>
      <trkpt lat="43.53982" lon="1.14373">
        <ele>240.405287</ele>
        <time>2020-09-20T06:52:50.000Z</time>
      </trkpt>
      <trkpt lat="43.53962" lon="1.14369">
        <ele>241.545794</ele>
        <time>2020-09-20T06:52:55.000Z</time>
      </trkpt>
      <trkpt lat="43.53938" lon="1.14362">
        <ele>242.938105</ele>
        <time>2020-09-20T06:53:02.000Z</time>
      </trkpt>
      <trkpt lat="43.53935" lon="1.14361">
        <ele>243.087094</ele>
        <time>2020-09-20T06:53:03.000Z</time>
      </trkpt>
      <trkpt lat="43.53923" lon="1.14363">
        <ele>243.820859</ele>
        <time>2020-09-20T06:53:08.000Z</time>
      </trkpt>
      <trkpt lat="43.53918" lon="1.14362">
        <ele>244.090566</ele>
        <time>2020-09-20T06:53:10.000Z</time>
      </trkpt>
      <trkpt lat="43.53906" lon="1.1436">
        <ele>244.772403</ele>
        <time>2020-09-20T06:53:15.000Z</time>
      </trkpt>
      <trkpt lat="43.53901" lon="1.14359">
        <ele>245.085344</ele>
        <time>2020-09-20T06:53:17.000Z</time>
      </trkpt>
      <trkpt lat="43.53886" lon="1.14358">
        <ele>245.92151</ele>
        <time>2020-09-20T06:53:23.000Z</time>
      </trkpt>
      <trkpt lat="43.53884" lon="1.14357">
        <ele>246.041946</ele>
        <time>2020-09-20T06:53:24.000Z</time>
      </trkpt>
      <trkpt lat="43.53872" lon="1.14353">
        <ele>246.770013</ele>
        <time>2020-09-20T06:53:29.000Z</time>
      </trkpt>
      <trkpt lat="43.53868" lon="1.14352">
        <ele>246.973024</ele>
        <time>2020-09-20T06:53:30.000Z</time>
      </trkpt>
      <trkpt lat="43.53858" lon="1.1435">
        <ele>247.818695</ele>
        <time>2020-09-20T06:53:33.000Z</time>
      </trkpt>
      <trkpt lat="43.53855" lon="1.1435">
        <ele>248.134737</ele>
        <time>2020-09-20T06:53:34.000Z</time>
      </trkpt>
      <trkpt lat="43.53841" lon="1.14349">
        <ele>249.474415</ele>
        <time>2020-09-20T06:53:38.000Z</time>
      </trkpt>
      <trkpt lat="43.53827" lon="1.14349">
        <ele>250.822141</ele>
        <time>2020-09-20T06:53:42.000Z</time>
      </trkpt>
      <trkpt lat="43.53823" lon="1.14349">
        <ele>251.156684</ele>
        <time>2020-09-20T06:53:43.000Z</time>
      </trkpt>
      <trkpt lat="43.53817" lon="1.14348">
        <ele>251.810196</ele>
        <time>2020-09-20T06:53:45.000Z</time>
      </trkpt>
      <trkpt lat="43.53808" lon="1.14342">
        <ele>252.694002</ele>
        <time>2020-09-20T06:53:48.000Z</time>
      </trkpt>
      <trkpt lat="43.53808" lon="1.14342">
        <ele>252.694002</ele>
        <time>2020-09-20T06:53:49.000Z</time>
      </trkpt>
      <trkpt lat="43.53806" lon="1.14334">
        <ele>253.274639</ele>
        <time>2020-09-20T06:53:50.000Z</time>
      </trkpt>
      <trkpt lat="43.53806" lon="1.14325">
        <ele>253.884937</ele>
        <time>2020-09-20T06:53:52.000Z</time>
      </trkpt>
      <trkpt lat="43.53808" lon="1.14307">
        <ele>255.152827</ele>
        <time>2020-09-20T06:53:56.000Z</time>
      </trkpt>
      <trkpt lat="43.53809" lon="1.14293">
        <ele>256.122532</ele>
        <time>2020-09-20T06:53:59.000Z</time>
      </trkpt>
      <trkpt lat="43.5381" lon="1.14289">
        <ele>256.415989</ele>
        <time>2020-09-20T06:54:00.000Z</time>
      </trkpt>
      <trkpt lat="43.53811" lon="1.14271">
        <ele>257.651659</ele>
        <time>2020-09-20T06:54:04.000Z</time>
      </trkpt>
      <trkpt lat="43.53812" lon="1.14267">
        <ele>257.945116</ele>
        <time>2020-09-20T06:54:05.000Z</time>
      </trkpt>
      <trkpt lat="43.53813" lon="1.14258">
        <ele>258.588226</ele>
        <time>2020-09-20T06:54:07.000Z</time>
      </trkpt>
      <trkpt lat="43.53814" lon="1.14245">
        <ele>259.517925</ele>
        <time>2020-09-20T06:54:10.000Z</time>
      </trkpt>
      <trkpt lat="43.53815" lon="1.1424">
        <ele>259.863903</ele>
        <time>2020-09-20T06:54:11.000Z</time>
      </trkpt>
      <trkpt lat="43.53816" lon="1.14225">
        <ele>260.87388</ele>
        <time>2020-09-20T06:54:14.000Z</time>
      </trkpt>
      <trkpt lat="43.53818" lon="1.14212">
        <ele>261.831598</ele>
        <time>2020-09-20T06:54:17.000Z</time>
      </trkpt>
      <trkpt lat="43.53818" lon="1.14207">
        <ele>262.143663</ele>
        <time>2020-09-20T06:54:18.000Z</time>
      </trkpt>
      <trkpt lat="43.53818" lon="1.1419">
        <ele>263.342277</ele>
        <time>2020-09-20T06:54:22.000Z</time>
      </trkpt>
      <trkpt lat="43.53813" lon="1.14185">
        <ele>263.936211</ele>
        <time>2020-09-20T06:54:25.000Z</time>
      </trkpt>
      <trkpt lat="43.53811" lon="1.14186">
        <ele>264.183121</ele>
        <time>2020-09-20T06:54:26.000Z</time>
      </trkpt>
      <trkpt lat="43.53807" lon="1.14189">
        <ele>264.746524</ele>
        <time>2020-09-20T06:54:29.000Z</time>
      </trkpt>
      <trkpt lat="43.53806" lon="1.14188">
        <ele>264.908121</ele>
        <time>2020-09-20T06:54:30.000Z</time>
      </trkpt>
      <trkpt lat="43.53798" lon="1.14188">
        <ele>265.805229</ele>
        <time>2020-09-20T06:54:34.000Z</time>
      </trkpt>
      <trkpt lat="43.53793" lon="1.1419">
        <ele>266.487068</ele>
        <time>2020-09-20T06:54:36.000Z</time>
      </trkpt>
      <trkpt lat="43.53793" lon="1.1419">
        <ele>266.487068</ele>
        <time>2020-09-20T06:54:37.000Z</time>
      </trkpt>
      <trkpt lat="43.53788" lon="1.1419">
        <ele>267.080999</ele>
        <time>2020-09-20T06:54:38.000Z</time>
      </trkpt>
      <trkpt lat="43.53786" lon="1.14191">
        <ele>267.383406</ele>
        <time>2020-09-20T06:54:39.000Z</time>
      </trkpt>
      <trkpt lat="43.53781" lon="1.14192">
        <ele>268.028056</ele>
        <time>2020-09-20T06:54:41.000Z</time>
      </trkpt>
      <trkpt lat="43.53779" lon="1.14192">
        <ele>268.331303</ele>
        <time>2020-09-20T06:54:42.000Z</time>
      </trkpt>
      <trkpt lat="43.53774" lon="1.14193">
        <ele>268.940284</ele>
        <time>2020-09-20T06:54:44.000Z</time>
      </trkpt>
      <trkpt lat="43.53772" lon="1.14193">
        <ele>269.218864</ele>
        <time>2020-09-20T06:54:45.000Z</time>
      </trkpt>
      <trkpt lat="43.53762" lon="1.14195">
        <ele>270.42605</ele>
        <time>2020-09-20T06:54:49.000Z</time>
      </trkpt>
      <trkpt lat="43.53761" lon="1.14195">
        <ele>270.641046</ele>
        <time>2020-09-20T06:54:50.000Z</time>
      </trkpt>
      <trkpt lat="43.53755" lon="1.14196">
        <ele>271.36015</ele>
        <time>2020-09-20T06:54:53.000Z</time>
      </trkpt>
      <trkpt lat="43.53749" lon="1.14198">
        <ele>272.158866</ele>
        <time>2020-09-20T06:54:56.000Z</time>
      </trkpt>
      <trkpt lat="43.53743" lon="1.14198">
        <ele>272.842156</ele>
        <time>2020-09-20T06:54:58.000Z</time>
      </trkpt>
      <trkpt lat="43.53736" lon="1.14199">
        <ele>273.843745</ele>
        <time>2020-09-20T06:55:02.000Z</time>
      </trkpt>
      <trkpt lat="43.53728" lon="1.142">
        <ele>274.762482</ele>
        <time>2020-09-20T06:55:07.000Z</time>
      </trkpt>
      <trkpt lat="43.53727" lon="1.142">
        <ele>274.952233</ele>
        <time>2020-09-20T06:55:08.000Z</time>
      </trkpt>
      <trkpt lat="43.53719" lon="1.14202">
        <ele>275.905024</ele>
        <time>2020-09-20T06:55:12.000Z</time>
      </trkpt>
      <trkpt lat="43.53718" lon="1.14203">
        <ele>276.109048</ele>
        <time>2020-09-20T06:55:13.000Z</time>
      </trkpt>
      <trkpt lat="43.53713" lon="1.14204">
        <ele>276.750305</ele>
        <time>2020-09-20T06:55:16.000Z</time>
      </trkpt>
      <trkpt lat="43.53709" lon="1.14204">
        <ele>277.281068</ele>
        <time>2020-09-20T06:55:18.000Z</time>
      </trkpt>
      <trkpt lat="43.53706" lon="1.14204">
        <ele>277.598144</ele>
        <time>2020-09-20T06:55:19.000Z</time>
      </trkpt>
      <trkpt lat="43.53701" lon="1.14205">
        <ele>278.214519</ele>
        <time>2020-09-20T06:55:21.000Z</time>
      </trkpt>
      <trkpt lat="43.53699" lon="1.14205">
        <ele>278.536844</ele>
        <time>2020-09-20T06:55:22.000Z</time>
      </trkpt>
      <trkpt lat="43.53697" lon="1.14207">
        <ele>278.844427</ele>
        <time>2020-09-20T06:55:23.000Z</time>
      </trkpt>
      <trkpt lat="43.53692" lon="1.14208">
        <ele>279.400642</ele>
        <time>2020-09-20T06:55:25.000Z</time>
      </trkpt>
      <trkpt lat="43.53686" lon="1.14206">
        <ele>280.210046</ele>
        <time>2020-09-20T06:55:28.000Z</time>
      </trkpt>
      <trkpt lat="43.53684" lon="1.14206">
        <ele>280.450292</ele>
        <time>2020-09-20T06:55:29.000Z</time>
      </trkpt>
      <trkpt lat="43.5368" lon="1.14207">
        <ele>280.95151</ele>
        <time>2020-09-20T06:55:31.000Z</time>
      </trkpt>
      <trkpt lat="43.53679" lon="1.14208">
        <ele>281.091701</ele>
        <time>2020-09-20T06:55:32.000Z</time>
      </trkpt>
      <trkpt lat="43.53676" lon="1.14208">
        <ele>281.424785</ele>
        <time>2020-09-20T06:55:34.000Z</time>
      </trkpt>
      <trkpt lat="43.53676" lon="1.14209">
        <ele>281.544259</ele>
        <time>2020-09-20T06:55:35.000Z</time>
      </trkpt>
      <trkpt lat="43.53672" lon="1.14209">
        <ele>282.012573</ele>
        <time>2020-09-20T06:55:37.000Z</time>
      </trkpt>
      <trkpt lat="43.53669" lon="1.14209">
        <ele>282.320761</ele>
        <time>2020-09-20T06:55:38.000Z</time>
      </trkpt>
      <trkpt lat="43.53659" lon="1.14211">
        <ele>283.603355</ele>
        <time>2020-09-20T06:55:42.000Z</time>
      </trkpt>
      <trkpt lat="43.53652" lon="1.14211">
        <ele>284.475241</ele>
        <time>2020-09-20T06:55:45.000Z</time>
      </trkpt>
      <trkpt lat="43.53645" lon="1.14211">
        <ele>285.359761</ele>
        <time>2020-09-20T06:55:48.000Z</time>
      </trkpt>
      <trkpt lat="43.53643" lon="1.14211">
        <ele>285.70202</ele>
        <time>2020-09-20T06:55:49.000Z</time>
      </trkpt>
      <trkpt lat="43.53634" lon="1.14209">
        <ele>286.798496</ele>
        <time>2020-09-20T06:55:52.000Z</time>
      </trkpt>
      <trkpt lat="43.53626" lon="1.14207">
        <ele>287.359941</ele>
        <time>2020-09-20T06:55:55.000Z</time>
      </trkpt>
      <trkpt lat="43.53622" lon="1.14206">
        <ele>287.576452</ele>
        <time>2020-09-20T06:55:57.000Z</time>
      </trkpt>
      <trkpt lat="43.53619" lon="1.14208">
        <ele>287.715644</ele>
        <time>2020-09-20T06:55:59.000Z</time>
      </trkpt>
      <trkpt lat="43.53616" lon="1.14209">
        <ele>287.851267</ele>
        <time>2020-09-20T06:56:01.000Z</time>
      </trkpt>
      <trkpt lat="43.5361" lon="1.14206">
        <ele>288.162112</ele>
        <time>2020-09-20T06:56:04.000Z</time>
      </trkpt>
      <trkpt lat="43.53602" lon="1.14206">
        <ele>288.53983</ele>
        <time>2020-09-20T06:56:07.000Z</time>
      </trkpt>
      <trkpt lat="43.53595" lon="1.14207">
        <ele>288.896063</ele>
        <time>2020-09-20T06:56:10.000Z</time>
      </trkpt>
      <trkpt lat="43.5359" lon="1.14206">
        <ele>289.125244</ele>
        <time>2020-09-20T06:56:12.000Z</time>
      </trkpt>
      <trkpt lat="43.53582" lon="1.14205">
        <ele>289.489659</ele>
        <time>2020-09-20T06:56:15.000Z</time>
      </trkpt>
      <trkpt lat="43.53574" lon="1.14203">
        <ele>289.906069</ele>
        <time>2020-09-20T06:56:18.000Z</time>
      </trkpt>
      <trkpt lat="43.53569" lon="1.14201">
        <ele>290.159645</ele>
        <time>2020-09-20T06:56:20.000Z</time>
      </trkpt>
      <trkpt lat="43.53563" lon="1.14199">
        <ele>290.431148</ele>
        <time>2020-09-20T06:56:22.000Z</time>
      </trkpt>
      <trkpt lat="43.5356" lon="1.142">
        <ele>290.574956</ele>
        <time>2020-09-20T06:56:23.000Z</time>
      </trkpt>
      <trkpt lat="43.53557" lon="1.142">
        <ele>290.706988</ele>
        <time>2020-09-20T06:56:24.000Z</time>
      </trkpt>
      <trkpt lat="43.53551" lon="1.142">
        <ele>290.998714</ele>
        <time>2020-09-20T06:56:26.000Z</time>
      </trkpt>
      <trkpt lat="43.53542" lon="1.14201">
        <ele>291.443566</ele>
        <time>2020-09-20T06:56:29.000Z</time>
      </trkpt>
      <trkpt lat="43.53532" lon="1.142">
        <ele>291.927246</ele>
        <time>2020-09-20T06:56:32.000Z</time>
      </trkpt>
      <trkpt lat="43.53522" lon="1.14199">
        <ele>292.425451</ele>
        <time>2020-09-20T06:56:35.000Z</time>
      </trkpt>
      <trkpt lat="43.53509" lon="1.14197">
        <ele>293.006609</ele>
        <time>2020-09-20T06:56:40.000Z</time>
      </trkpt>
      <trkpt lat="43.53505" lon="1.14197">
        <ele>293.227517</ele>
        <time>2020-09-20T06:56:43.000Z</time>
      </trkpt>
      <trkpt lat="43.53494" lon="1.14194">
        <ele>293.749549</ele>
        <time>2020-09-20T06:56:50.000Z</time>
      </trkpt>
      <trkpt lat="43.53493" lon="1.14194">
        <ele>293.822592</ele>
        <time>2020-09-20T06:56:51.000Z</time>
      </trkpt>
      <trkpt lat="43.53491" lon="1.14195">
        <ele>293.915782</ele>
        <time>2020-09-20T06:56:52.000Z</time>
      </trkpt>
      <trkpt lat="43.53488" lon="1.14195">
        <ele>294.040089</ele>
        <time>2020-09-20T06:56:53.000Z</time>
      </trkpt>
      <trkpt lat="43.53485" lon="1.14195">
        <ele>294.179128</ele>
        <time>2020-09-20T06:56:54.000Z</time>
      </trkpt>
      <trkpt lat="43.53477" lon="1.14195">
        <ele>294.557084</ele>
        <time>2020-09-20T06:56:57.000Z</time>
      </trkpt>
      <trkpt lat="43.53474" lon="1.14184">
        <ele>294.937237</ele>
        <time>2020-09-20T06:57:00.000Z</time>
      </trkpt>
      <trkpt lat="43.53474" lon="1.14181">
        <ele>295.057483</ele>
        <time>2020-09-20T06:57:01.000Z</time>
      </trkpt>
      <trkpt lat="43.53472" lon="1.14169">
        <ele>295.469302</ele>
        <time>2020-09-20T06:57:04.000Z</time>
      </trkpt>
      <trkpt lat="43.53471" lon="1.14153">
        <ele>295.430937</ele>
        <time>2020-09-20T06:57:08.000Z</time>
      </trkpt>
      <trkpt lat="43.5347" lon="1.14121">
        <ele>294.688324</ele>
        <time>2020-09-20T06:57:14.000Z</time>
      </trkpt>
      <trkpt lat="43.53469" lon="1.14101">
        <ele>294.224192</ele>
        <time>2020-09-20T06:57:17.000Z</time>
      </trkpt>
      <trkpt lat="43.53467" lon="1.14086">
        <ele>293.868078</ele>
        <time>2020-09-20T06:57:19.000Z</time>
      </trkpt>
      <trkpt lat="43.53466" lon="1.14063">
        <ele>293.335481</ele>
        <time>2020-09-20T06:57:22.000Z</time>
      </trkpt>
      <trkpt lat="43.53463" lon="1.14038">
        <ele>292.751821</ele>
        <time>2020-09-20T06:57:25.000Z</time>
      </trkpt>
      <trkpt lat="43.5346" lon="1.14009">
        <ele>292.088709</ele>
        <time>2020-09-20T06:57:28.000Z</time>
      </trkpt>
      <trkpt lat="43.53455" lon="1.13978">
        <ele>291.367784</ele>
        <time>2020-09-20T06:57:31.000Z</time>
      </trkpt>
      <trkpt lat="43.53451" lon="1.13937">
        <ele>290.401424</ele>
        <time>2020-09-20T06:57:35.000Z</time>
      </trkpt>
      <trkpt lat="43.53449" lon="1.13927">
        <ele>290.168528</ele>
        <time>2020-09-20T06:57:36.000Z</time>
      </trkpt>
      <trkpt lat="43.53447" lon="1.13918">
        <ele>289.949967</ele>
        <time>2020-09-20T06:57:37.000Z</time>
      </trkpt>
      <trkpt lat="43.53443" lon="1.139">
        <ele>289.79399</ele>
        <time>2020-09-20T06:57:39.000Z</time>
      </trkpt>
      <trkpt lat="43.53438" lon="1.13865">
        <ele>289.498384</ele>
        <time>2020-09-20T06:57:43.000Z</time>
      </trkpt>
      <trkpt lat="43.53435" lon="1.13835">
        <ele>289.246932</ele>
        <time>2020-09-20T06:57:47.000Z</time>
      </trkpt>
      <trkpt lat="43.53433" lon="1.13822">
        <ele>289.136127</ele>
        <time>2020-09-20T06:57:49.000Z</time>
      </trkpt>
      <trkpt lat="43.53432" lon="1.13815">
        <ele>289.080848</ele>
        <time>2020-09-20T06:57:50.000Z</time>
      </trkpt>
      <trkpt lat="43.53431" lon="1.13795">
        <ele>288.908674</ele>
        <time>2020-09-20T06:57:53.000Z</time>
      </trkpt>
      <trkpt lat="43.5343" lon="1.13787">
        <ele>288.842216</ele>
        <time>2020-09-20T06:57:54.000Z</time>
      </trkpt>
      <trkpt lat="43.53429" lon="1.13765">
        <ele>288.659698</ele>
        <time>2020-09-20T06:57:57.000Z</time>
      </trkpt>
      <trkpt lat="43.53422" lon="1.13744">
        <ele>288.470919</ele>
        <time>2020-09-20T06:58:00.000Z</time>
      </trkpt>
      <trkpt lat="43.5342" lon="1.13737">
        <ele>288.409794</ele>
        <time>2020-09-20T06:58:01.000Z</time>
      </trkpt>
      <trkpt lat="43.53419" lon="1.13731">
        <ele>288.353149</ele>
        <time>2020-09-20T06:58:02.000Z</time>
      </trkpt>
      <trkpt lat="43.53416" lon="1.13717">
        <ele>288.237093</ele>
        <time>2020-09-20T06:58:04.000Z</time>
      </trkpt>
      <trkpt lat="43.53415" lon="1.13702">
        <ele>288.114848</ele>
        <time>2020-09-20T06:58:06.000Z</time>
      </trkpt>
      <trkpt lat="43.53413" lon="1.13679">
        <ele>287.918211</ele>
        <time>2020-09-20T06:58:09.000Z</time>
      </trkpt>
      <trkpt lat="43.53412" lon="1.13672">
        <ele>287.8707</ele>
        <time>2020-09-20T06:58:10.000Z</time>
      </trkpt>
      <trkpt lat="43.53411" lon="1.13665">
        <ele>287.83437</ele>
        <time>2020-09-20T06:58:11.000Z</time>
      </trkpt>
      <trkpt lat="43.53409" lon="1.13644">
        <ele>287.717787</ele>
        <time>2020-09-20T06:58:14.000Z</time>
      </trkpt>
      <trkpt lat="43.53408" lon="1.13638">
        <ele>287.681862</ele>
        <time>2020-09-20T06:58:15.000Z</time>
      </trkpt>
      <trkpt lat="43.53405" lon="1.13617">
        <ele>287.563639</ele>
        <time>2020-09-20T06:58:18.000Z</time>
      </trkpt>
      <trkpt lat="43.53404" lon="1.13588">
        <ele>287.405747</ele>
        <time>2020-09-20T06:58:22.000Z</time>
      </trkpt>
      <trkpt lat="43.53405" lon="1.1358">
        <ele>287.364488</ele>
        <time>2020-09-20T06:58:23.000Z</time>
      </trkpt>
      <trkpt lat="43.53405" lon="1.13552">
        <ele>287.207688</ele>
        <time>2020-09-20T06:58:27.000Z</time>
      </trkpt>
      <trkpt lat="43.53405" lon="1.13545">
        <ele>287.168792</ele>
        <time>2020-09-20T06:58:28.000Z</time>
      </trkpt>
      <trkpt lat="43.53407" lon="1.13525">
        <ele>287.062924</ele>
        <time>2020-09-20T06:58:31.000Z</time>
      </trkpt>
      <trkpt lat="43.53407" lon="1.13519">
        <ele>287.027223</ele>
        <time>2020-09-20T06:58:32.000Z</time>
      </trkpt>
      <trkpt lat="43.5341" lon="1.13486">
        <ele>286.84744</ele>
        <time>2020-09-20T06:58:37.000Z</time>
      </trkpt>
      <trkpt lat="43.53412" lon="1.1348">
        <ele>286.812713</ele>
        <time>2020-09-20T06:58:38.000Z</time>
      </trkpt>
      <trkpt lat="43.53413" lon="1.13466">
        <ele>286.73572</ele>
        <time>2020-09-20T06:58:40.000Z</time>
      </trkpt>
      <trkpt lat="43.53414" lon="1.13459">
        <ele>286.697846</ele>
        <time>2020-09-20T06:58:41.000Z</time>
      </trkpt>
      <trkpt lat="43.53419" lon="1.13438">
        <ele>286.576239</ele>
        <time>2020-09-20T06:58:45.000Z</time>
      </trkpt>
      <trkpt lat="43.53432" lon="1.13435">
        <ele>285.381946</ele>
        <time>2020-09-20T06:58:49.000Z</time>
      </trkpt>
      <trkpt lat="43.53448" lon="1.13439">
        <ele>283.212121</ele>
        <time>2020-09-20T06:58:54.000Z</time>
      </trkpt>
      <trkpt lat="43.53452" lon="1.1344">
        <ele>282.707958</ele>
        <time>2020-09-20T06:58:55.000Z</time>
      </trkpt>
      <trkpt lat="43.53457" lon="1.13441">
        <ele>282.11913</ele>
        <time>2020-09-20T06:58:56.000Z</time>
      </trkpt>
      <trkpt lat="43.53462" lon="1.13442">
        <ele>281.424473</ele>
        <time>2020-09-20T06:58:57.000Z</time>
      </trkpt>
      <trkpt lat="43.53468" lon="1.13444">
        <ele>280.550894</ele>
        <time>2020-09-20T06:58:58.000Z</time>
      </trkpt>
      <trkpt lat="43.53474" lon="1.13446">
        <ele>279.728605</ele>
        <time>2020-09-20T06:58:59.000Z</time>
      </trkpt>
      <trkpt lat="43.5348" lon="1.13449">
        <ele>278.900984</ele>
        <time>2020-09-20T06:59:00.000Z</time>
      </trkpt>
      <trkpt lat="43.53485" lon="1.1345">
        <ele>278.236086</ele>
        <time>2020-09-20T06:59:01.000Z</time>
      </trkpt>
      <trkpt lat="43.53491" lon="1.13452">
        <ele>277.499259</ele>
        <time>2020-09-20T06:59:02.000Z</time>
      </trkpt>
      <trkpt lat="43.53491" lon="1.13452">
        <ele>277.499259</ele>
        <time>2020-09-20T06:59:03.000Z</time>
      </trkpt>
      <trkpt lat="43.53504" lon="1.13457">
        <ele>275.59711</ele>
        <time>2020-09-20T06:59:05.000Z</time>
      </trkpt>
      <trkpt lat="43.53514" lon="1.13462">
        <ele>274.255182</ele>
        <time>2020-09-20T06:59:07.000Z</time>
      </trkpt>
      <trkpt lat="43.53522" lon="1.13466">
        <ele>273.103483</ele>
        <time>2020-09-20T06:59:09.000Z</time>
      </trkpt>
      <trkpt lat="43.53529" lon="1.13469">
        <ele>272.122972</ele>
        <time>2020-09-20T06:59:11.000Z</time>
      </trkpt>
      <trkpt lat="43.53533" lon="1.13471">
        <ele>271.650791</ele>
        <time>2020-09-20T06:59:12.000Z</time>
      </trkpt>
      <trkpt lat="43.53536" lon="1.13474">
        <ele>271.08637</ele>
        <time>2020-09-20T06:59:13.000Z</time>
      </trkpt>
      <trkpt lat="43.5354" lon="1.13476">
        <ele>270.578494</ele>
        <time>2020-09-20T06:59:14.000Z</time>
      </trkpt>
      <trkpt lat="43.53543" lon="1.13477">
        <ele>270.172792</ele>
        <time>2020-09-20T06:59:15.000Z</time>
      </trkpt>
      <trkpt lat="43.53548" lon="1.13479">
        <ele>269.413909</ele>
        <time>2020-09-20T06:59:17.000Z</time>
      </trkpt>
      <trkpt lat="43.53559" lon="1.13484">
        <ele>267.984543</ele>
        <time>2020-09-20T06:59:20.000Z</time>
      </trkpt>
      <trkpt lat="43.53568" lon="1.1349">
        <ele>266.688591</ele>
        <time>2020-09-20T06:59:22.000Z</time>
      </trkpt>
      <trkpt lat="43.53573" lon="1.13492">
        <ele>265.936465</ele>
        <time>2020-09-20T06:59:23.000Z</time>
      </trkpt>
      <trkpt lat="43.53578" lon="1.13495">
        <ele>265.181238</ele>
        <time>2020-09-20T06:59:24.000Z</time>
      </trkpt>
      <trkpt lat="43.53587" lon="1.13499">
        <ele>263.907956</ele>
        <time>2020-09-20T06:59:26.000Z</time>
      </trkpt>
      <trkpt lat="43.53591" lon="1.13501">
        <ele>263.37069</ele>
        <time>2020-09-20T06:59:27.000Z</time>
      </trkpt>
      <trkpt lat="43.53595" lon="1.13502">
        <ele>262.889497</ele>
        <time>2020-09-20T06:59:28.000Z</time>
      </trkpt>
      <trkpt lat="43.536" lon="1.13504">
        <ele>262.694685</ele>
        <time>2020-09-20T06:59:30.000Z</time>
      </trkpt>
      <trkpt lat="43.53603" lon="1.13504">
        <ele>262.643535</ele>
        <time>2020-09-20T06:59:31.000Z</time>
      </trkpt>
      <trkpt lat="43.53608" lon="1.13503">
        <ele>262.536931</ele>
        <time>2020-09-20T06:59:33.000Z</time>
      </trkpt>
      <trkpt lat="43.53613" lon="1.13502">
        <ele>262.432285</ele>
        <time>2020-09-20T06:59:36.000Z</time>
      </trkpt>
      <trkpt lat="43.53614" lon="1.13501">
        <ele>262.400042</ele>
        <time>2020-09-20T06:59:37.000Z</time>
      </trkpt>
      <trkpt lat="43.53621" lon="1.13495">
        <ele>262.229757</ele>
        <time>2020-09-20T06:59:41.000Z</time>
      </trkpt>
      <trkpt lat="43.53623" lon="1.13495">
        <ele>262.203005</ele>
        <time>2020-09-20T06:59:42.000Z</time>
      </trkpt>
      <trkpt lat="43.53626" lon="1.135">
        <ele>262.097094</ele>
        <time>2020-09-20T06:59:44.000Z</time>
      </trkpt>
      <trkpt lat="43.53635" lon="1.13506">
        <ele>261.903677</ele>
        <time>2020-09-20T06:59:48.000Z</time>
      </trkpt>
      <trkpt lat="43.53639" lon="1.13505">
        <ele>261.804166</ele>
        <time>2020-09-20T06:59:50.000Z</time>
      </trkpt>
      <trkpt lat="43.53647" lon="1.13504">
        <ele>261.640228</ele>
        <time>2020-09-20T06:59:53.000Z</time>
      </trkpt>
      <trkpt lat="43.53663" lon="1.135">
        <ele>261.313713</ele>
        <time>2020-09-20T06:59:59.000Z</time>
      </trkpt>
      <trkpt lat="43.53665" lon="1.135">
        <ele>261.266095</ele>
        <time>2020-09-20T07:00:00.000Z</time>
      </trkpt>
      <trkpt lat="43.53675" lon="1.13498">
        <ele>261.063703</ele>
        <time>2020-09-20T07:00:04.000Z</time>
      </trkpt>
      <trkpt lat="43.53678" lon="1.13498">
        <ele>261.0102</ele>
        <time>2020-09-20T07:00:05.000Z</time>
      </trkpt>
      <trkpt lat="43.53691" lon="1.13493">
        <ele>260.742038</ele>
        <time>2020-09-20T07:00:10.000Z</time>
      </trkpt>
      <trkpt lat="43.53707" lon="1.13487">
        <ele>260.39146</ele>
        <time>2020-09-20T07:00:15.000Z</time>
      </trkpt>
      <trkpt lat="43.53713" lon="1.13485">
        <ele>260.258553</ele>
        <time>2020-09-20T07:00:17.000Z</time>
      </trkpt>
      <trkpt lat="43.53725" lon="1.1348">
        <ele>260.019562</ele>
        <time>2020-09-20T07:00:20.000Z</time>
      </trkpt>
      <trkpt lat="43.53737" lon="1.13468">
        <ele>259.697892</ele>
        <time>2020-09-20T07:00:24.000Z</time>
      </trkpt>
      <trkpt lat="43.5374" lon="1.13466">
        <ele>259.635216</ele>
        <time>2020-09-20T07:00:25.000Z</time>
      </trkpt>
      <trkpt lat="43.53747" lon="1.13457">
        <ele>259.455077</ele>
        <time>2020-09-20T07:00:28.000Z</time>
      </trkpt>
      <trkpt lat="43.53751" lon="1.13451">
        <ele>259.327083</ele>
        <time>2020-09-20T07:00:32.000Z</time>
      </trkpt>
      <trkpt lat="43.53748" lon="1.13437">
        <ele>259.129704</ele>
        <time>2020-09-20T07:00:37.000Z</time>
      </trkpt>
      <trkpt lat="43.53744" lon="1.13434">
        <ele>259.519586</ele>
        <time>2020-09-20T07:00:40.000Z</time>
      </trkpt>
      <trkpt lat="43.53742" lon="1.13433">
        <ele>259.652209</ele>
        <time>2020-09-20T07:00:41.000Z</time>
      </trkpt>
      <trkpt lat="43.53734" lon="1.13432">
        <ele>260.308026</ele>
        <time>2020-09-20T07:00:45.000Z</time>
      </trkpt>
      <trkpt lat="43.53733" lon="1.1343">
        <ele>260.428607</ele>
        <time>2020-09-20T07:00:46.000Z</time>
      </trkpt>
      <trkpt lat="43.53727" lon="1.1343">
        <ele>260.905135</ele>
        <time>2020-09-20T07:00:51.000Z</time>
      </trkpt>
      <trkpt lat="43.53721" lon="1.13433">
        <ele>261.477783</ele>
        <time>2020-09-20T07:00:54.000Z</time>
      </trkpt>
      <trkpt lat="43.53716" lon="1.13434">
        <ele>261.834158</ele>
        <time>2020-09-20T07:00:56.000Z</time>
      </trkpt>
      <trkpt lat="43.53712" lon="1.13433">
        <ele>262.178405</ele>
        <time>2020-09-20T07:00:58.000Z</time>
      </trkpt>
      <trkpt lat="43.53706" lon="1.13428">
        <ele>262.766677</ele>
        <time>2020-09-20T07:01:01.000Z</time>
      </trkpt>
      <trkpt lat="43.53702" lon="1.13426">
        <ele>263.093072</ele>
        <time>2020-09-20T07:01:03.000Z</time>
      </trkpt>
      <trkpt lat="43.53697" lon="1.13425">
        <ele>263.563655</ele>
        <time>2020-09-20T07:01:06.000Z</time>
      </trkpt>
      <trkpt lat="43.53689" lon="1.13426">
        <ele>264.180122</ele>
        <time>2020-09-20T07:01:10.000Z</time>
      </trkpt>
      <trkpt lat="43.53687" lon="1.13424">
        <ele>264.399058</ele>
        <time>2020-09-20T07:01:11.000Z</time>
      </trkpt>
      <trkpt lat="43.53685" lon="1.13422">
        <ele>264.590512</ele>
        <time>2020-09-20T07:01:12.000Z</time>
      </trkpt>
      <trkpt lat="43.53683" lon="1.13417">
        <ele>264.932827</ele>
        <time>2020-09-20T07:01:14.000Z</time>
      </trkpt>
      <trkpt lat="43.53678" lon="1.1341">
        <ele>265.482669</ele>
        <time>2020-09-20T07:01:17.000Z</time>
      </trkpt>
      <trkpt lat="43.53677" lon="1.13405">
        <ele>265.803086</ele>
        <time>2020-09-20T07:01:19.000Z</time>
      </trkpt>
      <trkpt lat="43.53672" lon="1.13398">
        <ele>266.371942</ele>
        <time>2020-09-20T07:01:23.000Z</time>
      </trkpt>
      <trkpt lat="43.53672" lon="1.13396">
        <ele>266.493565</ele>
        <time>2020-09-20T07:01:24.000Z</time>
      </trkpt>
      <trkpt lat="43.5367" lon="1.13392">
        <ele>266.768695</ele>
        <time>2020-09-20T07:01:27.000Z</time>
      </trkpt>
      <trkpt lat="43.53668" lon="1.1339">
        <ele>266.952904</ele>
        <time>2020-09-20T07:01:29.000Z</time>
      </trkpt>
      <trkpt lat="43.53668" lon="1.13387">
        <ele>267.102662</ele>
        <time>2020-09-20T07:01:31.000Z</time>
      </trkpt>
      <trkpt lat="43.53666" lon="1.13385">
        <ele>267.316725</ele>
        <time>2020-09-20T07:01:33.000Z</time>
      </trkpt>
      <trkpt lat="43.53664" lon="1.13383">
        <ele>267.553402</ele>
        <time>2020-09-20T07:01:34.000Z</time>
      </trkpt>
      <trkpt lat="43.53662" lon="1.1338">
        <ele>267.748979</ele>
        <time>2020-09-20T07:01:35.000Z</time>
      </trkpt>
      <trkpt lat="43.5366" lon="1.13378">
        <ele>267.954595</ele>
        <time>2020-09-20T07:01:36.000Z</time>
      </trkpt>
      <trkpt lat="43.53656" lon="1.13372">
        <ele>268.414286</ele>
        <time>2020-09-20T07:01:38.000Z</time>
      </trkpt>
      <trkpt lat="43.53654" lon="1.13365">
        <ele>268.887454</ele>
        <time>2020-09-20T07:01:40.000Z</time>
      </trkpt>
      <trkpt lat="43.5365" lon="1.13357">
        <ele>269.504576</ele>
        <time>2020-09-20T07:01:43.000Z</time>
      </trkpt>
      <trkpt lat="43.53647" lon="1.13355">
        <ele>269.734458</ele>
        <time>2020-09-20T07:01:44.000Z</time>
      </trkpt>
      <trkpt lat="43.5364" lon="1.13344">
        <ele>270.637966</ele>
        <time>2020-09-20T07:01:48.000Z</time>
      </trkpt>
      <trkpt lat="43.53636" lon="1.13338">
        <ele>271.13124</ele>
        <time>2020-09-20T07:01:50.000Z</time>
      </trkpt>
      <trkpt lat="43.53632" lon="1.1333">
        <ele>271.676065</ele>
        <time>2020-09-20T07:01:52.000Z</time>
      </trkpt>
      <trkpt lat="43.53628" lon="1.13319">
        <ele>272.410997</ele>
        <time>2020-09-20T07:01:55.000Z</time>
      </trkpt>
      <trkpt lat="43.53629" lon="1.13315">
        <ele>272.652681</ele>
        <time>2020-09-20T07:01:56.000Z</time>
      </trkpt>
      <trkpt lat="43.53627" lon="1.13306">
        <ele>273.217985</ele>
        <time>2020-09-20T07:01:59.000Z</time>
      </trkpt>
      <trkpt lat="43.53625" lon="1.13304">
        <ele>273.415028</ele>
        <time>2020-09-20T07:02:00.000Z</time>
      </trkpt>
      <trkpt lat="43.53617" lon="1.13305">
        <ele>274.085399</ele>
        <time>2020-09-20T07:02:04.000Z</time>
      </trkpt>
      <trkpt lat="43.53615" lon="1.13306">
        <ele>274.24809</ele>
        <time>2020-09-20T07:02:05.000Z</time>
      </trkpt>
      <trkpt lat="43.53611" lon="1.13307">
        <ele>274.566129</ele>
        <time>2020-09-20T07:02:07.000Z</time>
      </trkpt>
      <trkpt lat="43.53608" lon="1.1331">
        <ele>274.808064</ele>
        <time>2020-09-20T07:02:09.000Z</time>
      </trkpt>
      <trkpt lat="43.53607" lon="1.1331">
        <ele>274.883098</ele>
        <time>2020-09-20T07:02:10.000Z</time>
      </trkpt>
      <trkpt lat="43.53606" lon="1.13311">
        <ele>275.009598</ele>
        <time>2020-09-20T07:02:12.000Z</time>
      </trkpt>
      <trkpt lat="43.53602" lon="1.13314">
        <ele>275.347325</ele>
        <time>2020-09-20T07:02:16.000Z</time>
      </trkpt>
      <trkpt lat="43.53601" lon="1.13315">
        <ele>275.420099</ele>
        <time>2020-09-20T07:02:17.000Z</time>
      </trkpt>
      <trkpt lat="43.53599" lon="1.13321">
        <ele>275.811991</ele>
        <time>2020-09-20T07:02:21.000Z</time>
      </trkpt>
      <trkpt lat="43.53593" lon="1.13327">
        <ele>276.343621</ele>
        <time>2020-09-20T07:02:25.000Z</time>
      </trkpt>
      <trkpt lat="43.53593" lon="1.13327">
        <ele>276.398904</ele>
        <time>2020-09-20T07:02:26.000Z</time>
      </trkpt>
      <trkpt lat="43.53587" lon="1.13329">
        <ele>276.870122</ele>
        <time>2020-09-20T07:02:30.000Z</time>
      </trkpt>
      <trkpt lat="43.53582" lon="1.13329">
        <ele>277.194926</ele>
        <time>2020-09-20T07:02:33.000Z</time>
      </trkpt>
      <trkpt lat="43.53578" lon="1.1333">
        <ele>277.57651</ele>
        <time>2020-09-20T07:02:36.000Z</time>
      </trkpt>
      <trkpt lat="43.5357" lon="1.13332">
        <ele>278.169488</ele>
        <time>2020-09-20T07:02:40.000Z</time>
      </trkpt>
      <trkpt lat="43.53561" lon="1.13335">
        <ele>278.92849</ele>
        <time>2020-09-20T07:02:45.000Z</time>
      </trkpt>
      <trkpt lat="43.53558" lon="1.13336">
        <ele>279.117117</ele>
        <time>2020-09-20T07:02:46.000Z</time>
      </trkpt>
      <trkpt lat="43.53549" lon="1.13339">
        <ele>279.883607</ele>
        <time>2020-09-20T07:02:52.000Z</time>
      </trkpt>
      <trkpt lat="43.53547" lon="1.13339">
        <ele>279.96886</ele>
        <time>2020-09-20T07:02:53.000Z</time>
      </trkpt>
      <trkpt lat="43.53544" lon="1.13341">
        <ele>280.271634</ele>
        <time>2020-09-20T07:02:56.000Z</time>
      </trkpt>
      <trkpt lat="43.5354" lon="1.13341">
        <ele>280.574538</ele>
        <time>2020-09-20T07:02:59.000Z</time>
      </trkpt>
      <trkpt lat="43.53534" lon="1.13342">
        <ele>281.025907</ele>
        <time>2020-09-20T07:03:03.000Z</time>
      </trkpt>
      <trkpt lat="43.5353" lon="1.13342">
        <ele>281.343177</ele>
        <time>2020-09-20T07:03:06.000Z</time>
      </trkpt>
      <trkpt lat="43.53524" lon="1.13344">
        <ele>281.799435</ele>
        <time>2020-09-20T07:03:10.000Z</time>
      </trkpt>
      <trkpt lat="43.5352" lon="1.13344">
        <ele>282.086942</ele>
        <time>2020-09-20T07:03:12.000Z</time>
      </trkpt>
      <trkpt lat="43.53511" lon="1.13349">
        <ele>282.82352</ele>
        <time>2020-09-20T07:03:18.000Z</time>
      </trkpt>
      <trkpt lat="43.53502" lon="1.13353">
        <ele>283.591427</ele>
        <time>2020-09-20T07:03:24.000Z</time>
      </trkpt>
      <trkpt lat="43.53501" lon="1.13353">
        <ele>283.692586</ele>
        <time>2020-09-20T07:03:25.000Z</time>
      </trkpt>
      <trkpt lat="43.53493" lon="1.13356">
        <ele>284.299707</ele>
        <time>2020-09-20T07:03:30.000Z</time>
      </trkpt>
      <trkpt lat="43.53486" lon="1.13358">
        <ele>284.862829</ele>
        <time>2020-09-20T07:03:33.000Z</time>
      </trkpt>
      <trkpt lat="43.53482" lon="1.13359">
        <ele>285.175402</ele>
        <time>2020-09-20T07:03:34.000Z</time>
      </trkpt>
      <trkpt lat="43.53474" lon="1.1336">
        <ele>285.816667</ele>
        <time>2020-09-20T07:03:36.000Z</time>
      </trkpt>
      <trkpt lat="43.5347" lon="1.13361">
        <ele>286.131044</ele>
        <time>2020-09-20T07:03:37.000Z</time>
      </trkpt>
      <trkpt lat="43.53462" lon="1.13363">
        <ele>286.730308</ele>
        <time>2020-09-20T07:03:39.000Z</time>
      </trkpt>
      <trkpt lat="43.53459" lon="1.13364">
        <ele>287.006724</ele>
        <time>2020-09-20T07:03:40.000Z</time>
      </trkpt>
      <trkpt lat="43.53453" lon="1.13367">
        <ele>287.49301</ele>
        <time>2020-09-20T07:03:42.000Z</time>
      </trkpt>
      <trkpt lat="43.53445" lon="1.13365">
        <ele>287.94329</ele>
        <time>2020-09-20T07:03:44.000Z</time>
      </trkpt>
      <trkpt lat="43.53439" lon="1.13359">
        <ele>288.241614</ele>
        <time>2020-09-20T07:03:46.000Z</time>
      </trkpt>
      <trkpt lat="43.53426" lon="1.1334">
        <ele>289.005609</ele>
        <time>2020-09-20T07:03:51.000Z</time>
      </trkpt>
      <trkpt lat="43.53422" lon="1.1332">
        <ele>289.610637</ele>
        <time>2020-09-20T07:03:55.000Z</time>
      </trkpt>
      <trkpt lat="43.5342" lon="1.13316">
        <ele>289.756272</ele>
        <time>2020-09-20T07:03:56.000Z</time>
      </trkpt>
      <trkpt lat="43.53414" lon="1.13295">
        <ele>290.403061</ele>
        <time>2020-09-20T07:04:01.000Z</time>
      </trkpt>
      <trkpt lat="43.5341" lon="1.13275">
        <ele>291.018218</ele>
        <time>2020-09-20T07:04:06.000Z</time>
      </trkpt>
      <trkpt lat="43.53408" lon="1.13264">
        <ele>291.345725</ele>
        <time>2020-09-20T07:04:08.000Z</time>
      </trkpt>
      <trkpt lat="43.53407" lon="1.13258">
        <ele>291.531779</ele>
        <time>2020-09-20T07:04:09.000Z</time>
      </trkpt>
      <trkpt lat="43.53407" lon="1.13252">
        <ele>291.697028</ele>
        <time>2020-09-20T07:04:10.000Z</time>
      </trkpt>
      <trkpt lat="43.53405" lon="1.13242">
        <ele>292.016791</ele>
        <time>2020-09-20T07:04:12.000Z</time>
      </trkpt>
      <trkpt lat="43.53403" lon="1.1323">
        <ele>292.349728</ele>
        <time>2020-09-20T07:04:14.000Z</time>
      </trkpt>
      <trkpt lat="43.53402" lon="1.13225">
        <ele>292.509597</ele>
        <time>2020-09-20T07:04:15.000Z</time>
      </trkpt>
      <trkpt lat="43.53401" lon="1.13219">
        <ele>292.683631</ele>
        <time>2020-09-20T07:04:16.000Z</time>
      </trkpt>
      <trkpt lat="43.53399" lon="1.13206">
        <ele>293.080894</ele>
        <time>2020-09-20T07:04:18.000Z</time>
      </trkpt>
      <trkpt lat="43.53395" lon="1.13189">
        <ele>293.596239</ele>
        <time>2020-09-20T07:04:21.000Z</time>
      </trkpt>
      <trkpt lat="43.53393" lon="1.13184">
        <ele>293.757452</ele>
        <time>2020-09-20T07:04:22.000Z</time>
      </trkpt>
      <trkpt lat="43.53388" lon="1.1317">
        <ele>294.217804</ele>
        <time>2020-09-20T07:04:25.000Z</time>
      </trkpt>
      <trkpt lat="43.53384" lon="1.13161">
        <ele>294.531984</ele>
        <time>2020-09-20T07:04:27.000Z</time>
      </trkpt>
      <trkpt lat="43.5338" lon="1.13144">
        <ele>295.031344</ele>
        <time>2020-09-20T07:04:30.000Z</time>
      </trkpt>
      <trkpt lat="43.53379" lon="1.13137">
        <ele>295.00777</ele>
        <time>2020-09-20T07:04:31.000Z</time>
      </trkpt>
      <trkpt lat="43.53375" lon="1.13112">
        <ele>294.914262</ele>
        <time>2020-09-20T07:04:35.000Z</time>
      </trkpt>
      <trkpt lat="43.53375" lon="1.13104">
        <ele>294.885099</ele>
        <time>2020-09-20T07:04:36.000Z</time>
      </trkpt>
      <trkpt lat="43.53371" lon="1.13077">
        <ele>294.786073</ele>
        <time>2020-09-20T07:04:40.000Z</time>
      </trkpt>
      <trkpt lat="43.53365" lon="1.13055">
        <ele>294.698789</ele>
        <time>2020-09-20T07:04:43.000Z</time>
      </trkpt>
      <trkpt lat="43.53363" lon="1.13047">
        <ele>294.67104</ele>
        <time>2020-09-20T07:04:44.000Z</time>
      </trkpt>
      <trkpt lat="43.53362" lon="1.1304">
        <ele>294.64278</ele>
        <time>2020-09-20T07:04:45.000Z</time>
      </trkpt>
      <trkpt lat="43.53363" lon="1.13017">
        <ele>294.562087</ele>
        <time>2020-09-20T07:04:48.000Z</time>
      </trkpt>
      <trkpt lat="43.53366" lon="1.12999">
        <ele>294.4938</ele>
        <time>2020-09-20T07:04:51.000Z</time>
      </trkpt>
      <trkpt lat="43.53366" lon="1.12991">
        <ele>294.464778</ele>
        <time>2020-09-20T07:04:52.000Z</time>
      </trkpt>
      <trkpt lat="43.53366" lon="1.12979">
        <ele>294.423155</ele>
        <time>2020-09-20T07:04:53.000Z</time>
      </trkpt>
      <trkpt lat="43.53365" lon="1.12956">
        <ele>294.338012</ele>
        <time>2020-09-20T07:04:56.000Z</time>
      </trkpt>
      <trkpt lat="43.53365" lon="1.12948">
        <ele>294.310074</ele>
        <time>2020-09-20T07:04:57.000Z</time>
      </trkpt>
      <trkpt lat="43.53361" lon="1.12916">
        <ele>294.191726</ele>
        <time>2020-09-20T07:05:01.000Z</time>
      </trkpt>
      <trkpt lat="43.53356" lon="1.12877">
        <ele>294.683862</ele>
        <time>2020-09-20T07:05:06.000Z</time>
      </trkpt>
      <trkpt lat="43.53355" lon="1.12868">
        <ele>294.864957</ele>
        <time>2020-09-20T07:05:07.000Z</time>
      </trkpt>
      <trkpt lat="43.53352" lon="1.12839">
        <ele>295.534199</ele>
        <time>2020-09-20T07:05:11.000Z</time>
      </trkpt>
      <trkpt lat="43.53345" lon="1.12794">
        <ele>296.55314</ele>
        <time>2020-09-20T07:05:17.000Z</time>
      </trkpt>
      <trkpt lat="43.53344" lon="1.12787">
        <ele>296.704974</ele>
        <time>2020-09-20T07:05:18.000Z</time>
      </trkpt>
      <trkpt lat="43.53338" lon="1.12754">
        <ele>297.459637</ele>
        <time>2020-09-20T07:05:23.000Z</time>
      </trkpt>
      <trkpt lat="43.53334" lon="1.12736">
        <ele>297.874995</ele>
        <time>2020-09-20T07:05:26.000Z</time>
      </trkpt>
      <trkpt lat="43.5333" lon="1.12718">
        <ele>298.305368</ele>
        <time>2020-09-20T07:05:29.000Z</time>
      </trkpt>
      <trkpt lat="43.53328" lon="1.12712">
        <ele>298.448368</ele>
        <time>2020-09-20T07:05:30.000Z</time>
      </trkpt>
      <trkpt lat="43.53326" lon="1.12699">
        <ele>298.739058</ele>
        <time>2020-09-20T07:05:32.000Z</time>
      </trkpt>
      <trkpt lat="43.53326" lon="1.12692">
        <ele>298.891995</ele>
        <time>2020-09-20T07:05:33.000Z</time>
      </trkpt>
      <trkpt lat="43.53324" lon="1.12679">
        <ele>299.194001</ele>
        <time>2020-09-20T07:05:35.000Z</time>
      </trkpt>
      <trkpt lat="43.53319" lon="1.12654">
        <ele>299.725111</ele>
        <time>2020-09-20T07:05:39.000Z</time>
      </trkpt>
      <trkpt lat="43.53319" lon="1.12648">
        <ele>299.82445</ele>
        <time>2020-09-20T07:05:40.000Z</time>
      </trkpt>
      <trkpt lat="43.53318" lon="1.12641">
        <ele>299.926248</ele>
        <time>2020-09-20T07:05:41.000Z</time>
      </trkpt>
      <trkpt lat="43.53313" lon="1.12609">
        <ele>300.447928</ele>
        <time>2020-09-20T07:05:46.000Z</time>
      </trkpt>
      <trkpt lat="43.53311" lon="1.12596">
        <ele>300.64498</ele>
        <time>2020-09-20T07:05:48.000Z</time>
      </trkpt>
      <trkpt lat="43.5331" lon="1.1259">
        <ele>300.743008</ele>
        <time>2020-09-20T07:05:49.000Z</time>
      </trkpt>
      <trkpt lat="43.53307" lon="1.12564">
        <ele>301.162466</ele>
        <time>2020-09-20T07:05:53.000Z</time>
      </trkpt>
      <trkpt lat="43.53306" lon="1.12558">
        <ele>301.262516</ele>
        <time>2020-09-20T07:05:54.000Z</time>
      </trkpt>
      <trkpt lat="43.53304" lon="1.12546">
        <ele>301.456576</ele>
        <time>2020-09-20T07:05:56.000Z</time>
      </trkpt>
      <trkpt lat="43.53302" lon="1.12519">
        <ele>301.873899</ele>
        <time>2020-09-20T07:06:00.000Z</time>
      </trkpt>
      <trkpt lat="43.533" lon="1.12491">
        <ele>302.314038</ele>
        <time>2020-09-20T07:06:04.000Z</time>
      </trkpt>
      <trkpt lat="43.53299" lon="1.12476">
        <ele>302.546514</ele>
        <time>2020-09-20T07:06:06.000Z</time>
      </trkpt>
      <trkpt lat="43.53293" lon="1.12434">
        <ele>303.219044</ele>
        <time>2020-09-20T07:06:12.000Z</time>
      </trkpt>
      <trkpt lat="43.53292" lon="1.1242">
        <ele>303.444231</ele>
        <time>2020-09-20T07:06:14.000Z</time>
      </trkpt>
      <trkpt lat="43.5329" lon="1.12396">
        <ele>303.399257</ele>
        <time>2020-09-20T07:06:17.000Z</time>
      </trkpt>
      <trkpt lat="43.53288" lon="1.12376">
        <ele>303.247323</ele>
        <time>2020-09-20T07:06:20.000Z</time>
      </trkpt>
      <trkpt lat="43.53287" lon="1.12361">
        <ele>303.138657</ele>
        <time>2020-09-20T07:06:22.000Z</time>
      </trkpt>
      <trkpt lat="43.53286" lon="1.12332">
        <ele>302.921429</ele>
        <time>2020-09-20T07:06:26.000Z</time>
      </trkpt>
      <trkpt lat="43.53286" lon="1.1231">
        <ele>302.760529</ele>
        <time>2020-09-20T07:06:29.000Z</time>
      </trkpt>
      <trkpt lat="43.53286" lon="1.1227">
        <ele>302.46454</ele>
        <time>2020-09-20T07:06:34.000Z</time>
      </trkpt>
      <trkpt lat="43.53286" lon="1.12263">
        <ele>302.412098</ele>
        <time>2020-09-20T07:06:35.000Z</time>
      </trkpt>
      <trkpt lat="43.53285" lon="1.12235">
        <ele>302.20766</ele>
        <time>2020-09-20T07:06:39.000Z</time>
      </trkpt>
      <trkpt lat="43.53283" lon="1.12205">
        <ele>301.981537</ele>
        <time>2020-09-20T07:06:43.000Z</time>
      </trkpt>
      <trkpt lat="43.53283" lon="1.1219">
        <ele>301.869974</ele>
        <time>2020-09-20T07:06:45.000Z</time>
      </trkpt>
      <trkpt lat="43.5328" lon="1.12144">
        <ele>301.617528</ele>
        <time>2020-09-20T07:06:51.000Z</time>
      </trkpt>
      <trkpt lat="43.53277" lon="1.12106">
        <ele>301.477448</ele>
        <time>2020-09-20T07:06:56.000Z</time>
      </trkpt>
      <trkpt lat="43.53274" lon="1.12084">
        <ele>301.394501</ele>
        <time>2020-09-20T07:06:59.000Z</time>
      </trkpt>
      <trkpt lat="43.53272" lon="1.12068">
        <ele>301.337911</ele>
        <time>2020-09-20T07:07:01.000Z</time>
      </trkpt>
      <trkpt lat="43.53271" lon="1.1206">
        <ele>301.306446</ele>
        <time>2020-09-20T07:07:02.000Z</time>
      </trkpt>
      <trkpt lat="43.53266" lon="1.12036">
        <ele>301.214892</ele>
        <time>2020-09-20T07:07:05.000Z</time>
      </trkpt>
      <trkpt lat="43.53259" lon="1.12004">
        <ele>301.094202</ele>
        <time>2020-09-20T07:07:09.000Z</time>
      </trkpt>
      <trkpt lat="43.53258" lon="1.11996">
        <ele>301.062033</ele>
        <time>2020-09-20T07:07:10.000Z</time>
      </trkpt>
      <trkpt lat="43.53253" lon="1.11971">
        <ele>300.968225</ele>
        <time>2020-09-20T07:07:13.000Z</time>
      </trkpt>
      <trkpt lat="43.53249" lon="1.11957">
        <ele>300.913101</ele>
        <time>2020-09-20T07:07:15.000Z</time>
      </trkpt>
      <trkpt lat="43.53242" lon="1.1192">
        <ele>300.79569</ele>
        <time>2020-09-20T07:07:20.000Z</time>
      </trkpt>
      <trkpt lat="43.5324" lon="1.11912">
        <ele>300.799362</ele>
        <time>2020-09-20T07:07:21.000Z</time>
      </trkpt>
      <trkpt lat="43.53234" lon="1.11882">
        <ele>300.813745</ele>
        <time>2020-09-20T07:07:25.000Z</time>
      </trkpt>
      <trkpt lat="43.5323" lon="1.11866">
        <ele>300.821046</ele>
        <time>2020-09-20T07:07:27.000Z</time>
      </trkpt>
      <trkpt lat="43.53227" lon="1.11851">
        <ele>300.828284</ele>
        <time>2020-09-20T07:07:29.000Z</time>
      </trkpt>
      <trkpt lat="43.53222" lon="1.11829">
        <ele>300.838999</ele>
        <time>2020-09-20T07:07:32.000Z</time>
      </trkpt>
      <trkpt lat="43.53219" lon="1.11816">
        <ele>300.845103</ele>
        <time>2020-09-20T07:07:34.000Z</time>
      </trkpt>
      <trkpt lat="43.53214" lon="1.11806">
        <ele>300.850729</ele>
        <time>2020-09-20T07:07:36.000Z</time>
      </trkpt>
      <trkpt lat="43.53205" lon="1.11788">
        <ele>300.860483</ele>
        <time>2020-09-20T07:07:39.000Z</time>
      </trkpt>
      <trkpt lat="43.53202" lon="1.11781">
        <ele>300.864135</ele>
        <time>2020-09-20T07:07:40.000Z</time>
      </trkpt>
      <trkpt lat="43.53188" lon="1.11754">
        <ele>300.879054</ele>
        <time>2020-09-20T07:07:44.000Z</time>
      </trkpt>
      <trkpt lat="43.53179" lon="1.11743">
        <ele>300.88649</ele>
        <time>2020-09-20T07:07:46.000Z</time>
      </trkpt>
      <trkpt lat="43.53176" lon="1.11737">
        <ele>300.890114</ele>
        <time>2020-09-20T07:07:47.000Z</time>
      </trkpt>
      <trkpt lat="43.53163" lon="1.11719">
        <ele>300.901546</ele>
        <time>2020-09-20T07:07:50.000Z</time>
      </trkpt>
      <trkpt lat="43.5314" lon="1.1169">
        <ele>301.187833</ele>
        <time>2020-09-20T07:07:55.000Z</time>
      </trkpt>
      <trkpt lat="43.53121" lon="1.11664">
        <ele>301.496868</ele>
        <time>2020-09-20T07:08:00.000Z</time>
      </trkpt>
      <trkpt lat="43.53118" lon="1.11659">
        <ele>301.556951</ele>
        <time>2020-09-20T07:08:01.000Z</time>
      </trkpt>
      <trkpt lat="43.53107" lon="1.11644">
        <ele>301.729297</ele>
        <time>2020-09-20T07:08:04.000Z</time>
      </trkpt>
      <trkpt lat="43.53092" lon="1.11621">
        <ele>301.992232</ele>
        <time>2020-09-20T07:08:09.000Z</time>
      </trkpt>
      <trkpt lat="43.53072" lon="1.11587">
        <ele>302.361538</ele>
        <time>2020-09-20T07:08:15.000Z</time>
      </trkpt>
      <trkpt lat="43.53058" lon="1.11547">
        <ele>302.730796</ele>
        <time>2020-09-20T07:08:21.000Z</time>
      </trkpt>
      <trkpt lat="43.53042" lon="1.11495">
        <ele>303.243051</ele>
        <time>2020-09-20T07:08:28.000Z</time>
      </trkpt>
      <trkpt lat="43.53025" lon="1.11457">
        <ele>303.68654</ele>
        <time>2020-09-20T07:08:34.000Z</time>
      </trkpt>
      <trkpt lat="43.53022" lon="1.11451">
        <ele>303.754245</ele>
        <time>2020-09-20T07:08:35.000Z</time>
      </trkpt>
      <trkpt lat="43.53007" lon="1.11415">
        <ele>304.170571</ele>
        <time>2020-09-20T07:08:41.000Z</time>
      </trkpt>
      <trkpt lat="43.53004" lon="1.11409">
        <ele>304.241601</ele>
        <time>2020-09-20T07:08:42.000Z</time>
      </trkpt>
      <trkpt lat="43.53001" lon="1.11402">
        <ele>304.310119</ele>
        <time>2020-09-20T07:08:43.000Z</time>
      </trkpt>
      <trkpt lat="43.52993" lon="1.11385">
        <ele>304.513466</ele>
        <time>2020-09-20T07:08:46.000Z</time>
      </trkpt>
      <trkpt lat="43.52983" lon="1.11365">
        <ele>304.754108</ele>
        <time>2020-09-20T07:08:50.000Z</time>
      </trkpt>
      <trkpt lat="43.52981" lon="1.11359">
        <ele>304.82275</ele>
        <time>2020-09-20T07:08:51.000Z</time>
      </trkpt>
      <trkpt lat="43.52968" lon="1.1133">
        <ele>305.152707</ele>
        <time>2020-09-20T07:08:56.000Z</time>
      </trkpt>
      <trkpt lat="43.5296" lon="1.11315">
        <ele>305.343891</ele>
        <time>2020-09-20T07:08:59.000Z</time>
      </trkpt>
      <trkpt lat="43.52953" lon="1.11304">
        <ele>305.471849</ele>
        <time>2020-09-20T07:09:01.000Z</time>
      </trkpt>
      <trkpt lat="43.5295" lon="1.11299">
        <ele>305.532113</ele>
        <time>2020-09-20T07:09:02.000Z</time>
      </trkpt>
      <trkpt lat="43.52944" lon="1.11288">
        <ele>305.649464</ele>
        <time>2020-09-20T07:09:04.000Z</time>
      </trkpt>
      <trkpt lat="43.52939" lon="1.11276">
        <ele>305.758662</ele>
        <time>2020-09-20T07:09:06.000Z</time>
      </trkpt>
      <trkpt lat="43.52937" lon="1.1127">
        <ele>305.816597</ele>
        <time>2020-09-20T07:09:07.000Z</time>
      </trkpt>
      <trkpt lat="43.52928" lon="1.11247">
        <ele>306.039602</ele>
        <time>2020-09-20T07:09:11.000Z</time>
      </trkpt>
      <trkpt lat="43.52925" lon="1.11234">
        <ele>306.153677</ele>
        <time>2020-09-20T07:09:13.000Z</time>
      </trkpt>
      <trkpt lat="43.52923" lon="1.11229">
        <ele>306.203758</ele>
        <time>2020-09-20T07:09:14.000Z</time>
      </trkpt>
      <trkpt lat="43.52921" lon="1.11223">
        <ele>306.254852</ele>
        <time>2020-09-20T07:09:15.000Z</time>
      </trkpt>
      <trkpt lat="43.52911" lon="1.11195">
        <ele>306.518863</ele>
        <time>2020-09-20T07:09:20.000Z</time>
      </trkpt>
      <trkpt lat="43.52909" lon="1.11189">
        <ele>306.571726</ele>
        <time>2020-09-20T07:09:21.000Z</time>
      </trkpt>
      <trkpt lat="43.529" lon="1.11166">
        <ele>306.790758</ele>
        <time>2020-09-20T07:09:25.000Z</time>
      </trkpt>
      <trkpt lat="43.52885" lon="1.11131">
        <ele>307.137569</ele>
        <time>2020-09-20T07:09:31.000Z</time>
      </trkpt>
      <trkpt lat="43.52869" lon="1.11091">
        <ele>307.52228</ele>
        <time>2020-09-20T07:09:38.000Z</time>
      </trkpt>
      <trkpt lat="43.5286" lon="1.11067">
        <ele>307.467602</ele>
        <time>2020-09-20T07:09:42.000Z</time>
      </trkpt>
      <trkpt lat="43.52857" lon="1.11061">
        <ele>307.453325</ele>
        <time>2020-09-20T07:09:43.000Z</time>
      </trkpt>
      <trkpt lat="43.52846" lon="1.11028">
        <ele>307.376724</ele>
        <time>2020-09-20T07:09:48.000Z</time>
      </trkpt>
      <trkpt lat="43.52844" lon="1.11021">
        <ele>307.360555</ele>
        <time>2020-09-20T07:09:49.000Z</time>
      </trkpt>
      <trkpt lat="43.52834" lon="1.10989">
        <ele>307.287651</ele>
        <time>2020-09-20T07:09:55.000Z</time>
      </trkpt>
      <trkpt lat="43.52834" lon="1.10978">
        <ele>307.265728</ele>
        <time>2020-09-20T07:09:58.000Z</time>
      </trkpt>
      <trkpt lat="43.52834" lon="1.10976">
        <ele>307.261204</ele>
        <time>2020-09-20T07:10:00.000Z</time>
      </trkpt>
      <trkpt lat="43.52835" lon="1.10976">
        <ele>307.2593</ele>
        <time>2020-09-20T07:10:02.000Z</time>
      </trkpt>
      <trkpt lat="43.52833" lon="1.10973">
        <ele>307.251609</ele>
        <time>2020-09-20T07:11:37.000Z</time>
      </trkpt>
      <trkpt lat="43.52831" lon="1.10972">
        <ele>307.244994</ele>
        <time>2020-09-20T07:11:38.000Z</time>
      </trkpt>
      <trkpt lat="43.52828" lon="1.1097">
        <ele>307.237144</ele>
        <time>2020-09-20T07:11:39.000Z</time>
      </trkpt>
      <trkpt lat="43.52816" lon="1.10957">
        <ele>307.19226</ele>
        <time>2020-09-20T07:11:44.000Z</time>
      </trkpt>
      <trkpt lat="43.52796" lon="1.10955">
        <ele>307.136724</ele>
        <time>2020-09-20T07:11:49.000Z</time>
      </trkpt>
      <trkpt lat="43.52788" lon="1.10959">
        <ele>307.112845</ele>
        <time>2020-09-20T07:11:51.000Z</time>
      </trkpt>
      <trkpt lat="43.5278" lon="1.10963">
        <ele>307.086086</ele>
        <time>2020-09-20T07:11:53.000Z</time>
      </trkpt>
      <trkpt lat="43.52775" lon="1.10964">
        <ele>307.073111</ele>
        <time>2020-09-20T07:11:54.000Z</time>
      </trkpt>
      <trkpt lat="43.52771" lon="1.10965">
        <ele>307.060613</ele>
        <time>2020-09-20T07:11:55.000Z</time>
      </trkpt>
      <trkpt lat="43.52755" lon="1.10968">
        <ele>307.013982</ele>
        <time>2020-09-20T07:11:59.000Z</time>
      </trkpt>
      <trkpt lat="43.52751" lon="1.10969">
        <ele>307.003624</ele>
        <time>2020-09-20T07:12:00.000Z</time>
      </trkpt>
      <trkpt lat="43.52728" lon="1.10975">
        <ele>306.945758</ele>
        <time>2020-09-20T07:12:06.000Z</time>
      </trkpt>
      <trkpt lat="43.52716" lon="1.10977">
        <ele>306.914968</ele>
        <time>2020-09-20T07:12:09.000Z</time>
      </trkpt>
      <trkpt lat="43.52705" lon="1.1098">
        <ele>306.886861</ele>
        <time>2020-09-20T07:12:12.000Z</time>
      </trkpt>
      <trkpt lat="43.52677" lon="1.10989">
        <ele>306.817073</ele>
        <time>2020-09-20T07:12:19.000Z</time>
      </trkpt>
      <trkpt lat="43.5267" lon="1.10991">
        <ele>306.798281</ele>
        <time>2020-09-20T07:12:21.000Z</time>
      </trkpt>
      <trkpt lat="43.52658" lon="1.10996">
        <ele>306.767156</ele>
        <time>2020-09-20T07:12:25.000Z</time>
      </trkpt>
      <trkpt lat="43.52638" lon="1.11009">
        <ele>306.712044</ele>
        <time>2020-09-20T07:12:30.000Z</time>
      </trkpt>
      <trkpt lat="43.52625" lon="1.11012">
        <ele>306.680435</ele>
        <time>2020-09-20T07:12:33.000Z</time>
      </trkpt>
      <trkpt lat="43.52617" lon="1.11025">
        <ele>306.650937</ele>
        <time>2020-09-20T07:12:36.000Z</time>
      </trkpt>
      <trkpt lat="43.52616" lon="1.11042">
        <ele>306.621545</ele>
        <time>2020-09-20T07:12:39.000Z</time>
      </trkpt>
      <trkpt lat="43.52613" lon="1.11053">
        <ele>306.599284</ele>
        <time>2020-09-20T07:12:41.000Z</time>
      </trkpt>
      <trkpt lat="43.52611" lon="1.11059">
        <ele>306.588568</ele>
        <time>2020-09-20T07:12:42.000Z</time>
      </trkpt>
      <trkpt lat="43.52608" lon="1.11064">
        <ele>306.575943</ele>
        <time>2020-09-20T07:12:43.000Z</time>
      </trkpt>
      <trkpt lat="43.52592" lon="1.11093">
        <ele>305.67295</ele>
        <time>2020-09-20T07:12:48.000Z</time>
      </trkpt>
      <trkpt lat="43.52581" lon="1.11117">
        <ele>304.767489</ele>
        <time>2020-09-20T07:12:52.000Z</time>
      </trkpt>
      <trkpt lat="43.52577" lon="1.11123">
        <ele>304.504399</ele>
        <time>2020-09-20T07:12:53.000Z</time>
      </trkpt>
      <trkpt lat="43.52574" lon="1.11129">
        <ele>304.256459</ele>
        <time>2020-09-20T07:12:54.000Z</time>
      </trkpt>
      <trkpt lat="43.52566" lon="1.11146">
        <ele>303.614245</ele>
        <time>2020-09-20T07:12:57.000Z</time>
      </trkpt>
      <trkpt lat="43.52563" lon="1.11152">
        <ele>303.402891</ele>
        <time>2020-09-20T07:12:58.000Z</time>
      </trkpt>
      <trkpt lat="43.52556" lon="1.11164">
        <ele>302.89082</ele>
        <time>2020-09-20T07:13:00.000Z</time>
      </trkpt>
      <trkpt lat="43.52552" lon="1.11171">
        <ele>302.611249</ele>
        <time>2020-09-20T07:13:01.000Z</time>
      </trkpt>
      <trkpt lat="43.52529" lon="1.11214">
        <ele>300.904911</ele>
        <time>2020-09-20T07:13:07.000Z</time>
      </trkpt>
      <trkpt lat="43.52519" lon="1.11231">
        <ele>300.195896</ele>
        <time>2020-09-20T07:13:10.000Z</time>
      </trkpt>
      <trkpt lat="43.52499" lon="1.11236">
        <ele>299.316287</ele>
        <time>2020-09-20T07:13:13.000Z</time>
      </trkpt>
      <trkpt lat="43.52486" lon="1.11238">
        <ele>298.75344</ele>
        <time>2020-09-20T07:13:15.000Z</time>
      </trkpt>
      <trkpt lat="43.5248" lon="1.1124">
        <ele>298.287386</ele>
        <time>2020-09-20T07:13:16.000Z</time>
      </trkpt>
      <trkpt lat="43.52472" lon="1.11242">
        <ele>297.672074</ele>
        <time>2020-09-20T07:13:17.000Z</time>
      </trkpt>
      <trkpt lat="43.52464" lon="1.11244">
        <ele>296.983717</ele>
        <time>2020-09-20T07:13:18.000Z</time>
      </trkpt>
      <trkpt lat="43.52455" lon="1.11246">
        <ele>296.251113</ele>
        <time>2020-09-20T07:13:19.000Z</time>
      </trkpt>
      <trkpt lat="43.52447" lon="1.11248">
        <ele>295.574865</ele>
        <time>2020-09-20T07:13:20.000Z</time>
      </trkpt>
      <trkpt lat="43.52439" lon="1.11249">
        <ele>294.887075</ele>
        <time>2020-09-20T07:13:21.000Z</time>
      </trkpt>
      <trkpt lat="43.52432" lon="1.1125">
        <ele>294.331715</ele>
        <time>2020-09-20T07:13:22.000Z</time>
      </trkpt>
      <trkpt lat="43.52426" lon="1.1125">
        <ele>293.89156</ele>
        <time>2020-09-20T07:13:23.000Z</time>
      </trkpt>
      <trkpt lat="43.52422" lon="1.11252">
        <ele>293.514245</ele>
        <time>2020-09-20T07:13:24.000Z</time>
      </trkpt>
      <trkpt lat="43.52421" lon="1.11257">
        <ele>293.225074</ele>
        <time>2020-09-20T07:13:25.000Z</time>
      </trkpt>
      <trkpt lat="43.5242" lon="1.11262">
        <ele>292.931614</ele>
        <time>2020-09-20T07:13:26.000Z</time>
      </trkpt>
      <trkpt lat="43.52419" lon="1.11272">
        <ele>292.312766</ele>
        <time>2020-09-20T07:13:28.000Z</time>
      </trkpt>
      <trkpt lat="43.52417" lon="1.11286">
        <ele>291.487044</ele>
        <time>2020-09-20T07:13:30.000Z</time>
      </trkpt>
      <trkpt lat="43.52418" lon="1.11301">
        <ele>290.581725</ele>
        <time>2020-09-20T07:13:32.000Z</time>
      </trkpt>
      <trkpt lat="43.5242" lon="1.11308">
        <ele>290.139814</ele>
        <time>2020-09-20T07:13:33.000Z</time>
      </trkpt>
      <trkpt lat="43.52426" lon="1.1132">
        <ele>289.274471</ele>
        <time>2020-09-20T07:13:35.000Z</time>
      </trkpt>
      <trkpt lat="43.52434" lon="1.11331">
        <ele>288.379663</ele>
        <time>2020-09-20T07:13:37.000Z</time>
      </trkpt>
      <trkpt lat="43.52436" lon="1.11337">
        <ele>287.982613</ele>
        <time>2020-09-20T07:13:38.000Z</time>
      </trkpt>
      <trkpt lat="43.52439" lon="1.11358">
        <ele>286.709619</ele>
        <time>2020-09-20T07:13:41.000Z</time>
      </trkpt>
      <trkpt lat="43.52446" lon="1.11394">
        <ele>284.511063</ele>
        <time>2020-09-20T07:13:46.000Z</time>
      </trkpt>
      <trkpt lat="43.52446" lon="1.11402">
        <ele>284.024365</ele>
        <time>2020-09-20T07:13:47.000Z</time>
      </trkpt>
      <trkpt lat="43.52447" lon="1.11425">
        <ele>282.212454</ele>
        <time>2020-09-20T07:13:50.000Z</time>
      </trkpt>
      <trkpt lat="43.52449" lon="1.11432">
        <ele>281.630173</ele>
        <time>2020-09-20T07:13:51.000Z</time>
      </trkpt>
      <trkpt lat="43.52451" lon="1.11446">
        <ele>280.528422</ele>
        <time>2020-09-20T07:13:53.000Z</time>
      </trkpt>
      <trkpt lat="43.52453" lon="1.11451">
        <ele>280.099963</ele>
        <time>2020-09-20T07:13:54.000Z</time>
      </trkpt>
      <trkpt lat="43.52455" lon="1.11457">
        <ele>279.567341</ele>
        <time>2020-09-20T07:13:55.000Z</time>
      </trkpt>
      <trkpt lat="43.52457" lon="1.11464">
        <ele>278.992537</ele>
        <time>2020-09-20T07:13:56.000Z</time>
      </trkpt>
      <trkpt lat="43.5246" lon="1.11473">
        <ele>278.206624</ele>
        <time>2020-09-20T07:13:57.000Z</time>
      </trkpt>
      <trkpt lat="43.52464" lon="1.11482">
        <ele>277.375086</ele>
        <time>2020-09-20T07:13:58.000Z</time>
      </trkpt>
      <trkpt lat="43.52467" lon="1.11491">
        <ele>276.582042</ele>
        <time>2020-09-20T07:13:59.000Z</time>
      </trkpt>
      <trkpt lat="43.5247" lon="1.11501">
        <ele>275.693842</ele>
        <time>2020-09-20T07:14:00.000Z</time>
      </trkpt>
      <trkpt lat="43.52472" lon="1.11512">
        <ele>274.855505</ele>
        <time>2020-09-20T07:14:01.000Z</time>
      </trkpt>
      <trkpt lat="43.52474" lon="1.11521">
        <ele>274.081107</ele>
        <time>2020-09-20T07:14:02.000Z</time>
      </trkpt>
      <trkpt lat="43.52474" lon="1.11531">
        <ele>273.299933</ele>
        <time>2020-09-20T07:14:03.000Z</time>
      </trkpt>
      <trkpt lat="43.52473" lon="1.11541">
        <ele>272.490705</ele>
        <time>2020-09-20T07:14:04.000Z</time>
      </trkpt>
      <trkpt lat="43.52469" lon="1.1155">
        <ele>271.715472</ele>
        <time>2020-09-20T07:14:05.000Z</time>
      </trkpt>
      <trkpt lat="43.52465" lon="1.11557">
        <ele>270.955462</ele>
        <time>2020-09-20T07:14:06.000Z</time>
      </trkpt>
      <trkpt lat="43.52461" lon="1.11567">
        <ele>270.097949</ele>
        <time>2020-09-20T07:14:07.000Z</time>
      </trkpt>
      <trkpt lat="43.52453" lon="1.11585">
        <ele>268.415419</ele>
        <time>2020-09-20T07:14:09.000Z</time>
      </trkpt>
      <trkpt lat="43.52451" lon="1.11597">
        <ele>267.472023</ele>
        <time>2020-09-20T07:14:10.000Z</time>
      </trkpt>
      <trkpt lat="43.52449" lon="1.11616">
        <ele>265.969961</ele>
        <time>2020-09-20T07:14:12.000Z</time>
      </trkpt>
      <trkpt lat="43.5245" lon="1.11624">
        <ele>265.34447</ele>
        <time>2020-09-20T07:14:13.000Z</time>
      </trkpt>
      <trkpt lat="43.52451" lon="1.11631">
        <ele>264.705502</ele>
        <time>2020-09-20T07:14:14.000Z</time>
      </trkpt>
      <trkpt lat="43.52452" lon="1.11639">
        <ele>264.283081</ele>
        <time>2020-09-20T07:14:15.000Z</time>
      </trkpt>
      <trkpt lat="43.52453" lon="1.11647">
        <ele>264.001673</ele>
        <time>2020-09-20T07:14:16.000Z</time>
      </trkpt>
      <trkpt lat="43.52448" lon="1.1166">
        <ele>263.486777</ele>
        <time>2020-09-20T07:14:18.000Z</time>
      </trkpt>
      <trkpt lat="43.52438" lon="1.11669">
        <ele>262.910212</ele>
        <time>2020-09-20T07:14:20.000Z</time>
      </trkpt>
      <trkpt lat="43.52434" lon="1.11673">
        <ele>262.655711</ele>
        <time>2020-09-20T07:14:21.000Z</time>
      </trkpt>
      <trkpt lat="43.52429" lon="1.11675">
        <ele>262.417792</ele>
        <time>2020-09-20T07:14:22.000Z</time>
      </trkpt>
      <trkpt lat="43.5242" lon="1.11676">
        <ele>261.983268</ele>
        <time>2020-09-20T07:14:24.000Z</time>
      </trkpt>
      <trkpt lat="43.52416" lon="1.11676">
        <ele>261.744217</ele>
        <time>2020-09-20T07:14:25.000Z</time>
      </trkpt>
      <trkpt lat="43.52402" lon="1.11682">
        <ele>261.046827</ele>
        <time>2020-09-20T07:14:28.000Z</time>
      </trkpt>
      <trkpt lat="43.52391" lon="1.11698">
        <ele>260.285711</ele>
        <time>2020-09-20T07:14:31.000Z</time>
      </trkpt>
      <trkpt lat="43.52377" lon="1.11714">
        <ele>259.370498</ele>
        <time>2020-09-20T07:14:34.000Z</time>
      </trkpt>
      <trkpt lat="43.52373" lon="1.11721">
        <ele>259.073794</ele>
        <time>2020-09-20T07:14:35.000Z</time>
      </trkpt>
      <trkpt lat="43.52365" lon="1.11742">
        <ele>258.217406</ele>
        <time>2020-09-20T07:14:38.000Z</time>
      </trkpt>
      <trkpt lat="43.52364" lon="1.11748">
        <ele>257.999033</ele>
        <time>2020-09-20T07:14:39.000Z</time>
      </trkpt>
      <trkpt lat="43.52369" lon="1.11764">
        <ele>257.404388</ele>
        <time>2020-09-20T07:14:42.000Z</time>
      </trkpt>
      <trkpt lat="43.52371" lon="1.11769">
        <ele>257.196614</ele>
        <time>2020-09-20T07:14:43.000Z</time>
      </trkpt>
      <trkpt lat="43.52372" lon="1.11775">
        <ele>256.994924</ele>
        <time>2020-09-20T07:14:44.000Z</time>
      </trkpt>
      <trkpt lat="43.52376" lon="1.11783">
        <ele>256.650419</ele>
        <time>2020-09-20T07:14:46.000Z</time>
      </trkpt>
      <trkpt lat="43.52378" lon="1.11786">
        <ele>256.513941</ele>
        <time>2020-09-20T07:14:47.000Z</time>
      </trkpt>
      <trkpt lat="43.5238" lon="1.11789">
        <ele>256.362035</ele>
        <time>2020-09-20T07:14:48.000Z</time>
      </trkpt>
      <trkpt lat="43.52389" lon="1.11803">
        <ele>255.695967</ele>
        <time>2020-09-20T07:14:51.000Z</time>
      </trkpt>
      <trkpt lat="43.52395" lon="1.11812">
        <ele>255.638749</ele>
        <time>2020-09-20T07:14:55.000Z</time>
      </trkpt>
      <trkpt lat="43.52396" lon="1.11813">
        <ele>255.633848</ele>
        <time>2020-09-20T07:14:56.000Z</time>
      </trkpt>
      <trkpt lat="43.52397" lon="1.11814">
        <ele>255.628891</ele>
        <time>2020-09-20T07:14:57.000Z</time>
      </trkpt>
      <trkpt lat="43.52398" lon="1.11815">
        <ele>255.621825</ele>
        <time>2020-09-20T07:14:59.000Z</time>
      </trkpt>
      <trkpt lat="43.52398" lon="1.11817">
        <ele>255.617246</ele>
        <time>2020-09-20T07:15:00.000Z</time>
      </trkpt>
      <trkpt lat="43.52397" lon="1.1182">
        <ele>255.604747</ele>
        <time>2020-09-20T07:15:07.000Z</time>
      </trkpt>
      <trkpt lat="43.52395" lon="1.1182">
        <ele>255.598257</ele>
        <time>2020-09-20T07:15:08.000Z</time>
      </trkpt>
      <trkpt lat="43.52393" lon="1.11819">
        <ele>255.584516</ele>
        <time>2020-09-20T07:15:10.000Z</time>
      </trkpt>
      <trkpt lat="43.52385" lon="1.11811">
        <ele>255.54029</ele>
        <time>2020-09-20T07:15:13.000Z</time>
      </trkpt>
      <trkpt lat="43.52381" lon="1.11808">
        <ele>255.518946</ele>
        <time>2020-09-20T07:15:14.000Z</time>
      </trkpt>
      <trkpt lat="43.52369" lon="1.11795">
        <ele>255.448981</ele>
        <time>2020-09-20T07:15:17.000Z</time>
      </trkpt>
      <trkpt lat="43.52354" lon="1.11776">
        <ele>255.35493</ele>
        <time>2020-09-20T07:15:22.000Z</time>
      </trkpt>
      <trkpt lat="43.52351" lon="1.11772">
        <ele>255.334918</ele>
        <time>2020-09-20T07:15:23.000Z</time>
      </trkpt>
      <trkpt lat="43.52344" lon="1.11765">
        <ele>255.294689</ele>
        <time>2020-09-20T07:15:25.000Z</time>
      </trkpt>
      <trkpt lat="43.52336" lon="1.11756">
        <ele>255.248391</ele>
        <time>2020-09-20T07:15:27.000Z</time>
      </trkpt>
      <trkpt lat="43.52318" lon="1.11736">
        <ele>255.14095</ele>
        <time>2020-09-20T07:15:31.000Z</time>
      </trkpt>
      <trkpt lat="43.52297" lon="1.11708">
        <ele>255.005179</ele>
        <time>2020-09-20T07:15:36.000Z</time>
      </trkpt>
      <trkpt lat="43.52293" lon="1.11702">
        <ele>254.980056</ele>
        <time>2020-09-20T07:15:37.000Z</time>
      </trkpt>
      <trkpt lat="43.52279" lon="1.11681">
        <ele>254.881416</ele>
        <time>2020-09-20T07:15:41.000Z</time>
      </trkpt>
      <trkpt lat="43.52272" lon="1.11673">
        <ele>254.84742</ele>
        <time>2020-09-20T07:15:43.000Z</time>
      </trkpt>
      <trkpt lat="43.52269" lon="1.1167">
        <ele>254.853721</ele>
        <time>2020-09-20T07:15:44.000Z</time>
      </trkpt>
      <trkpt lat="43.52263" lon="1.11662">
        <ele>254.868179</ele>
        <time>2020-09-20T07:15:46.000Z</time>
      </trkpt>
      <trkpt lat="43.52258" lon="1.1165">
        <ele>254.885949</ele>
        <time>2020-09-20T07:15:49.000Z</time>
      </trkpt>
      <trkpt lat="43.52254" lon="1.11644">
        <ele>254.895127</ele>
        <time>2020-09-20T07:15:50.000Z</time>
      </trkpt>
      <trkpt lat="43.52251" lon="1.11639">
        <ele>254.903759</ele>
        <time>2020-09-20T07:15:51.000Z</time>
      </trkpt>
      <trkpt lat="43.52243" lon="1.11624">
        <ele>254.927534</ele>
        <time>2020-09-20T07:15:54.000Z</time>
      </trkpt>
      <trkpt lat="43.52225" lon="1.11602">
        <ele>254.968406</ele>
        <time>2020-09-20T07:15:59.000Z</time>
      </trkpt>
      <trkpt lat="43.52219" lon="1.11592">
        <ele>254.985789</ele>
        <time>2020-09-20T07:16:01.000Z</time>
      </trkpt>
      <trkpt lat="43.52207" lon="1.11578">
        <ele>255.012772</ele>
        <time>2020-09-20T07:16:04.000Z</time>
      </trkpt>
      <trkpt lat="43.52204" lon="1.11574">
        <ele>255.019472</ele>
        <time>2020-09-20T07:16:05.000Z</time>
      </trkpt>
      <trkpt lat="43.52197" lon="1.11564">
        <ele>255.038334</ele>
        <time>2020-09-20T07:16:08.000Z</time>
      </trkpt>
      <trkpt lat="43.52194" lon="1.11561">
        <ele>255.043579</ele>
        <time>2020-09-20T07:16:09.000Z</time>
      </trkpt>
      <trkpt lat="43.52182" lon="1.11544">
        <ele>255.073291</ele>
        <time>2020-09-20T07:16:14.000Z</time>
      </trkpt>
      <trkpt lat="43.5218" lon="1.11541">
        <ele>255.079733</ele>
        <time>2020-09-20T07:16:15.000Z</time>
      </trkpt>
      <trkpt lat="43.5217" lon="1.11521">
        <ele>255.109421</ele>
        <time>2020-09-20T07:16:20.000Z</time>
      </trkpt>
      <trkpt lat="43.52164" lon="1.11507">
        <ele>255.129921</ele>
        <time>2020-09-20T07:16:23.000Z</time>
      </trkpt>
      <trkpt lat="43.52162" lon="1.11503">
        <ele>255.136155</ele>
        <time>2020-09-20T07:16:24.000Z</time>
      </trkpt>
      <trkpt lat="43.52156" lon="1.11488">
        <ele>255.157374</ele>
        <time>2020-09-20T07:16:28.000Z</time>
      </trkpt>
      <trkpt lat="43.52152" lon="1.11472">
        <ele>255.39352</ele>
        <time>2020-09-20T07:16:31.000Z</time>
      </trkpt>
      <trkpt lat="43.52143" lon="1.1144">
        <ele>255.865605</ele>
        <time>2020-09-20T07:16:36.000Z</time>
      </trkpt>
      <trkpt lat="43.52141" lon="1.11432">
        <ele>255.972301</ele>
        <time>2020-09-20T07:16:37.000Z</time>
      </trkpt>
      <trkpt lat="43.5214" lon="1.11426">
        <ele>256.058504</ele>
        <time>2020-09-20T07:16:38.000Z</time>
      </trkpt>
      <trkpt lat="43.52139" lon="1.11422">
        <ele>256.113327</ele>
        <time>2020-09-20T07:16:39.000Z</time>
      </trkpt>
      <trkpt lat="43.52139" lon="1.11419">
        <ele>256.151912</ele>
        <time>2020-09-20T07:16:40.000Z</time>
      </trkpt>
      <trkpt lat="43.52136" lon="1.11403">
        <ele>256.382417</ele>
        <time>2020-09-20T07:16:44.000Z</time>
      </trkpt>
      <trkpt lat="43.52135" lon="1.11398">
        <ele>256.462843</ele>
        <time>2020-09-20T07:16:45.000Z</time>
      </trkpt>
      <trkpt lat="43.52133" lon="1.11379">
        <ele>256.714834</ele>
        <time>2020-09-20T07:16:48.000Z</time>
      </trkpt>
      <trkpt lat="43.52131" lon="1.11366">
        <ele>256.900606</ele>
        <time>2020-09-20T07:16:50.000Z</time>
      </trkpt>
      <trkpt lat="43.52129" lon="1.1136">
        <ele>256.984439</ele>
        <time>2020-09-20T07:16:51.000Z</time>
      </trkpt>
      <trkpt lat="43.52128" lon="1.1135">
        <ele>257.125298</ele>
        <time>2020-09-20T07:16:53.000Z</time>
      </trkpt>
      <trkpt lat="43.52128" lon="1.11341">
        <ele>257.248069</ele>
        <time>2020-09-20T07:16:56.000Z</time>
      </trkpt>
      <trkpt lat="43.52129" lon="1.11339">
        <ele>257.285529</ele>
        <time>2020-09-20T07:16:57.000Z</time>
      </trkpt>
      <trkpt lat="43.52129" lon="1.11337">
        <ele>257.314882</ele>
        <time>2020-09-20T07:16:58.000Z</time>
      </trkpt>
      <trkpt lat="43.5213" lon="1.11324">
        <ele>257.494604</ele>
        <time>2020-09-20T07:17:06.000Z</time>
      </trkpt>
      <trkpt lat="43.5213" lon="1.11319">
        <ele>257.564571</ele>
        <time>2020-09-20T07:17:08.000Z</time>
      </trkpt>
      <trkpt lat="43.5213" lon="1.11316">
        <ele>257.600228</ele>
        <time>2020-09-20T07:17:09.000Z</time>
      </trkpt>
      <trkpt lat="43.5213" lon="1.11312">
        <ele>257.657858</ele>
        <time>2020-09-20T07:17:10.000Z</time>
      </trkpt>
      <trkpt lat="43.5213" lon="1.11298">
        <ele>257.841636</ele>
        <time>2020-09-20T07:17:13.000Z</time>
      </trkpt>
      <trkpt lat="43.5213" lon="1.11288">
        <ele>257.984375</ele>
        <time>2020-09-20T07:17:15.000Z</time>
      </trkpt>
      <trkpt lat="43.52128" lon="1.11278">
        <ele>258.127494</ele>
        <time>2020-09-20T07:17:17.000Z</time>
      </trkpt>
      <trkpt lat="43.52131" lon="1.11262">
        <ele>258.34374</ele>
        <time>2020-09-20T07:17:20.000Z</time>
      </trkpt>
      <trkpt lat="43.52132" lon="1.11257">
        <ele>258.414668</ele>
        <time>2020-09-20T07:17:21.000Z</time>
      </trkpt>
      <trkpt lat="43.52133" lon="1.11246">
        <ele>258.571424</ele>
        <time>2020-09-20T07:17:23.000Z</time>
      </trkpt>
      <trkpt lat="43.52133" lon="1.11239">
        <ele>258.644863</ele>
        <time>2020-09-20T07:17:24.000Z</time>
      </trkpt>
      <trkpt lat="43.52131" lon="1.11228">
        <ele>258.771405</ele>
        <time>2020-09-20T07:17:26.000Z</time>
      </trkpt>
      <trkpt lat="43.52131" lon="1.11221">
        <ele>258.858282</ele>
        <time>2020-09-20T07:17:27.000Z</time>
      </trkpt>
      <trkpt lat="43.5213" lon="1.11205">
        <ele>259.0395</ele>
        <time>2020-09-20T07:17:29.000Z</time>
      </trkpt>
      <trkpt lat="43.52126" lon="1.11159">
        <ele>259.560958</ele>
        <time>2020-09-20T07:17:35.000Z</time>
      </trkpt>
      <trkpt lat="43.52119" lon="1.1112">
        <ele>260.005225</ele>
        <time>2020-09-20T07:17:41.000Z</time>
      </trkpt>
      <trkpt lat="43.52117" lon="1.111">
        <ele>260.242728</ele>
        <time>2020-09-20T07:17:44.000Z</time>
      </trkpt>
      <trkpt lat="43.52115" lon="1.11079">
        <ele>260.472403</ele>
        <time>2020-09-20T07:17:47.000Z</time>
      </trkpt>
      <trkpt lat="43.52114" lon="1.11066">
        <ele>260.626881</ele>
        <time>2020-09-20T07:17:49.000Z</time>
      </trkpt>
      <trkpt lat="43.52113" lon="1.11043">
        <ele>260.888936</ele>
        <time>2020-09-20T07:17:52.000Z</time>
      </trkpt>
      <trkpt lat="43.52111" lon="1.10997">
        <ele>261.497159</ele>
        <time>2020-09-20T07:17:58.000Z</time>
      </trkpt>
      <trkpt lat="43.5211" lon="1.10989">
        <ele>261.716838</ele>
        <time>2020-09-20T07:17:59.000Z</time>
      </trkpt>
      <trkpt lat="43.52109" lon="1.10983">
        <ele>261.935218</ele>
        <time>2020-09-20T07:18:00.000Z</time>
      </trkpt>
      <trkpt lat="43.52104" lon="1.10957">
        <ele>262.747034</ele>
        <time>2020-09-20T07:18:04.000Z</time>
      </trkpt>
      <trkpt lat="43.52102" lon="1.10939">
        <ele>263.280327</ele>
        <time>2020-09-20T07:18:07.000Z</time>
      </trkpt>
      <trkpt lat="43.52102" lon="1.10936">
        <ele>263.39683</ele>
        <time>2020-09-20T07:18:08.000Z</time>
      </trkpt>
      <trkpt lat="43.52103" lon="1.10931">
        <ele>263.532133</ele>
        <time>2020-09-20T07:18:11.000Z</time>
      </trkpt>
      <trkpt lat="43.52102" lon="1.10923">
        <ele>263.799787</ele>
        <time>2020-09-20T07:18:15.000Z</time>
      </trkpt>
      <trkpt lat="43.52098" lon="1.10912">
        <ele>264.145785</ele>
        <time>2020-09-20T07:18:18.000Z</time>
      </trkpt>
      <trkpt lat="43.52096" lon="1.10902">
        <ele>264.463809</ele>
        <time>2020-09-20T07:18:20.000Z</time>
      </trkpt>
      <trkpt lat="43.52091" lon="1.10872">
        <ele>265.414795</ele>
        <time>2020-09-20T07:18:26.000Z</time>
      </trkpt>
      <trkpt lat="43.52082" lon="1.10861">
        <ele>265.915045</ele>
        <time>2020-09-20T07:18:29.000Z</time>
      </trkpt>
      <trkpt lat="43.52081" lon="1.10857">
        <ele>266.066374</ele>
        <time>2020-09-20T07:18:30.000Z</time>
      </trkpt>
      <trkpt lat="43.52079" lon="1.10852">
        <ele>266.211185</ele>
        <time>2020-09-20T07:18:31.000Z</time>
      </trkpt>
      <trkpt lat="43.52075" lon="1.10839">
        <ele>266.642929</ele>
        <time>2020-09-20T07:18:34.000Z</time>
      </trkpt>
      <trkpt lat="43.52071" lon="1.10826">
        <ele>267.081465</ele>
        <time>2020-09-20T07:18:37.000Z</time>
      </trkpt>
      <trkpt lat="43.52066" lon="1.1081">
        <ele>267.611728</ele>
        <time>2020-09-20T07:18:41.000Z</time>
      </trkpt>
      <trkpt lat="43.52064" lon="1.10796">
        <ele>268.042623</ele>
        <time>2020-09-20T07:18:44.000Z</time>
      </trkpt>
      <trkpt lat="43.52061" lon="1.10788">
        <ele>268.335341</ele>
        <time>2020-09-20T07:18:46.000Z</time>
      </trkpt>
      <trkpt lat="43.52059" lon="1.10783">
        <ele>268.494369</ele>
        <time>2020-09-20T07:18:47.000Z</time>
      </trkpt>
      <trkpt lat="43.52057" lon="1.10766">
        <ele>268.902606</ele>
        <time>2020-09-20T07:18:50.000Z</time>
      </trkpt>
      <trkpt lat="43.52054" lon="1.10754">
        <ele>268.85353</ele>
        <time>2020-09-20T07:18:52.000Z</time>
      </trkpt>
      <trkpt lat="43.52051" lon="1.10736">
        <ele>268.780126</ele>
        <time>2020-09-20T07:18:55.000Z</time>
      </trkpt>
      <trkpt lat="43.52048" lon="1.1072">
        <ele>268.712927</ele>
        <time>2020-09-20T07:18:58.000Z</time>
      </trkpt>
      <trkpt lat="43.52045" lon="1.1071">
        <ele>268.669122</ele>
        <time>2020-09-20T07:19:00.000Z</time>
      </trkpt>
      <trkpt lat="43.52044" lon="1.10705">
        <ele>268.649449</ele>
        <time>2020-09-20T07:19:01.000Z</time>
      </trkpt>
      <trkpt lat="43.52041" lon="1.10698">
        <ele>268.615457</ele>
        <time>2020-09-20T07:19:03.000Z</time>
      </trkpt>
      <trkpt lat="43.52039" lon="1.10697">
        <ele>268.603276</ele>
        <time>2020-09-20T07:19:04.000Z</time>
      </trkpt>
      <trkpt lat="43.52024" lon="1.10706">
        <ele>268.512012</ele>
        <time>2020-09-20T07:19:09.000Z</time>
      </trkpt>
      <trkpt lat="43.52015" lon="1.10712">
        <ele>268.457826</ele>
        <time>2020-09-20T07:19:11.000Z</time>
      </trkpt>
      <trkpt lat="43.52002" lon="1.10717">
        <ele>268.382951</ele>
        <time>2020-09-20T07:19:13.000Z</time>
      </trkpt>
      <trkpt lat="43.51994" lon="1.10719">
        <ele>268.339134</ele>
        <time>2020-09-20T07:19:14.000Z</time>
      </trkpt>
      <trkpt lat="43.51977" lon="1.10726">
        <ele>268.241526</ele>
        <time>2020-09-20T07:19:16.000Z</time>
      </trkpt>
      <trkpt lat="43.51969" lon="1.10729">
        <ele>268.191627</ele>
        <time>2020-09-20T07:19:17.000Z</time>
      </trkpt>
      <trkpt lat="43.51944" lon="1.10741">
        <ele>268.045904</ele>
        <time>2020-09-20T07:19:20.000Z</time>
      </trkpt>
      <trkpt lat="43.5192" lon="1.10752">
        <ele>267.883918</ele>
        <time>2020-09-20T07:19:23.000Z</time>
      </trkpt>
      <trkpt lat="43.51905" lon="1.10759">
        <ele>267.664702</ele>
        <time>2020-09-20T07:19:25.000Z</time>
      </trkpt>
      <trkpt lat="43.51891" lon="1.10767">
        <ele>267.460614</ele>
        <time>2020-09-20T07:19:27.000Z</time>
      </trkpt>
      <trkpt lat="43.51873" lon="1.10779">
        <ele>267.189613</ele>
        <time>2020-09-20T07:19:30.000Z</time>
      </trkpt>
      <trkpt lat="43.51869" lon="1.10784">
        <ele>267.109972</ele>
        <time>2020-09-20T07:19:31.000Z</time>
      </trkpt>
      <trkpt lat="43.51862" lon="1.10793">
        <ele>266.981239</ele>
        <time>2020-09-20T07:19:33.000Z</time>
      </trkpt>
      <trkpt lat="43.51864" lon="1.10802">
        <ele>266.894108</ele>
        <time>2020-09-20T07:19:36.000Z</time>
      </trkpt>
      <trkpt lat="43.51866" lon="1.10806">
        <ele>266.843327</ele>
        <time>2020-09-20T07:19:37.000Z</time>
      </trkpt>
      <trkpt lat="43.51878" lon="1.10823">
        <ele>266.60685</ele>
        <time>2020-09-20T07:19:41.000Z</time>
      </trkpt>
      <trkpt lat="43.51901" lon="1.1085">
        <ele>266.187835</ele>
        <time>2020-09-20T07:19:48.000Z</time>
      </trkpt>
      <trkpt lat="43.51921" lon="1.10874">
        <ele>265.826351</ele>
        <time>2020-09-20T07:19:53.000Z</time>
      </trkpt>
      <trkpt lat="43.51941" lon="1.10906">
        <ele>265.454797</ele>
        <time>2020-09-20T07:19:59.000Z</time>
      </trkpt>
      <trkpt lat="43.51958" lon="1.10942">
        <ele>265.473574</ele>
        <time>2020-09-20T07:20:04.000Z</time>
      </trkpt>
      <trkpt lat="43.51961" lon="1.10949">
        <ele>265.477096</ele>
        <time>2020-09-20T07:20:05.000Z</time>
      </trkpt>
      <trkpt lat="43.51975" lon="1.10984">
        <ele>265.494511</ele>
        <time>2020-09-20T07:20:10.000Z</time>
      </trkpt>
      <trkpt lat="43.51979" lon="1.10999">
        <ele>265.50155</ele>
        <time>2020-09-20T07:20:12.000Z</time>
      </trkpt>
      <trkpt lat="43.5198" lon="1.11006">
        <ele>265.504827</ele>
        <time>2020-09-20T07:20:13.000Z</time>
      </trkpt>
      <trkpt lat="43.51981" lon="1.1102">
        <ele>265.510884</ele>
        <time>2020-09-20T07:20:15.000Z</time>
      </trkpt>
      <trkpt lat="43.51981" lon="1.11026">
        <ele>265.513643</ele>
        <time>2020-09-20T07:20:16.000Z</time>
      </trkpt>
      <trkpt lat="43.51981" lon="1.11038">
        <ele>265.519078</ele>
        <time>2020-09-20T07:20:18.000Z</time>
      </trkpt>
      <trkpt lat="43.51982" lon="1.1105">
        <ele>265.52407</ele>
        <time>2020-09-20T07:20:20.000Z</time>
      </trkpt>
      <trkpt lat="43.51985" lon="1.11069">
        <ele>265.532504</ele>
        <time>2020-09-20T07:20:23.000Z</time>
      </trkpt>
      <trkpt lat="43.51984" lon="1.11081">
        <ele>265.537723</ele>
        <time>2020-09-20T07:20:25.000Z</time>
      </trkpt>
      <trkpt lat="43.51982" lon="1.11092">
        <ele>265.542989</ele>
        <time>2020-09-20T07:20:27.000Z</time>
      </trkpt>
      <trkpt lat="43.51981" lon="1.11098">
        <ele>265.545557</ele>
        <time>2020-09-20T07:20:28.000Z</time>
      </trkpt>
      <trkpt lat="43.51982" lon="1.1111">
        <ele>265.550653</ele>
        <time>2020-09-20T07:20:30.000Z</time>
      </trkpt>
      <trkpt lat="43.51985" lon="1.11127">
        <ele>265.55855</ele>
        <time>2020-09-20T07:20:33.000Z</time>
      </trkpt>
      <trkpt lat="43.51986" lon="1.11132">
        <ele>265.560779</ele>
        <time>2020-09-20T07:20:34.000Z</time>
      </trkpt>
      <trkpt lat="43.5199" lon="1.11152">
        <ele>264.91555</ele>
        <time>2020-09-20T07:20:38.000Z</time>
      </trkpt>
      <trkpt lat="43.51991" lon="1.11157">
        <ele>264.722627</ele>
        <time>2020-09-20T07:20:39.000Z</time>
      </trkpt>
      <trkpt lat="43.51995" lon="1.11175">
        <ele>264.096014</ele>
        <time>2020-09-20T07:20:42.000Z</time>
      </trkpt>
      <trkpt lat="43.51995" lon="1.11182">
        <ele>263.858935</ele>
        <time>2020-09-20T07:20:43.000Z</time>
      </trkpt>
      <trkpt lat="43.51995" lon="1.11197">
        <ele>263.361061</ele>
        <time>2020-09-20T07:20:45.000Z</time>
      </trkpt>
      <trkpt lat="43.51996" lon="1.11203">
        <ele>263.154585</ele>
        <time>2020-09-20T07:20:46.000Z</time>
      </trkpt>
      <trkpt lat="43.51997" lon="1.11207">
        <ele>263.002161</ele>
        <time>2020-09-20T07:20:47.000Z</time>
      </trkpt>
      <trkpt lat="43.52" lon="1.11213">
        <ele>262.787006</ele>
        <time>2020-09-20T07:20:49.000Z</time>
      </trkpt>
      <trkpt lat="43.52002" lon="1.11218">
        <ele>262.569825</ele>
        <time>2020-09-20T07:20:51.000Z</time>
      </trkpt>
      <trkpt lat="43.52004" lon="1.11222">
        <ele>262.428137</ele>
        <time>2020-09-20T07:20:52.000Z</time>
      </trkpt>
      <trkpt lat="43.52006" lon="1.11225">
        <ele>262.286975</ele>
        <time>2020-09-20T07:20:53.000Z</time>
      </trkpt>
      <trkpt lat="43.52011" lon="1.11226">
        <ele>262.069646</ele>
        <time>2020-09-20T07:20:55.000Z</time>
      </trkpt>
      <trkpt lat="43.52013" lon="1.11227">
        <ele>261.94423</ele>
        <time>2020-09-20T07:20:56.000Z</time>
      </trkpt>
      <trkpt lat="43.52019" lon="1.11232">
        <ele>261.64826</ele>
        <time>2020-09-20T07:20:58.000Z</time>
      </trkpt>
      <trkpt lat="43.5202" lon="1.11236">
        <ele>261.490231</ele>
        <time>2020-09-20T07:20:59.000Z</time>
      </trkpt>
      <trkpt lat="43.52027" lon="1.11249">
        <ele>260.932028</ele>
        <time>2020-09-20T07:21:01.000Z</time>
      </trkpt>
      <trkpt lat="43.52029" lon="1.11257">
        <ele>260.667994</ele>
        <time>2020-09-20T07:21:02.000Z</time>
      </trkpt>
      <trkpt lat="43.52031" lon="1.11267">
        <ele>260.301827</ele>
        <time>2020-09-20T07:21:04.000Z</time>
      </trkpt>
      <trkpt lat="43.52033" lon="1.11272">
        <ele>260.126686</ele>
        <time>2020-09-20T07:21:05.000Z</time>
      </trkpt>
      <trkpt lat="43.52041" lon="1.11296">
        <ele>259.226288</ele>
        <time>2020-09-20T07:21:10.000Z</time>
      </trkpt>
      <trkpt lat="43.52047" lon="1.11318">
        <ele>258.45122</ele>
        <time>2020-09-20T07:21:14.000Z</time>
      </trkpt>
      <trkpt lat="43.52051" lon="1.11331">
        <ele>257.959633</ele>
        <time>2020-09-20T07:21:16.000Z</time>
      </trkpt>
      <trkpt lat="43.52053" lon="1.11337">
        <ele>257.73049</ele>
        <time>2020-09-20T07:21:17.000Z</time>
      </trkpt>
      <trkpt lat="43.52055" lon="1.11344">
        <ele>257.477436</ele>
        <time>2020-09-20T07:21:18.000Z</time>
      </trkpt>
      <trkpt lat="43.52058" lon="1.11359">
        <ele>257.143616</ele>
        <time>2020-09-20T07:21:20.000Z</time>
      </trkpt>
      <trkpt lat="43.52058" lon="1.11365">
        <ele>257.080258</ele>
        <time>2020-09-20T07:21:21.000Z</time>
      </trkpt>
      <trkpt lat="43.52062" lon="1.11388">
        <ele>256.84142</ele>
        <time>2020-09-20T07:21:24.000Z</time>
      </trkpt>
      <trkpt lat="43.52063" lon="1.11396">
        <ele>256.760539</ele>
        <time>2020-09-20T07:21:25.000Z</time>
      </trkpt>
      <trkpt lat="43.52064" lon="1.11404">
        <ele>256.681888</ele>
        <time>2020-09-20T07:21:26.000Z</time>
      </trkpt>
      <trkpt lat="43.52067" lon="1.11431">
        <ele>256.408652</ele>
        <time>2020-09-20T07:21:30.000Z</time>
      </trkpt>
      <trkpt lat="43.52068" lon="1.11437">
        <ele>256.347732</ele>
        <time>2020-09-20T07:21:31.000Z</time>
      </trkpt>
      <trkpt lat="43.52074" lon="1.11464">
        <ele>256.058588</ele>
        <time>2020-09-20T07:21:35.000Z</time>
      </trkpt>
      <trkpt lat="43.52078" lon="1.11476">
        <ele>255.929743</ele>
        <time>2020-09-20T07:21:37.000Z</time>
      </trkpt>
      <trkpt lat="43.52084" lon="1.11486">
        <ele>255.794618</ele>
        <time>2020-09-20T07:21:39.000Z</time>
      </trkpt>
      <trkpt lat="43.52091" lon="1.11503">
        <ele>255.60311</ele>
        <time>2020-09-20T07:21:42.000Z</time>
      </trkpt>
      <trkpt lat="43.52094" lon="1.11508">
        <ele>255.538734</ele>
        <time>2020-09-20T07:21:43.000Z</time>
      </trkpt>
      <trkpt lat="43.52097" lon="1.11513">
        <ele>255.4674</ele>
        <time>2020-09-20T07:21:44.000Z</time>
      </trkpt>
      <trkpt lat="43.52101" lon="1.11519">
        <ele>255.392904</ele>
        <time>2020-09-20T07:21:45.000Z</time>
      </trkpt>
      <trkpt lat="43.52112" lon="1.11537">
        <ele>255.147001</ele>
        <time>2020-09-20T07:21:48.000Z</time>
      </trkpt>
      <trkpt lat="43.52116" lon="1.11544">
        <ele>255.060684</ele>
        <time>2020-09-20T07:21:49.000Z</time>
      </trkpt>
      <trkpt lat="43.52123" lon="1.11555">
        <ele>254.9147</ele>
        <time>2020-09-20T07:21:51.000Z</time>
      </trkpt>
      <trkpt lat="43.52129" lon="1.1157">
        <ele>254.744219</ele>
        <time>2020-09-20T07:21:53.000Z</time>
      </trkpt>
      <trkpt lat="43.52131" lon="1.11578">
        <ele>254.635352</ele>
        <time>2020-09-20T07:21:54.000Z</time>
      </trkpt>
      <trkpt lat="43.52134" lon="1.11587">
        <ele>254.523667</ele>
        <time>2020-09-20T07:21:55.000Z</time>
      </trkpt>
      <trkpt lat="43.52137" lon="1.11603">
        <ele>254.316997</ele>
        <time>2020-09-20T07:21:57.000Z</time>
      </trkpt>
      <trkpt lat="43.52139" lon="1.1161">
        <ele>254.219338</ele>
        <time>2020-09-20T07:21:58.000Z</time>
      </trkpt>
      <trkpt lat="43.5214" lon="1.11618">
        <ele>254.127988</ele>
        <time>2020-09-20T07:21:59.000Z</time>
      </trkpt>
      <trkpt lat="43.52144" lon="1.11633">
        <ele>253.923534</ele>
        <time>2020-09-20T07:22:01.000Z</time>
      </trkpt>
      <trkpt lat="43.52148" lon="1.11649">
        <ele>253.708626</ele>
        <time>2020-09-20T07:22:03.000Z</time>
      </trkpt>
      <trkpt lat="43.52154" lon="1.11666">
        <ele>253.483651</ele>
        <time>2020-09-20T07:22:05.000Z</time>
      </trkpt>
      <trkpt lat="43.52156" lon="1.11675">
        <ele>253.369021</ele>
        <time>2020-09-20T07:22:06.000Z</time>
      </trkpt>
      <trkpt lat="43.5216" lon="1.11692">
        <ele>253.152826</ele>
        <time>2020-09-20T07:22:08.000Z</time>
      </trkpt>
      <trkpt lat="43.52163" lon="1.11699">
        <ele>253.044035</ele>
        <time>2020-09-20T07:22:09.000Z</time>
      </trkpt>
      <trkpt lat="43.52172" lon="1.1171">
        <ele>252.84161</ele>
        <time>2020-09-20T07:22:11.000Z</time>
      </trkpt>
      <trkpt lat="43.52187" lon="1.11725">
        <ele>252.523256</ele>
        <time>2020-09-20T07:22:14.000Z</time>
      </trkpt>
      <trkpt lat="43.52191" lon="1.11731">
        <ele>252.423483</ele>
        <time>2020-09-20T07:22:15.000Z</time>
      </trkpt>
      <trkpt lat="43.52203" lon="1.11748">
        <ele>252.12326</ele>
        <time>2020-09-20T07:22:18.000Z</time>
      </trkpt>
      <trkpt lat="43.52207" lon="1.11755">
        <ele>252.018229</ele>
        <time>2020-09-20T07:22:19.000Z</time>
      </trkpt>
      <trkpt lat="43.52212" lon="1.11769">
        <ele>251.828598</ele>
        <time>2020-09-20T07:22:21.000Z</time>
      </trkpt>
      <trkpt lat="43.52213" lon="1.11777">
        <ele>251.723708</ele>
        <time>2020-09-20T07:22:22.000Z</time>
      </trkpt>
      <trkpt lat="43.52213" lon="1.11802">
        <ele>251.714752</ele>
        <time>2020-09-20T07:22:25.000Z</time>
      </trkpt>
      <trkpt lat="43.52213" lon="1.11809">
        <ele>251.735249</ele>
        <time>2020-09-20T07:22:26.000Z</time>
      </trkpt>
      <trkpt lat="43.52214" lon="1.11817">
        <ele>251.758657</ele>
        <time>2020-09-20T07:22:27.000Z</time>
      </trkpt>
      <trkpt lat="43.52218" lon="1.11832">
        <ele>251.803154</ele>
        <time>2020-09-20T07:22:29.000Z</time>
      </trkpt>
      <trkpt lat="43.5222" lon="1.11841">
        <ele>251.828396</ele>
        <time>2020-09-20T07:22:30.000Z</time>
      </trkpt>
      <trkpt lat="43.52228" lon="1.11864">
        <ele>251.896877</ele>
        <time>2020-09-20T07:22:33.000Z</time>
      </trkpt>
      <trkpt lat="43.52235" lon="1.11877">
        <ele>251.943278</ele>
        <time>2020-09-20T07:22:35.000Z</time>
      </trkpt>
      <trkpt lat="43.52238" lon="1.11883">
        <ele>251.963296</ele>
        <time>2020-09-20T07:22:36.000Z</time>
      </trkpt>
      <trkpt lat="43.52241" lon="1.1189">
        <ele>251.985132</ele>
        <time>2020-09-20T07:22:37.000Z</time>
      </trkpt>
      <trkpt lat="43.52243" lon="1.11898">
        <ele>252.008077</ele>
        <time>2020-09-20T07:22:38.000Z</time>
      </trkpt>
      <trkpt lat="43.52246" lon="1.11913">
        <ele>252.053429</ele>
        <time>2020-09-20T07:22:40.000Z</time>
      </trkpt>
      <trkpt lat="43.52254" lon="1.11947">
        <ele>252.150473</ele>
        <time>2020-09-20T07:22:45.000Z</time>
      </trkpt>
      <trkpt lat="43.52256" lon="1.11975">
        <ele>252.229656</ele>
        <time>2020-09-20T07:22:49.000Z</time>
      </trkpt>
      <trkpt lat="43.52255" lon="1.11981">
        <ele>252.246146</ele>
        <time>2020-09-20T07:22:50.000Z</time>
      </trkpt>
      <trkpt lat="43.52254" lon="1.11985">
        <ele>252.256559</ele>
        <time>2020-09-20T07:22:51.000Z</time>
      </trkpt>
      <trkpt lat="43.52251" lon="1.11995">
        <ele>252.287474</ele>
        <time>2020-09-20T07:22:53.000Z</time>
      </trkpt>
      <trkpt lat="43.52245" lon="1.12004">
        <ele>252.321577</ele>
        <time>2020-09-20T07:22:55.000Z</time>
      </trkpt>
      <trkpt lat="43.52235" lon="1.12012">
        <ele>252.756</ele>
        <time>2020-09-20T07:22:57.000Z</time>
      </trkpt>
      <trkpt lat="43.5223" lon="1.12016">
        <ele>253.224201</ele>
        <time>2020-09-20T07:22:58.000Z</time>
      </trkpt>
      <trkpt lat="43.52215" lon="1.12025">
        <ele>254.623664</ele>
        <time>2020-09-20T07:23:01.000Z</time>
      </trkpt>
      <trkpt lat="43.52205" lon="1.12032">
        <ele>255.550024</ele>
        <time>2020-09-20T07:23:03.000Z</time>
      </trkpt>
      <trkpt lat="43.52197" lon="1.1204">
        <ele>256.452385</ele>
        <time>2020-09-20T07:23:05.000Z</time>
      </trkpt>
      <trkpt lat="43.52182" lon="1.1205">
        <ele>257.838846</ele>
        <time>2020-09-20T07:23:08.000Z</time>
      </trkpt>
      <trkpt lat="43.52173" lon="1.12056">
        <ele>258.703263</ele>
        <time>2020-09-20T07:23:10.000Z</time>
      </trkpt>
      <trkpt lat="43.52169" lon="1.12059">
        <ele>259.086569</ele>
        <time>2020-09-20T07:23:11.000Z</time>
      </trkpt>
      <trkpt lat="43.52166" lon="1.12062">
        <ele>259.436455</ele>
        <time>2020-09-20T07:23:12.000Z</time>
      </trkpt>
      <trkpt lat="43.5216" lon="1.12072">
        <ele>260.175604</ele>
        <time>2020-09-20T07:23:14.000Z</time>
      </trkpt>
      <trkpt lat="43.52148" lon="1.12091">
        <ele>261.743986</ele>
        <time>2020-09-20T07:23:18.000Z</time>
      </trkpt>
      <trkpt lat="43.52146" lon="1.12096">
        <ele>262.109482</ele>
        <time>2020-09-20T07:23:19.000Z</time>
      </trkpt>
      <trkpt lat="43.52143" lon="1.12101">
        <ele>262.536179</ele>
        <time>2020-09-20T07:23:20.000Z</time>
      </trkpt>
      <trkpt lat="43.52135" lon="1.12114">
        <ele>263.565969</ele>
        <time>2020-09-20T07:23:23.000Z</time>
      </trkpt>
      <trkpt lat="43.52126" lon="1.12125">
        <ele>264.56592</ele>
        <time>2020-09-20T07:23:26.000Z</time>
      </trkpt>
      <trkpt lat="43.52123" lon="1.12128">
        <ele>264.89187</ele>
        <time>2020-09-20T07:23:27.000Z</time>
      </trkpt>
      <trkpt lat="43.52117" lon="1.12134">
        <ele>265.531882</ele>
        <time>2020-09-20T07:23:29.000Z</time>
      </trkpt>
      <trkpt lat="43.52114" lon="1.12136">
        <ele>265.802609</ele>
        <time>2020-09-20T07:23:30.000Z</time>
      </trkpt>
      <trkpt lat="43.52113" lon="1.12138">
        <ele>265.977404</ele>
        <time>2020-09-20T07:23:31.000Z</time>
      </trkpt>
      <trkpt lat="43.52107" lon="1.12143">
        <ele>266.51585</ele>
        <time>2020-09-20T07:23:33.000Z</time>
      </trkpt>
      <trkpt lat="43.52105" lon="1.12146">
        <ele>266.813055</ele>
        <time>2020-09-20T07:23:34.000Z</time>
      </trkpt>
      <trkpt lat="43.52099" lon="1.12152">
        <ele>267.437386</ele>
        <time>2020-09-20T07:23:36.000Z</time>
      </trkpt>
      <trkpt lat="43.52092" lon="1.12163">
        <ele>268.800309</ele>
        <time>2020-09-20T07:23:39.000Z</time>
      </trkpt>
      <trkpt lat="43.52086" lon="1.12173">
        <ele>270.289489</ele>
        <time>2020-09-20T07:23:42.000Z</time>
      </trkpt>
      <trkpt lat="43.52083" lon="1.12176">
        <ele>270.823899</ele>
        <time>2020-09-20T07:23:43.000Z</time>
      </trkpt>
      <trkpt lat="43.5208" lon="1.12182">
        <ele>271.623151</ele>
        <time>2020-09-20T07:23:45.000Z</time>
      </trkpt>
      <trkpt lat="43.52077" lon="1.12189">
        <ele>272.539935</ele>
        <time>2020-09-20T07:23:47.000Z</time>
      </trkpt>
      <trkpt lat="43.52074" lon="1.12192">
        <ele>273.100357</ele>
        <time>2020-09-20T07:23:48.000Z</time>
      </trkpt>
      <trkpt lat="43.5207" lon="1.12199">
        <ele>274.008788</ele>
        <time>2020-09-20T07:23:50.000Z</time>
      </trkpt>
      <trkpt lat="43.52068" lon="1.12202">
        <ele>274.453294</ele>
        <time>2020-09-20T07:23:51.000Z</time>
      </trkpt>
      <trkpt lat="43.52066" lon="1.12207">
        <ele>275.12128</ele>
        <time>2020-09-20T07:23:53.000Z</time>
      </trkpt>
      <trkpt lat="43.52063" lon="1.12214">
        <ele>275.982535</ele>
        <time>2020-09-20T07:23:56.000Z</time>
      </trkpt>
      <trkpt lat="43.52062" lon="1.12215">
        <ele>276.193924</ele>
        <time>2020-09-20T07:23:57.000Z</time>
      </trkpt>
      <trkpt lat="43.5206" lon="1.12223">
        <ele>277.09917</ele>
        <time>2020-09-20T07:24:00.000Z</time>
      </trkpt>
      <trkpt lat="43.52058" lon="1.12227">
        <ele>277.554508</ele>
        <time>2020-09-20T07:24:01.000Z</time>
      </trkpt>
      <trkpt lat="43.52053" lon="1.12236">
        <ele>278.90434</ele>
        <time>2020-09-20T07:24:04.000Z</time>
      </trkpt>
      <trkpt lat="43.5205" lon="1.12243">
        <ele>279.733722</ele>
        <time>2020-09-20T07:24:06.000Z</time>
      </trkpt>
      <trkpt lat="43.52044" lon="1.12253">
        <ele>281.137479</ele>
        <time>2020-09-20T07:24:10.000Z</time>
      </trkpt>
      <trkpt lat="43.52042" lon="1.12257">
        <ele>281.768431</ele>
        <time>2020-09-20T07:24:12.000Z</time>
      </trkpt>
      <trkpt lat="43.52041" lon="1.1226">
        <ele>282.048184</ele>
        <time>2020-09-20T07:24:13.000Z</time>
      </trkpt>
      <trkpt lat="43.52037" lon="1.12267">
        <ele>283.096115</ele>
        <time>2020-09-20T07:24:16.000Z</time>
      </trkpt>
      <trkpt lat="43.52036" lon="1.1227">
        <ele>283.415925</ele>
        <time>2020-09-20T07:24:17.000Z</time>
      </trkpt>
      <trkpt lat="43.52032" lon="1.12274">
        <ele>284.120845</ele>
        <time>2020-09-20T07:24:19.000Z</time>
      </trkpt>
      <trkpt lat="43.5203" lon="1.12278">
        <ele>284.741164</ele>
        <time>2020-09-20T07:24:21.000Z</time>
      </trkpt>
      <trkpt lat="43.52027" lon="1.12281">
        <ele>285.158691</ele>
        <time>2020-09-20T07:24:22.000Z</time>
      </trkpt>
      <trkpt lat="43.52024" lon="1.12286">
        <ele>285.971251</ele>
        <time>2020-09-20T07:24:24.000Z</time>
      </trkpt>
      <trkpt lat="43.52017" lon="1.12296">
        <ele>287.521841</ele>
        <time>2020-09-20T07:24:28.000Z</time>
      </trkpt>
      <trkpt lat="43.52012" lon="1.12301">
        <ele>288.339863</ele>
        <time>2020-09-20T07:24:30.000Z</time>
      </trkpt>
      <trkpt lat="43.52003" lon="1.12312">
        <ele>290.218626</ele>
        <time>2020-09-20T07:24:34.000Z</time>
      </trkpt>
      <trkpt lat="43.51996" lon="1.12319">
        <ele>291.519753</ele>
        <time>2020-09-20T07:24:37.000Z</time>
      </trkpt>
      <trkpt lat="43.51992" lon="1.12325">
        <ele>292.403299</ele>
        <time>2020-09-20T07:24:39.000Z</time>
      </trkpt>
      <trkpt lat="43.51989" lon="1.12327">
        <ele>292.863987</ele>
        <time>2020-09-20T07:24:40.000Z</time>
      </trkpt>
      <trkpt lat="43.51985" lon="1.12332">
        <ele>293.647301</ele>
        <time>2020-09-20T07:24:42.000Z</time>
      </trkpt>
      <trkpt lat="43.51979" lon="1.12338">
        <ele>294.854317</ele>
        <time>2020-09-20T07:24:45.000Z</time>
      </trkpt>
      <trkpt lat="43.51971" lon="1.12346">
        <ele>295.439942</ele>
        <time>2020-09-20T07:24:48.000Z</time>
      </trkpt>
      <trkpt lat="43.51964" lon="1.12353">
        <ele>295.954182</ele>
        <time>2020-09-20T07:24:51.000Z</time>
      </trkpt>
      <trkpt lat="43.51956" lon="1.12361">
        <ele>296.582841</ele>
        <time>2020-09-20T07:24:54.000Z</time>
      </trkpt>
      <trkpt lat="43.51948" lon="1.12368">
        <ele>297.170681</ele>
        <time>2020-09-20T07:24:57.000Z</time>
      </trkpt>
      <trkpt lat="43.51945" lon="1.1237">
        <ele>297.401303</ele>
        <time>2020-09-20T07:24:58.000Z</time>
      </trkpt>
      <trkpt lat="43.51939" lon="1.12376">
        <ele>297.828943</ele>
        <time>2020-09-20T07:25:00.000Z</time>
      </trkpt>
      <trkpt lat="43.51924" lon="1.12389">
        <ele>298.945101</ele>
        <time>2020-09-20T07:25:05.000Z</time>
      </trkpt>
      <trkpt lat="43.51921" lon="1.12391">
        <ele>299.144307</ele>
        <time>2020-09-20T07:25:06.000Z</time>
      </trkpt>
      <trkpt lat="43.51903" lon="1.12399">
        <ele>300.304372</ele>
        <time>2020-09-20T07:25:11.000Z</time>
      </trkpt>
      <trkpt lat="43.51899" lon="1.12401">
        <ele>300.551382</ele>
        <time>2020-09-20T07:25:12.000Z</time>
      </trkpt>
      <trkpt lat="43.51875" lon="1.12407">
        <ele>302.089298</ele>
        <time>2020-09-20T07:25:18.000Z</time>
      </trkpt>
      <trkpt lat="43.51854" lon="1.1241">
        <ele>303.35183</ele>
        <time>2020-09-20T07:25:23.000Z</time>
      </trkpt>
      <trkpt lat="43.51843" lon="1.12411">
        <ele>304.088312</ele>
        <time>2020-09-20T07:25:26.000Z</time>
      </trkpt>
      <trkpt lat="43.51811" lon="1.12414">
        <ele>305.94684</ele>
        <time>2020-09-20T07:25:34.000Z</time>
      </trkpt>
      <trkpt lat="43.51779" lon="1.12412">
        <ele>305.97657</ele>
        <time>2020-09-20T07:25:42.000Z</time>
      </trkpt>
      <trkpt lat="43.51774" lon="1.12411">
        <ele>305.980671</ele>
        <time>2020-09-20T07:25:43.000Z</time>
      </trkpt>
      <trkpt lat="43.51741" lon="1.12404">
        <ele>306.011186</ele>
        <time>2020-09-20T07:25:50.000Z</time>
      </trkpt>
      <trkpt lat="43.51736" lon="1.12403">
        <ele>306.015806</ele>
        <time>2020-09-20T07:25:51.000Z</time>
      </trkpt>
      <trkpt lat="43.5171" lon="1.12396">
        <ele>306.039632</ele>
        <time>2020-09-20T07:25:56.000Z</time>
      </trkpt>
      <trkpt lat="43.51694" lon="1.12392">
        <ele>306.054302</ele>
        <time>2020-09-20T07:25:59.000Z</time>
      </trkpt>
      <trkpt lat="43.51663" lon="1.12389">
        <ele>306.082626</ele>
        <time>2020-09-20T07:26:05.000Z</time>
      </trkpt>
      <trkpt lat="43.51658" lon="1.12389">
        <ele>306.087166</ele>
        <time>2020-09-20T07:26:06.000Z</time>
      </trkpt>
      <trkpt lat="43.51623" lon="1.12387">
        <ele>306.216959</ele>
        <time>2020-09-20T07:26:13.000Z</time>
      </trkpt>
      <trkpt lat="43.51572" lon="1.12389">
        <ele>306.714447</ele>
        <time>2020-09-20T07:26:23.000Z</time>
      </trkpt>
      <trkpt lat="43.51557" lon="1.1239">
        <ele>306.86441</ele>
        <time>2020-09-20T07:26:26.000Z</time>
      </trkpt>
      <trkpt lat="43.51537" lon="1.12393">
        <ele>307.065607</ele>
        <time>2020-09-20T07:26:30.000Z</time>
      </trkpt>
      <trkpt lat="43.51503" lon="1.12396">
        <ele>307.400859</ele>
        <time>2020-09-20T07:26:37.000Z</time>
      </trkpt>
      <trkpt lat="43.51493" lon="1.12397">
        <ele>307.500396</ele>
        <time>2020-09-20T07:26:39.000Z</time>
      </trkpt>
      <trkpt lat="43.51468" lon="1.12401">
        <ele>307.749662</ele>
        <time>2020-09-20T07:26:44.000Z</time>
      </trkpt>
      <trkpt lat="43.51458" lon="1.12404">
        <ele>307.847379</ele>
        <time>2020-09-20T07:26:46.000Z</time>
      </trkpt>
      <trkpt lat="43.51453" lon="1.12405">
        <ele>307.859657</ele>
        <time>2020-09-20T07:26:47.000Z</time>
      </trkpt>
      <trkpt lat="43.51448" lon="1.12406">
        <ele>307.814808</ele>
        <time>2020-09-20T07:26:48.000Z</time>
      </trkpt>
      <trkpt lat="43.51443" lon="1.12407">
        <ele>307.770998</ele>
        <time>2020-09-20T07:26:49.000Z</time>
      </trkpt>
      <trkpt lat="43.51423" lon="1.12413">
        <ele>307.590621</ele>
        <time>2020-09-20T07:26:53.000Z</time>
      </trkpt>
      <trkpt lat="43.51413" lon="1.12416">
        <ele>307.503264</ele>
        <time>2020-09-20T07:26:55.000Z</time>
      </trkpt>
      <trkpt lat="43.51394" lon="1.12423">
        <ele>307.332187</ele>
        <time>2020-09-20T07:26:59.000Z</time>
      </trkpt>
      <trkpt lat="43.51385" lon="1.12425">
        <ele>307.255657</ele>
        <time>2020-09-20T07:27:01.000Z</time>
      </trkpt>
      <trkpt lat="43.5138" lon="1.12427">
        <ele>307.209367</ele>
        <time>2020-09-20T07:27:03.000Z</time>
      </trkpt>
      <trkpt lat="43.51376" lon="1.12429">
        <ele>307.172001</ele>
        <time>2020-09-20T07:27:06.000Z</time>
      </trkpt>
      <trkpt lat="43.51374" lon="1.1243">
        <ele>307.158834</ele>
        <time>2020-09-20T07:27:07.000Z</time>
      </trkpt>
      <trkpt lat="43.51373" lon="1.1243">
        <ele>307.144428</ele>
        <time>2020-09-20T07:27:08.000Z</time>
      </trkpt>
      <trkpt lat="43.51369" lon="1.12431">
        <ele>307.109652</ele>
        <time>2020-09-20T07:27:13.000Z</time>
      </trkpt>
      <trkpt lat="43.51371" lon="1.12425">
        <ele>307.068617</ele>
        <time>2020-09-20T07:27:24.000Z</time>
      </trkpt>
      <trkpt lat="43.51373" lon="1.1242">
        <ele>307.031664</ele>
        <time>2020-09-20T07:27:26.000Z</time>
      </trkpt>
      <trkpt lat="43.51374" lon="1.12412">
        <ele>306.97899</ele>
        <time>2020-09-20T07:27:28.000Z</time>
      </trkpt>
      <trkpt lat="43.51378" lon="1.12396">
        <ele>306.876354</ele>
        <time>2020-09-20T07:27:31.000Z</time>
      </trkpt>
      <trkpt lat="43.51391" lon="1.12344">
        <ele>306.530982</ele>
        <time>2020-09-20T07:27:39.000Z</time>
      </trkpt>
      <trkpt lat="43.51398" lon="1.12318">
        <ele>306.352981</ele>
        <time>2020-09-20T07:27:43.000Z</time>
      </trkpt>
      <trkpt lat="43.51402" lon="1.12296">
        <ele>306.287505</ele>
        <time>2020-09-20T07:27:46.000Z</time>
      </trkpt>
      <trkpt lat="43.51412" lon="1.12244">
        <ele>306.197959</ele>
        <time>2020-09-20T07:27:53.000Z</time>
      </trkpt>
      <trkpt lat="43.51415" lon="1.1223">
        <ele>306.173037</ele>
        <time>2020-09-20T07:27:55.000Z</time>
      </trkpt>
      <trkpt lat="43.51427" lon="1.12178">
        <ele>306.082312</ele>
        <time>2020-09-20T07:28:02.000Z</time>
      </trkpt>
      <trkpt lat="43.5144" lon="1.12112">
        <ele>305.969611</ele>
        <time>2020-09-20T07:28:10.000Z</time>
      </trkpt>
      <trkpt lat="43.51453" lon="1.12044">
        <ele>305.11163</ele>
        <time>2020-09-20T07:28:18.000Z</time>
      </trkpt>
      <trkpt lat="43.51456" lon="1.12026">
        <ele>304.598066</ele>
        <time>2020-09-20T07:28:20.000Z</time>
      </trkpt>
      <trkpt lat="43.51459" lon="1.11995">
        <ele>303.7569</ele>
        <time>2020-09-20T07:28:23.000Z</time>
      </trkpt>
      <trkpt lat="43.51461" lon="1.1196">
        <ele>302.826591</ele>
        <time>2020-09-20T07:28:26.000Z</time>
      </trkpt>
      <trkpt lat="43.51463" lon="1.11923">
        <ele>301.815269</ele>
        <time>2020-09-20T07:28:29.000Z</time>
      </trkpt>
      <trkpt lat="43.51466" lon="1.11869">
        <ele>300.376811</ele>
        <time>2020-09-20T07:28:33.000Z</time>
      </trkpt>
      <trkpt lat="43.51468" lon="1.11841">
        <ele>299.620081</ele>
        <time>2020-09-20T07:28:35.000Z</time>
      </trkpt>
      <trkpt lat="43.51469" lon="1.11827">
        <ele>299.235128</ele>
        <time>2020-09-20T07:28:36.000Z</time>
      </trkpt>
      <trkpt lat="43.5147" lon="1.11813">
        <ele>299.345575</ele>
        <time>2020-09-20T07:28:37.000Z</time>
      </trkpt>
      <trkpt lat="43.51472" lon="1.11787">
        <ele>299.565208</ele>
        <time>2020-09-20T07:28:39.000Z</time>
      </trkpt>
      <trkpt lat="43.51474" lon="1.11762">
        <ele>299.769694</ele>
        <time>2020-09-20T07:28:41.000Z</time>
      </trkpt>
      <trkpt lat="43.51475" lon="1.1175">
        <ele>299.867977</ele>
        <time>2020-09-20T07:28:42.000Z</time>
      </trkpt>
      <trkpt lat="43.51478" lon="1.11705">
        <ele>300.239266</ele>
        <time>2020-09-20T07:28:46.000Z</time>
      </trkpt>
      <trkpt lat="43.5148" lon="1.11676">
        <ele>300.477543</ele>
        <time>2020-09-20T07:28:49.000Z</time>
      </trkpt>
      <trkpt lat="43.51482" lon="1.11659">
        <ele>300.618661</ele>
        <time>2020-09-20T07:28:51.000Z</time>
      </trkpt>
      <trkpt lat="43.51482" lon="1.11652">
        <ele>300.683941</ele>
        <time>2020-09-20T07:28:52.000Z</time>
      </trkpt>
      <trkpt lat="43.51483" lon="1.11629">
        <ele>300.868561</ele>
        <time>2020-09-20T07:28:55.000Z</time>
      </trkpt>
      <trkpt lat="43.51482" lon="1.11615">
        <ele>300.983262</ele>
        <time>2020-09-20T07:28:57.000Z</time>
      </trkpt>
      <trkpt lat="43.51482" lon="1.11608">
        <ele>301.040063</ele>
        <time>2020-09-20T07:28:58.000Z</time>
      </trkpt>
      <trkpt lat="43.51483" lon="1.11587">
        <ele>301.216286</ele>
        <time>2020-09-20T07:29:01.000Z</time>
      </trkpt>
      <trkpt lat="43.51483" lon="1.11572">
        <ele>301.463644</ele>
        <time>2020-09-20T07:29:03.000Z</time>
      </trkpt>
      <trkpt lat="43.51484" lon="1.11557">
        <ele>301.826636</ele>
        <time>2020-09-20T07:29:05.000Z</time>
      </trkpt>
      <trkpt lat="43.51485" lon="1.11542">
        <ele>302.183813</ele>
        <time>2020-09-20T07:29:07.000Z</time>
      </trkpt>
      <trkpt lat="43.51486" lon="1.11528">
        <ele>302.527438</ele>
        <time>2020-09-20T07:29:09.000Z</time>
      </trkpt>
      <trkpt lat="43.51487" lon="1.11521">
        <ele>302.693574</ele>
        <time>2020-09-20T07:29:10.000Z</time>
      </trkpt>
      <trkpt lat="43.51488" lon="1.11495">
        <ele>303.310803</ele>
        <time>2020-09-20T07:29:14.000Z</time>
      </trkpt>
      <trkpt lat="43.51488" lon="1.11489">
        <ele>303.462643</ele>
        <time>2020-09-20T07:29:15.000Z</time>
      </trkpt>
      <trkpt lat="43.51491" lon="1.11459">
        <ele>304.192213</ele>
        <time>2020-09-20T07:29:20.000Z</time>
      </trkpt>
      <trkpt lat="43.51492" lon="1.11426">
        <ele>304.969844</ele>
        <time>2020-09-20T07:29:25.000Z</time>
      </trkpt>
      <trkpt lat="43.51491" lon="1.11406">
        <ele>305.452326</ele>
        <time>2020-09-20T07:29:28.000Z</time>
      </trkpt>
      <trkpt lat="43.51489" lon="1.11393">
        <ele>305.770048</ele>
        <time>2020-09-20T07:29:30.000Z</time>
      </trkpt>
      <trkpt lat="43.51488" lon="1.11387">
        <ele>305.933473</ele>
        <time>2020-09-20T07:29:31.000Z</time>
      </trkpt>
      <trkpt lat="43.51479" lon="1.11362">
        <ele>306.58201</ele>
        <time>2020-09-20T07:29:35.000Z</time>
      </trkpt>
      <trkpt lat="43.51476" lon="1.11356">
        <ele>306.754762</ele>
        <time>2020-09-20T07:29:36.000Z</time>
      </trkpt>
      <trkpt lat="43.51452" lon="1.11313">
        <ele>307.192767</ele>
        <time>2020-09-20T07:29:43.000Z</time>
      </trkpt>
      <trkpt lat="43.51437" lon="1.11288">
        <ele>307.172473</ele>
        <time>2020-09-20T07:29:47.000Z</time>
      </trkpt>
      <trkpt lat="43.51427" lon="1.11266">
        <ele>307.15674</ele>
        <time>2020-09-20T07:29:50.000Z</time>
      </trkpt>
      <trkpt lat="43.5141" lon="1.11211">
        <ele>307.119738</ele>
        <time>2020-09-20T07:29:57.000Z</time>
      </trkpt>
      <trkpt lat="43.51395" lon="1.11166">
        <ele>307.0886</ele>
        <time>2020-09-20T07:30:03.000Z</time>
      </trkpt>
      <trkpt lat="43.51392" lon="1.11158">
        <ele>307.08337</ele>
        <time>2020-09-20T07:30:04.000Z</time>
      </trkpt>
      <trkpt lat="43.51383" lon="1.11127">
        <ele>307.062684</ele>
        <time>2020-09-20T07:30:08.000Z</time>
      </trkpt>
      <trkpt lat="43.51369" lon="1.11083">
        <ele>307.615743</ele>
        <time>2020-09-20T07:30:14.000Z</time>
      </trkpt>
      <trkpt lat="43.51367" lon="1.11076">
        <ele>307.711391</ele>
        <time>2020-09-20T07:30:15.000Z</time>
      </trkpt>
      <trkpt lat="43.51363" lon="1.11061">
        <ele>307.904946</ele>
        <time>2020-09-20T07:30:17.000Z</time>
      </trkpt>
      <trkpt lat="43.51352" lon="1.11026">
        <ele>308.369627</ele>
        <time>2020-09-20T07:30:22.000Z</time>
      </trkpt>
      <trkpt lat="43.51343" lon="1.1099">
        <ele>308.843227</ele>
        <time>2020-09-20T07:30:27.000Z</time>
      </trkpt>
      <trkpt lat="43.51337" lon="1.10968">
        <ele>309.12811</ele>
        <time>2020-09-20T07:30:30.000Z</time>
      </trkpt>
      <trkpt lat="43.51326" lon="1.10915">
        <ele>309.798334</ele>
        <time>2020-09-20T07:30:37.000Z</time>
      </trkpt>
      <trkpt lat="43.51323" lon="1.10901">
        <ele>309.986464</ele>
        <time>2020-09-20T07:30:39.000Z</time>
      </trkpt>
      <trkpt lat="43.5131" lon="1.10829">
        <ele>310.206635</ele>
        <time>2020-09-20T07:30:48.000Z</time>
      </trkpt>
      <trkpt lat="43.51309" lon="1.10821">
        <ele>310.220039</ele>
        <time>2020-09-20T07:30:49.000Z</time>
      </trkpt>
      <trkpt lat="43.51306" lon="1.10797">
        <ele>310.260641</ele>
        <time>2020-09-20T07:30:52.000Z</time>
      </trkpt>
      <trkpt lat="43.51304" lon="1.10781">
        <ele>310.287954</ele>
        <time>2020-09-20T07:30:54.000Z</time>
      </trkpt>
      <trkpt lat="43.51301" lon="1.10748">
        <ele>310.344014</ele>
        <time>2020-09-20T07:30:58.000Z</time>
      </trkpt>
      <trkpt lat="43.513" lon="1.10732">
        <ele>310.372232</ele>
        <time>2020-09-20T07:31:00.000Z</time>
      </trkpt>
      <trkpt lat="43.51291" lon="1.10674">
        <ele>310.471366</ele>
        <time>2020-09-20T07:31:07.000Z</time>
      </trkpt>
      <trkpt lat="43.51273" lon="1.10601">
        <ele>310.467995</ele>
        <time>2020-09-20T07:31:16.000Z</time>
      </trkpt>
      <trkpt lat="43.5127" lon="1.10593">
        <ele>310.460076</ele>
        <time>2020-09-20T07:31:17.000Z</time>
      </trkpt>
      <trkpt lat="43.51249" lon="1.10522">
        <ele>310.390114</ele>
        <time>2020-09-20T07:31:26.000Z</time>
      </trkpt>
      <trkpt lat="43.51245" lon="1.10507">
        <ele>310.374788</ele>
        <time>2020-09-20T07:31:28.000Z</time>
      </trkpt>
      <trkpt lat="43.5123" lon="1.10453">
        <ele>310.321799</ele>
        <time>2020-09-20T07:31:35.000Z</time>
      </trkpt>
      <trkpt lat="43.51216" lon="1.10382">
        <ele>310.402085</ele>
        <time>2020-09-20T07:31:44.000Z</time>
      </trkpt>
      <trkpt lat="43.51215" lon="1.10374">
        <ele>310.428149</ele>
        <time>2020-09-20T07:31:45.000Z</time>
      </trkpt>
      <trkpt lat="43.5121" lon="1.10308">
        <ele>310.637112</ele>
        <time>2020-09-20T07:31:53.000Z</time>
      </trkpt>
      <trkpt lat="43.51208" lon="1.10274">
        <ele>310.744651</ele>
        <time>2020-09-20T07:31:57.000Z</time>
      </trkpt>
      <trkpt lat="43.51204" lon="1.10224">
        <ele>310.90309</ele>
        <time>2020-09-20T07:32:03.000Z</time>
      </trkpt>
      <trkpt lat="43.51201" lon="1.10166">
        <ele>311.09181</ele>
        <time>2020-09-20T07:32:10.000Z</time>
      </trkpt>
      <trkpt lat="43.51197" lon="1.10102">
        <ele>311.359872</ele>
        <time>2020-09-20T07:32:18.000Z</time>
      </trkpt>
      <trkpt lat="43.5119" lon="1.1005">
        <ele>311.581424</ele>
        <time>2020-09-20T07:32:25.000Z</time>
      </trkpt>
      <trkpt lat="43.51188" lon="1.10044">
        <ele>311.608455</ele>
        <time>2020-09-20T07:32:26.000Z</time>
      </trkpt>
      <trkpt lat="43.51184" lon="1.10041">
        <ele>311.634218</ele>
        <time>2020-09-20T07:32:27.000Z</time>
      </trkpt>
      <trkpt lat="43.51179" lon="1.10041">
        <ele>311.661119</ele>
        <time>2020-09-20T07:32:28.000Z</time>
      </trkpt>
      <trkpt lat="43.51169" lon="1.10042">
        <ele>311.721383</ele>
        <time>2020-09-20T07:32:30.000Z</time>
      </trkpt>
      <trkpt lat="43.51152" lon="1.10042">
        <ele>311.817552</ele>
        <time>2020-09-20T07:32:33.000Z</time>
      </trkpt>
      <trkpt lat="43.51106" lon="1.10041">
        <ele>312.078594</ele>
        <time>2020-09-20T07:32:41.000Z</time>
      </trkpt>
      <trkpt lat="43.51065" lon="1.10039">
        <ele>312.520049</ele>
        <time>2020-09-20T07:32:48.000Z</time>
      </trkpt>
      <trkpt lat="43.5106" lon="1.10039">
        <ele>312.585591</ele>
        <time>2020-09-20T07:32:49.000Z</time>
      </trkpt>
      <trkpt lat="43.51023" lon="1.10035">
        <ele>312.998924</ele>
        <time>2020-09-20T07:32:56.000Z</time>
      </trkpt>
      <trkpt lat="43.51018" lon="1.10026">
        <ele>313.094434</ele>
        <time>2020-09-20T07:32:58.000Z</time>
      </trkpt>
      <trkpt lat="43.5102" lon="1.10012">
        <ele>313.210553</ele>
        <time>2020-09-20T07:33:00.000Z</time>
      </trkpt>
      <trkpt lat="43.51021" lon="1.10005">
        <ele>313.269811</ele>
        <time>2020-09-20T07:33:01.000Z</time>
      </trkpt>
      <trkpt lat="43.51022" lon="1.09998">
        <ele>313.330096</ele>
        <time>2020-09-20T07:33:02.000Z</time>
      </trkpt>
      <trkpt lat="43.51024" lon="1.09991">
        <ele>313.390228</ele>
        <time>2020-09-20T07:33:03.000Z</time>
      </trkpt>
      <trkpt lat="43.51031" lon="1.09961">
        <ele>313.642197</ele>
        <time>2020-09-20T07:33:07.000Z</time>
      </trkpt>
      <trkpt lat="43.51044" lon="1.09909">
        <ele>314.099366</ele>
        <time>2020-09-20T07:33:14.000Z</time>
      </trkpt>
      <trkpt lat="43.51048" lon="1.09894">
        <ele>314.116039</ele>
        <time>2020-09-20T07:33:16.000Z</time>
      </trkpt>
      <trkpt lat="43.51065" lon="1.09833">
        <ele>314.024115</ele>
        <time>2020-09-20T07:33:24.000Z</time>
      </trkpt>
      <trkpt lat="43.51079" lon="1.09775">
        <ele>313.936591</ele>
        <time>2020-09-20T07:33:32.000Z</time>
      </trkpt>
      <trkpt lat="43.51083" lon="1.09761">
        <ele>313.916757</ele>
        <time>2020-09-20T07:33:34.000Z</time>
      </trkpt>
      <trkpt lat="43.51081" lon="1.0975">
        <ele>313.899599</ele>
        <time>2020-09-20T07:33:36.000Z</time>
      </trkpt>
      <trkpt lat="43.51073" lon="1.09742">
        <ele>313.881434</ele>
        <time>2020-09-20T07:33:38.000Z</time>
      </trkpt>
      <trkpt lat="43.51069" lon="1.09739">
        <ele>313.871961</ele>
        <time>2020-09-20T07:33:39.000Z</time>
      </trkpt>
      <trkpt lat="43.51065" lon="1.09736">
        <ele>313.862488</ele>
        <time>2020-09-20T07:33:40.000Z</time>
      </trkpt>
      <trkpt lat="43.51042" lon="1.09721">
        <ele>313.812858</ele>
        <time>2020-09-20T07:33:45.000Z</time>
      </trkpt>
      <trkpt lat="43.51016" lon="1.09706">
        <ele>313.506645</ele>
        <time>2020-09-20T07:33:50.000Z</time>
      </trkpt>
      <trkpt lat="43.51" lon="1.09694">
        <ele>313.085169</ele>
        <time>2020-09-20T07:33:53.000Z</time>
      </trkpt>
      <trkpt lat="43.50995" lon="1.0969">
        <ele>312.940404</ele>
        <time>2020-09-20T07:33:54.000Z</time>
      </trkpt>
      <trkpt lat="43.50989" lon="1.09685">
        <ele>312.791792</ele>
        <time>2020-09-20T07:33:55.000Z</time>
      </trkpt>
      <trkpt lat="43.50977" lon="1.09677">
        <ele>312.478639</ele>
        <time>2020-09-20T07:33:57.000Z</time>
      </trkpt>
      <trkpt lat="43.50965" lon="1.09668">
        <ele>312.15437</ele>
        <time>2020-09-20T07:33:59.000Z</time>
      </trkpt>
      <trkpt lat="43.50954" lon="1.09655">
        <ele>311.836682</ele>
        <time>2020-09-20T07:34:01.000Z</time>
      </trkpt>
      <trkpt lat="43.5095" lon="1.09648">
        <ele>311.683295</ele>
        <time>2020-09-20T07:34:02.000Z</time>
      </trkpt>
      <trkpt lat="43.50947" lon="1.0964">
        <ele>311.525764</ele>
        <time>2020-09-20T07:34:03.000Z</time>
      </trkpt>
      <trkpt lat="43.50935" lon="1.09617">
        <ele>311.057538</ele>
        <time>2020-09-20T07:34:06.000Z</time>
      </trkpt>
      <trkpt lat="43.50921" lon="1.09598">
        <ele>310.60789</ele>
        <time>2020-09-20T07:34:09.000Z</time>
      </trkpt>
      <trkpt lat="43.50912" lon="1.09584">
        <ele>310.299234</ele>
        <time>2020-09-20T07:34:11.000Z</time>
      </trkpt>
      <trkpt lat="43.50905" lon="1.09569">
        <ele>309.988243</ele>
        <time>2020-09-20T07:34:13.000Z</time>
      </trkpt>
      <trkpt lat="43.50891" lon="1.09539">
        <ele>309.277005</ele>
        <time>2020-09-20T07:34:17.000Z</time>
      </trkpt>
      <trkpt lat="43.50884" lon="1.09524">
        <ele>308.840841</ele>
        <time>2020-09-20T07:34:19.000Z</time>
      </trkpt>
      <trkpt lat="43.50867" lon="1.09487">
        <ele>307.786234</ele>
        <time>2020-09-20T07:34:24.000Z</time>
      </trkpt>
      <trkpt lat="43.50849" lon="1.09442">
        <ele>306.517403</ele>
        <time>2020-09-20T07:34:30.000Z</time>
      </trkpt>
      <trkpt lat="43.50845" lon="1.09435">
        <ele>306.295577</ele>
        <time>2020-09-20T07:34:31.000Z</time>
      </trkpt>
      <trkpt lat="43.5083" lon="1.09402">
        <ele>305.3593</ele>
        <time>2020-09-20T07:34:35.000Z</time>
      </trkpt>
      <trkpt lat="43.50827" lon="1.09393">
        <ele>305.100704</ele>
        <time>2020-09-20T07:34:36.000Z</time>
      </trkpt>
      <trkpt lat="43.50818" lon="1.09374">
        <ele>304.560485</ele>
        <time>2020-09-20T07:34:38.000Z</time>
      </trkpt>
      <trkpt lat="43.508" lon="1.09335">
        <ele>303.285271</ele>
        <time>2020-09-20T07:34:42.000Z</time>
      </trkpt>
      <trkpt lat="43.50791" lon="1.09315">
        <ele>302.071668</ele>
        <time>2020-09-20T07:34:44.000Z</time>
      </trkpt>
      <trkpt lat="43.50783" lon="1.09295">
        <ele>300.863162</ele>
        <time>2020-09-20T07:34:46.000Z</time>
      </trkpt>
      <trkpt lat="43.50772" lon="1.09277">
        <ele>299.635869</ele>
        <time>2020-09-20T07:34:48.000Z</time>
      </trkpt>
      <trkpt lat="43.50766" lon="1.09269">
        <ele>299.017436</ele>
        <time>2020-09-20T07:34:49.000Z</time>
      </trkpt>
      <trkpt lat="43.50743" lon="1.09249">
        <ele>297.101528</ele>
        <time>2020-09-20T07:34:52.000Z</time>
      </trkpt>
      <trkpt lat="43.50735" lon="1.09243">
        <ele>296.428712</ele>
        <time>2020-09-20T07:34:53.000Z</time>
      </trkpt>
      <trkpt lat="43.50726" lon="1.09237">
        <ele>295.734931</ele>
        <time>2020-09-20T07:34:54.000Z</time>
      </trkpt>
      <trkpt lat="43.50708" lon="1.09225">
        <ele>294.301929</ele>
        <time>2020-09-20T07:34:56.000Z</time>
      </trkpt>
      <trkpt lat="43.50699" lon="1.09219">
        <ele>293.584224</ele>
        <time>2020-09-20T07:34:57.000Z</time>
      </trkpt>
      <trkpt lat="43.5068" lon="1.09208">
        <ele>292.099076</ele>
        <time>2020-09-20T07:34:59.000Z</time>
      </trkpt>
      <trkpt lat="43.50671" lon="1.09202">
        <ele>291.36392</ele>
        <time>2020-09-20T07:35:00.000Z</time>
      </trkpt>
      <trkpt lat="43.50661" lon="1.09197">
        <ele>290.613348</ele>
        <time>2020-09-20T07:35:01.000Z</time>
      </trkpt>
      <trkpt lat="43.50642" lon="1.09186">
        <ele>288.578798</ele>
        <time>2020-09-20T07:35:03.000Z</time>
      </trkpt>
      <trkpt lat="43.50622" lon="1.09176">
        <ele>286.517964</ele>
        <time>2020-09-20T07:35:05.000Z</time>
      </trkpt>
      <trkpt lat="43.50612" lon="1.0917">
        <ele>285.436244</ele>
        <time>2020-09-20T07:35:06.000Z</time>
      </trkpt>
      <trkpt lat="43.50601" lon="1.09165">
        <ele>284.315404</ele>
        <time>2020-09-20T07:35:07.000Z</time>
      </trkpt>
      <trkpt lat="43.50591" lon="1.09159">
        <ele>283.185403</ele>
        <time>2020-09-20T07:35:08.000Z</time>
      </trkpt>
      <trkpt lat="43.5058" lon="1.09153">
        <ele>282.060516</ele>
        <time>2020-09-20T07:35:09.000Z</time>
      </trkpt>
      <trkpt lat="43.5056" lon="1.09142">
        <ele>279.988096</ele>
        <time>2020-09-20T07:35:11.000Z</time>
      </trkpt>
      <trkpt lat="43.50543" lon="1.09133">
        <ele>278.165584</ele>
        <time>2020-09-20T07:35:13.000Z</time>
      </trkpt>
      <trkpt lat="43.50535" lon="1.09129">
        <ele>277.357217</ele>
        <time>2020-09-20T07:35:14.000Z</time>
      </trkpt>
      <trkpt lat="43.50528" lon="1.09125">
        <ele>276.561744</ele>
        <time>2020-09-20T07:35:15.000Z</time>
      </trkpt>
      <trkpt lat="43.5052" lon="1.0912">
        <ele>275.744233</ele>
        <time>2020-09-20T07:35:16.000Z</time>
      </trkpt>
      <trkpt lat="43.50512" lon="1.09116">
        <ele>274.890005</ele>
        <time>2020-09-20T07:35:17.000Z</time>
      </trkpt>
      <trkpt lat="43.50494" lon="1.09108">
        <ele>273.045198</ele>
        <time>2020-09-20T07:35:19.000Z</time>
      </trkpt>
      <trkpt lat="43.50485" lon="1.09103">
        <ele>272.531349</ele>
        <time>2020-09-20T07:35:20.000Z</time>
      </trkpt>
      <trkpt lat="43.50477" lon="1.09099">
        <ele>272.050249</ele>
        <time>2020-09-20T07:35:21.000Z</time>
      </trkpt>
      <trkpt lat="43.5047" lon="1.09095">
        <ele>271.624874</ele>
        <time>2020-09-20T07:35:22.000Z</time>
      </trkpt>
      <trkpt lat="43.50464" lon="1.09092">
        <ele>271.264346</ele>
        <time>2020-09-20T07:35:23.000Z</time>
      </trkpt>
      <trkpt lat="43.50458" lon="1.09091">
        <ele>270.951762</ele>
        <time>2020-09-20T07:35:24.000Z</time>
      </trkpt>
      <trkpt lat="43.50453" lon="1.09093">
        <ele>270.647026</ele>
        <time>2020-09-20T07:35:25.000Z</time>
      </trkpt>
      <trkpt lat="43.50444" lon="1.09105">
        <ele>269.949888</ele>
        <time>2020-09-20T07:35:27.000Z</time>
      </trkpt>
      <trkpt lat="43.50437" lon="1.0912">
        <ele>269.241329</ele>
        <time>2020-09-20T07:35:29.000Z</time>
      </trkpt>
      <trkpt lat="43.5043" lon="1.09135">
        <ele>268.526449</ele>
        <time>2020-09-20T07:35:31.000Z</time>
      </trkpt>
      <trkpt lat="43.50427" lon="1.09143">
        <ele>268.165475</ele>
        <time>2020-09-20T07:35:32.000Z</time>
      </trkpt>
      <trkpt lat="43.50416" lon="1.09175">
        <ele>266.731594</ele>
        <time>2020-09-20T07:35:36.000Z</time>
      </trkpt>
      <trkpt lat="43.5041" lon="1.09191">
        <ele>266.041105</ele>
        <time>2020-09-20T07:35:38.000Z</time>
      </trkpt>
      <trkpt lat="43.50407" lon="1.09198">
        <ele>265.696332</ele>
        <time>2020-09-20T07:35:39.000Z</time>
      </trkpt>
      <trkpt lat="43.50401" lon="1.09212">
        <ele>265.037892</ele>
        <time>2020-09-20T07:35:41.000Z</time>
      </trkpt>
      <trkpt lat="43.50399" lon="1.0922">
        <ele>264.717604</ele>
        <time>2020-09-20T07:35:42.000Z</time>
      </trkpt>
      <trkpt lat="43.50395" lon="1.09234">
        <ele>264.099225</ele>
        <time>2020-09-20T07:35:44.000Z</time>
      </trkpt>
      <trkpt lat="43.50389" lon="1.09247">
        <ele>263.47561</ele>
        <time>2020-09-20T07:35:46.000Z</time>
      </trkpt>
      <trkpt lat="43.50378" lon="1.09267">
        <ele>262.878333</ele>
        <time>2020-09-20T07:35:49.000Z</time>
      </trkpt>
      <trkpt lat="43.50366" lon="1.09287">
        <ele>262.535439</ele>
        <time>2020-09-20T07:35:52.000Z</time>
      </trkpt>
      <trkpt lat="43.50355" lon="1.09309">
        <ele>262.18783</ele>
        <time>2020-09-20T07:35:55.000Z</time>
      </trkpt>
      <trkpt lat="43.50346" lon="1.09331">
        <ele>261.851694</ele>
        <time>2020-09-20T07:35:58.000Z</time>
      </trkpt>
      <trkpt lat="43.50335" lon="1.09362">
        <ele>261.397405</ele>
        <time>2020-09-20T07:36:02.000Z</time>
      </trkpt>
      <trkpt lat="43.50325" lon="1.09385">
        <ele>261.050156</ele>
        <time>2020-09-20T07:36:05.000Z</time>
      </trkpt>
      <trkpt lat="43.50319" lon="1.094">
        <ele>260.822027</ele>
        <time>2020-09-20T07:36:07.000Z</time>
      </trkpt>
      <trkpt lat="43.50306" lon="1.09447">
        <ele>260.154128</ele>
        <time>2020-09-20T07:36:13.000Z</time>
      </trkpt>
      <trkpt lat="43.50304" lon="1.09463">
        <ele>259.9302</ele>
        <time>2020-09-20T07:36:15.000Z</time>
      </trkpt>
      <trkpt lat="43.50305" lon="1.09487">
        <ele>259.603087</ele>
        <time>2020-09-20T07:36:18.000Z</time>
      </trkpt>
      <trkpt lat="43.50307" lon="1.09494">
        <ele>259.501664</ele>
        <time>2020-09-20T07:36:19.000Z</time>
      </trkpt>
      <trkpt lat="43.50308" lon="1.09507">
        <ele>259.310466</ele>
        <time>2020-09-20T07:36:21.000Z</time>
      </trkpt>
      <trkpt lat="43.50306" lon="1.0952">
        <ele>259.117243</ele>
        <time>2020-09-20T07:36:23.000Z</time>
      </trkpt>
      <trkpt lat="43.503" lon="1.09534">
        <ele>258.89563</ele>
        <time>2020-09-20T07:36:25.000Z</time>
      </trkpt>
      <trkpt lat="43.50288" lon="1.09562">
        <ele>258.425042</ele>
        <time>2020-09-20T07:36:29.000Z</time>
      </trkpt>
      <trkpt lat="43.50285" lon="1.0957">
        <ele>258.302473</ele>
        <time>2020-09-20T07:36:30.000Z</time>
      </trkpt>
      <trkpt lat="43.5027" lon="1.09608">
        <ele>257.681976</ele>
        <time>2020-09-20T07:36:35.000Z</time>
      </trkpt>
      <trkpt lat="43.50267" lon="1.09616">
        <ele>257.555112</ele>
        <time>2020-09-20T07:36:36.000Z</time>
      </trkpt>
      <trkpt lat="43.50265" lon="1.09624">
        <ele>257.435323</ele>
        <time>2020-09-20T07:36:37.000Z</time>
      </trkpt>
      <trkpt lat="43.50264" lon="1.09639">
        <ele>257.224181</ele>
        <time>2020-09-20T07:36:39.000Z</time>
      </trkpt>
      <trkpt lat="43.5027" lon="1.09655">
        <ele>256.955116</ele>
        <time>2020-09-20T07:36:42.000Z</time>
      </trkpt>
      <trkpt lat="43.50272" lon="1.0966">
        <ele>256.881411</ele>
        <time>2020-09-20T07:36:43.000Z</time>
      </trkpt>
      <trkpt lat="43.50274" lon="1.09673">
        <ele>256.684981</ele>
        <time>2020-09-20T07:36:46.000Z</time>
      </trkpt>
      <trkpt lat="43.50274" lon="1.09698">
        <ele>256.336224</ele>
        <time>2020-09-20T07:36:49.000Z</time>
      </trkpt>
      <trkpt lat="43.50273" lon="1.09733">
        <ele>256.012116</ele>
        <time>2020-09-20T07:36:53.000Z</time>
      </trkpt>
      <trkpt lat="43.50269" lon="1.0975">
        <ele>255.858636</ele>
        <time>2020-09-20T07:36:55.000Z</time>
      </trkpt>
      <trkpt lat="43.50263" lon="1.09766">
        <ele>255.704376</ele>
        <time>2020-09-20T07:36:57.000Z</time>
      </trkpt>
      <trkpt lat="43.5026" lon="1.09774">
        <ele>255.630614</ele>
        <time>2020-09-20T07:36:58.000Z</time>
      </trkpt>
      <trkpt lat="43.5024" lon="1.09816">
        <ele>255.199454</ele>
        <time>2020-09-20T07:37:04.000Z</time>
      </trkpt>
      <trkpt lat="43.50234" lon="1.09829">
        <ele>255.06075</ele>
        <time>2020-09-20T07:37:06.000Z</time>
      </trkpt>
      <trkpt lat="43.50227" lon="1.09852">
        <ele>254.85196</ele>
        <time>2020-09-20T07:37:09.000Z</time>
      </trkpt>
      <trkpt lat="43.50226" lon="1.0986">
        <ele>254.781427</ele>
        <time>2020-09-20T07:37:10.000Z</time>
      </trkpt>
      <trkpt lat="43.50225" lon="1.09894">
        <ele>254.497255</ele>
        <time>2020-09-20T07:37:14.000Z</time>
      </trkpt>
      <trkpt lat="43.50226" lon="1.0991">
        <ele>254.358972</ele>
        <time>2020-09-20T07:37:16.000Z</time>
      </trkpt>
      <trkpt lat="43.5023" lon="1.09965">
        <ele>254.187595</ele>
        <time>2020-09-20T07:37:23.000Z</time>
      </trkpt>
      <trkpt lat="43.50234" lon="1.10021">
        <ele>254.23074</ele>
        <time>2020-09-20T07:37:30.000Z</time>
      </trkpt>
      <trkpt lat="43.50234" lon="1.10029">
        <ele>254.236939</ele>
        <time>2020-09-20T07:37:31.000Z</time>
      </trkpt>
      <trkpt lat="43.50239" lon="1.10069">
        <ele>254.268406</ele>
        <time>2020-09-20T07:37:36.000Z</time>
      </trkpt>
      <trkpt lat="43.5024" lon="1.10077">
        <ele>254.274527</ele>
        <time>2020-09-20T07:37:37.000Z</time>
      </trkpt>
      <trkpt lat="43.50239" lon="1.10108">
        <ele>254.298335</ele>
        <time>2020-09-20T07:37:41.000Z</time>
      </trkpt>
      <trkpt lat="43.50241" lon="1.10123">
        <ele>254.310408</ele>
        <time>2020-09-20T07:37:43.000Z</time>
      </trkpt>
      <trkpt lat="43.50247" lon="1.10163">
        <ele>254.342365</ele>
        <time>2020-09-20T07:37:48.000Z</time>
      </trkpt>
      <trkpt lat="43.50248" lon="1.10171">
        <ele>254.348164</ele>
        <time>2020-09-20T07:37:49.000Z</time>
      </trkpt>
      <trkpt lat="43.50252" lon="1.10209">
        <ele>254.422681</ele>
        <time>2020-09-20T07:37:54.000Z</time>
      </trkpt>
      <trkpt lat="43.50256" lon="1.10251">
        <ele>254.520213</ele>
        <time>2020-09-20T07:38:00.000Z</time>
      </trkpt>
      <trkpt lat="43.50258" lon="1.10264">
        <ele>254.549987</ele>
        <time>2020-09-20T07:38:02.000Z</time>
      </trkpt>
      <trkpt lat="43.50261" lon="1.10287">
        <ele>254.601854</ele>
        <time>2020-09-20T07:38:05.000Z</time>
      </trkpt>
      <trkpt lat="43.5027" lon="1.1034">
        <ele>254.725216</ele>
        <time>2020-09-20T07:38:12.000Z</time>
      </trkpt>
      <trkpt lat="43.50276" lon="1.10393">
        <ele>254.845091</ele>
        <time>2020-09-20T07:38:19.000Z</time>
      </trkpt>
      <trkpt lat="43.50273" lon="1.10424">
        <ele>254.906899</ele>
        <time>2020-09-20T07:38:23.000Z</time>
      </trkpt>
      <trkpt lat="43.50266" lon="1.10463">
        <ele>254.706911</ele>
        <time>2020-09-20T07:38:28.000Z</time>
      </trkpt>
      <trkpt lat="43.50264" lon="1.1047">
        <ele>254.669294</ele>
        <time>2020-09-20T07:38:29.000Z</time>
      </trkpt>
      <trkpt lat="43.50255" lon="1.10516">
        <ele>254.431913</ele>
        <time>2020-09-20T07:38:35.000Z</time>
      </trkpt>
      <trkpt lat="43.50244" lon="1.10563">
        <ele>254.1867</ele>
        <time>2020-09-20T07:38:41.000Z</time>
      </trkpt>
      <trkpt lat="43.50242" lon="1.10571">
        <ele>254.145658</ele>
        <time>2020-09-20T07:38:42.000Z</time>
      </trkpt>
      <trkpt lat="43.50238" lon="1.10612">
        <ele>253.942976</ele>
        <time>2020-09-20T07:38:47.000Z</time>
      </trkpt>
      <trkpt lat="43.50241" lon="1.10641">
        <ele>253.795196</ele>
        <time>2020-09-20T07:38:51.000Z</time>
      </trkpt>
      <trkpt lat="43.50243" lon="1.10648">
        <ele>253.759285</ele>
        <time>2020-09-20T07:38:52.000Z</time>
      </trkpt>
      <trkpt lat="43.50246" lon="1.10662">
        <ele>253.688856</ele>
        <time>2020-09-20T07:38:54.000Z</time>
      </trkpt>
      <trkpt lat="43.50248" lon="1.10684">
        <ele>253.422864</ele>
        <time>2020-09-20T07:38:57.000Z</time>
      </trkpt>
      <trkpt lat="43.50248" lon="1.10691">
        <ele>253.334739</ele>
        <time>2020-09-20T07:38:58.000Z</time>
      </trkpt>
      <trkpt lat="43.50248" lon="1.10727">
        <ele>252.895979</ele>
        <time>2020-09-20T07:39:03.000Z</time>
      </trkpt>
      <trkpt lat="43.50249" lon="1.10734">
        <ele>252.806206</ele>
        <time>2020-09-20T07:39:04.000Z</time>
      </trkpt>
      <trkpt lat="43.50248" lon="1.10756">
        <ele>252.545273</ele>
        <time>2020-09-20T07:39:07.000Z</time>
      </trkpt>
      <trkpt lat="43.50244" lon="1.10767">
        <ele>252.395579</ele>
        <time>2020-09-20T07:39:10.000Z</time>
      </trkpt>
      <trkpt lat="43.50236" lon="1.10784">
        <ele>252.144281</ele>
        <time>2020-09-20T07:39:14.000Z</time>
      </trkpt>
      <trkpt lat="43.50234" lon="1.10797">
        <ele>251.976398</ele>
        <time>2020-09-20T07:39:16.000Z</time>
      </trkpt>
      <trkpt lat="43.5023" lon="1.1082">
        <ele>251.69436</ele>
        <time>2020-09-20T07:39:19.000Z</time>
      </trkpt>
      <trkpt lat="43.50221" lon="1.10873">
        <ele>251.02844</ele>
        <time>2020-09-20T07:39:26.000Z</time>
      </trkpt>
      <trkpt lat="43.50218" lon="1.10888">
        <ele>250.839485</ele>
        <time>2020-09-20T07:39:28.000Z</time>
      </trkpt>
      <trkpt lat="43.5021" lon="1.10923">
        <ele>250.377211</ele>
        <time>2020-09-20T07:39:33.000Z</time>
      </trkpt>
      <trkpt lat="43.50204" lon="1.10945">
        <ele>250.090124</ele>
        <time>2020-09-20T07:39:36.000Z</time>
      </trkpt>
      <trkpt lat="43.50192" lon="1.1098">
        <ele>249.607798</ele>
        <time>2020-09-20T07:39:41.000Z</time>
      </trkpt>
      <trkpt lat="43.5018" lon="1.11023">
        <ele>249.037183</ele>
        <time>2020-09-20T07:39:47.000Z</time>
      </trkpt>
      <trkpt lat="43.50179" lon="1.11031">
        <ele>248.941223</ele>
        <time>2020-09-20T07:39:48.000Z</time>
      </trkpt>
      <trkpt lat="43.50172" lon="1.11085">
        <ele>248.252675</ele>
        <time>2020-09-20T07:39:55.000Z</time>
      </trkpt>
      <trkpt lat="43.50172" lon="1.11093">
        <ele>248.155393</ele>
        <time>2020-09-20T07:39:56.000Z</time>
      </trkpt>
      <trkpt lat="43.50171" lon="1.11141">
        <ele>247.575375</ele>
        <time>2020-09-20T07:40:02.000Z</time>
      </trkpt>
      <trkpt lat="43.5017" lon="1.11148">
        <ele>247.597421</ele>
        <time>2020-09-20T07:40:03.000Z</time>
      </trkpt>
      <trkpt lat="43.50166" lon="1.11157">
        <ele>247.631964</ele>
        <time>2020-09-20T07:40:05.000Z</time>
      </trkpt>
      <trkpt lat="43.5015" lon="1.11156">
        <ele>247.696022</ele>
        <time>2020-09-20T07:40:08.000Z</time>
      </trkpt>
      <trkpt lat="43.50122" lon="1.11152">
        <ele>247.81464</ele>
        <time>2020-09-20T07:40:13.000Z</time>
      </trkpt>
      <trkpt lat="43.50105" lon="1.1115">
        <ele>247.887675</ele>
        <time>2020-09-20T07:40:16.000Z</time>
      </trkpt>
      <trkpt lat="43.50072" lon="1.1114">
        <ele>248.028216</ele>
        <time>2020-09-20T07:40:22.000Z</time>
      </trkpt>
      <trkpt lat="43.50041" lon="1.11123">
        <ele>248.16853</ele>
        <time>2020-09-20T07:40:28.000Z</time>
      </trkpt>
      <trkpt lat="43.50036" lon="1.1112">
        <ele>248.191208</ele>
        <time>2020-09-20T07:40:29.000Z</time>
      </trkpt>
      <trkpt lat="43.50016" lon="1.11111">
        <ele>248.280798</ele>
        <time>2020-09-20T07:40:33.000Z</time>
      </trkpt>
      <trkpt lat="43.49988" lon="1.11097">
        <ele>249.063149</ele>
        <time>2020-09-20T07:40:39.000Z</time>
      </trkpt>
      <trkpt lat="43.49978" lon="1.11093">
        <ele>249.494979</ele>
        <time>2020-09-20T07:40:41.000Z</time>
      </trkpt>
      <trkpt lat="43.49953" lon="1.11085">
        <ele>250.541638</ele>
        <time>2020-09-20T07:40:46.000Z</time>
      </trkpt>
      <trkpt lat="43.49933" lon="1.1108">
        <ele>251.363521</ele>
        <time>2020-09-20T07:40:50.000Z</time>
      </trkpt>
      <trkpt lat="43.49922" lon="1.11078">
        <ele>251.785637</ele>
        <time>2020-09-20T07:40:52.000Z</time>
      </trkpt>
      <trkpt lat="43.49912" lon="1.11075">
        <ele>252.190446</ele>
        <time>2020-09-20T07:40:54.000Z</time>
      </trkpt>
      <trkpt lat="43.49885" lon="1.11067">
        <ele>253.32809</ele>
        <time>2020-09-20T07:41:00.000Z</time>
      </trkpt>
      <trkpt lat="43.49875" lon="1.11061">
        <ele>253.753792</ele>
        <time>2020-09-20T07:41:03.000Z</time>
      </trkpt>
      <trkpt lat="43.49874" lon="1.11056">
        <ele>253.896596</ele>
        <time>2020-09-20T07:41:04.000Z</time>
      </trkpt>
      <trkpt lat="43.49875" lon="1.11046">
        <ele>254.209405</ele>
        <time>2020-09-20T07:41:06.000Z</time>
      </trkpt>
      <trkpt lat="43.49876" lon="1.11035">
        <ele>254.522213</ele>
        <time>2020-09-20T07:41:08.000Z</time>
      </trkpt>
      <trkpt lat="43.49879" lon="1.11014">
        <ele>255.145959</ele>
        <time>2020-09-20T07:41:12.000Z</time>
      </trkpt>
      <trkpt lat="43.49883" lon="1.10982">
        <ele>255.792183</ele>
        <time>2020-09-20T07:41:18.000Z</time>
      </trkpt>
      <trkpt lat="43.49886" lon="1.10955">
        <ele>256.112859</ele>
        <time>2020-09-20T07:41:23.000Z</time>
      </trkpt>
      <trkpt lat="43.49887" lon="1.1094">
        <ele>256.296041</ele>
        <time>2020-09-20T07:41:26.000Z</time>
      </trkpt>
      <trkpt lat="43.49889" lon="1.1093">
        <ele>256.420458</ele>
        <time>2020-09-20T07:41:28.000Z</time>
      </trkpt>
      <trkpt lat="43.4989" lon="1.10897">
        <ele>256.807468</ele>
        <time>2020-09-20T07:41:34.000Z</time>
      </trkpt>
      <trkpt lat="43.49884" lon="1.10869">
        <ele>257.15636</ele>
        <time>2020-09-20T07:41:40.000Z</time>
      </trkpt>
      <trkpt lat="43.49877" lon="1.10847">
        <ele>257.446276</ele>
        <time>2020-09-20T07:41:45.000Z</time>
      </trkpt>
      <trkpt lat="43.49874" lon="1.10842">
        <ele>257.512111</ele>
        <time>2020-09-20T07:41:46.000Z</time>
      </trkpt>
      <trkpt lat="43.49873" lon="1.10838">
        <ele>257.575244</ele>
        <time>2020-09-20T07:41:47.000Z</time>
      </trkpt>
      <trkpt lat="43.49868" lon="1.10824">
        <ele>257.759231</ele>
        <time>2020-09-20T07:41:50.000Z</time>
      </trkpt>
      <trkpt lat="43.4986" lon="1.10803">
        <ele>258.042425</ele>
        <time>2020-09-20T07:41:54.000Z</time>
      </trkpt>
      <trkpt lat="43.49859" lon="1.10797">
        <ele>258.113687</ele>
        <time>2020-09-20T07:41:55.000Z</time>
      </trkpt>
      <trkpt lat="43.49854" lon="1.10772">
        <ele>258.420242</ele>
        <time>2020-09-20T07:41:59.000Z</time>
      </trkpt>
      <trkpt lat="43.49852" lon="1.10758">
        <ele>258.521873</ele>
        <time>2020-09-20T07:42:01.000Z</time>
      </trkpt>
      <trkpt lat="43.49849" lon="1.10724">
        <ele>258.473766</ele>
        <time>2020-09-20T07:42:06.000Z</time>
      </trkpt>
      <trkpt lat="43.49844" lon="1.1067">
        <ele>258.398279</ele>
        <time>2020-09-20T07:42:13.000Z</time>
      </trkpt>
      <trkpt lat="43.49841" lon="1.10621">
        <ele>258.330423</ele>
        <time>2020-09-20T07:42:19.000Z</time>
      </trkpt>
      <trkpt lat="43.49837" lon="1.10559">
        <ele>258.2449</ele>
        <time>2020-09-20T07:42:27.000Z</time>
      </trkpt>
      <trkpt lat="43.49827" lon="1.10498">
        <ele>258.435224</ele>
        <time>2020-09-20T07:42:35.000Z</time>
      </trkpt>
      <trkpt lat="43.49823" lon="1.10484">
        <ele>258.627532</ele>
        <time>2020-09-20T07:42:37.000Z</time>
      </trkpt>
      <trkpt lat="43.49812" lon="1.10457">
        <ele>258.998812</ele>
        <time>2020-09-20T07:42:41.000Z</time>
      </trkpt>
      <trkpt lat="43.49794" lon="1.10422">
        <ele>259.534323</ele>
        <time>2020-09-20T07:42:47.000Z</time>
      </trkpt>
      <trkpt lat="43.49786" lon="1.10404">
        <ele>259.807185</ele>
        <time>2020-09-20T07:42:50.000Z</time>
      </trkpt>
      <trkpt lat="43.49777" lon="1.10385">
        <ele>260.077765</ele>
        <time>2020-09-20T07:42:53.000Z</time>
      </trkpt>
      <trkpt lat="43.49773" lon="1.10372">
        <ele>260.250149</ele>
        <time>2020-09-20T07:42:55.000Z</time>
      </trkpt>
      <trkpt lat="43.49764" lon="1.10358">
        <ele>260.488214</ele>
        <time>2020-09-20T07:42:58.000Z</time>
      </trkpt>
      <trkpt lat="43.49756" lon="1.10356">
        <ele>260.630464</ele>
        <time>2020-09-20T07:43:00.000Z</time>
      </trkpt>
      <trkpt lat="43.49751" lon="1.10356">
        <ele>260.707673</ele>
        <time>2020-09-20T07:43:01.000Z</time>
      </trkpt>
      <trkpt lat="43.49726" lon="1.10358">
        <ele>261.13676</ele>
        <time>2020-09-20T07:43:06.000Z</time>
      </trkpt>
      <trkpt lat="43.49718" lon="1.10359">
        <ele>261.308841</ele>
        <time>2020-09-20T07:43:08.000Z</time>
      </trkpt>
      <trkpt lat="43.49699" lon="1.10363">
        <ele>262.053042</ele>
        <time>2020-09-20T07:43:12.000Z</time>
      </trkpt>
      <trkpt lat="43.4969" lon="1.10364">
        <ele>262.44802</ele>
        <time>2020-09-20T07:43:14.000Z</time>
      </trkpt>
      <trkpt lat="43.49675" lon="1.10364">
        <ele>263.023362</ele>
        <time>2020-09-20T07:43:17.000Z</time>
      </trkpt>
      <trkpt lat="43.49665" lon="1.10364">
        <ele>263.440864</ele>
        <time>2020-09-20T07:43:19.000Z</time>
      </trkpt>
      <trkpt lat="43.4966" lon="1.10364">
        <ele>263.643546</ele>
        <time>2020-09-20T07:43:20.000Z</time>
      </trkpt>
      <trkpt lat="43.49651" lon="1.10364">
        <ele>264.016232</ele>
        <time>2020-09-20T07:43:22.000Z</time>
      </trkpt>
      <trkpt lat="43.49646" lon="1.10364">
        <ele>264.206663</ele>
        <time>2020-09-20T07:43:23.000Z</time>
      </trkpt>
      <trkpt lat="43.49637" lon="1.10364">
        <ele>264.567861</ele>
        <time>2020-09-20T07:43:25.000Z</time>
      </trkpt>
      <trkpt lat="43.49633" lon="1.10365">
        <ele>264.750197</ele>
        <time>2020-09-20T07:43:26.000Z</time>
      </trkpt>
      <trkpt lat="43.49623" lon="1.10363">
        <ele>265.161594</ele>
        <time>2020-09-20T07:43:28.000Z</time>
      </trkpt>
      <trkpt lat="43.49614" lon="1.10362">
        <ele>265.527258</ele>
        <time>2020-09-20T07:43:30.000Z</time>
      </trkpt>
      <trkpt lat="43.49605" lon="1.10361">
        <ele>265.896363</ele>
        <time>2020-09-20T07:43:32.000Z</time>
      </trkpt>
      <trkpt lat="43.49595" lon="1.1036">
        <ele>266.269882</ele>
        <time>2020-09-20T07:43:34.000Z</time>
      </trkpt>
      <trkpt lat="43.49582" lon="1.10357">
        <ele>266.811672</ele>
        <time>2020-09-20T07:43:38.000Z</time>
      </trkpt>
      <trkpt lat="43.49577" lon="1.10363">
        <ele>267.062581</ele>
        <time>2020-09-20T07:43:42.000Z</time>
      </trkpt>
      <trkpt lat="43.49568" lon="1.10363">
        <ele>267.443545</ele>
        <time>2020-09-20T07:43:45.000Z</time>
      </trkpt>
      <trkpt lat="43.49565" lon="1.10363">
        <ele>267.585289</ele>
        <time>2020-09-20T07:43:46.000Z</time>
      </trkpt>
      <trkpt lat="43.49557" lon="1.10362">
        <ele>267.882104</ele>
        <time>2020-09-20T07:43:48.000Z</time>
      </trkpt>
      <trkpt lat="43.49549" lon="1.10364">
        <ele>268.229941</ele>
        <time>2020-09-20T07:43:51.000Z</time>
      </trkpt>
      <trkpt lat="43.49545" lon="1.10366">
        <ele>268.381425</ele>
        <time>2020-09-20T07:43:53.000Z</time>
      </trkpt>
      <trkpt lat="43.49534" lon="1.10367">
        <ele>268.788339</ele>
        <time>2020-09-20T07:43:56.000Z</time>
      </trkpt>
      <trkpt lat="43.49522" lon="1.10365">
        <ele>269.212703</ele>
        <time>2020-09-20T07:44:00.000Z</time>
      </trkpt>
      <trkpt lat="43.49513" lon="1.10364">
        <ele>269.550549</ele>
        <time>2020-09-20T07:44:04.000Z</time>
      </trkpt>
      <trkpt lat="43.49509" lon="1.10364">
        <ele>269.674017</ele>
        <time>2020-09-20T07:44:05.000Z</time>
      </trkpt>
      <trkpt lat="43.49498" lon="1.1036">
        <ele>270.084617</ele>
        <time>2020-09-20T07:44:09.000Z</time>
      </trkpt>
      <trkpt lat="43.49495" lon="1.10359">
        <ele>270.199643</ele>
        <time>2020-09-20T07:44:10.000Z</time>
      </trkpt>
      <trkpt lat="43.49489" lon="1.10353">
        <ele>270.461619</ele>
        <time>2020-09-20T07:44:13.000Z</time>
      </trkpt>
      <trkpt lat="43.49485" lon="1.10354">
        <ele>270.595249</ele>
        <time>2020-09-20T07:44:15.000Z</time>
      </trkpt>
      <trkpt lat="43.49474" lon="1.10354">
        <ele>270.98569</ele>
        <time>2020-09-20T07:44:19.000Z</time>
      </trkpt>
      <trkpt lat="43.49461" lon="1.10355">
        <ele>271.435696</ele>
        <time>2020-09-20T07:44:23.000Z</time>
      </trkpt>
      <trkpt lat="43.4945" lon="1.10358">
        <ele>271.847435</ele>
        <time>2020-09-20T07:44:27.000Z</time>
      </trkpt>
      <trkpt lat="43.49445" lon="1.10359">
        <ele>272.008105</ele>
        <time>2020-09-20T07:44:29.000Z</time>
      </trkpt>
      <trkpt lat="43.49437" lon="1.10362">
        <ele>272.308512</ele>
        <time>2020-09-20T07:44:32.000Z</time>
      </trkpt>
      <trkpt lat="43.49435" lon="1.10362">
        <ele>272.378825</ele>
        <time>2020-09-20T07:44:33.000Z</time>
      </trkpt>
      <trkpt lat="43.49427" lon="1.1036">
        <ele>272.660754</ele>
        <time>2020-09-20T07:44:36.000Z</time>
      </trkpt>
      <trkpt lat="43.49421" lon="1.10355">
        <ele>272.901606</ele>
        <time>2020-09-20T07:44:40.000Z</time>
      </trkpt>
      <trkpt lat="43.49406" lon="1.10344">
        <ele>273.497899</ele>
        <time>2020-09-20T07:44:44.000Z</time>
      </trkpt>
      <trkpt lat="43.49403" lon="1.1034">
        <ele>273.654529</ele>
        <time>2020-09-20T07:44:45.000Z</time>
      </trkpt>
      <trkpt lat="43.49393" lon="1.10331">
        <ele>274.058615</ele>
        <time>2020-09-20T07:44:47.000Z</time>
      </trkpt>
      <trkpt lat="43.49383" lon="1.10324">
        <ele>274.463152</ele>
        <time>2020-09-20T07:44:50.000Z</time>
      </trkpt>
      <trkpt lat="43.49379" lon="1.10323">
        <ele>274.618865</ele>
        <time>2020-09-20T07:44:51.000Z</time>
      </trkpt>
      <trkpt lat="43.49368" lon="1.10318">
        <ele>275.19834</ele>
        <time>2020-09-20T07:44:54.000Z</time>
      </trkpt>
      <trkpt lat="43.49353" lon="1.10316">
        <ele>276.210415</ele>
        <time>2020-09-20T07:44:58.000Z</time>
      </trkpt>
      <trkpt lat="43.49351" lon="1.10316">
        <ele>276.368891</ele>
        <time>2020-09-20T07:44:59.000Z</time>
      </trkpt>
      <trkpt lat="43.49349" lon="1.10315">
        <ele>276.493033</ele>
        <time>2020-09-20T07:45:00.000Z</time>
      </trkpt>
      <trkpt lat="43.49342" lon="1.10308">
        <ele>277.133765</ele>
        <time>2020-09-20T07:45:03.000Z</time>
      </trkpt>
      <trkpt lat="43.4934" lon="1.10307">
        <ele>277.271142</ele>
        <time>2020-09-20T07:45:04.000Z</time>
      </trkpt>
      <trkpt lat="43.49335" lon="1.10306">
        <ele>277.617842</ele>
        <time>2020-09-20T07:45:06.000Z</time>
      </trkpt>
      <trkpt lat="43.49334" lon="1.10306">
        <ele>277.716905</ele>
        <time>2020-09-20T07:45:08.000Z</time>
      </trkpt>
      <trkpt lat="43.49325" lon="1.10301">
        <ele>278.36513</ele>
        <time>2020-09-20T07:45:21.000Z</time>
      </trkpt>
      <trkpt lat="43.49321" lon="1.10299">
        <ele>278.677495</ele>
        <time>2020-09-20T07:45:23.000Z</time>
      </trkpt>
      <trkpt lat="43.49319" lon="1.10298">
        <ele>278.863709</ele>
        <time>2020-09-20T07:45:24.000Z</time>
      </trkpt>
      <trkpt lat="43.49313" lon="1.10297">
        <ele>279.254522</ele>
        <time>2020-09-20T07:45:26.000Z</time>
      </trkpt>
      <trkpt lat="43.49309" lon="1.10297">
        <ele>279.530542</ele>
        <time>2020-09-20T07:45:27.000Z</time>
      </trkpt>
      <trkpt lat="43.493" lon="1.103">
        <ele>280.209057</ele>
        <time>2020-09-20T07:45:30.000Z</time>
      </trkpt>
      <trkpt lat="43.49296" lon="1.10301">
        <ele>280.451981</ele>
        <time>2020-09-20T07:45:33.000Z</time>
      </trkpt>
      <trkpt lat="43.49295" lon="1.10303">
        <ele>280.609916</ele>
        <time>2020-09-20T07:45:34.000Z</time>
      </trkpt>
      <trkpt lat="43.49289" lon="1.10309">
        <ele>281.130562</ele>
        <time>2020-09-20T07:45:36.000Z</time>
      </trkpt>
      <trkpt lat="43.49285" lon="1.10311">
        <ele>281.450854</ele>
        <time>2020-09-20T07:45:37.000Z</time>
      </trkpt>
      <trkpt lat="43.49273" lon="1.10316">
        <ele>282.3067</ele>
        <time>2020-09-20T07:45:40.000Z</time>
      </trkpt>
      <trkpt lat="43.49263" lon="1.10322">
        <ele>283.070912</ele>
        <time>2020-09-20T07:45:43.000Z</time>
      </trkpt>
      <trkpt lat="43.49254" lon="1.10323">
        <ele>283.724976</ele>
        <time>2020-09-20T07:45:46.000Z</time>
      </trkpt>
      <trkpt lat="43.49248" lon="1.10322">
        <ele>284.157976</ele>
        <time>2020-09-20T07:45:48.000Z</time>
      </trkpt>
      <trkpt lat="43.49243" lon="1.1032">
        <ele>284.525442</ele>
        <time>2020-09-20T07:45:50.000Z</time>
      </trkpt>
      <trkpt lat="43.49239" lon="1.1032">
        <ele>284.829299</ele>
        <time>2020-09-20T07:45:52.000Z</time>
      </trkpt>
      <trkpt lat="43.49233" lon="1.1032">
        <ele>285.22532</ele>
        <time>2020-09-20T07:45:54.000Z</time>
      </trkpt>
      <trkpt lat="43.49228" lon="1.1032">
        <ele>285.564548</ele>
        <time>2020-09-20T07:45:56.000Z</time>
      </trkpt>
      <trkpt lat="43.49222" lon="1.1032">
        <ele>286.031188</ele>
        <time>2020-09-20T07:45:58.000Z</time>
      </trkpt>
      <trkpt lat="43.49219" lon="1.1032">
        <ele>286.250248</ele>
        <time>2020-09-20T07:45:59.000Z</time>
      </trkpt>
      <trkpt lat="43.49209" lon="1.1032">
        <ele>286.908148</ele>
        <time>2020-09-20T07:46:02.000Z</time>
      </trkpt>
      <trkpt lat="43.49205" lon="1.10319">
        <ele>287.225099</ele>
        <time>2020-09-20T07:46:04.000Z</time>
      </trkpt>
      <trkpt lat="43.49203" lon="1.10319">
        <ele>287.38132</ele>
        <time>2020-09-20T07:46:05.000Z</time>
      </trkpt>
      <trkpt lat="43.4919" lon="1.10317">
        <ele>288.41538</ele>
        <time>2020-09-20T07:46:09.000Z</time>
      </trkpt>
      <trkpt lat="43.49182" lon="1.10318">
        <ele>289.161394</ele>
        <time>2020-09-20T07:46:12.000Z</time>
      </trkpt>
      <trkpt lat="43.49176" lon="1.10319">
        <ele>289.63464</ele>
        <time>2020-09-20T07:46:14.000Z</time>
      </trkpt>
      <trkpt lat="43.49166" lon="1.10321">
        <ele>290.544168</ele>
        <time>2020-09-20T07:46:18.000Z</time>
      </trkpt>
      <trkpt lat="43.49163" lon="1.10321">
        <ele>290.798404</ele>
        <time>2020-09-20T07:46:19.000Z</time>
      </trkpt>
      <trkpt lat="43.49155" lon="1.10322">
        <ele>291.539846</ele>
        <time>2020-09-20T07:46:22.000Z</time>
      </trkpt>
      <trkpt lat="43.49149" lon="1.10324">
        <ele>292.023637</ele>
        <time>2020-09-20T07:46:24.000Z</time>
      </trkpt>
      <trkpt lat="43.49147" lon="1.10324">
        <ele>292.235103</ele>
        <time>2020-09-20T07:46:25.000Z</time>
      </trkpt>
      <trkpt lat="43.49139" lon="1.10327">
        <ele>292.926635</ele>
        <time>2020-09-20T07:46:28.000Z</time>
      </trkpt>
      <trkpt lat="43.49134" lon="1.10327">
        <ele>293.369502</ele>
        <time>2020-09-20T07:46:30.000Z</time>
      </trkpt>
      <trkpt lat="43.49131" lon="1.10327">
        <ele>293.579937</ele>
        <time>2020-09-20T07:46:31.000Z</time>
      </trkpt>
      <trkpt lat="43.49125" lon="1.10324">
        <ele>294.128214</ele>
        <time>2020-09-20T07:46:34.000Z</time>
      </trkpt>
      <trkpt lat="43.49121" lon="1.10322">
        <ele>294.529885</ele>
        <time>2020-09-20T07:46:36.000Z</time>
      </trkpt>
      <trkpt lat="43.49119" lon="1.10321">
        <ele>294.694187</ele>
        <time>2020-09-20T07:46:37.000Z</time>
      </trkpt>
      <trkpt lat="43.49114" lon="1.10317">
        <ele>295.216776</ele>
        <time>2020-09-20T07:46:40.000Z</time>
      </trkpt>
      <trkpt lat="43.49111" lon="1.10317">
        <ele>295.439281</ele>
        <time>2020-09-20T07:46:41.000Z</time>
      </trkpt>
      <trkpt lat="43.49105" lon="1.10315">
        <ele>295.948725</ele>
        <time>2020-09-20T07:46:43.000Z</time>
      </trkpt>
      <trkpt lat="43.49092" lon="1.10315">
        <ele>297.145946</ele>
        <time>2020-09-20T07:46:46.000Z</time>
      </trkpt>
      <trkpt lat="43.49086" lon="1.10315">
        <ele>297.667075</ele>
        <time>2020-09-20T07:46:48.000Z</time>
      </trkpt>
      <trkpt lat="43.49075" lon="1.10316">
        <ele>298.561465</ele>
        <time>2020-09-20T07:46:51.000Z</time>
      </trkpt>
      <trkpt lat="43.49071" lon="1.10316">
        <ele>298.917421</ele>
        <time>2020-09-20T07:46:52.000Z</time>
      </trkpt>
      <trkpt lat="43.49059" lon="1.10314">
        <ele>299.952454</ele>
        <time>2020-09-20T07:46:56.000Z</time>
      </trkpt>
      <trkpt lat="43.49058" lon="1.10312">
        <ele>300.135547</ele>
        <time>2020-09-20T07:46:57.000Z</time>
      </trkpt>
      <trkpt lat="43.4906" lon="1.10305">
        <ele>300.628211</ele>
        <time>2020-09-20T07:47:00.000Z</time>
      </trkpt>
      <trkpt lat="43.49067" lon="1.10291">
        <ele>301.672623</ele>
        <time>2020-09-20T07:47:05.000Z</time>
      </trkpt>
      <trkpt lat="43.49074" lon="1.10278">
        <ele>302.697734</ele>
        <time>2020-09-20T07:47:09.000Z</time>
      </trkpt>
      <trkpt lat="43.49082" lon="1.10272">
        <ele>303.068316</ele>
        <time>2020-09-20T07:47:11.000Z</time>
      </trkpt>
      <trkpt lat="43.49091" lon="1.10263">
        <ele>302.720676</ele>
        <time>2020-09-20T07:47:13.000Z</time>
      </trkpt>
      <trkpt lat="43.49101" lon="1.10256">
        <ele>302.374985</ele>
        <time>2020-09-20T07:47:15.000Z</time>
      </trkpt>
      <trkpt lat="43.49105" lon="1.10253">
        <ele>302.218846</ele>
        <time>2020-09-20T07:47:16.000Z</time>
      </trkpt>
      <trkpt lat="43.49108" lon="1.10248">
        <ele>302.053754</ele>
        <time>2020-09-20T07:47:17.000Z</time>
      </trkpt>
      <trkpt lat="43.49114" lon="1.10239">
        <ele>301.796745</ele>
        <time>2020-09-20T07:47:19.000Z</time>
      </trkpt>
      <trkpt lat="43.49116" lon="1.10231">
        <ele>301.600902</ele>
        <time>2020-09-20T07:47:21.000Z</time>
      </trkpt>
      <trkpt lat="43.49115" lon="1.1022">
        <ele>301.338751</ele>
        <time>2020-09-20T07:47:23.000Z</time>
      </trkpt>
      <trkpt lat="43.49115" lon="1.10213">
        <ele>301.176664</ele>
        <time>2020-09-20T07:47:24.000Z</time>
      </trkpt>
      <trkpt lat="43.49115" lon="1.10204">
        <ele>300.972629</ele>
        <time>2020-09-20T07:47:25.000Z</time>
      </trkpt>
      <trkpt lat="43.49114" lon="1.10188">
        <ele>300.607064</ele>
        <time>2020-09-20T07:47:27.000Z</time>
      </trkpt>
      <trkpt lat="43.49115" lon="1.10181">
        <ele>300.439883</ele>
        <time>2020-09-20T07:47:28.000Z</time>
      </trkpt>
      <trkpt lat="43.4912" lon="1.10171">
        <ele>300.14972</ele>
        <time>2020-09-20T07:47:30.000Z</time>
      </trkpt>
      <trkpt lat="43.49123" lon="1.10168">
        <ele>300.038024</ele>
        <time>2020-09-20T07:47:31.000Z</time>
      </trkpt>
      <trkpt lat="43.49125" lon="1.10167">
        <ele>299.964906</ele>
        <time>2020-09-20T07:47:32.000Z</time>
      </trkpt>
      <trkpt lat="43.49128" lon="1.10167">
        <ele>299.877769</ele>
        <time>2020-09-20T07:47:33.000Z</time>
      </trkpt>
      <trkpt lat="43.49133" lon="1.10165">
        <ele>299.724852</ele>
        <time>2020-09-20T07:47:35.000Z</time>
      </trkpt>
      <trkpt lat="43.49134" lon="1.10163">
        <ele>299.65661</ele>
        <time>2020-09-20T07:47:37.000Z</time>
      </trkpt>
      <trkpt lat="43.49143" lon="1.1015">
        <ele>299.250745</ele>
        <time>2020-09-20T07:48:11.000Z</time>
      </trkpt>
      <trkpt lat="43.49145" lon="1.10147">
        <ele>299.147026</ele>
        <time>2020-09-20T07:48:12.000Z</time>
      </trkpt>
      <trkpt lat="43.49151" lon="1.10141">
        <ele>298.920995</ele>
        <time>2020-09-20T07:48:15.000Z</time>
      </trkpt>
      <trkpt lat="43.49153" lon="1.10139">
        <ele>298.842268</ele>
        <time>2020-09-20T07:48:17.000Z</time>
      </trkpt>
      <trkpt lat="43.49157" lon="1.10135">
        <ele>298.671399</ele>
        <time>2020-09-20T07:48:20.000Z</time>
      </trkpt>
      <trkpt lat="43.49158" lon="1.10134">
        <ele>298.631504</ele>
        <time>2020-09-20T07:48:21.000Z</time>
      </trkpt>
      <trkpt lat="43.49159" lon="1.10133">
        <ele>298.614299</ele>
        <time>2020-09-20T07:48:22.000Z</time>
      </trkpt>
      <trkpt lat="43.49159" lon="1.10132">
        <ele>298.60043</ele>
        <time>2020-09-20T07:48:24.000Z</time>
      </trkpt>
      <trkpt lat="43.49162" lon="1.10117">
        <ele>298.236809</ele>
        <time>2020-09-20T07:48:38.000Z</time>
      </trkpt>
      <trkpt lat="43.49162" lon="1.10114">
        <ele>298.151225</ele>
        <time>2020-09-20T07:48:40.000Z</time>
      </trkpt>
      <trkpt lat="43.49162" lon="1.10112">
        <ele>298.110784</ele>
        <time>2020-09-20T07:48:41.000Z</time>
      </trkpt>
      <trkpt lat="43.49161" lon="1.1011">
        <ele>298.065867</ele>
        <time>2020-09-20T07:48:42.000Z</time>
      </trkpt>
      <trkpt lat="43.4916" lon="1.1011">
        <ele>298.02962</ele>
        <time>2020-09-20T07:48:43.000Z</time>
      </trkpt>
      <trkpt lat="43.49157" lon="1.10109">
        <ele>297.917245</ele>
        <time>2020-09-20T07:48:45.000Z</time>
      </trkpt>
      <trkpt lat="43.49149" lon="1.10107">
        <ele>297.670723</ele>
        <time>2020-09-20T07:48:49.000Z</time>
      </trkpt>
      <trkpt lat="43.49139" lon="1.10102">
        <ele>297.597759</ele>
        <time>2020-09-20T07:48:54.000Z</time>
      </trkpt>
      <trkpt lat="43.49138" lon="1.101">
        <ele>297.678086</ele>
        <time>2020-09-20T07:48:55.000Z</time>
      </trkpt>
      <trkpt lat="43.49138" lon="1.10098">
        <ele>297.735074</ele>
        <time>2020-09-20T07:48:56.000Z</time>
      </trkpt>
      <trkpt lat="43.49137" lon="1.10094">
        <ele>297.867645</ele>
        <time>2020-09-20T07:48:58.000Z</time>
      </trkpt>
      <trkpt lat="43.49136" lon="1.10091">
        <ele>297.970891</ele>
        <time>2020-09-20T07:49:00.000Z</time>
      </trkpt>
      <trkpt lat="43.49135" lon="1.1009">
        <ele>298.033539</ele>
        <time>2020-09-20T07:49:01.000Z</time>
      </trkpt>
      <trkpt lat="43.49134" lon="1.10088">
        <ele>298.09587</ele>
        <time>2020-09-20T07:49:02.000Z</time>
      </trkpt>
      <trkpt lat="43.49133" lon="1.10084">
        <ele>298.232274</ele>
        <time>2020-09-20T07:49:04.000Z</time>
      </trkpt>
      <trkpt lat="43.49131" lon="1.10079">
        <ele>298.417928</ele>
        <time>2020-09-20T07:49:06.000Z</time>
      </trkpt>
      <trkpt lat="43.4913" lon="1.10073">
        <ele>298.603939</ele>
        <time>2020-09-20T07:49:08.000Z</time>
      </trkpt>
      <trkpt lat="43.4913" lon="1.1007">
        <ele>298.696516</ele>
        <time>2020-09-20T07:49:09.000Z</time>
      </trkpt>
      <trkpt lat="43.49132" lon="1.10065">
        <ele>298.884219</ele>
        <time>2020-09-20T07:49:11.000Z</time>
      </trkpt>
      <trkpt lat="43.49134" lon="1.10062">
        <ele>298.995827</ele>
        <time>2020-09-20T07:49:12.000Z</time>
      </trkpt>
      <trkpt lat="43.49136" lon="1.1006">
        <ele>299.111278</ele>
        <time>2020-09-20T07:49:13.000Z</time>
      </trkpt>
      <trkpt lat="43.49142" lon="1.10053">
        <ele>299.474374</ele>
        <time>2020-09-20T07:49:17.000Z</time>
      </trkpt>
      <trkpt lat="43.49145" lon="1.10047">
        <ele>299.686378</ele>
        <time>2020-09-20T07:49:20.000Z</time>
      </trkpt>
      <trkpt lat="43.49144" lon="1.10043">
        <ele>299.836267</ele>
        <time>2020-09-20T07:49:22.000Z</time>
      </trkpt>
      <trkpt lat="43.49143" lon="1.10031">
        <ele>300.203203</ele>
        <time>2020-09-20T07:49:26.000Z</time>
      </trkpt>
      <trkpt lat="43.49144" lon="1.10028">
        <ele>300.304737</ele>
        <time>2020-09-20T07:49:27.000Z</time>
      </trkpt>
      <trkpt lat="43.49145" lon="1.10023">
        <ele>300.480517</ele>
        <time>2020-09-20T07:49:29.000Z</time>
      </trkpt>
      <trkpt lat="43.49146" lon="1.1002">
        <ele>300.580918</ele>
        <time>2020-09-20T07:49:30.000Z</time>
      </trkpt>
      <trkpt lat="43.49148" lon="1.10011">
        <ele>300.883753</ele>
        <time>2020-09-20T07:49:32.000Z</time>
      </trkpt>
      <trkpt lat="43.49152" lon="1.09996">
        <ele>301.398013</ele>
        <time>2020-09-20T07:49:35.000Z</time>
      </trkpt>
      <trkpt lat="43.49156" lon="1.09956">
        <ele>302.67037</ele>
        <time>2020-09-20T07:49:43.000Z</time>
      </trkpt>
      <trkpt lat="43.49152" lon="1.09927">
        <ele>303.597643</ele>
        <time>2020-09-20T07:49:48.000Z</time>
      </trkpt>
      <trkpt lat="43.49148" lon="1.09917">
        <ele>304.001508</ele>
        <time>2020-09-20T07:49:50.000Z</time>
      </trkpt>
      <trkpt lat="43.49144" lon="1.09905">
        <ele>304.400443</ele>
        <time>2020-09-20T07:49:52.000Z</time>
      </trkpt>
      <trkpt lat="43.49143" lon="1.09898">
        <ele>304.62481</ele>
        <time>2020-09-20T07:49:53.000Z</time>
      </trkpt>
      <trkpt lat="43.49144" lon="1.09891">
        <ele>304.855068</ele>
        <time>2020-09-20T07:49:54.000Z</time>
      </trkpt>
      <trkpt lat="43.49145" lon="1.09885">
        <ele>305.059682</ele>
        <time>2020-09-20T07:49:55.000Z</time>
      </trkpt>
      <trkpt lat="43.49148" lon="1.0988">
        <ele>305.266578</ele>
        <time>2020-09-20T07:49:56.000Z</time>
      </trkpt>
      <trkpt lat="43.49152" lon="1.09873">
        <ele>305.194072</ele>
        <time>2020-09-20T07:49:58.000Z</time>
      </trkpt>
      <trkpt lat="43.49157" lon="1.09871">
        <ele>305.012328</ele>
        <time>2020-09-20T07:50:00.000Z</time>
      </trkpt>
      <trkpt lat="43.49161" lon="1.09871">
        <ele>304.863568</ele>
        <time>2020-09-20T07:50:02.000Z</time>
      </trkpt>
      <trkpt lat="43.49169" lon="1.0987">
        <ele>304.593391</ele>
        <time>2020-09-20T07:50:05.000Z</time>
      </trkpt>
      <trkpt lat="43.49175" lon="1.0987">
        <ele>304.373777</ele>
        <time>2020-09-20T07:50:07.000Z</time>
      </trkpt>
      <trkpt lat="43.4919" lon="1.09871">
        <ele>303.85271</ele>
        <time>2020-09-20T07:50:12.000Z</time>
      </trkpt>
      <trkpt lat="43.49208" lon="1.09868">
        <ele>303.200838</ele>
        <time>2020-09-20T07:50:17.000Z</time>
      </trkpt>
      <trkpt lat="43.49212" lon="1.09867">
        <ele>303.041454</ele>
        <time>2020-09-20T07:50:18.000Z</time>
      </trkpt>
      <trkpt lat="43.49216" lon="1.09866">
        <ele>302.897902</ele>
        <time>2020-09-20T07:50:19.000Z</time>
      </trkpt>
      <trkpt lat="43.4923" lon="1.09864">
        <ele>302.416709</ele>
        <time>2020-09-20T07:50:23.000Z</time>
      </trkpt>
      <trkpt lat="43.49247" lon="1.09861">
        <ele>301.809669</ele>
        <time>2020-09-20T07:50:28.000Z</time>
      </trkpt>
      <trkpt lat="43.49257" lon="1.09858">
        <ele>301.448747</ele>
        <time>2020-09-20T07:50:31.000Z</time>
      </trkpt>
      <trkpt lat="43.49265" lon="1.09852">
        <ele>301.139181</ele>
        <time>2020-09-20T07:50:33.000Z</time>
      </trkpt>
      <trkpt lat="43.49278" lon="1.09833">
        <ele>300.445982</ele>
        <time>2020-09-20T07:50:37.000Z</time>
      </trkpt>
      <trkpt lat="43.49281" lon="1.09826">
        <ele>300.253943</ele>
        <time>2020-09-20T07:50:38.000Z</time>
      </trkpt>
      <trkpt lat="43.49291" lon="1.09802">
        <ele>299.540712</ele>
        <time>2020-09-20T07:50:41.000Z</time>
      </trkpt>
      <trkpt lat="43.49294" lon="1.09792">
        <ele>299.257732</ele>
        <time>2020-09-20T07:50:42.000Z</time>
      </trkpt>
      <trkpt lat="43.49298" lon="1.09783">
        <ele>298.987069</ele>
        <time>2020-09-20T07:50:43.000Z</time>
      </trkpt>
      <trkpt lat="43.49308" lon="1.09762">
        <ele>298.15818</ele>
        <time>2020-09-20T07:50:45.000Z</time>
      </trkpt>
      <trkpt lat="43.49313" lon="1.09753">
        <ele>297.812231</ele>
        <time>2020-09-20T07:50:46.000Z</time>
      </trkpt>
      <trkpt lat="43.49318" lon="1.09743">
        <ele>297.415911</ele>
        <time>2020-09-20T07:50:47.000Z</time>
      </trkpt>
      <trkpt lat="43.4933" lon="1.09722">
        <ele>296.527606</ele>
        <time>2020-09-20T07:50:49.000Z</time>
      </trkpt>
      <trkpt lat="43.49335" lon="1.09712">
        <ele>296.107499</ele>
        <time>2020-09-20T07:50:50.000Z</time>
      </trkpt>
      <trkpt lat="43.49344" lon="1.09692">
        <ele>295.332155</ele>
        <time>2020-09-20T07:50:52.000Z</time>
      </trkpt>
      <trkpt lat="43.49347" lon="1.09683">
        <ele>295.024662</ele>
        <time>2020-09-20T07:50:53.000Z</time>
      </trkpt>
      <trkpt lat="43.49349" lon="1.09676">
        <ele>294.76808</ele>
        <time>2020-09-20T07:50:54.000Z</time>
      </trkpt>
      <trkpt lat="43.49354" lon="1.09657">
        <ele>294.105421</ele>
        <time>2020-09-20T07:50:57.000Z</time>
      </trkpt>
      <trkpt lat="43.49357" lon="1.09631">
        <ele>293.242824</ele>
        <time>2020-09-20T07:51:01.000Z</time>
      </trkpt>
      <trkpt lat="43.49361" lon="1.09619">
        <ele>292.817043</ele>
        <time>2020-09-20T07:51:04.000Z</time>
      </trkpt>
      <trkpt lat="43.49361" lon="1.09607">
        <ele>292.422705</ele>
        <time>2020-09-20T07:51:06.000Z</time>
      </trkpt>
      <trkpt lat="43.49364" lon="1.09584">
        <ele>291.63744</ele>
        <time>2020-09-20T07:51:10.000Z</time>
      </trkpt>
      <trkpt lat="43.49366" lon="1.09579">
        <ele>291.453656</ele>
        <time>2020-09-20T07:51:11.000Z</time>
      </trkpt>
      <trkpt lat="43.49366" lon="1.09574">
        <ele>291.30016</ele>
        <time>2020-09-20T07:51:12.000Z</time>
      </trkpt>
      <trkpt lat="43.49369" lon="1.09559">
        <ele>290.948901</ele>
        <time>2020-09-20T07:51:15.000Z</time>
      </trkpt>
      <trkpt lat="43.49372" lon="1.09536">
        <ele>292.215924</ele>
        <time>2020-09-20T07:51:19.000Z</time>
      </trkpt>
      <trkpt lat="43.49372" lon="1.09525">
        <ele>292.762197</ele>
        <time>2020-09-20T07:51:21.000Z</time>
      </trkpt>
      <trkpt lat="43.49368" lon="1.09503">
        <ele>294.017903</ele>
        <time>2020-09-20T07:51:25.000Z</time>
      </trkpt>
      <trkpt lat="43.49367" lon="1.09498">
        <ele>294.282077</ele>
        <time>2020-09-20T07:51:26.000Z</time>
      </trkpt>
      <trkpt lat="43.49365" lon="1.09487">
        <ele>294.895538</ele>
        <time>2020-09-20T07:51:28.000Z</time>
      </trkpt>
      <trkpt lat="43.49361" lon="1.09473">
        <ele>295.726194</ele>
        <time>2020-09-20T07:51:31.000Z</time>
      </trkpt>
      <trkpt lat="43.49359" lon="1.09469">
        <ele>295.986106</ele>
        <time>2020-09-20T07:51:32.000Z</time>
      </trkpt>
      <trkpt lat="43.49357" lon="1.09454">
        <ele>296.799675</ele>
        <time>2020-09-20T07:51:35.000Z</time>
      </trkpt>
      <trkpt lat="43.49356" lon="1.09445">
        <ele>297.289947</ele>
        <time>2020-09-20T07:51:37.000Z</time>
      </trkpt>
      <trkpt lat="43.49354" lon="1.0943">
        <ele>298.128692</ele>
        <time>2020-09-20T07:51:40.000Z</time>
      </trkpt>
      <trkpt lat="43.49353" lon="1.09419">
        <ele>298.696423</ele>
        <time>2020-09-20T07:51:42.000Z</time>
      </trkpt>
      <trkpt lat="43.49352" lon="1.09416">
        <ele>298.89469</ele>
        <time>2020-09-20T07:51:43.000Z</time>
      </trkpt>
      <trkpt lat="43.49351" lon="1.09412">
        <ele>299.131358</ele>
        <time>2020-09-20T07:51:44.000Z</time>
      </trkpt>
      <trkpt lat="43.49349" lon="1.09401">
        <ele>299.731921</ele>
        <time>2020-09-20T07:51:46.000Z</time>
      </trkpt>
      <trkpt lat="43.49349" lon="1.09396">
        <ele>300.008437</ele>
        <time>2020-09-20T07:51:47.000Z</time>
      </trkpt>
      <trkpt lat="43.49348" lon="1.09391">
        <ele>300.265148</ele>
        <time>2020-09-20T07:51:48.000Z</time>
      </trkpt>
      <trkpt lat="43.49345" lon="1.09372">
        <ele>301.319242</ele>
        <time>2020-09-20T07:51:52.000Z</time>
      </trkpt>
      <trkpt lat="43.49344" lon="1.09368">
        <ele>301.543212</ele>
        <time>2020-09-20T07:51:53.000Z</time>
      </trkpt>
      <trkpt lat="43.49343" lon="1.09358">
        <ele>302.086902</ele>
        <time>2020-09-20T07:51:55.000Z</time>
      </trkpt>
      <trkpt lat="43.49343" lon="1.09349">
        <ele>302.600782</ele>
        <time>2020-09-20T07:51:57.000Z</time>
      </trkpt>
      <trkpt lat="43.49343" lon="1.09344">
        <ele>302.876494</ele>
        <time>2020-09-20T07:51:58.000Z</time>
      </trkpt>
      <trkpt lat="43.49342" lon="1.09334">
        <ele>303.411711</ele>
        <time>2020-09-20T07:52:00.000Z</time>
      </trkpt>
      <trkpt lat="43.49343" lon="1.09325">
        <ele>303.908948</ele>
        <time>2020-09-20T07:52:02.000Z</time>
      </trkpt>
      <trkpt lat="43.49343" lon="1.09314">
        <ele>304.324197</ele>
        <time>2020-09-20T07:52:04.000Z</time>
      </trkpt>
      <trkpt lat="43.49343" lon="1.09306">
        <ele>304.482514</ele>
        <time>2020-09-20T07:52:06.000Z</time>
      </trkpt>
      <trkpt lat="43.49341" lon="1.09302">
        <ele>304.583167</ele>
        <time>2020-09-20T07:52:08.000Z</time>
      </trkpt>
      <trkpt lat="43.49338" lon="1.093">
        <ele>304.657285</ele>
        <time>2020-09-20T07:52:09.000Z</time>
      </trkpt>
      <trkpt lat="43.49335" lon="1.093">
        <ele>304.73148</ele>
        <time>2020-09-20T07:52:10.000Z</time>
      </trkpt>
      <trkpt lat="43.49321" lon="1.09295">
        <ele>305.110968</ele>
        <time>2020-09-20T07:52:15.000Z</time>
      </trkpt>
      <trkpt lat="43.4932" lon="1.09294">
        <ele>305.151628</ele>
        <time>2020-09-20T07:52:16.000Z</time>
      </trkpt>
      <trkpt lat="43.4932" lon="1.09293">
        <ele>305.172599</ele>
        <time>2020-09-20T07:52:17.000Z</time>
      </trkpt>
      <trkpt lat="43.4932" lon="1.09292">
        <ele>305.188075</ele>
        <time>2020-09-20T07:52:18.000Z</time>
      </trkpt>
      <trkpt lat="43.49321" lon="1.09284">
        <ele>305.342409</ele>
        <time>2020-09-20T07:52:23.000Z</time>
      </trkpt>
      <trkpt lat="43.49323" lon="1.09277">
        <ele>305.4735</ele>
        <time>2020-09-20T07:52:25.000Z</time>
      </trkpt>
      <trkpt lat="43.49326" lon="1.09263">
        <ele>305.757758</ele>
        <time>2020-09-20T07:52:28.000Z</time>
      </trkpt>
      <trkpt lat="43.49328" lon="1.09255">
        <ele>305.92622</ele>
        <time>2020-09-20T07:52:30.000Z</time>
      </trkpt>
      <trkpt lat="43.49331" lon="1.09237">
        <ele>306.277672</ele>
        <time>2020-09-20T07:52:34.000Z</time>
      </trkpt>
      <trkpt lat="43.4933" lon="1.09222">
        <ele>306.559986</ele>
        <time>2020-09-20T07:52:37.000Z</time>
      </trkpt>
      <trkpt lat="43.49329" lon="1.09214">
        <ele>306.713169</ele>
        <time>2020-09-20T07:52:39.000Z</time>
      </trkpt>
      <trkpt lat="43.4933" lon="1.0921">
        <ele>306.807316</ele>
        <time>2020-09-20T07:52:40.000Z</time>
      </trkpt>
      <trkpt lat="43.49332" lon="1.09201">
        <ele>306.979364</ele>
        <time>2020-09-20T07:52:42.000Z</time>
      </trkpt>
      <trkpt lat="43.49331" lon="1.09186">
        <ele>307.273036</ele>
        <time>2020-09-20T07:52:45.000Z</time>
      </trkpt>
      <trkpt lat="43.49333" lon="1.0917">
        <ele>307.589339</ele>
        <time>2020-09-20T07:52:48.000Z</time>
      </trkpt>
      <trkpt lat="43.49334" lon="1.09165">
        <ele>307.677076</ele>
        <time>2020-09-20T07:52:49.000Z</time>
      </trkpt>
      <trkpt lat="43.49331" lon="1.09145">
        <ele>308.075531</ele>
        <time>2020-09-20T07:52:53.000Z</time>
      </trkpt>
      <trkpt lat="43.49331" lon="1.09139">
        <ele>308.184227</ele>
        <time>2020-09-20T07:52:54.000Z</time>
      </trkpt>
      <trkpt lat="43.49331" lon="1.09128">
        <ele>308.401556</ele>
        <time>2020-09-20T07:52:56.000Z</time>
      </trkpt>
      <trkpt lat="43.49331" lon="1.09122">
        <ele>308.508314</ele>
        <time>2020-09-20T07:52:57.000Z</time>
      </trkpt>
      <trkpt lat="43.49336" lon="1.09107">
        <ele>308.838421</ele>
        <time>2020-09-20T07:53:00.000Z</time>
      </trkpt>
      <trkpt lat="43.49339" lon="1.09101">
        <ele>308.955915</ele>
        <time>2020-09-20T07:53:01.000Z</time>
      </trkpt>
      <trkpt lat="43.49341" lon="1.09096">
        <ele>308.489088</ele>
        <time>2020-09-20T07:53:02.000Z</time>
      </trkpt>
      <trkpt lat="43.49345" lon="1.09083">
        <ele>307.244838</ele>
        <time>2020-09-20T07:53:05.000Z</time>
      </trkpt>
      <trkpt lat="43.49346" lon="1.09079">
        <ele>306.824097</ele>
        <time>2020-09-20T07:53:06.000Z</time>
      </trkpt>
      <trkpt lat="43.49354" lon="1.09071">
        <ele>305.611084</ele>
        <time>2020-09-20T07:53:09.000Z</time>
      </trkpt>
      <trkpt lat="43.49357" lon="1.09068">
        <ele>305.142863</ele>
        <time>2020-09-20T07:53:10.000Z</time>
      </trkpt>
      <trkpt lat="43.49364" lon="1.09063">
        <ele>304.26468</ele>
        <time>2020-09-20T07:53:12.000Z</time>
      </trkpt>
      <trkpt lat="43.49371" lon="1.09055">
        <ele>303.154709</ele>
        <time>2020-09-20T07:53:14.000Z</time>
      </trkpt>
      <trkpt lat="43.49374" lon="1.09049">
        <ele>302.450931</ele>
        <time>2020-09-20T07:53:15.000Z</time>
      </trkpt>
      <trkpt lat="43.49379" lon="1.09038">
        <ele>301.350506</ele>
        <time>2020-09-20T07:53:17.000Z</time>
      </trkpt>
      <trkpt lat="43.4938" lon="1.09034">
        <ele>300.950155</ele>
        <time>2020-09-20T07:53:18.000Z</time>
      </trkpt>
      <trkpt lat="43.49379" lon="1.09025">
        <ele>300.142628</ele>
        <time>2020-09-20T07:53:20.000Z</time>
      </trkpt>
      <trkpt lat="43.49379" lon="1.0902">
        <ele>299.654215</ele>
        <time>2020-09-20T07:53:21.000Z</time>
      </trkpt>
      <trkpt lat="43.49381" lon="1.0901">
        <ele>298.737068</ele>
        <time>2020-09-20T07:53:23.000Z</time>
      </trkpt>
      <trkpt lat="43.49384" lon="1.09005">
        <ele>298.219878</ele>
        <time>2020-09-20T07:53:24.000Z</time>
      </trkpt>
      <trkpt lat="43.49387" lon="1.09">
        <ele>297.63754</ele>
        <time>2020-09-20T07:53:25.000Z</time>
      </trkpt>
      <trkpt lat="43.49389" lon="1.08995">
        <ele>297.105824</ele>
        <time>2020-09-20T07:53:26.000Z</time>
      </trkpt>
      <trkpt lat="43.49399" lon="1.08978">
        <ele>295.188526</ele>
        <time>2020-09-20T07:53:29.000Z</time>
      </trkpt>
      <trkpt lat="43.49402" lon="1.08974">
        <ele>294.625145</ele>
        <time>2020-09-20T07:53:30.000Z</time>
      </trkpt>
      <trkpt lat="43.49405" lon="1.08971">
        <ele>294.226656</ele>
        <time>2020-09-20T07:53:31.000Z</time>
      </trkpt>
      <trkpt lat="43.4941" lon="1.08973">
        <ele>293.61102</ele>
        <time>2020-09-20T07:53:33.000Z</time>
      </trkpt>
      <trkpt lat="43.49415" lon="1.08969">
        <ele>292.870415</ele>
        <time>2020-09-20T07:53:35.000Z</time>
      </trkpt>
      <trkpt lat="43.49417" lon="1.08966">
        <ele>292.482192</ele>
        <time>2020-09-20T07:53:36.000Z</time>
      </trkpt>
      <trkpt lat="43.49422" lon="1.0896">
        <ele>291.720035</ele>
        <time>2020-09-20T07:53:38.000Z</time>
      </trkpt>
      <trkpt lat="43.49424" lon="1.08958">
        <ele>291.352573</ele>
        <time>2020-09-20T07:53:39.000Z</time>
      </trkpt>
      <trkpt lat="43.49426" lon="1.08956">
        <ele>291.052509</ele>
        <time>2020-09-20T07:53:40.000Z</time>
      </trkpt>
      <trkpt lat="43.49427" lon="1.08953">
        <ele>290.769032</ele>
        <time>2020-09-20T07:53:41.000Z</time>
      </trkpt>
      <trkpt lat="43.49425" lon="1.0895">
        <ele>290.414152</ele>
        <time>2020-09-20T07:53:43.000Z</time>
      </trkpt>
      <trkpt lat="43.49422" lon="1.08947">
        <ele>289.979473</ele>
        <time>2020-09-20T07:53:45.000Z</time>
      </trkpt>
      <trkpt lat="43.49417" lon="1.08941">
        <ele>289.203865</ele>
        <time>2020-09-20T07:53:48.000Z</time>
      </trkpt>
      <trkpt lat="43.49422" lon="1.08928">
        <ele>287.979097</ele>
        <time>2020-09-20T07:53:52.000Z</time>
      </trkpt>
      <trkpt lat="43.49424" lon="1.08919">
        <ele>287.082815</ele>
        <time>2020-09-20T07:53:56.000Z</time>
      </trkpt>
      <trkpt lat="43.4942" lon="1.0891">
        <ele>286.507566</ele>
        <time>2020-09-20T07:54:00.000Z</time>
      </trkpt>
      <trkpt lat="43.49421" lon="1.08907">
        <ele>286.370337</ele>
        <time>2020-09-20T07:54:01.000Z</time>
      </trkpt>
      <trkpt lat="43.49422" lon="1.08905">
        <ele>286.231685</ele>
        <time>2020-09-20T07:54:02.000Z</time>
      </trkpt>
      <trkpt lat="43.49427" lon="1.08903">
        <ele>285.850096</ele>
        <time>2020-09-20T07:54:05.000Z</time>
      </trkpt>
      <trkpt lat="43.49429" lon="1.08902">
        <ele>285.686253</ele>
        <time>2020-09-20T07:54:06.000Z</time>
      </trkpt>
      <trkpt lat="43.49436" lon="1.08892">
        <ele>285.001588</ele>
        <time>2020-09-20T07:54:09.000Z</time>
      </trkpt>
      <trkpt lat="43.49437" lon="1.08878">
        <ele>284.250464</ele>
        <time>2020-09-20T07:54:12.000Z</time>
      </trkpt>
      <trkpt lat="43.49437" lon="1.08873">
        <ele>283.976445</ele>
        <time>2020-09-20T07:54:13.000Z</time>
      </trkpt>
      <trkpt lat="43.49439" lon="1.08854">
        <ele>283.018746</ele>
        <time>2020-09-20T07:54:16.000Z</time>
      </trkpt>
      <trkpt lat="43.49441" lon="1.08848">
        <ele>282.65774</ele>
        <time>2020-09-20T07:54:17.000Z</time>
      </trkpt>
      <trkpt lat="43.49442" lon="1.08843">
        <ele>282.390717</ele>
        <time>2020-09-20T07:54:18.000Z</time>
      </trkpt>
      <trkpt lat="43.49442" lon="1.08833">
        <ele>281.869042</ele>
        <time>2020-09-20T07:54:20.000Z</time>
      </trkpt>
      <trkpt lat="43.49446" lon="1.08824">
        <ele>281.355398</ele>
        <time>2020-09-20T07:54:22.000Z</time>
      </trkpt>
      <trkpt lat="43.4945" lon="1.08821">
        <ele>281.061204</ele>
        <time>2020-09-20T07:54:23.000Z</time>
      </trkpt>
      <trkpt lat="43.49457" lon="1.08819">
        <ele>280.530135</ele>
        <time>2020-09-20T07:54:25.000Z</time>
      </trkpt>
      <trkpt lat="43.49461" lon="1.08819">
        <ele>280.209815</ele>
        <time>2020-09-20T07:54:26.000Z</time>
      </trkpt>
      <trkpt lat="43.49466" lon="1.08819">
        <ele>279.853801</ele>
        <time>2020-09-20T07:54:27.000Z</time>
      </trkpt>
      <trkpt lat="43.49478" lon="1.0881">
        <ele>278.898933</ele>
        <time>2020-09-20T07:54:30.000Z</time>
      </trkpt>
      <trkpt lat="43.49487" lon="1.08801">
        <ele>278.125164</ele>
        <time>2020-09-20T07:54:33.000Z</time>
      </trkpt>
      <trkpt lat="43.49495" lon="1.08804">
        <ele>277.530813</ele>
        <time>2020-09-20T07:54:36.000Z</time>
      </trkpt>
      <trkpt lat="43.49497" lon="1.08803">
        <ele>277.346913</ele>
        <time>2020-09-20T07:54:37.000Z</time>
      </trkpt>
      <trkpt lat="43.49504" lon="1.088">
        <ele>276.836417</ele>
        <time>2020-09-20T07:54:40.000Z</time>
      </trkpt>
      <trkpt lat="43.49505" lon="1.08799">
        <ele>276.739218</ele>
        <time>2020-09-20T07:54:41.000Z</time>
      </trkpt>
      <trkpt lat="43.49502" lon="1.08792">
        <ele>276.377481</ele>
        <time>2020-09-20T07:54:44.000Z</time>
      </trkpt>
      <trkpt lat="43.49502" lon="1.0879">
        <ele>276.232738</ele>
        <time>2020-09-20T07:54:45.000Z</time>
      </trkpt>
      <trkpt lat="43.49503" lon="1.08786">
        <ele>276.046749</ele>
        <time>2020-09-20T07:54:48.000Z</time>
      </trkpt>
      <trkpt lat="43.49504" lon="1.08786">
        <ele>275.999313</ele>
        <time>2020-09-20T07:54:49.000Z</time>
      </trkpt>
      <trkpt lat="43.49508" lon="1.08777">
        <ele>275.479401</ele>
        <time>2020-09-20T07:55:01.000Z</time>
      </trkpt>
      <trkpt lat="43.4951" lon="1.08775">
        <ele>275.265481</ele>
        <time>2020-09-20T07:55:02.000Z</time>
      </trkpt>
      <trkpt lat="43.49524" lon="1.08773">
        <ele>274.290887</ele>
        <time>2020-09-20T07:55:06.000Z</time>
      </trkpt>
      <trkpt lat="43.49538" lon="1.08777">
        <ele>274.92634</ele>
        <time>2020-09-20T07:55:10.000Z</time>
      </trkpt>
      <trkpt lat="43.49557" lon="1.08779">
        <ele>276.059642</ele>
        <time>2020-09-20T07:55:15.000Z</time>
      </trkpt>
      <trkpt lat="43.49561" lon="1.08779">
        <ele>276.284632</ele>
        <time>2020-09-20T07:55:16.000Z</time>
      </trkpt>
      <trkpt lat="43.49572" lon="1.08779">
        <ele>276.941585</ele>
        <time>2020-09-20T07:55:19.000Z</time>
      </trkpt>
      <trkpt lat="43.49583" lon="1.08778">
        <ele>277.611262</ele>
        <time>2020-09-20T07:55:22.000Z</time>
      </trkpt>
      <trkpt lat="43.49595" lon="1.08777">
        <ele>278.307325</ele>
        <time>2020-09-20T07:55:25.000Z</time>
      </trkpt>
      <trkpt lat="43.49603" lon="1.08777">
        <ele>278.810518</ele>
        <time>2020-09-20T07:55:27.000Z</time>
      </trkpt>
      <trkpt lat="43.49616" lon="1.08778">
        <ele>279.540381</ele>
        <time>2020-09-20T07:55:30.000Z</time>
      </trkpt>
      <trkpt lat="43.49632" lon="1.08778">
        <ele>280.492943</ele>
        <time>2020-09-20T07:55:34.000Z</time>
      </trkpt>
      <trkpt lat="43.49636" lon="1.08778">
        <ele>280.73567</ele>
        <time>2020-09-20T07:55:35.000Z</time>
      </trkpt>
      <trkpt lat="43.49648" lon="1.08778">
        <ele>281.47523</ele>
        <time>2020-09-20T07:55:38.000Z</time>
      </trkpt>
      <trkpt lat="43.4966" lon="1.08779">
        <ele>282.174969</ele>
        <time>2020-09-20T07:55:41.000Z</time>
      </trkpt>
      <trkpt lat="43.49668" lon="1.08779">
        <ele>282.654223</ele>
        <time>2020-09-20T07:55:43.000Z</time>
      </trkpt>
      <trkpt lat="43.49688" lon="1.08779">
        <ele>283.837549</ele>
        <time>2020-09-20T07:55:48.000Z</time>
      </trkpt>
      <trkpt lat="43.49708" lon="1.08781">
        <ele>285.129873</ele>
        <time>2020-09-20T07:55:53.000Z</time>
      </trkpt>
      <trkpt lat="43.49716" lon="1.08782">
        <ele>286.055426</ele>
        <time>2020-09-20T07:55:56.000Z</time>
      </trkpt>
      <trkpt lat="43.49723" lon="1.08782">
        <ele>286.815775</ele>
        <time>2020-09-20T07:55:58.000Z</time>
      </trkpt>
      <trkpt lat="43.4973" lon="1.08783">
        <ele>287.565934</ele>
        <time>2020-09-20T07:56:00.000Z</time>
      </trkpt>
      <trkpt lat="43.4974" lon="1.08784">
        <ele>288.643647</ele>
        <time>2020-09-20T07:56:03.000Z</time>
      </trkpt>
      <trkpt lat="43.49747" lon="1.08785">
        <ele>289.402029</ele>
        <time>2020-09-20T07:56:05.000Z</time>
      </trkpt>
      <trkpt lat="43.49754" lon="1.08786">
        <ele>290.175439</ele>
        <time>2020-09-20T07:56:07.000Z</time>
      </trkpt>
      <trkpt lat="43.49761" lon="1.08786">
        <ele>290.904383</ele>
        <time>2020-09-20T07:56:09.000Z</time>
      </trkpt>
      <trkpt lat="43.49764" lon="1.08787">
        <ele>291.266877</ele>
        <time>2020-09-20T07:56:10.000Z</time>
      </trkpt>
      <trkpt lat="43.49771" lon="1.08788">
        <ele>292.01749</ele>
        <time>2020-09-20T07:56:12.000Z</time>
      </trkpt>
      <trkpt lat="43.49781" lon="1.08787">
        <ele>293.103893</ele>
        <time>2020-09-20T07:56:15.000Z</time>
      </trkpt>
      <trkpt lat="43.49784" lon="1.08787">
        <ele>293.462516</ele>
        <time>2020-09-20T07:56:16.000Z</time>
      </trkpt>
      <trkpt lat="43.49787" lon="1.08787">
        <ele>293.809936</ele>
        <time>2020-09-20T07:56:17.000Z</time>
      </trkpt>
      <trkpt lat="43.49797" lon="1.08788">
        <ele>294.897935</ele>
        <time>2020-09-20T07:56:20.000Z</time>
      </trkpt>
      <trkpt lat="43.49807" lon="1.08789">
        <ele>295.962959</ele>
        <time>2020-09-20T07:56:23.000Z</time>
      </trkpt>
      <trkpt lat="43.49817" lon="1.08785">
        <ele>297.081941</ele>
        <time>2020-09-20T07:56:27.000Z</time>
      </trkpt>
      <trkpt lat="43.49819" lon="1.08784">
        <ele>297.281292</ele>
        <time>2020-09-20T07:56:28.000Z</time>
      </trkpt>
      <trkpt lat="43.49822" lon="1.08786">
        <ele>297.712074</ele>
        <time>2020-09-20T07:56:30.000Z</time>
      </trkpt>
      <trkpt lat="43.49824" lon="1.08788">
        <ele>297.963072</ele>
        <time>2020-09-20T07:56:31.000Z</time>
      </trkpt>
      <trkpt lat="43.49832" lon="1.08792">
        <ele>298.902291</ele>
        <time>2020-09-20T07:56:34.000Z</time>
      </trkpt>
      <trkpt lat="43.49836" lon="1.08792">
        <ele>299.260655</ele>
        <time>2020-09-20T07:56:35.000Z</time>
      </trkpt>
      <trkpt lat="43.49845" lon="1.08791">
        <ele>300.251171</ele>
        <time>2020-09-20T07:56:38.000Z</time>
      </trkpt>
      <trkpt lat="43.49851" lon="1.08792">
        <ele>300.918107</ele>
        <time>2020-09-20T07:56:40.000Z</time>
      </trkpt>
      <trkpt lat="43.49856" lon="1.08792">
        <ele>301.515702</ele>
        <time>2020-09-20T07:56:42.000Z</time>
      </trkpt>
      <trkpt lat="43.49859" lon="1.08793">
        <ele>301.842929</ele>
        <time>2020-09-20T07:56:43.000Z</time>
      </trkpt>
      <trkpt lat="43.49869" lon="1.08792">
        <ele>302.831407</ele>
        <time>2020-09-20T07:56:46.000Z</time>
      </trkpt>
      <trkpt lat="43.49885" lon="1.08794">
        <ele>304.414932</ele>
        <time>2020-09-20T07:56:51.000Z</time>
      </trkpt>
      <trkpt lat="43.49892" lon="1.08795">
        <ele>304.576871</ele>
        <time>2020-09-20T07:56:53.000Z</time>
      </trkpt>
      <trkpt lat="43.49902" lon="1.08787">
        <ele>304.859392</ele>
        <time>2020-09-20T07:56:57.000Z</time>
      </trkpt>
      <trkpt lat="43.499" lon="1.08771">
        <ele>305.158418</ele>
        <time>2020-09-20T07:57:01.000Z</time>
      </trkpt>
      <trkpt lat="43.49891" lon="1.08743">
        <ele>305.698305</ele>
        <time>2020-09-20T07:57:07.000Z</time>
      </trkpt>
      <trkpt lat="43.49883" lon="1.08712">
        <ele>306.281548</ele>
        <time>2020-09-20T07:57:13.000Z</time>
      </trkpt>
      <trkpt lat="43.49878" lon="1.0869">
        <ele>306.694058</ele>
        <time>2020-09-20T07:57:17.000Z</time>
      </trkpt>
      <trkpt lat="43.49875" lon="1.08679">
        <ele>306.903005</ele>
        <time>2020-09-20T07:57:19.000Z</time>
      </trkpt>
      <trkpt lat="43.49869" lon="1.08657">
        <ele>307.314714</ele>
        <time>2020-09-20T07:57:23.000Z</time>
      </trkpt>
      <trkpt lat="43.49866" lon="1.08647">
        <ele>307.518285</ele>
        <time>2020-09-20T07:57:25.000Z</time>
      </trkpt>
      <trkpt lat="43.49859" lon="1.08621">
        <ele>308.002914</ele>
        <time>2020-09-20T07:57:31.000Z</time>
      </trkpt>
      <trkpt lat="43.49857" lon="1.08611">
        <ele>308.181574</ele>
        <time>2020-09-20T07:57:35.000Z</time>
      </trkpt>
      <trkpt lat="43.49856" lon="1.08607">
        <ele>308.262028</ele>
        <time>2020-09-20T07:57:37.000Z</time>
      </trkpt>
      <trkpt lat="43.49862" lon="1.086">
        <ele>308.439831</ele>
        <time>2020-09-20T07:57:42.000Z</time>
      </trkpt>
      <trkpt lat="43.49863" lon="1.08599">
        <ele>308.482142</ele>
        <time>2020-09-20T07:57:43.000Z</time>
      </trkpt>
      <trkpt lat="43.49864" lon="1.08597">
        <ele>308.522984</ele>
        <time>2020-09-20T07:57:44.000Z</time>
      </trkpt>
      <trkpt lat="43.49865" lon="1.08594">
        <ele>308.587211</ele>
        <time>2020-09-20T07:57:47.000Z</time>
      </trkpt>
      <trkpt lat="43.49872" lon="1.08589">
        <ele>308.647595</ele>
        <time>2020-09-20T08:12:19.000Z</time>
      </trkpt>
      <trkpt lat="43.49874" lon="1.08587">
        <ele>308.490198</ele>
        <time>2020-09-20T08:12:20.000Z</time>
      </trkpt>
      <trkpt lat="43.49877" lon="1.08585">
        <ele>308.31386</ele>
        <time>2020-09-20T08:12:21.000Z</time>
      </trkpt>
      <trkpt lat="43.49892" lon="1.08568">
        <ele>307.028134</ele>
        <time>2020-09-20T08:12:28.000Z</time>
      </trkpt>
      <trkpt lat="43.49897" lon="1.08559">
        <ele>306.462418</ele>
        <time>2020-09-20T08:12:33.000Z</time>
      </trkpt>
      <trkpt lat="43.49897" lon="1.08559">
        <ele>306.446635</ele>
        <time>2020-09-20T08:12:34.000Z</time>
      </trkpt>
      <trkpt lat="43.49902" lon="1.08556">
        <ele>306.083234</ele>
        <time>2020-09-20T08:13:07.000Z</time>
      </trkpt>
      <trkpt lat="43.49905" lon="1.08556">
        <ele>305.902189</ele>
        <time>2020-09-20T08:13:08.000Z</time>
      </trkpt>
      <trkpt lat="43.4992" lon="1.08549">
        <ele>304.822556</ele>
        <time>2020-09-20T08:13:12.000Z</time>
      </trkpt>
      <trkpt lat="43.49925" lon="1.08546">
        <ele>304.483226</ele>
        <time>2020-09-20T08:13:13.000Z</time>
      </trkpt>
      <trkpt lat="43.49935" lon="1.0854">
        <ele>303.802598</ele>
        <time>2020-09-20T08:13:15.000Z</time>
      </trkpt>
      <trkpt lat="43.49944" lon="1.08534">
        <ele>303.109954</ele>
        <time>2020-09-20T08:13:17.000Z</time>
      </trkpt>
      <trkpt lat="43.49949" lon="1.08532">
        <ele>302.75946</ele>
        <time>2020-09-20T08:13:18.000Z</time>
      </trkpt>
      <trkpt lat="43.49954" lon="1.08529">
        <ele>302.410566</ele>
        <time>2020-09-20T08:13:19.000Z</time>
      </trkpt>
      <trkpt lat="43.49964" lon="1.08527">
        <ele>301.763517</ele>
        <time>2020-09-20T08:13:21.000Z</time>
      </trkpt>
      <trkpt lat="43.49975" lon="1.08526">
        <ele>301.016276</ele>
        <time>2020-09-20T08:13:23.000Z</time>
      </trkpt>
      <trkpt lat="43.49995" lon="1.08527">
        <ele>299.710427</ele>
        <time>2020-09-20T08:13:26.000Z</time>
      </trkpt>
      <trkpt lat="43.50001" lon="1.08527">
        <ele>299.308332</ele>
        <time>2020-09-20T08:13:27.000Z</time>
      </trkpt>
      <trkpt lat="43.50007" lon="1.08528">
        <ele>298.931951</ele>
        <time>2020-09-20T08:13:28.000Z</time>
      </trkpt>
      <trkpt lat="43.50013" lon="1.08528">
        <ele>298.515033</ele>
        <time>2020-09-20T08:13:29.000Z</time>
      </trkpt>
      <trkpt lat="43.50032" lon="1.08532">
        <ele>297.256376</ele>
        <time>2020-09-20T08:13:32.000Z</time>
      </trkpt>
      <trkpt lat="43.50039" lon="1.08533">
        <ele>296.825</ele>
        <time>2020-09-20T08:13:33.000Z</time>
      </trkpt>
      <trkpt lat="43.50052" lon="1.08535">
        <ele>295.991433</ele>
        <time>2020-09-20T08:13:35.000Z</time>
      </trkpt>
      <trkpt lat="43.50059" lon="1.08536">
        <ele>295.600573</ele>
        <time>2020-09-20T08:13:36.000Z</time>
      </trkpt>
      <trkpt lat="43.50066" lon="1.08537">
        <ele>295.202267</ele>
        <time>2020-09-20T08:13:37.000Z</time>
      </trkpt>
      <trkpt lat="43.50079" lon="1.0854">
        <ele>294.384118</ele>
        <time>2020-09-20T08:13:39.000Z</time>
      </trkpt>
      <trkpt lat="43.50086" lon="1.08541">
        <ele>293.96801</ele>
        <time>2020-09-20T08:13:40.000Z</time>
      </trkpt>
      <trkpt lat="43.50093" lon="1.08542">
        <ele>293.540996</ele>
        <time>2020-09-20T08:13:41.000Z</time>
      </trkpt>
      <trkpt lat="43.50108" lon="1.08543">
        <ele>292.659935</ele>
        <time>2020-09-20T08:13:43.000Z</time>
      </trkpt>
      <trkpt lat="43.50115" lon="1.08542">
        <ele>292.227383</ele>
        <time>2020-09-20T08:13:44.000Z</time>
      </trkpt>
      <trkpt lat="43.50129" lon="1.08537">
        <ele>291.380558</ele>
        <time>2020-09-20T08:13:46.000Z</time>
      </trkpt>
      <trkpt lat="43.50166" lon="1.0852">
        <ele>289.009029</ele>
        <time>2020-09-20T08:13:52.000Z</time>
      </trkpt>
      <trkpt lat="43.5018" lon="1.08514">
        <ele>288.134387</ele>
        <time>2020-09-20T08:13:54.000Z</time>
      </trkpt>
      <trkpt lat="43.50195" lon="1.08509">
        <ele>287.197369</ele>
        <time>2020-09-20T08:13:56.000Z</time>
      </trkpt>
      <trkpt lat="43.50204" lon="1.08507">
        <ele>286.65261</ele>
        <time>2020-09-20T08:13:57.000Z</time>
      </trkpt>
      <trkpt lat="43.50214" lon="1.08506">
        <ele>286.097837</ele>
        <time>2020-09-20T08:13:58.000Z</time>
      </trkpt>
      <trkpt lat="43.50243" lon="1.08507">
        <ele>285.172044</ele>
        <time>2020-09-20T08:14:01.000Z</time>
      </trkpt>
      <trkpt lat="43.50256" lon="1.08509">
        <ele>284.749237</ele>
        <time>2020-09-20T08:14:03.000Z</time>
      </trkpt>
      <trkpt lat="43.5026" lon="1.08509">
        <ele>284.607237</ele>
        <time>2020-09-20T08:14:04.000Z</time>
      </trkpt>
      <trkpt lat="43.50264" lon="1.08507">
        <ele>284.478902</ele>
        <time>2020-09-20T08:14:05.000Z</time>
      </trkpt>
      <trkpt lat="43.50268" lon="1.08506">
        <ele>284.368014</ele>
        <time>2020-09-20T08:14:06.000Z</time>
      </trkpt>
      <trkpt lat="43.50274" lon="1.08502">
        <ele>284.141201</ele>
        <time>2020-09-20T08:14:08.000Z</time>
      </trkpt>
      <trkpt lat="43.50279" lon="1.08494">
        <ele>283.906767</ele>
        <time>2020-09-20T08:14:11.000Z</time>
      </trkpt>
      <trkpt lat="43.50279" lon="1.08492">
        <ele>283.858438</ele>
        <time>2020-09-20T08:14:12.000Z</time>
      </trkpt>
      <trkpt lat="43.50279" lon="1.08491">
        <ele>283.832813</ele>
        <time>2020-09-20T08:14:14.000Z</time>
      </trkpt>
      <trkpt lat="43.50279" lon="1.08491">
        <ele>283.822111</ele>
        <time>2020-09-20T08:14:16.000Z</time>
      </trkpt>
      <trkpt lat="43.50279" lon="1.08486">
        <ele>283.70635</ele>
        <time>2020-09-20T08:14:31.000Z</time>
      </trkpt>
      <trkpt lat="43.50279" lon="1.08477">
        <ele>283.494339</ele>
        <time>2020-09-20T08:14:38.000Z</time>
      </trkpt>
      <trkpt lat="43.50279" lon="1.08477">
        <ele>283.484847</ele>
        <time>2020-09-20T08:14:39.000Z</time>
      </trkpt>
      <trkpt lat="43.50278" lon="1.08492">
        <ele>283.144497</ele>
        <time>2020-09-20T08:15:01.000Z</time>
      </trkpt>
      <trkpt lat="43.50277" lon="1.08496">
        <ele>283.034821</ele>
        <time>2020-09-20T08:15:03.000Z</time>
      </trkpt>
      <trkpt lat="43.50277" lon="1.085">
        <ele>282.957345</ele>
        <time>2020-09-20T08:15:06.000Z</time>
      </trkpt>
      <trkpt lat="43.50278" lon="1.085">
        <ele>282.94368</ele>
        <time>2020-09-20T08:15:08.000Z</time>
      </trkpt>
      <trkpt lat="43.50274" lon="1.08504">
        <ele>282.789617</ele>
        <time>2020-09-20T08:15:28.000Z</time>
      </trkpt>
      <trkpt lat="43.5027" lon="1.08507">
        <ele>282.656332</ele>
        <time>2020-09-20T08:15:30.000Z</time>
      </trkpt>
      <trkpt lat="43.50268" lon="1.08506">
        <ele>282.572538</ele>
        <time>2020-09-20T08:15:32.000Z</time>
      </trkpt>
      <trkpt lat="43.50268" lon="1.08504">
        <ele>282.520888</ele>
        <time>2020-09-20T08:15:33.000Z</time>
      </trkpt>
      <trkpt lat="43.50268" lon="1.08501">
        <ele>282.450708</ele>
        <time>2020-09-20T08:15:34.000Z</time>
      </trkpt>
      <trkpt lat="43.50268" lon="1.08494">
        <ele>282.29178</ele>
        <time>2020-09-20T08:15:36.000Z</time>
      </trkpt>
      <trkpt lat="43.50267" lon="1.08486">
        <ele>282.093977</ele>
        <time>2020-09-20T08:15:38.000Z</time>
      </trkpt>
      <trkpt lat="43.50266" lon="1.08481">
        <ele>281.981013</ele>
        <time>2020-09-20T08:15:39.000Z</time>
      </trkpt>
      <trkpt lat="43.50266" lon="1.08476">
        <ele>281.859198</ele>
        <time>2020-09-20T08:15:40.000Z</time>
      </trkpt>
      <trkpt lat="43.50264" lon="1.0844">
        <ele>281.028093</ele>
        <time>2020-09-20T08:15:46.000Z</time>
      </trkpt>
      <trkpt lat="43.50261" lon="1.08405">
        <ele>280.239942</ele>
        <time>2020-09-20T08:15:52.000Z</time>
      </trkpt>
      <trkpt lat="43.50261" lon="1.084">
        <ele>280.133046</ele>
        <time>2020-09-20T08:15:53.000Z</time>
      </trkpt>
      <trkpt lat="43.50261" lon="1.08367">
        <ele>279.536696</ele>
        <time>2020-09-20T08:15:58.000Z</time>
      </trkpt>
      <trkpt lat="43.50264" lon="1.08352">
        <ele>279.259081</ele>
        <time>2020-09-20T08:16:00.000Z</time>
      </trkpt>
      <trkpt lat="43.5027" lon="1.0833">
        <ele>278.811428</ele>
        <time>2020-09-20T08:16:03.000Z</time>
      </trkpt>
      <trkpt lat="43.50273" lon="1.08314">
        <ele>278.512397</ele>
        <time>2020-09-20T08:16:05.000Z</time>
      </trkpt>
      <trkpt lat="43.50274" lon="1.08306">
        <ele>278.360907</ele>
        <time>2020-09-20T08:16:06.000Z</time>
      </trkpt>
      <trkpt lat="43.50274" lon="1.08292">
        <ele>278.109429</ele>
        <time>2020-09-20T08:16:08.000Z</time>
      </trkpt>
      <trkpt lat="43.50281" lon="1.08285">
        <ele>277.896537</ele>
        <time>2020-09-20T08:16:10.000Z</time>
      </trkpt>
      <trkpt lat="43.50293" lon="1.08285">
        <ele>277.585319</ele>
        <time>2020-09-20T08:16:12.000Z</time>
      </trkpt>
      <trkpt lat="43.50299" lon="1.08285">
        <ele>277.433536</ele>
        <time>2020-09-20T08:16:13.000Z</time>
      </trkpt>
      <trkpt lat="43.50305" lon="1.08284">
        <ele>277.270982</ele>
        <time>2020-09-20T08:16:14.000Z</time>
      </trkpt>
      <trkpt lat="43.50326" lon="1.08282">
        <ele>276.752223</ele>
        <time>2020-09-20T08:16:17.000Z</time>
      </trkpt>
      <trkpt lat="43.50348" lon="1.08278">
        <ele>276.187607</ele>
        <time>2020-09-20T08:16:20.000Z</time>
      </trkpt>
      <trkpt lat="43.50372" lon="1.08275">
        <ele>275.310667</ele>
        <time>2020-09-20T08:16:23.000Z</time>
      </trkpt>
      <trkpt lat="43.5039" lon="1.08272">
        <ele>274.384107</ele>
        <time>2020-09-20T08:16:25.000Z</time>
      </trkpt>
      <trkpt lat="43.50408" lon="1.0827">
        <ele>273.41804</ele>
        <time>2020-09-20T08:16:27.000Z</time>
      </trkpt>
      <trkpt lat="43.50427" lon="1.08268">
        <ele>272.447001</ele>
        <time>2020-09-20T08:16:29.000Z</time>
      </trkpt>
      <trkpt lat="43.50445" lon="1.08266">
        <ele>271.475084</ele>
        <time>2020-09-20T08:16:31.000Z</time>
      </trkpt>
      <trkpt lat="43.50454" lon="1.08265">
        <ele>270.988965</ele>
        <time>2020-09-20T08:16:32.000Z</time>
      </trkpt>
      <trkpt lat="43.50482" lon="1.08261">
        <ele>269.5075</ele>
        <time>2020-09-20T08:16:35.000Z</time>
      </trkpt>
      <trkpt lat="43.50501" lon="1.08259">
        <ele>268.518111</ele>
        <time>2020-09-20T08:16:37.000Z</time>
      </trkpt>
      <trkpt lat="43.50519" lon="1.08256">
        <ele>267.545183</ele>
        <time>2020-09-20T08:16:39.000Z</time>
      </trkpt>
      <trkpt lat="43.50528" lon="1.08255">
        <ele>267.072707</ele>
        <time>2020-09-20T08:16:40.000Z</time>
      </trkpt>
      <trkpt lat="43.50552" lon="1.08247">
        <ele>266.541972</ele>
        <time>2020-09-20T08:16:43.000Z</time>
      </trkpt>
      <trkpt lat="43.50578" lon="1.08232">
        <ele>267.073385</ele>
        <time>2020-09-20T08:16:47.000Z</time>
      </trkpt>
      <trkpt lat="43.50595" lon="1.08224">
        <ele>267.424987</ele>
        <time>2020-09-20T08:16:50.000Z</time>
      </trkpt>
      <trkpt lat="43.50607" lon="1.0822">
        <ele>267.646163</ele>
        <time>2020-09-20T08:16:52.000Z</time>
      </trkpt>
      <trkpt lat="43.50612" lon="1.08219">
        <ele>267.758702</ele>
        <time>2020-09-20T08:16:53.000Z</time>
      </trkpt>
      <trkpt lat="43.50629" lon="1.08212">
        <ele>268.090367</ele>
        <time>2020-09-20T08:16:56.000Z</time>
      </trkpt>
      <trkpt lat="43.50645" lon="1.08206">
        <ele>268.407319</ele>
        <time>2020-09-20T08:16:59.000Z</time>
      </trkpt>
      <trkpt lat="43.5066" lon="1.08201">
        <ele>268.693753</ele>
        <time>2020-09-20T08:17:02.000Z</time>
      </trkpt>
      <trkpt lat="43.50663" lon="1.08199">
        <ele>268.767771</ele>
        <time>2020-09-20T08:17:03.000Z</time>
      </trkpt>
      <trkpt lat="43.50667" lon="1.08196">
        <ele>268.840615</ele>
        <time>2020-09-20T08:17:04.000Z</time>
      </trkpt>
      <trkpt lat="43.50674" lon="1.08193">
        <ele>268.978093</ele>
        <time>2020-09-20T08:17:06.000Z</time>
      </trkpt>
      <trkpt lat="43.50677" lon="1.08191">
        <ele>269.049333</ele>
        <time>2020-09-20T08:17:07.000Z</time>
      </trkpt>
      <trkpt lat="43.50684" lon="1.08187">
        <ele>269.194578</ele>
        <time>2020-09-20T08:17:09.000Z</time>
      </trkpt>
      <trkpt lat="43.50692" lon="1.08183">
        <ele>269.357587</ele>
        <time>2020-09-20T08:17:11.000Z</time>
      </trkpt>
      <trkpt lat="43.50696" lon="1.08181">
        <ele>269.43443</ele>
        <time>2020-09-20T08:17:12.000Z</time>
      </trkpt>
      <trkpt lat="43.50704" lon="1.08178">
        <ele>269.593286</ele>
        <time>2020-09-20T08:17:14.000Z</time>
      </trkpt>
      <trkpt lat="43.50712" lon="1.08175">
        <ele>269.746718</ele>
        <time>2020-09-20T08:17:16.000Z</time>
      </trkpt>
      <trkpt lat="43.50727" lon="1.0817">
        <ele>270.441179</ele>
        <time>2020-09-20T08:17:20.000Z</time>
      </trkpt>
      <trkpt lat="43.50736" lon="1.08169">
        <ele>270.823462</ele>
        <time>2020-09-20T08:17:22.000Z</time>
      </trkpt>
      <trkpt lat="43.50744" lon="1.08169">
        <ele>271.203586</ele>
        <time>2020-09-20T08:17:24.000Z</time>
      </trkpt>
      <trkpt lat="43.50748" lon="1.08167">
        <ele>271.391061</ele>
        <time>2020-09-20T08:17:25.000Z</time>
      </trkpt>
      <trkpt lat="43.50756" lon="1.08164">
        <ele>271.752937</ele>
        <time>2020-09-20T08:17:27.000Z</time>
      </trkpt>
      <trkpt lat="43.50769" lon="1.08166">
        <ele>272.347435</ele>
        <time>2020-09-20T08:17:30.000Z</time>
      </trkpt>
      <trkpt lat="43.50773" lon="1.08166">
        <ele>272.551374</ele>
        <time>2020-09-20T08:17:31.000Z</time>
      </trkpt>
      <trkpt lat="43.50786" lon="1.08161">
        <ele>273.150534</ele>
        <time>2020-09-20T08:17:34.000Z</time>
      </trkpt>
      <trkpt lat="43.50801" lon="1.08161">
        <ele>273.847012</ele>
        <time>2020-09-20T08:17:38.000Z</time>
      </trkpt>
      <trkpt lat="43.50809" lon="1.08162">
        <ele>274.196793</ele>
        <time>2020-09-20T08:17:40.000Z</time>
      </trkpt>
      <trkpt lat="43.50813" lon="1.08162">
        <ele>274.39603</ele>
        <time>2020-09-20T08:17:41.000Z</time>
      </trkpt>
      <trkpt lat="43.50821" lon="1.08161">
        <ele>274.72225</ele>
        <time>2020-09-20T08:17:43.000Z</time>
      </trkpt>
      <trkpt lat="43.50825" lon="1.08161">
        <ele>274.916749</ele>
        <time>2020-09-20T08:17:44.000Z</time>
      </trkpt>
      <trkpt lat="43.50847" lon="1.08164">
        <ele>275.913093</ele>
        <time>2020-09-20T08:17:49.000Z</time>
      </trkpt>
      <trkpt lat="43.50851" lon="1.08166">
        <ele>276.106722</ele>
        <time>2020-09-20T08:17:50.000Z</time>
      </trkpt>
      <trkpt lat="43.50866" lon="1.08165">
        <ele>276.776458</ele>
        <time>2020-09-20T08:17:54.000Z</time>
      </trkpt>
      <trkpt lat="43.50869" lon="1.08157">
        <ele>277.077709</ele>
        <time>2020-09-20T08:17:57.000Z</time>
      </trkpt>
      <trkpt lat="43.50873" lon="1.08156">
        <ele>277.269552</ele>
        <time>2020-09-20T08:17:59.000Z</time>
      </trkpt>
      <trkpt lat="43.50876" lon="1.08157">
        <ele>277.409945</ele>
        <time>2020-09-20T08:18:00.000Z</time>
      </trkpt>
      <trkpt lat="43.50892" lon="1.0816">
        <ele>278.136092</ele>
        <time>2020-09-20T08:18:04.000Z</time>
      </trkpt>
      <trkpt lat="43.50896" lon="1.08161">
        <ele>278.31266</ele>
        <time>2020-09-20T08:18:05.000Z</time>
      </trkpt>
      <trkpt lat="43.50901" lon="1.08162">
        <ele>278.493334</ele>
        <time>2020-09-20T08:18:06.000Z</time>
      </trkpt>
      <trkpt lat="43.50926" lon="1.08167">
        <ele>279.573267</ele>
        <time>2020-09-20T08:18:12.000Z</time>
      </trkpt>
      <trkpt lat="43.50931" lon="1.08167">
        <ele>279.753941</ele>
        <time>2020-09-20T08:18:13.000Z</time>
      </trkpt>
      <trkpt lat="43.50944" lon="1.08167">
        <ele>280.302286</ele>
        <time>2020-09-20T08:18:16.000Z</time>
      </trkpt>
      <trkpt lat="43.50953" lon="1.08165">
        <ele>280.669192</ele>
        <time>2020-09-20T08:18:18.000Z</time>
      </trkpt>
      <trkpt lat="43.50967" lon="1.08168">
        <ele>281.269192</ele>
        <time>2020-09-20T08:18:22.000Z</time>
      </trkpt>
      <trkpt lat="43.50981" lon="1.08182">
        <ele>281.994321</ele>
        <time>2020-09-20T08:18:27.000Z</time>
      </trkpt>
      <trkpt lat="43.50984" lon="1.08183">
        <ele>282.110458</ele>
        <time>2020-09-20T08:18:28.000Z</time>
      </trkpt>
      <trkpt lat="43.50992" lon="1.08184">
        <ele>282.454082</ele>
        <time>2020-09-20T08:18:31.000Z</time>
      </trkpt>
      <trkpt lat="43.50996" lon="1.08185">
        <ele>282.620928</ele>
        <time>2020-09-20T08:18:33.000Z</time>
      </trkpt>
      <trkpt lat="43.51012" lon="1.08186">
        <ele>283.253225</ele>
        <time>2020-09-20T08:18:38.000Z</time>
      </trkpt>
      <trkpt lat="43.51023" lon="1.08189">
        <ele>283.733688</ele>
        <time>2020-09-20T08:18:41.000Z</time>
      </trkpt>
      <trkpt lat="43.5103" lon="1.08191">
        <ele>284.017249</ele>
        <time>2020-09-20T08:18:43.000Z</time>
      </trkpt>
      <trkpt lat="43.51047" lon="1.08194">
        <ele>284.752268</ele>
        <time>2020-09-20T08:18:48.000Z</time>
      </trkpt>
      <trkpt lat="43.5105" lon="1.08195">
        <ele>284.889883</ele>
        <time>2020-09-20T08:18:49.000Z</time>
      </trkpt>
      <trkpt lat="43.51065" lon="1.08195">
        <ele>285.544817</ele>
        <time>2020-09-20T08:18:53.000Z</time>
      </trkpt>
      <trkpt lat="43.51068" lon="1.08196">
        <ele>285.756366</ele>
        <time>2020-09-20T08:18:54.000Z</time>
      </trkpt>
      <trkpt lat="43.5108" lon="1.082">
        <ele>286.624184</ele>
        <time>2020-09-20T08:18:57.000Z</time>
      </trkpt>
      <trkpt lat="43.51098" lon="1.08206">
        <ele>287.828876</ele>
        <time>2020-09-20T08:19:01.000Z</time>
      </trkpt>
      <trkpt lat="43.51107" lon="1.0821">
        <ele>288.443842</ele>
        <time>2020-09-20T08:19:03.000Z</time>
      </trkpt>
      <trkpt lat="43.51125" lon="1.08216">
        <ele>289.667385</ele>
        <time>2020-09-20T08:19:07.000Z</time>
      </trkpt>
      <trkpt lat="43.51132" lon="1.08218">
        <ele>290.192885</ele>
        <time>2020-09-20T08:19:09.000Z</time>
      </trkpt>
      <trkpt lat="43.51149" lon="1.08223">
        <ele>291.290021</ele>
        <time>2020-09-20T08:19:13.000Z</time>
      </trkpt>
      <trkpt lat="43.51161" lon="1.08226">
        <ele>292.107085</ele>
        <time>2020-09-20T08:19:16.000Z</time>
      </trkpt>
      <trkpt lat="43.51171" lon="1.0823">
        <ele>292.823241</ele>
        <time>2020-09-20T08:19:19.000Z</time>
      </trkpt>
      <trkpt lat="43.51182" lon="1.08233">
        <ele>293.566515</ele>
        <time>2020-09-20T08:19:22.000Z</time>
      </trkpt>
      <trkpt lat="43.51186" lon="1.08234">
        <ele>293.828512</ele>
        <time>2020-09-20T08:19:23.000Z</time>
      </trkpt>
      <trkpt lat="43.51201" lon="1.08238">
        <ele>294.852082</ele>
        <time>2020-09-20T08:19:27.000Z</time>
      </trkpt>
      <trkpt lat="43.51212" lon="1.08242">
        <ele>295.597711</ele>
        <time>2020-09-20T08:19:30.000Z</time>
      </trkpt>
      <trkpt lat="43.51229" lon="1.0825">
        <ele>296.782272</ele>
        <time>2020-09-20T08:19:35.000Z</time>
      </trkpt>
      <trkpt lat="43.51239" lon="1.08255">
        <ele>297.592932</ele>
        <time>2020-09-20T08:19:38.000Z</time>
      </trkpt>
      <trkpt lat="43.51242" lon="1.08256">
        <ele>297.916972</ele>
        <time>2020-09-20T08:19:39.000Z</time>
      </trkpt>
      <trkpt lat="43.51255" lon="1.08261">
        <ele>299.213902</ele>
        <time>2020-09-20T08:19:43.000Z</time>
      </trkpt>
      <trkpt lat="43.51261" lon="1.08264">
        <ele>299.872643</ele>
        <time>2020-09-20T08:19:45.000Z</time>
      </trkpt>
      <trkpt lat="43.51265" lon="1.08265">
        <ele>300.195497</ele>
        <time>2020-09-20T08:19:46.000Z</time>
      </trkpt>
      <trkpt lat="43.51277" lon="1.08271">
        <ele>301.481975</ele>
        <time>2020-09-20T08:19:50.000Z</time>
      </trkpt>
      <trkpt lat="43.51283" lon="1.08274">
        <ele>302.085946</ele>
        <time>2020-09-20T08:19:52.000Z</time>
      </trkpt>
      <trkpt lat="43.51286" lon="1.08275">
        <ele>302.426102</ele>
        <time>2020-09-20T08:19:53.000Z</time>
      </trkpt>
      <trkpt lat="43.51294" lon="1.08278">
        <ele>303.256622</ele>
        <time>2020-09-20T08:19:56.000Z</time>
      </trkpt>
      <trkpt lat="43.51299" lon="1.08281">
        <ele>303.796676</ele>
        <time>2020-09-20T08:19:58.000Z</time>
      </trkpt>
      <trkpt lat="43.51305" lon="1.08283">
        <ele>304.323303</ele>
        <time>2020-09-20T08:20:00.000Z</time>
      </trkpt>
      <trkpt lat="43.51317" lon="1.08285">
        <ele>305.500657</ele>
        <time>2020-09-20T08:20:04.000Z</time>
      </trkpt>
      <trkpt lat="43.51325" lon="1.08288">
        <ele>306.37524</ele>
        <time>2020-09-20T08:20:07.000Z</time>
      </trkpt>
      <trkpt lat="43.51334" lon="1.08291">
        <ele>307.243667</ele>
        <time>2020-09-20T08:20:10.000Z</time>
      </trkpt>
      <trkpt lat="43.51337" lon="1.08292">
        <ele>307.542795</ele>
        <time>2020-09-20T08:20:11.000Z</time>
      </trkpt>
      <trkpt lat="43.51342" lon="1.08293">
        <ele>308.073146</ele>
        <time>2020-09-20T08:20:13.000Z</time>
      </trkpt>
      <trkpt lat="43.51351" lon="1.08292">
        <ele>308.886176</ele>
        <time>2020-09-20T08:20:16.000Z</time>
      </trkpt>
      <trkpt lat="43.51354" lon="1.08292">
        <ele>309.210478</ele>
        <time>2020-09-20T08:20:17.000Z</time>
      </trkpt>
      <trkpt lat="43.51361" lon="1.08292">
        <ele>309.905682</ele>
        <time>2020-09-20T08:20:19.000Z</time>
      </trkpt>
      <trkpt lat="43.51371" lon="1.08288">
        <ele>310.909817</ele>
        <time>2020-09-20T08:20:22.000Z</time>
      </trkpt>
      <trkpt lat="43.51374" lon="1.08287">
        <ele>311.249973</ele>
        <time>2020-09-20T08:20:23.000Z</time>
      </trkpt>
      <trkpt lat="43.51383" lon="1.08281">
        <ele>312.187179</ele>
        <time>2020-09-20T08:20:26.000Z</time>
      </trkpt>
      <trkpt lat="43.51386" lon="1.08275">
        <ele>312.76272</ele>
        <time>2020-09-20T08:20:28.000Z</time>
      </trkpt>
      <trkpt lat="43.5139" lon="1.08267">
        <ele>313.441662</ele>
        <time>2020-09-20T08:20:30.000Z</time>
      </trkpt>
      <trkpt lat="43.51394" lon="1.08251">
        <ele>314.577733</ele>
        <time>2020-09-20T08:20:33.000Z</time>
      </trkpt>
      <trkpt lat="43.51401" lon="1.08225">
        <ele>314.929508</ele>
        <time>2020-09-20T08:20:38.000Z</time>
      </trkpt>
      <trkpt lat="43.51411" lon="1.08206">
        <ele>314.927896</ele>
        <time>2020-09-20T08:20:42.000Z</time>
      </trkpt>
      <trkpt lat="43.51417" lon="1.08199">
        <ele>314.927125</ele>
        <time>2020-09-20T08:20:44.000Z</time>
      </trkpt>
      <trkpt lat="43.51428" lon="1.08192">
        <ele>314.926004</ele>
        <time>2020-09-20T08:20:47.000Z</time>
      </trkpt>
      <trkpt lat="43.51431" lon="1.08189">
        <ele>314.925648</ele>
        <time>2020-09-20T08:20:48.000Z</time>
      </trkpt>
      <trkpt lat="43.51442" lon="1.08186">
        <ele>314.924606</ele>
        <time>2020-09-20T08:20:51.000Z</time>
      </trkpt>
      <trkpt lat="43.51446" lon="1.08187">
        <ele>314.924192</ele>
        <time>2020-09-20T08:20:52.000Z</time>
      </trkpt>
      <trkpt lat="43.51467" lon="1.0819">
        <ele>314.922183</ele>
        <time>2020-09-20T08:20:57.000Z</time>
      </trkpt>
      <trkpt lat="43.51471" lon="1.08192">
        <ele>314.921789</ele>
        <time>2020-09-20T08:20:58.000Z</time>
      </trkpt>
      <trkpt lat="43.51484" lon="1.08192">
        <ele>314.920491</ele>
        <time>2020-09-20T08:21:02.000Z</time>
      </trkpt>
      <trkpt lat="43.5149" lon="1.08183">
        <ele>314.919626</ele>
        <time>2020-09-20T08:21:05.000Z</time>
      </trkpt>
      <trkpt lat="43.51492" lon="1.0818">
        <ele>314.919351</ele>
        <time>2020-09-20T08:21:06.000Z</time>
      </trkpt>
      <trkpt lat="43.51494" lon="1.08177">
        <ele>314.91907</ele>
        <time>2020-09-20T08:21:07.000Z</time>
      </trkpt>
      <trkpt lat="43.51498" lon="1.0817">
        <ele>314.918453</ele>
        <time>2020-09-20T08:21:09.000Z</time>
      </trkpt>
      <trkpt lat="43.51502" lon="1.08163">
        <ele>314.917836</ele>
        <time>2020-09-20T08:21:11.000Z</time>
      </trkpt>
      <trkpt lat="43.51509" lon="1.08155">
        <ele>314.91701</ele>
        <time>2020-09-20T08:21:14.000Z</time>
      </trkpt>
      <trkpt lat="43.5152" lon="1.08149">
        <ele>314.915885</ele>
        <time>2020-09-20T08:21:18.000Z</time>
      </trkpt>
      <trkpt lat="43.51525" lon="1.08148">
        <ele>314.915379</ele>
        <time>2020-09-20T08:21:20.000Z</time>
      </trkpt>
      <trkpt lat="43.51541" lon="1.08148">
        <ele>314.910366</ele>
        <time>2020-09-20T08:21:26.000Z</time>
      </trkpt>
      <trkpt lat="43.51543" lon="1.08148">
        <ele>314.897936</ele>
        <time>2020-09-20T08:21:27.000Z</time>
      </trkpt>
      <trkpt lat="43.5156" lon="1.0815">
        <ele>314.815777</ele>
        <time>2020-09-20T08:21:33.000Z</time>
      </trkpt>
      <trkpt lat="43.51571" lon="1.08151">
        <ele>314.760236</ele>
        <time>2020-09-20T08:21:37.000Z</time>
      </trkpt>
      <trkpt lat="43.51581" lon="1.08151">
        <ele>314.711341</ele>
        <time>2020-09-20T08:21:40.000Z</time>
      </trkpt>
      <trkpt lat="43.5159" lon="1.08154">
        <ele>314.664328</ele>
        <time>2020-09-20T08:21:43.000Z</time>
      </trkpt>
      <trkpt lat="43.51592" lon="1.08157">
        <ele>314.648009</ele>
        <time>2020-09-20T08:21:44.000Z</time>
      </trkpt>
      <trkpt lat="43.51601" lon="1.08176">
        <ele>314.569874</ele>
        <time>2020-09-20T08:21:48.000Z</time>
      </trkpt>
      <trkpt lat="43.51603" lon="1.08181">
        <ele>314.549423</ele>
        <time>2020-09-20T08:21:49.000Z</time>
      </trkpt>
      <trkpt lat="43.51605" lon="1.08186">
        <ele>314.529651</ele>
        <time>2020-09-20T08:21:50.000Z</time>
      </trkpt>
      <trkpt lat="43.51609" lon="1.08194">
        <ele>314.492517</ele>
        <time>2020-09-20T08:21:52.000Z</time>
      </trkpt>
      <trkpt lat="43.51615" lon="1.08204">
        <ele>314.449259</ele>
        <time>2020-09-20T08:21:54.000Z</time>
      </trkpt>
      <trkpt lat="43.51627" lon="1.08219">
        <ele>314.368534</ele>
        <time>2020-09-20T08:21:57.000Z</time>
      </trkpt>
      <trkpt lat="43.51636" lon="1.08229">
        <ele>314.308336</ele>
        <time>2020-09-20T08:21:59.000Z</time>
      </trkpt>
      <trkpt lat="43.51644" lon="1.0824">
        <ele>314.25495</ele>
        <time>2020-09-20T08:22:01.000Z</time>
      </trkpt>
      <trkpt lat="43.51652" lon="1.08251">
        <ele>314.199553</ele>
        <time>2020-09-20T08:22:04.000Z</time>
      </trkpt>
      <trkpt lat="43.51654" lon="1.08254">
        <ele>314.183917</ele>
        <time>2020-09-20T08:22:06.000Z</time>
      </trkpt>
      <trkpt lat="43.51655" lon="1.08254">
        <ele>314.181816</ele>
        <time>2020-09-20T08:22:07.000Z</time>
      </trkpt>
      <trkpt lat="43.51662" lon="1.08266">
        <ele>314.124056</ele>
        <time>2020-09-20T08:32:27.000Z</time>
      </trkpt>
      <trkpt lat="43.51671" lon="1.08279">
        <ele>314.060886</ele>
        <time>2020-09-20T08:32:31.000Z</time>
      </trkpt>
      <trkpt lat="43.51674" lon="1.08283">
        <ele>314.038707</ele>
        <time>2020-09-20T08:32:32.000Z</time>
      </trkpt>
      <trkpt lat="43.51687" lon="1.08301">
        <ele>313.875404</ele>
        <time>2020-09-20T08:32:36.000Z</time>
      </trkpt>
      <trkpt lat="43.51691" lon="1.08306">
        <ele>313.829681</ele>
        <time>2020-09-20T08:32:37.000Z</time>
      </trkpt>
      <trkpt lat="43.51694" lon="1.08311">
        <ele>313.782007</ele>
        <time>2020-09-20T08:32:38.000Z</time>
      </trkpt>
      <trkpt lat="43.51707" lon="1.08329">
        <ele>313.605251</ele>
        <time>2020-09-20T08:32:42.000Z</time>
      </trkpt>
      <trkpt lat="43.5171" lon="1.08332">
        <ele>313.566186</ele>
        <time>2020-09-20T08:32:43.000Z</time>
      </trkpt>
      <trkpt lat="43.51728" lon="1.08333">
        <ele>313.400146</ele>
        <time>2020-09-20T08:32:47.000Z</time>
      </trkpt>
      <trkpt lat="43.5174" lon="1.08331">
        <ele>313.278372</ele>
        <time>2020-09-20T08:32:49.000Z</time>
      </trkpt>
      <trkpt lat="43.51747" lon="1.0833">
        <ele>313.215548</ele>
        <time>2020-09-20T08:32:50.000Z</time>
      </trkpt>
      <trkpt lat="43.51753" lon="1.08328">
        <ele>313.154354</ele>
        <time>2020-09-20T08:32:51.000Z</time>
      </trkpt>
      <trkpt lat="43.5176" lon="1.08328">
        <ele>313.093248</ele>
        <time>2020-09-20T08:32:52.000Z</time>
      </trkpt>
      <trkpt lat="43.51771" lon="1.0833">
        <ele>312.987085</ele>
        <time>2020-09-20T08:32:54.000Z</time>
      </trkpt>
      <trkpt lat="43.5178" lon="1.08344">
        <ele>312.854394</ele>
        <time>2020-09-20T08:32:57.000Z</time>
      </trkpt>
      <trkpt lat="43.51781" lon="1.08352">
        <ele>312.795388</ele>
        <time>2020-09-20T08:32:59.000Z</time>
      </trkpt>
      <trkpt lat="43.51781" lon="1.08358">
        <ele>312.75321</ele>
        <time>2020-09-20T08:33:01.000Z</time>
      </trkpt>
      <trkpt lat="43.51781" lon="1.08382">
        <ele>312.589972</ele>
        <time>2020-09-20T08:33:07.000Z</time>
      </trkpt>
      <trkpt lat="43.51781" lon="1.08402">
        <ele>312.453739</ele>
        <time>2020-09-20T08:33:11.000Z</time>
      </trkpt>
      <trkpt lat="43.51781" lon="1.08407">
        <ele>312.419124</ele>
        <time>2020-09-20T08:33:12.000Z</time>
      </trkpt>
      <trkpt lat="43.51779" lon="1.08427">
        <ele>312.364842</ele>
        <time>2020-09-20T08:33:16.000Z</time>
      </trkpt>
      <trkpt lat="43.51778" lon="1.08436">
        <ele>312.472254</ele>
        <time>2020-09-20T08:33:18.000Z</time>
      </trkpt>
      <trkpt lat="43.51776" lon="1.08457">
        <ele>312.71147</ele>
        <time>2020-09-20T08:33:23.000Z</time>
      </trkpt>
      <trkpt lat="43.51778" lon="1.08469">
        <ele>312.850239</ele>
        <time>2020-09-20T08:33:26.000Z</time>
      </trkpt>
      <trkpt lat="43.5178" lon="1.08475">
        <ele>312.91795</ele>
        <time>2020-09-20T08:33:27.000Z</time>
      </trkpt>
      <trkpt lat="43.51796" lon="1.08496">
        <ele>313.259241</ele>
        <time>2020-09-20T08:33:32.000Z</time>
      </trkpt>
      <trkpt lat="43.51817" lon="1.08522">
        <ele>313.696313</ele>
        <time>2020-09-20T08:33:38.000Z</time>
      </trkpt>
      <trkpt lat="43.5182" lon="1.08527">
        <ele>313.774487</ele>
        <time>2020-09-20T08:33:39.000Z</time>
      </trkpt>
      <trkpt lat="43.51847" lon="1.08558">
        <ele>314.309389</ele>
        <time>2020-09-20T08:33:46.000Z</time>
      </trkpt>
      <trkpt lat="43.51868" lon="1.08581">
        <ele>314.735964</ele>
        <time>2020-09-20T08:33:51.000Z</time>
      </trkpt>
      <trkpt lat="43.51898" lon="1.08603">
        <ele>315.077461</ele>
        <time>2020-09-20T08:33:57.000Z</time>
      </trkpt>
      <trkpt lat="43.51929" lon="1.08619">
        <ele>315.032595</ele>
        <time>2020-09-20T08:34:03.000Z</time>
      </trkpt>
      <trkpt lat="43.51934" lon="1.0862">
        <ele>315.025169</ele>
        <time>2020-09-20T08:34:04.000Z</time>
      </trkpt>
      <trkpt lat="43.51966" lon="1.08631">
        <ele>314.980376</ele>
        <time>2020-09-20T08:34:10.000Z</time>
      </trkpt>
      <trkpt lat="43.52007" lon="1.08645">
        <ele>314.923647</ele>
        <time>2020-09-20T08:34:17.000Z</time>
      </trkpt>
      <trkpt lat="43.5204" lon="1.08657">
        <ele>314.876855</ele>
        <time>2020-09-20T08:34:23.000Z</time>
      </trkpt>
      <trkpt lat="43.52072" lon="1.08673">
        <ele>314.854347</ele>
        <time>2020-09-20T08:34:29.000Z</time>
      </trkpt>
      <trkpt lat="43.52104" lon="1.08694">
        <ele>314.874328</ele>
        <time>2020-09-20T08:34:35.000Z</time>
      </trkpt>
      <trkpt lat="43.52129" lon="1.08708">
        <ele>314.889922</ele>
        <time>2020-09-20T08:34:40.000Z</time>
      </trkpt>
      <trkpt lat="43.52158" lon="1.08727">
        <ele>314.908202</ele>
        <time>2020-09-20T08:34:46.000Z</time>
      </trkpt>
      <trkpt lat="43.52173" lon="1.08737">
        <ele>314.917858</ele>
        <time>2020-09-20T08:34:49.000Z</time>
      </trkpt>
      <trkpt lat="43.52188" lon="1.08747">
        <ele>314.927423</ele>
        <time>2020-09-20T08:34:52.000Z</time>
      </trkpt>
      <trkpt lat="43.52224" lon="1.08765">
        <ele>314.949405</ele>
        <time>2020-09-20T08:34:58.000Z</time>
      </trkpt>
      <trkpt lat="43.52267" lon="1.08779">
        <ele>313.851079</ele>
        <time>2020-09-20T08:35:04.000Z</time>
      </trkpt>
      <trkpt lat="43.52275" lon="1.0878">
        <ele>313.636843</ele>
        <time>2020-09-20T08:35:05.000Z</time>
      </trkpt>
      <trkpt lat="43.52308" lon="1.08782">
        <ele>312.784221</ele>
        <time>2020-09-20T08:35:09.000Z</time>
      </trkpt>
      <trkpt lat="43.52316" lon="1.08781">
        <ele>312.566592</ele>
        <time>2020-09-20T08:35:10.000Z</time>
      </trkpt>
      <trkpt lat="43.52342" lon="1.08779">
        <ele>311.91026</ele>
        <time>2020-09-20T08:35:13.000Z</time>
      </trkpt>
      <trkpt lat="43.52383" lon="1.08775">
        <ele>310.83713</ele>
        <time>2020-09-20T08:35:18.000Z</time>
      </trkpt>
      <trkpt lat="43.52391" lon="1.08774">
        <ele>310.634408</ele>
        <time>2020-09-20T08:35:19.000Z</time>
      </trkpt>
      <trkpt lat="43.52436" lon="1.08769">
        <ele>309.485899</ele>
        <time>2020-09-20T08:35:25.000Z</time>
      </trkpt>
      <trkpt lat="43.52458" lon="1.08768">
        <ele>308.939329</ele>
        <time>2020-09-20T08:35:28.000Z</time>
      </trkpt>
      <trkpt lat="43.52465" lon="1.08766">
        <ele>308.752323</ele>
        <time>2020-09-20T08:35:29.000Z</time>
      </trkpt>
      <trkpt lat="43.5248" lon="1.08764">
        <ele>308.385164</ele>
        <time>2020-09-20T08:35:31.000Z</time>
      </trkpt>
      <trkpt lat="43.5251" lon="1.08761">
        <ele>307.624048</ele>
        <time>2020-09-20T08:35:35.000Z</time>
      </trkpt>
      <trkpt lat="43.52541" lon="1.08758">
        <ele>306.857793</ele>
        <time>2020-09-20T08:35:39.000Z</time>
      </trkpt>
      <trkpt lat="43.52548" lon="1.08756">
        <ele>306.668959</ele>
        <time>2020-09-20T08:35:40.000Z</time>
      </trkpt>
      <trkpt lat="43.52579" lon="1.08753">
        <ele>305.900357</ele>
        <time>2020-09-20T08:35:44.000Z</time>
      </trkpt>
      <trkpt lat="43.52603" lon="1.08751">
        <ele>305.657118</ele>
        <time>2020-09-20T08:35:47.000Z</time>
      </trkpt>
      <trkpt lat="43.5261" lon="1.0875">
        <ele>305.604085</ele>
        <time>2020-09-20T08:35:48.000Z</time>
      </trkpt>
      <trkpt lat="43.52672" lon="1.08745">
        <ele>305.187717</ele>
        <time>2020-09-20T08:35:56.000Z</time>
      </trkpt>
      <trkpt lat="43.52704" lon="1.08745">
        <ele>304.967352</ele>
        <time>2020-09-20T08:36:01.000Z</time>
      </trkpt>
      <trkpt lat="43.52736" lon="1.08745">
        <ele>304.749691</ele>
        <time>2020-09-20T08:36:07.000Z</time>
      </trkpt>
      <trkpt lat="43.52755" lon="1.08746">
        <ele>304.622203</ele>
        <time>2020-09-20T08:36:12.000Z</time>
      </trkpt>
      <trkpt lat="43.52758" lon="1.08745">
        <ele>304.601132</ele>
        <time>2020-09-20T08:36:13.000Z</time>
      </trkpt>
      <trkpt lat="43.52779" lon="1.08746">
        <ele>304.721815</ele>
        <time>2020-09-20T08:36:19.000Z</time>
      </trkpt>
      <trkpt lat="43.52791" lon="1.08746">
        <ele>304.846278</ele>
        <time>2020-09-20T08:36:22.000Z</time>
      </trkpt>
      <trkpt lat="43.52796" lon="1.08747">
        <ele>304.889539</ele>
        <time>2020-09-20T08:36:23.000Z</time>
      </trkpt>
      <trkpt lat="43.52804" lon="1.08747">
        <ele>304.971022</ele>
        <time>2020-09-20T08:36:25.000Z</time>
      </trkpt>
      <trkpt lat="43.52814" lon="1.08747">
        <ele>305.065091</ele>
        <time>2020-09-20T08:36:27.000Z</time>
      </trkpt>
      <trkpt lat="43.52828" lon="1.08747">
        <ele>305.207182</ele>
        <time>2020-09-20T08:36:30.000Z</time>
      </trkpt>
      <trkpt lat="43.52863" lon="1.0875">
        <ele>305.554632</ele>
        <time>2020-09-20T08:36:36.000Z</time>
      </trkpt>
      <trkpt lat="43.52908" lon="1.08754">
        <ele>305.99445</ele>
        <time>2020-09-20T08:36:43.000Z</time>
      </trkpt>
      <trkpt lat="43.52943" lon="1.08758">
        <ele>306.323048</ele>
        <time>2020-09-20T08:36:49.000Z</time>
      </trkpt>
      <trkpt lat="43.52967" lon="1.0876">
        <ele>306.030941</ele>
        <time>2020-09-20T08:36:54.000Z</time>
      </trkpt>
      <trkpt lat="43.52971" lon="1.0876">
        <ele>305.979662</ele>
        <time>2020-09-20T08:36:55.000Z</time>
      </trkpt>
      <trkpt lat="43.52984" lon="1.08762">
        <ele>305.831185</ele>
        <time>2020-09-20T08:36:58.000Z</time>
      </trkpt>
      <trkpt lat="43.52996" lon="1.08765">
        <ele>305.675594</ele>
        <time>2020-09-20T08:37:01.000Z</time>
      </trkpt>
      <trkpt lat="43.53001" lon="1.08767">
        <ele>305.616467</ele>
        <time>2020-09-20T08:37:02.000Z</time>
      </trkpt>
      <trkpt lat="43.53039" lon="1.08782">
        <ele>305.130155</ele>
        <time>2020-09-20T08:37:09.000Z</time>
      </trkpt>
      <trkpt lat="43.53045" lon="1.08782">
        <ele>305.061783</ele>
        <time>2020-09-20T08:37:10.000Z</time>
      </trkpt>
      <trkpt lat="43.53068" lon="1.08784">
        <ele>304.778654</ele>
        <time>2020-09-20T08:37:14.000Z</time>
      </trkpt>
      <trkpt lat="43.53081" lon="1.08782">
        <ele>304.629981</ele>
        <time>2020-09-20T08:37:16.000Z</time>
      </trkpt>
      <trkpt lat="43.53101" lon="1.0878">
        <ele>304.377706</ele>
        <time>2020-09-20T08:37:19.000Z</time>
      </trkpt>
      <trkpt lat="43.53109" lon="1.08778">
        <ele>304.28459</ele>
        <time>2020-09-20T08:37:20.000Z</time>
      </trkpt>
      <trkpt lat="43.53133" lon="1.08772">
        <ele>303.272488</ele>
        <time>2020-09-20T08:37:23.000Z</time>
      </trkpt>
      <trkpt lat="43.5315" lon="1.08768">
        <ele>302.131701</ele>
        <time>2020-09-20T08:37:25.000Z</time>
      </trkpt>
      <trkpt lat="43.53168" lon="1.08763">
        <ele>300.905877</ele>
        <time>2020-09-20T08:37:27.000Z</time>
      </trkpt>
      <trkpt lat="43.53186" lon="1.08755">
        <ele>299.633443</ele>
        <time>2020-09-20T08:37:29.000Z</time>
      </trkpt>
      <trkpt lat="43.53205" lon="1.08744">
        <ele>298.306289</ele>
        <time>2020-09-20T08:37:31.000Z</time>
      </trkpt>
      <trkpt lat="43.53224" lon="1.08735">
        <ele>296.935438</ele>
        <time>2020-09-20T08:37:33.000Z</time>
      </trkpt>
      <trkpt lat="43.53234" lon="1.08731">
        <ele>296.230726</ele>
        <time>2020-09-20T08:37:34.000Z</time>
      </trkpt>
      <trkpt lat="43.53245" lon="1.0873">
        <ele>295.510931</ele>
        <time>2020-09-20T08:37:35.000Z</time>
      </trkpt>
      <trkpt lat="43.53267" lon="1.08736">
        <ele>294.010798</ele>
        <time>2020-09-20T08:37:37.000Z</time>
      </trkpt>
      <trkpt lat="43.53279" lon="1.08741">
        <ele>293.211607</ele>
        <time>2020-09-20T08:37:38.000Z</time>
      </trkpt>
      <trkpt lat="43.5329" lon="1.08747">
        <ele>292.421351</ele>
        <time>2020-09-20T08:37:39.000Z</time>
      </trkpt>
      <trkpt lat="43.533" lon="1.08753">
        <ele>291.954536</ele>
        <time>2020-09-20T08:37:40.000Z</time>
      </trkpt>
      <trkpt lat="43.5331" lon="1.08759">
        <ele>291.652002</ele>
        <time>2020-09-20T08:37:41.000Z</time>
      </trkpt>
      <trkpt lat="43.53318" lon="1.08765">
        <ele>291.378095</ele>
        <time>2020-09-20T08:37:42.000Z</time>
      </trkpt>
      <trkpt lat="43.53324" lon="1.08773">
        <ele>291.117624</ele>
        <time>2020-09-20T08:37:43.000Z</time>
      </trkpt>
      <trkpt lat="43.53327" lon="1.08784">
        <ele>290.875875</ele>
        <time>2020-09-20T08:37:44.000Z</time>
      </trkpt>
      <trkpt lat="43.53328" lon="1.08795">
        <ele>290.629211</ele>
        <time>2020-09-20T08:37:45.000Z</time>
      </trkpt>
      <trkpt lat="43.53328" lon="1.08819">
        <ele>290.119494</ele>
        <time>2020-09-20T08:37:47.000Z</time>
      </trkpt>
      <trkpt lat="43.53326" lon="1.08853">
        <ele>289.376738</ele>
        <time>2020-09-20T08:37:50.000Z</time>
      </trkpt>
      <trkpt lat="43.53324" lon="1.08912">
        <ele>288.099909</ele>
        <time>2020-09-20T08:37:56.000Z</time>
      </trkpt>
      <trkpt lat="43.53321" lon="1.08955">
        <ele>287.165297</ele>
        <time>2020-09-20T08:38:01.000Z</time>
      </trkpt>
      <trkpt lat="43.53318" lon="1.08996">
        <ele>287.606389</ele>
        <time>2020-09-20T08:38:06.000Z</time>
      </trkpt>
      <trkpt lat="43.53316" lon="1.09012">
        <ele>288.082711</ele>
        <time>2020-09-20T08:38:08.000Z</time>
      </trkpt>
      <trkpt lat="43.53312" lon="1.09026">
        <ele>288.537879</ele>
        <time>2020-09-20T08:38:10.000Z</time>
      </trkpt>
      <trkpt lat="43.53311" lon="1.09033">
        <ele>288.746727</ele>
        <time>2020-09-20T08:38:11.000Z</time>
      </trkpt>
      <trkpt lat="43.53309" lon="1.09057">
        <ele>289.458576</ele>
        <time>2020-09-20T08:38:15.000Z</time>
      </trkpt>
      <trkpt lat="43.53308" lon="1.09068">
        <ele>289.794784</ele>
        <time>2020-09-20T08:38:17.000Z</time>
      </trkpt>
      <trkpt lat="43.53308" lon="1.09079">
        <ele>290.115938</ele>
        <time>2020-09-20T08:38:19.000Z</time>
      </trkpt>
      <trkpt lat="43.53307" lon="1.09094">
        <ele>290.567511</ele>
        <time>2020-09-20T08:38:22.000Z</time>
      </trkpt>
      <trkpt lat="43.53307" lon="1.091">
        <ele>290.736837</ele>
        <time>2020-09-20T08:38:23.000Z</time>
      </trkpt>
      <trkpt lat="43.53307" lon="1.09106">
        <ele>290.912819</ele>
        <time>2020-09-20T08:38:24.000Z</time>
      </trkpt>
      <trkpt lat="43.53306" lon="1.09117">
        <ele>291.266815</ele>
        <time>2020-09-20T08:38:26.000Z</time>
      </trkpt>
      <trkpt lat="43.53306" lon="1.09129">
        <ele>291.620218</ele>
        <time>2020-09-20T08:38:28.000Z</time>
      </trkpt>
      <trkpt lat="43.53306" lon="1.09141">
        <ele>291.964736</ele>
        <time>2020-09-20T08:38:30.000Z</time>
      </trkpt>
      <trkpt lat="43.53306" lon="1.09168">
        <ele>292.757708</ele>
        <time>2020-09-20T08:38:35.000Z</time>
      </trkpt>
      <trkpt lat="43.53307" lon="1.09207">
        <ele>293.93791</ele>
        <time>2020-09-20T08:38:42.000Z</time>
      </trkpt>
      <trkpt lat="43.53308" lon="1.09213">
        <ele>294.101709</ele>
        <time>2020-09-20T08:38:43.000Z</time>
      </trkpt>
      <trkpt lat="43.53308" lon="1.09219">
        <ele>294.243623</ele>
        <time>2020-09-20T08:38:44.000Z</time>
      </trkpt>
      <trkpt lat="43.53308" lon="1.09243">
        <ele>294.641904</ele>
        <time>2020-09-20T08:38:48.000Z</time>
      </trkpt>
      <trkpt lat="43.5331" lon="1.09268">
        <ele>295.039815</ele>
        <time>2020-09-20T08:38:52.000Z</time>
      </trkpt>
      <trkpt lat="43.5331" lon="1.09299">
        <ele>295.536185</ele>
        <time>2020-09-20T08:38:57.000Z</time>
      </trkpt>
      <trkpt lat="43.53311" lon="1.09342">
        <ele>296.221799</ele>
        <time>2020-09-20T08:39:04.000Z</time>
      </trkpt>
      <trkpt lat="43.53311" lon="1.09359">
        <ele>296.501166</ele>
        <time>2020-09-20T08:39:07.000Z</time>
      </trkpt>
      <trkpt lat="43.53314" lon="1.09401">
        <ele>297.16827</ele>
        <time>2020-09-20T08:39:14.000Z</time>
      </trkpt>
      <trkpt lat="43.53318" lon="1.09431">
        <ele>297.657557</ele>
        <time>2020-09-20T08:39:19.000Z</time>
      </trkpt>
      <trkpt lat="43.53319" lon="1.09436">
        <ele>297.7489</ele>
        <time>2020-09-20T08:39:20.000Z</time>
      </trkpt>
      <trkpt lat="43.53326" lon="1.0946">
        <ele>298.160971</ele>
        <time>2020-09-20T08:39:24.000Z</time>
      </trkpt>
      <trkpt lat="43.5333" lon="1.09472">
        <ele>298.526501</ele>
        <time>2020-09-20T08:39:26.000Z</time>
      </trkpt>
      <trkpt lat="43.53341" lon="1.09509">
        <ele>299.74687</ele>
        <time>2020-09-20T08:39:32.000Z</time>
      </trkpt>
      <trkpt lat="43.53343" lon="1.09515">
        <ele>299.941501</ele>
        <time>2020-09-20T08:39:33.000Z</time>
      </trkpt>
      <trkpt lat="43.53345" lon="1.09527">
        <ele>300.3146</ele>
        <time>2020-09-20T08:39:35.000Z</time>
      </trkpt>
      <trkpt lat="43.53347" lon="1.09545">
        <ele>300.856234</ele>
        <time>2020-09-20T08:39:38.000Z</time>
      </trkpt>
      <trkpt lat="43.53347" lon="1.09551">
        <ele>301.036824</ele>
        <time>2020-09-20T08:39:39.000Z</time>
      </trkpt>
      <trkpt lat="43.53347" lon="1.09563">
        <ele>301.399579</ele>
        <time>2020-09-20T08:39:41.000Z</time>
      </trkpt>
      <trkpt lat="43.53346" lon="1.09582">
        <ele>301.946633</ele>
        <time>2020-09-20T08:39:44.000Z</time>
      </trkpt>
      <trkpt lat="43.53345" lon="1.096">
        <ele>302.49638</ele>
        <time>2020-09-20T08:39:47.000Z</time>
      </trkpt>
      <trkpt lat="43.53345" lon="1.09606">
        <ele>302.67697</ele>
        <time>2020-09-20T08:39:48.000Z</time>
      </trkpt>
      <trkpt lat="43.53343" lon="1.09624">
        <ele>303.210622</ele>
        <time>2020-09-20T08:39:51.000Z</time>
      </trkpt>
      <trkpt lat="43.53342" lon="1.09647">
        <ele>303.910728</ele>
        <time>2020-09-20T08:39:55.000Z</time>
      </trkpt>
      <trkpt lat="43.53342" lon="1.09653">
        <ele>304.087997</ele>
        <time>2020-09-20T08:39:56.000Z</time>
      </trkpt>
      <trkpt lat="43.5334" lon="1.09677">
        <ele>304.806106</ele>
        <time>2020-09-20T08:40:00.000Z</time>
      </trkpt>
      <trkpt lat="43.53337" lon="1.09698">
        <ele>305.46772</ele>
        <time>2020-09-20T08:40:04.000Z</time>
      </trkpt>
      <trkpt lat="43.53335" lon="1.09708">
        <ele>305.664938</ele>
        <time>2020-09-20T08:40:06.000Z</time>
      </trkpt>
      <trkpt lat="43.53335" lon="1.0972">
        <ele>305.766974</ele>
        <time>2020-09-20T08:40:09.000Z</time>
      </trkpt>
      <trkpt lat="43.53338" lon="1.09751">
        <ele>306.020978</ele>
        <time>2020-09-20T08:40:15.000Z</time>
      </trkpt>
      <trkpt lat="43.53345" lon="1.09786">
        <ele>306.315018</ele>
        <time>2020-09-20T08:40:21.000Z</time>
      </trkpt>
      <trkpt lat="43.53347" lon="1.09797">
        <ele>306.414261</ele>
        <time>2020-09-20T08:40:23.000Z</time>
      </trkpt>
      <trkpt lat="43.53352" lon="1.09829">
        <ele>306.67816</ele>
        <time>2020-09-20T08:40:28.000Z</time>
      </trkpt>
      <trkpt lat="43.53356" lon="1.09847">
        <ele>306.838103</ele>
        <time>2020-09-20T08:40:31.000Z</time>
      </trkpt>
      <trkpt lat="43.53365" lon="1.09899">
        <ele>307.271469</ele>
        <time>2020-09-20T08:40:39.000Z</time>
      </trkpt>
      <trkpt lat="43.53368" lon="1.09912">
        <ele>307.382689</ele>
        <time>2020-09-20T08:40:41.000Z</time>
      </trkpt>
      <trkpt lat="43.53378" lon="1.09958">
        <ele>307.705717</ele>
        <time>2020-09-20T08:40:48.000Z</time>
      </trkpt>
      <trkpt lat="43.53395" lon="1.10019">
        <ele>307.893811</ele>
        <time>2020-09-20T08:40:57.000Z</time>
      </trkpt>
      <trkpt lat="43.53411" lon="1.10076">
        <ele>308.069305</ele>
        <time>2020-09-20T08:41:06.000Z</time>
      </trkpt>
      <trkpt lat="43.53421" lon="1.10115">
        <ele>308.187494</ele>
        <time>2020-09-20T08:41:12.000Z</time>
      </trkpt>
      <trkpt lat="43.53431" lon="1.10155">
        <ele>308.307875</ele>
        <time>2020-09-20T08:41:18.000Z</time>
      </trkpt>
      <trkpt lat="43.53433" lon="1.10161">
        <ele>308.328407</ele>
        <time>2020-09-20T08:41:19.000Z</time>
      </trkpt>
      <trkpt lat="43.53437" lon="1.10181">
        <ele>308.257042</ele>
        <time>2020-09-20T08:41:22.000Z</time>
      </trkpt>
      <trkpt lat="43.53434" lon="1.1019">
        <ele>307.892707</ele>
        <time>2020-09-20T08:41:24.000Z</time>
      </trkpt>
      <trkpt lat="43.53427" lon="1.10197">
        <ele>307.468715</ele>
        <time>2020-09-20T08:41:26.000Z</time>
      </trkpt>
      <trkpt lat="43.53424" lon="1.10202">
        <ele>307.24477</ele>
        <time>2020-09-20T08:41:27.000Z</time>
      </trkpt>
      <trkpt lat="43.53421" lon="1.10207">
        <ele>307.011783</ele>
        <time>2020-09-20T08:41:28.000Z</time>
      </trkpt>
      <trkpt lat="43.53416" lon="1.10218">
        <ele>306.562944</ele>
        <time>2020-09-20T08:41:30.000Z</time>
      </trkpt>
      <trkpt lat="43.53404" lon="1.10227">
        <ele>305.916737</ele>
        <time>2020-09-20T08:41:33.000Z</time>
      </trkpt>
      <trkpt lat="43.5339" lon="1.10237">
        <ele>305.09516</ele>
        <time>2020-09-20T08:41:37.000Z</time>
      </trkpt>
      <trkpt lat="43.53387" lon="1.10243">
        <ele>304.860977</ele>
        <time>2020-09-20T08:41:38.000Z</time>
      </trkpt>
      <trkpt lat="43.53383" lon="1.10266">
        <ele>304.030904</ele>
        <time>2020-09-20T08:41:41.000Z</time>
      </trkpt>
      <trkpt lat="43.53383" lon="1.10274">
        <ele>303.742464</ele>
        <time>2020-09-20T08:41:42.000Z</time>
      </trkpt>
      <trkpt lat="43.53383" lon="1.10282">
        <ele>303.44657</ele>
        <time>2020-09-20T08:41:43.000Z</time>
      </trkpt>
      <trkpt lat="43.53381" lon="1.10306">
        <ele>302.586313</ele>
        <time>2020-09-20T08:41:46.000Z</time>
      </trkpt>
      <trkpt lat="43.5338" lon="1.10313">
        <ele>302.35352</ele>
        <time>2020-09-20T08:41:47.000Z</time>
      </trkpt>
      <trkpt lat="43.53379" lon="1.10323">
        <ele>301.980122</ele>
        <time>2020-09-20T08:41:49.000Z</time>
      </trkpt>
      <trkpt lat="43.53378" lon="1.10328">
        <ele>301.816609</ele>
        <time>2020-09-20T08:41:50.000Z</time>
      </trkpt>
      <trkpt lat="43.53375" lon="1.10335">
        <ele>301.498821</ele>
        <time>2020-09-20T08:41:52.000Z</time>
      </trkpt>
      <trkpt lat="43.53373" lon="1.1034">
        <ele>301.288843</ele>
        <time>2020-09-20T08:41:53.000Z</time>
      </trkpt>
      <trkpt lat="43.53365" lon="1.10358">
        <ele>300.534647</ele>
        <time>2020-09-20T08:41:56.000Z</time>
      </trkpt>
      <trkpt lat="43.53359" lon="1.10371">
        <ele>300.004723</ele>
        <time>2020-09-20T08:41:58.000Z</time>
      </trkpt>
      <trkpt lat="43.5335" lon="1.10384">
        <ele>299.124555</ele>
        <time>2020-09-20T08:42:00.000Z</time>
      </trkpt>
      <trkpt lat="43.5334" lon="1.10398">
        <ele>297.610417</ele>
        <time>2020-09-20T08:42:02.000Z</time>
      </trkpt>
      <trkpt lat="43.53334" lon="1.10406">
        <ele>296.751803</ele>
        <time>2020-09-20T08:42:03.000Z</time>
      </trkpt>
      <trkpt lat="43.53329" lon="1.10412">
        <ele>295.943029</ele>
        <time>2020-09-20T08:42:04.000Z</time>
      </trkpt>
      <trkpt lat="43.53323" lon="1.10418">
        <ele>295.143104</ele>
        <time>2020-09-20T08:42:05.000Z</time>
      </trkpt>
      <trkpt lat="43.53315" lon="1.10424">
        <ele>294.244333</ele>
        <time>2020-09-20T08:42:06.000Z</time>
      </trkpt>
      <trkpt lat="43.53309" lon="1.1043">
        <ele>293.461533</ele>
        <time>2020-09-20T08:42:07.000Z</time>
      </trkpt>
      <trkpt lat="43.53303" lon="1.10435">
        <ele>292.723359</ele>
        <time>2020-09-20T08:42:08.000Z</time>
      </trkpt>
      <trkpt lat="43.53301" lon="1.1044">
        <ele>292.213123</ele>
        <time>2020-09-20T08:42:09.000Z</time>
      </trkpt>
      <trkpt lat="43.53299" lon="1.10452">
        <ele>291.244452</ele>
        <time>2020-09-20T08:42:11.000Z</time>
      </trkpt>
      <trkpt lat="43.53299" lon="1.10468">
        <ele>290.007316</ele>
        <time>2020-09-20T08:42:13.000Z</time>
      </trkpt>
      <trkpt lat="43.53297" lon="1.10486">
        <ele>288.63861</ele>
        <time>2020-09-20T08:42:15.000Z</time>
      </trkpt>
      <trkpt lat="43.53288" lon="1.1051">
        <ele>286.476877</ele>
        <time>2020-09-20T08:42:18.000Z</time>
      </trkpt>
      <trkpt lat="43.53277" lon="1.10523">
        <ele>284.925807</ele>
        <time>2020-09-20T08:42:20.000Z</time>
      </trkpt>
      <trkpt lat="43.5327" lon="1.10528">
        <ele>284.095131</ele>
        <time>2020-09-20T08:42:21.000Z</time>
      </trkpt>
      <trkpt lat="43.53262" lon="1.10532">
        <ele>283.176487</ele>
        <time>2020-09-20T08:42:22.000Z</time>
      </trkpt>
      <trkpt lat="43.53254" lon="1.10536">
        <ele>282.245038</ele>
        <time>2020-09-20T08:42:23.000Z</time>
      </trkpt>
      <trkpt lat="43.53236" lon="1.10543">
        <ele>280.311431</ele>
        <time>2020-09-20T08:42:25.000Z</time>
      </trkpt>
      <trkpt lat="43.53229" lon="1.10547">
        <ele>279.704975</ele>
        <time>2020-09-20T08:42:26.000Z</time>
      </trkpt>
      <trkpt lat="43.53223" lon="1.10552">
        <ele>279.217764</ele>
        <time>2020-09-20T08:42:27.000Z</time>
      </trkpt>
      <trkpt lat="43.5322" lon="1.10558">
        <ele>278.812395</ele>
        <time>2020-09-20T08:42:28.000Z</time>
      </trkpt>
      <trkpt lat="43.53219" lon="1.10566">
        <ele>278.391878</ele>
        <time>2020-09-20T08:42:29.000Z</time>
      </trkpt>
      <trkpt lat="43.53218" lon="1.10574">
        <ele>277.964002</ele>
        <time>2020-09-20T08:42:30.000Z</time>
      </trkpt>
      <trkpt lat="43.53211" lon="1.10587">
        <ele>277.107033</ele>
        <time>2020-09-20T08:42:32.000Z</time>
      </trkpt>
      <trkpt lat="43.53202" lon="1.10596">
        <ele>276.255427</ele>
        <time>2020-09-20T08:42:34.000Z</time>
      </trkpt>
      <trkpt lat="43.53197" lon="1.10601">
        <ele>275.80507</ele>
        <time>2020-09-20T08:42:35.000Z</time>
      </trkpt>
      <trkpt lat="43.53192" lon="1.10607">
        <ele>275.353219</ele>
        <time>2020-09-20T08:42:36.000Z</time>
      </trkpt>
      <trkpt lat="43.53187" lon="1.10613">
        <ele>274.865917</ele>
        <time>2020-09-20T08:42:37.000Z</time>
      </trkpt>
      <trkpt lat="43.53181" lon="1.10619">
        <ele>274.289064</ele>
        <time>2020-09-20T08:42:38.000Z</time>
      </trkpt>
      <trkpt lat="43.53169" lon="1.10632">
        <ele>273.180114</ele>
        <time>2020-09-20T08:42:40.000Z</time>
      </trkpt>
      <trkpt lat="43.53164" lon="1.10639">
        <ele>272.631963</ele>
        <time>2020-09-20T08:42:41.000Z</time>
      </trkpt>
      <trkpt lat="43.5316" lon="1.10647">
        <ele>272.127231</ele>
        <time>2020-09-20T08:42:42.000Z</time>
      </trkpt>
      <trkpt lat="43.53158" lon="1.10655">
        <ele>271.705724</ele>
        <time>2020-09-20T08:42:43.000Z</time>
      </trkpt>
      <trkpt lat="43.53157" lon="1.10657">
        <ele>271.553929</ele>
        <time>2020-09-20T08:42:44.000Z</time>
      </trkpt>
      <trkpt lat="43.53157" lon="1.10658">
        <ele>271.528083</ele>
        <time>2020-09-20T08:42:45.000Z</time>
      </trkpt>
      <trkpt lat="43.53157" lon="1.10658">
        <ele>271.510521</ele>
        <time>2020-09-20T08:42:46.000Z</time>
      </trkpt>
      <trkpt lat="43.53157" lon="1.10659">
        <ele>271.43287</ele>
        <time>2020-09-20T08:43:08.000Z</time>
      </trkpt>
      <trkpt lat="43.53157" lon="1.10663">
        <ele>271.22011</ele>
        <time>2020-09-20T08:43:09.000Z</time>
      </trkpt>
      <trkpt lat="43.53162" lon="1.10686">
        <ele>269.933709</ele>
        <time>2020-09-20T08:43:13.000Z</time>
      </trkpt>
      <trkpt lat="43.53173" lon="1.10722">
        <ele>267.849057</ele>
        <time>2020-09-20T08:43:18.000Z</time>
      </trkpt>
      <trkpt lat="43.53193" lon="1.10765">
        <ele>266.701248</ele>
        <time>2020-09-20T08:43:24.000Z</time>
      </trkpt>
      <trkpt lat="43.53215" lon="1.10805">
        <ele>266.193138</ele>
        <time>2020-09-20T08:43:30.000Z</time>
      </trkpt>
      <trkpt lat="43.53232" lon="1.10838">
        <ele>265.784193</ele>
        <time>2020-09-20T08:43:35.000Z</time>
      </trkpt>
      <trkpt lat="43.53239" lon="1.10851">
        <ele>265.622958</ele>
        <time>2020-09-20T08:43:37.000Z</time>
      </trkpt>
      <trkpt lat="43.53243" lon="1.10866">
        <ele>265.460415</ele>
        <time>2020-09-20T08:43:39.000Z</time>
      </trkpt>
      <trkpt lat="43.53249" lon="1.10889">
        <ele>265.213025</ele>
        <time>2020-09-20T08:43:42.000Z</time>
      </trkpt>
      <trkpt lat="43.53256" lon="1.10912">
        <ele>264.966446</ele>
        <time>2020-09-20T08:43:45.000Z</time>
      </trkpt>
      <trkpt lat="43.5326" lon="1.10927">
        <ele>264.803307</ele>
        <time>2020-09-20T08:43:47.000Z</time>
      </trkpt>
      <trkpt lat="43.53263" lon="1.10934">
        <ele>264.719785</ele>
        <time>2020-09-20T08:43:48.000Z</time>
      </trkpt>
      <trkpt lat="43.53279" lon="1.10977">
        <ele>264.017258</ele>
        <time>2020-09-20T08:43:54.000Z</time>
      </trkpt>
      <trkpt lat="43.53295" lon="1.11018">
        <ele>263.265196</ele>
        <time>2020-09-20T08:44:00.000Z</time>
      </trkpt>
      <trkpt lat="43.533" lon="1.11033">
        <ele>262.990428</ele>
        <time>2020-09-20T08:44:02.000Z</time>
      </trkpt>
      <trkpt lat="43.53303" lon="1.1104">
        <ele>262.846614</ele>
        <time>2020-09-20T08:44:03.000Z</time>
      </trkpt>
      <trkpt lat="43.5331" lon="1.11056">
        <ele>262.544832</ele>
        <time>2020-09-20T08:44:05.000Z</time>
      </trkpt>
      <trkpt lat="43.53316" lon="1.1107">
        <ele>262.270797</ele>
        <time>2020-09-20T08:44:07.000Z</time>
      </trkpt>
      <trkpt lat="43.5332" lon="1.11084">
        <ele>262.030439</ele>
        <time>2020-09-20T08:44:09.000Z</time>
      </trkpt>
      <trkpt lat="43.53322" lon="1.11089">
        <ele>261.930626</ele>
        <time>2020-09-20T08:44:10.000Z</time>
      </trkpt>
      <trkpt lat="43.53326" lon="1.11097">
        <ele>261.769082</ele>
        <time>2020-09-20T08:44:12.000Z</time>
      </trkpt>
      <trkpt lat="43.53325" lon="1.11102">
        <ele>261.688588</ele>
        <time>2020-09-20T08:44:13.000Z</time>
      </trkpt>
      <trkpt lat="43.5333" lon="1.11118">
        <ele>261.408883</ele>
        <time>2020-09-20T08:44:17.000Z</time>
      </trkpt>
      <trkpt lat="43.5333" lon="1.11123">
        <ele>261.330145</ele>
        <time>2020-09-20T08:44:18.000Z</time>
      </trkpt>
      <trkpt lat="43.53333" lon="1.11132">
        <ele>261.166125</ele>
        <time>2020-09-20T08:44:21.000Z</time>
      </trkpt>
      <trkpt lat="43.53334" lon="1.11134">
        <ele>261.129424</ele>
        <time>2020-09-20T08:44:22.000Z</time>
      </trkpt>
      <trkpt lat="43.53338" lon="1.11143">
        <ele>260.950444</ele>
        <time>2020-09-20T08:44:25.000Z</time>
      </trkpt>
      <trkpt lat="43.53348" lon="1.11158">
        <ele>260.607447</ele>
        <time>2020-09-20T08:44:29.000Z</time>
      </trkpt>
      <trkpt lat="43.53349" lon="1.11169">
        <ele>260.527937</ele>
        <time>2020-09-20T08:44:31.000Z</time>
      </trkpt>
      <trkpt lat="43.53352" lon="1.11173">
        <ele>260.716514</ele>
        <time>2020-09-20T08:44:32.000Z</time>
      </trkpt>
      <trkpt lat="43.53359" lon="1.11187">
        <ele>261.286993</ele>
        <time>2020-09-20T08:44:36.000Z</time>
      </trkpt>
      <trkpt lat="43.53363" lon="1.11196">
        <ele>261.650312</ele>
        <time>2020-09-20T08:44:39.000Z</time>
      </trkpt>
      <trkpt lat="43.53365" lon="1.11201">
        <ele>261.825844</ele>
        <time>2020-09-20T08:44:40.000Z</time>
      </trkpt>
      <trkpt lat="43.53368" lon="1.11217">
        <ele>262.400201</ele>
        <time>2020-09-20T08:44:43.000Z</time>
      </trkpt>
      <trkpt lat="43.53371" lon="1.11221">
        <ele>262.553339</ele>
        <time>2020-09-20T08:44:44.000Z</time>
      </trkpt>
      <trkpt lat="43.53377" lon="1.11227">
        <ele>262.915033</ele>
        <time>2020-09-20T08:44:47.000Z</time>
      </trkpt>
      <trkpt lat="43.53379" lon="1.11228">
        <ele>263.023477</ele>
        <time>2020-09-20T08:44:48.000Z</time>
      </trkpt>
      <trkpt lat="43.53386" lon="1.11228">
        <ele>263.353744</ele>
        <time>2020-09-20T08:44:52.000Z</time>
      </trkpt>
      <trkpt lat="43.53391" lon="1.1122">
        <ele>263.700567</ele>
        <time>2020-09-20T08:44:56.000Z</time>
      </trkpt>
      <trkpt lat="43.53395" lon="1.11216">
        <ele>263.930475</ele>
        <time>2020-09-20T08:44:58.000Z</time>
      </trkpt>
      <trkpt lat="43.53398" lon="1.11211">
        <ele>264.16342</ele>
        <time>2020-09-20T08:45:00.000Z</time>
      </trkpt>
      <trkpt lat="43.53399" lon="1.11208">
        <ele>264.282793</ele>
        <time>2020-09-20T08:45:01.000Z</time>
      </trkpt>
      <trkpt lat="43.53399" lon="1.11205">
        <ele>264.378988</ele>
        <time>2020-09-20T08:45:02.000Z</time>
      </trkpt>
      <trkpt lat="43.53399" lon="1.11202">
        <ele>264.480535</ele>
        <time>2020-09-20T08:45:03.000Z</time>
      </trkpt>
      <trkpt lat="43.53401" lon="1.11194">
        <ele>264.753239</ele>
        <time>2020-09-20T08:45:05.000Z</time>
      </trkpt>
      <trkpt lat="43.53402" lon="1.11191">
        <ele>264.889695</ele>
        <time>2020-09-20T08:45:06.000Z</time>
      </trkpt>
      <trkpt lat="43.53404" lon="1.11188">
        <ele>265.029571</ele>
        <time>2020-09-20T08:45:07.000Z</time>
      </trkpt>
      <trkpt lat="43.53409" lon="1.11183">
        <ele>265.307214</ele>
        <time>2020-09-20T08:45:09.000Z</time>
      </trkpt>
      <trkpt lat="43.53414" lon="1.11182">
        <ele>265.548987</ele>
        <time>2020-09-20T08:45:11.000Z</time>
      </trkpt>
      <trkpt lat="43.53418" lon="1.11179">
        <ele>265.756039</ele>
        <time>2020-09-20T08:45:13.000Z</time>
      </trkpt>
      <trkpt lat="43.53423" lon="1.11176">
        <ele>266.007689</ele>
        <time>2020-09-20T08:45:15.000Z</time>
      </trkpt>
      <trkpt lat="43.53425" lon="1.11176">
        <ele>266.110199</ele>
        <time>2020-09-20T08:45:16.000Z</time>
      </trkpt>
      <trkpt lat="43.5343" lon="1.11177">
        <ele>266.344643</ele>
        <time>2020-09-20T08:45:18.000Z</time>
      </trkpt>
      <trkpt lat="43.53436" lon="1.11178">
        <ele>266.59164</ele>
        <time>2020-09-20T08:45:20.000Z</time>
      </trkpt>
      <trkpt lat="43.53447" lon="1.11171">
        <ele>267.141122</ele>
        <time>2020-09-20T08:45:24.000Z</time>
      </trkpt>
      <trkpt lat="43.53458" lon="1.11164">
        <ele>267.707466</ele>
        <time>2020-09-20T08:45:28.000Z</time>
      </trkpt>
      <trkpt lat="43.5346" lon="1.11162">
        <ele>267.833806</ele>
        <time>2020-09-20T08:45:29.000Z</time>
      </trkpt>
      <trkpt lat="43.53468" lon="1.11157">
        <ele>268.226251</ele>
        <time>2020-09-20T08:45:32.000Z</time>
      </trkpt>
      <trkpt lat="43.5347" lon="1.1116">
        <ele>268.353048</ele>
        <time>2020-09-20T08:45:33.000Z</time>
      </trkpt>
      <trkpt lat="43.53473" lon="1.11169">
        <ele>268.692139</ele>
        <time>2020-09-20T08:45:36.000Z</time>
      </trkpt>
      <trkpt lat="43.53475" lon="1.11174">
        <ele>268.906991</ele>
        <time>2020-09-20T08:45:38.000Z</time>
      </trkpt>
      <trkpt lat="43.53481" lon="1.11181">
        <ele>269.350789</ele>
        <time>2020-09-20T08:45:41.000Z</time>
      </trkpt>
      <trkpt lat="43.53484" lon="1.11184">
        <ele>269.518894</ele>
        <time>2020-09-20T08:45:42.000Z</time>
      </trkpt>
      <trkpt lat="43.53485" lon="1.11186">
        <ele>269.653494</ele>
        <time>2020-09-20T08:45:43.000Z</time>
      </trkpt>
      <trkpt lat="43.53488" lon="1.1119">
        <ele>269.875231</ele>
        <time>2020-09-20T08:45:45.000Z</time>
      </trkpt>
      <trkpt lat="43.535" lon="1.112">
        <ele>270.635452</ele>
        <time>2020-09-20T08:45:50.000Z</time>
      </trkpt>
      <trkpt lat="43.53508" lon="1.112">
        <ele>271.082025</ele>
        <time>2020-09-20T08:45:53.000Z</time>
      </trkpt>
      <trkpt lat="43.53511" lon="1.11202">
        <ele>271.250178</ele>
        <time>2020-09-20T08:45:54.000Z</time>
      </trkpt>
      <trkpt lat="43.53513" lon="1.1121">
        <ele>271.586766</ele>
        <time>2020-09-20T08:45:56.000Z</time>
      </trkpt>
      <trkpt lat="43.53513" lon="1.11215">
        <ele>271.768397</ele>
        <time>2020-09-20T08:45:57.000Z</time>
      </trkpt>
      <trkpt lat="43.53513" lon="1.11234">
        <ele>272.519536</ele>
        <time>2020-09-20T08:46:01.000Z</time>
      </trkpt>
      <trkpt lat="43.53521" lon="1.11252">
        <ele>273.38026</ele>
        <time>2020-09-20T08:46:05.000Z</time>
      </trkpt>
      <trkpt lat="43.53527" lon="1.11256">
        <ele>273.741355</ele>
        <time>2020-09-20T08:46:07.000Z</time>
      </trkpt>
      <trkpt lat="43.53533" lon="1.11259">
        <ele>274.066326</ele>
        <time>2020-09-20T08:46:09.000Z</time>
      </trkpt>
      <trkpt lat="43.53537" lon="1.11266">
        <ele>274.428653</ele>
        <time>2020-09-20T08:46:11.000Z</time>
      </trkpt>
      <trkpt lat="43.53542" lon="1.11271">
        <ele>274.779286</ele>
        <time>2020-09-20T08:46:13.000Z</time>
      </trkpt>
      <trkpt lat="43.53545" lon="1.11271">
        <ele>274.937362</ele>
        <time>2020-09-20T08:46:14.000Z</time>
      </trkpt>
      <trkpt lat="43.53551" lon="1.11268">
        <ele>275.278656</ele>
        <time>2020-09-20T08:46:16.000Z</time>
      </trkpt>
      <trkpt lat="43.53554" lon="1.11265">
        <ele>275.449107</ele>
        <time>2020-09-20T08:46:17.000Z</time>
      </trkpt>
      <trkpt lat="43.53561" lon="1.11258">
        <ele>275.94439</ele>
        <time>2020-09-20T08:46:20.000Z</time>
      </trkpt>
      <trkpt lat="43.53566" lon="1.11253">
        <ele>276.28293</ele>
        <time>2020-09-20T08:46:22.000Z</time>
      </trkpt>
      <trkpt lat="43.53572" lon="1.11251">
        <ele>276.599603</ele>
        <time>2020-09-20T08:46:24.000Z</time>
      </trkpt>
      <trkpt lat="43.53574" lon="1.11252">
        <ele>276.754035</ele>
        <time>2020-09-20T08:46:25.000Z</time>
      </trkpt>
      <trkpt lat="43.53577" lon="1.11254">
        <ele>276.913387</ele>
        <time>2020-09-20T08:46:26.000Z</time>
      </trkpt>
      <trkpt lat="43.53579" lon="1.11257">
        <ele>277.083703</ele>
        <time>2020-09-20T08:46:27.000Z</time>
      </trkpt>
      <trkpt lat="43.5359" lon="1.11265">
        <ele>277.739167</ele>
        <time>2020-09-20T08:46:31.000Z</time>
      </trkpt>
      <trkpt lat="43.53595" lon="1.11268">
        <ele>278.058412</ele>
        <time>2020-09-20T08:46:33.000Z</time>
      </trkpt>
      <trkpt lat="43.53605" lon="1.11266">
        <ele>278.594234</ele>
        <time>2020-09-20T08:46:36.000Z</time>
      </trkpt>
      <trkpt lat="43.53607" lon="1.11263">
        <ele>278.721531</ele>
        <time>2020-09-20T08:46:37.000Z</time>
      </trkpt>
      <trkpt lat="43.53615" lon="1.11257">
        <ele>279.105179</ele>
        <time>2020-09-20T08:46:40.000Z</time>
      </trkpt>
      <trkpt lat="43.53627" lon="1.1125">
        <ele>279.678544</ele>
        <time>2020-09-20T08:46:44.000Z</time>
      </trkpt>
      <trkpt lat="43.53635" lon="1.11244">
        <ele>280.086976</ele>
        <time>2020-09-20T08:46:47.000Z</time>
      </trkpt>
      <trkpt lat="43.53643" lon="1.11236">
        <ele>280.509328</ele>
        <time>2020-09-20T08:46:50.000Z</time>
      </trkpt>
      <trkpt lat="43.5365" lon="1.11221">
        <ele>281.088519</ele>
        <time>2020-09-20T08:46:54.000Z</time>
      </trkpt>
      <trkpt lat="43.53652" lon="1.11212">
        <ele>281.38229</ele>
        <time>2020-09-20T08:46:56.000Z</time>
      </trkpt>
      <trkpt lat="43.53655" lon="1.11195">
        <ele>281.941765</ele>
        <time>2020-09-20T08:47:00.000Z</time>
      </trkpt>
      <trkpt lat="43.53654" lon="1.1119">
        <ele>282.090594</ele>
        <time>2020-09-20T08:47:01.000Z</time>
      </trkpt>
      <trkpt lat="43.53648" lon="1.11167">
        <ele>282.882425</ele>
        <time>2020-09-20T08:47:06.000Z</time>
      </trkpt>
      <trkpt lat="43.53646" lon="1.11158">
        <ele>283.177502</ele>
        <time>2020-09-20T08:47:08.000Z</time>
      </trkpt>
      <trkpt lat="43.53651" lon="1.11145">
        <ele>283.65059</ele>
        <time>2020-09-20T08:47:11.000Z</time>
      </trkpt>
      <trkpt lat="43.53664" lon="1.11113">
        <ele>284.806966</ele>
        <time>2020-09-20T08:47:18.000Z</time>
      </trkpt>
      <trkpt lat="43.53667" lon="1.11088">
        <ele>285.612477</ele>
        <time>2020-09-20T08:47:23.000Z</time>
      </trkpt>
      <trkpt lat="43.53675" lon="1.11083">
        <ele>286.006577</ele>
        <time>2020-09-20T08:47:26.000Z</time>
      </trkpt>
      <trkpt lat="43.53682" lon="1.11091">
        <ele>286.385002</ele>
        <time>2020-09-20T08:47:30.000Z</time>
      </trkpt>
      <trkpt lat="43.53682" lon="1.11096">
        <ele>286.5048</ele>
        <time>2020-09-20T08:47:31.000Z</time>
      </trkpt>
      <trkpt lat="43.53681" lon="1.11116">
        <ele>285.45996</ele>
        <time>2020-09-20T08:47:35.000Z</time>
      </trkpt>
      <trkpt lat="43.53681" lon="1.11136">
        <ele>284.431142</ele>
        <time>2020-09-20T08:47:39.000Z</time>
      </trkpt>
      <trkpt lat="43.53681" lon="1.11142">
        <ele>284.125062</ele>
        <time>2020-09-20T08:47:40.000Z</time>
      </trkpt>
      <trkpt lat="43.53678" lon="1.11168">
        <ele>282.798531</ele>
        <time>2020-09-20T08:47:44.000Z</time>
      </trkpt>
      <trkpt lat="43.53678" lon="1.11181">
        <ele>282.173763</ele>
        <time>2020-09-20T08:47:46.000Z</time>
      </trkpt>
      <trkpt lat="43.53679" lon="1.11186">
        <ele>281.915683</ele>
        <time>2020-09-20T08:47:47.000Z</time>
      </trkpt>
      <trkpt lat="43.5368" lon="1.11189">
        <ele>281.700966</ele>
        <time>2020-09-20T08:47:48.000Z</time>
      </trkpt>
      <trkpt lat="43.53687" lon="1.11194">
        <ele>281.179365</ele>
        <time>2020-09-20T08:47:50.000Z</time>
      </trkpt>
      <trkpt lat="43.53691" lon="1.11195">
        <ele>280.893191</ele>
        <time>2020-09-20T08:47:51.000Z</time>
      </trkpt>
      <trkpt lat="43.53694" lon="1.11197">
        <ele>280.661799</ele>
        <time>2020-09-20T08:47:52.000Z</time>
      </trkpt>
      <trkpt lat="43.53697" lon="1.112">
        <ele>280.420029</ele>
        <time>2020-09-20T08:47:53.000Z</time>
      </trkpt>
      <trkpt lat="43.53699" lon="1.11204">
        <ele>280.159964</ele>
        <time>2020-09-20T08:47:54.000Z</time>
      </trkpt>
      <trkpt lat="43.53702" lon="1.11207">
        <ele>279.900344</ele>
        <time>2020-09-20T08:47:55.000Z</time>
      </trkpt>
      <trkpt lat="43.53705" lon="1.11209">
        <ele>279.686096</ele>
        <time>2020-09-20T08:47:56.000Z</time>
      </trkpt>
      <trkpt lat="43.53711" lon="1.11211">
        <ele>279.240965</ele>
        <time>2020-09-20T08:47:58.000Z</time>
      </trkpt>
      <trkpt lat="43.53714" lon="1.11211">
        <ele>279.010264</ele>
        <time>2020-09-20T08:47:59.000Z</time>
      </trkpt>
      <trkpt lat="43.53716" lon="1.11211">
        <ele>278.856463</ele>
        <time>2020-09-20T08:48:00.000Z</time>
      </trkpt>
      <trkpt lat="43.53718" lon="1.1121">
        <ele>278.740549</ele>
        <time>2020-09-20T08:48:01.000Z</time>
      </trkpt>
      <trkpt lat="43.5372" lon="1.11208">
        <ele>278.569022</ele>
        <time>2020-09-20T08:48:02.000Z</time>
      </trkpt>
      <trkpt lat="43.53723" lon="1.11191">
        <ele>277.671469</ele>
        <time>2020-09-20T08:48:06.000Z</time>
      </trkpt>
      <trkpt lat="43.53724" lon="1.11187">
        <ele>277.441574</ele>
        <time>2020-09-20T08:48:07.000Z</time>
      </trkpt>
      <trkpt lat="43.53735" lon="1.11175">
        <ele>276.519192</ele>
        <time>2020-09-20T08:48:10.000Z</time>
      </trkpt>
      <trkpt lat="43.5374" lon="1.11173">
        <ele>276.150318</ele>
        <time>2020-09-20T08:48:11.000Z</time>
      </trkpt>
      <trkpt lat="43.53752" lon="1.11175">
        <ele>275.295715</ele>
        <time>2020-09-20T08:48:13.000Z</time>
      </trkpt>
      <trkpt lat="43.53756" lon="1.11181">
        <ele>274.891067</ele>
        <time>2020-09-20T08:48:14.000Z</time>
      </trkpt>
      <trkpt lat="43.53759" lon="1.11187">
        <ele>274.500242</ele>
        <time>2020-09-20T08:48:15.000Z</time>
      </trkpt>
      <trkpt lat="43.53772" lon="1.11195">
        <ele>274.321253</ele>
        <time>2020-09-20T08:48:18.000Z</time>
      </trkpt>
      <trkpt lat="43.53782" lon="1.11202">
        <ele>274.984067</ele>
        <time>2020-09-20T08:48:21.000Z</time>
      </trkpt>
      <trkpt lat="43.53787" lon="1.112">
        <ele>275.28353</ele>
        <time>2020-09-20T08:48:24.000Z</time>
      </trkpt>
      <trkpt lat="43.53791" lon="1.112">
        <ele>275.521455</ele>
        <time>2020-09-20T08:48:26.000Z</time>
      </trkpt>
      <trkpt lat="43.53793" lon="1.11202">
        <ele>275.662095</ele>
        <time>2020-09-20T08:48:27.000Z</time>
      </trkpt>
      <trkpt lat="43.538" lon="1.11213">
        <ele>276.267786</ele>
        <time>2020-09-20T08:48:30.000Z</time>
      </trkpt>
      <trkpt lat="43.53803" lon="1.11216">
        <ele>276.483361</ele>
        <time>2020-09-20T08:48:31.000Z</time>
      </trkpt>
      <trkpt lat="43.53808" lon="1.11217">
        <ele>276.82695</ele>
        <time>2020-09-20T08:48:33.000Z</time>
      </trkpt>
      <trkpt lat="43.5382" lon="1.11216">
        <ele>277.499323</ele>
        <time>2020-09-20T08:48:37.000Z</time>
      </trkpt>
      <trkpt lat="43.53824" lon="1.11213">
        <ele>277.810359</ele>
        <time>2020-09-20T08:48:39.000Z</time>
      </trkpt>
      <trkpt lat="43.53832" lon="1.11211">
        <ele>278.270738</ele>
        <time>2020-09-20T08:48:42.000Z</time>
      </trkpt>
      <trkpt lat="43.53834" lon="1.11211">
        <ele>278.425424</ele>
        <time>2020-09-20T08:48:43.000Z</time>
      </trkpt>
      <trkpt lat="43.53837" lon="1.11211">
        <ele>278.592</ele>
        <time>2020-09-20T08:48:45.000Z</time>
      </trkpt>
      <trkpt lat="43.53837" lon="1.11212">
        <ele>278.632583</ele>
        <time>2020-09-20T08:48:46.000Z</time>
      </trkpt>
      <trkpt lat="43.53842" lon="1.11212">
        <ele>278.888891</ele>
        <time>2020-09-20T08:49:55.000Z</time>
      </trkpt>
      <trkpt lat="43.53844" lon="1.11211">
        <ele>279.023164</ele>
        <time>2020-09-20T08:49:56.000Z</time>
      </trkpt>
      <trkpt lat="43.53845" lon="1.11211">
        <ele>279.108191</ele>
        <time>2020-09-20T08:49:57.000Z</time>
      </trkpt>
      <trkpt lat="43.53846" lon="1.1121">
        <ele>279.185675</ele>
        <time>2020-09-20T08:49:58.000Z</time>
      </trkpt>
      <trkpt lat="43.53853" lon="1.11205">
        <ele>279.627406</ele>
        <time>2020-09-20T08:50:02.000Z</time>
      </trkpt>
      <trkpt lat="43.5386" lon="1.11198">
        <ele>280.165949</ele>
        <time>2020-09-20T08:50:07.000Z</time>
      </trkpt>
      <trkpt lat="43.53864" lon="1.11197">
        <ele>280.415878</ele>
        <time>2020-09-20T08:50:09.000Z</time>
      </trkpt>
      <trkpt lat="43.53869" lon="1.112">
        <ele>280.698664</ele>
        <time>2020-09-20T08:50:11.000Z</time>
      </trkpt>
      <trkpt lat="43.53875" lon="1.112">
        <ele>281.067613</ele>
        <time>2020-09-20T08:50:13.000Z</time>
      </trkpt>
      <trkpt lat="43.53879" lon="1.11203">
        <ele>281.322145</ele>
        <time>2020-09-20T08:50:15.000Z</time>
      </trkpt>
      <trkpt lat="43.53881" lon="1.11203">
        <ele>281.440287</ele>
        <time>2020-09-20T08:50:16.000Z</time>
      </trkpt>
      <trkpt lat="43.53888" lon="1.11203">
        <ele>281.880903</ele>
        <time>2020-09-20T08:50:19.000Z</time>
      </trkpt>
      <trkpt lat="43.53896" lon="1.11206">
        <ele>282.341877</ele>
        <time>2020-09-20T08:50:22.000Z</time>
      </trkpt>
      <trkpt lat="43.53903" lon="1.11205">
        <ele>282.747408</ele>
        <time>2020-09-20T08:50:24.000Z</time>
      </trkpt>
      <trkpt lat="43.53906" lon="1.11204">
        <ele>282.957234</ele>
        <time>2020-09-20T08:50:25.000Z</time>
      </trkpt>
      <trkpt lat="43.53916" lon="1.11203">
        <ele>283.541074</ele>
        <time>2020-09-20T08:50:28.000Z</time>
      </trkpt>
      <trkpt lat="43.53923" lon="1.11199">
        <ele>284.021891</ele>
        <time>2020-09-20T08:50:31.000Z</time>
      </trkpt>
      <trkpt lat="43.53926" lon="1.11197">
        <ele>284.217717</ele>
        <time>2020-09-20T08:50:32.000Z</time>
      </trkpt>
      <trkpt lat="43.53928" lon="1.11195">
        <ele>284.369844</ele>
        <time>2020-09-20T08:50:33.000Z</time>
      </trkpt>
      <trkpt lat="43.53933" lon="1.11188">
        <ele>284.721878</ele>
        <time>2020-09-20T08:50:36.000Z</time>
      </trkpt>
      <trkpt lat="43.53933" lon="1.11186">
        <ele>284.78651</ele>
        <time>2020-09-20T08:50:37.000Z</time>
      </trkpt>
      <trkpt lat="43.53936" lon="1.11176">
        <ele>285.145881</ele>
        <time>2020-09-20T08:50:40.000Z</time>
      </trkpt>
      <trkpt lat="43.53939" lon="1.11169">
        <ele>285.418427</ele>
        <time>2020-09-20T08:50:42.000Z</time>
      </trkpt>
      <trkpt lat="43.53941" lon="1.11165">
        <ele>285.565543</ele>
        <time>2020-09-20T08:50:43.000Z</time>
      </trkpt>
      <trkpt lat="43.53942" lon="1.11162">
        <ele>285.701186</ele>
        <time>2020-09-20T08:50:44.000Z</time>
      </trkpt>
      <trkpt lat="43.53948" lon="1.11145">
        <ele>286.307497</ele>
        <time>2020-09-20T08:50:49.000Z</time>
      </trkpt>
      <trkpt lat="43.53956" lon="1.11132">
        <ele>286.839336</ele>
        <time>2020-09-20T08:50:53.000Z</time>
      </trkpt>
      <trkpt lat="43.53968" lon="1.11118">
        <ele>287.56637</ele>
        <time>2020-09-20T08:50:58.000Z</time>
      </trkpt>
      <trkpt lat="43.53976" lon="1.11115">
        <ele>287.952211</ele>
        <time>2020-09-20T08:51:01.000Z</time>
      </trkpt>
      <trkpt lat="43.53979" lon="1.11115">
        <ele>288.055858</ele>
        <time>2020-09-20T08:51:02.000Z</time>
      </trkpt>
      <trkpt lat="43.53981" lon="1.11116">
        <ele>288.164208</ele>
        <time>2020-09-20T08:51:03.000Z</time>
      </trkpt>
      <trkpt lat="43.53984" lon="1.11116">
        <ele>288.299439</ele>
        <time>2020-09-20T08:51:04.000Z</time>
      </trkpt>
      <trkpt lat="43.53987" lon="1.11116">
        <ele>288.43929</ele>
        <time>2020-09-20T08:51:05.000Z</time>
      </trkpt>
      <trkpt lat="43.53992" lon="1.11116">
        <ele>288.65312</ele>
        <time>2020-09-20T08:51:07.000Z</time>
      </trkpt>
      <trkpt lat="43.53999" lon="1.11118">
        <ele>288.960113</ele>
        <time>2020-09-20T08:51:10.000Z</time>
      </trkpt>
      <trkpt lat="43.54004" lon="1.1112">
        <ele>289.191336</ele>
        <time>2020-09-20T08:51:12.000Z</time>
      </trkpt>
      <trkpt lat="43.54006" lon="1.1112">
        <ele>289.290477</ele>
        <time>2020-09-20T08:51:13.000Z</time>
      </trkpt>
      <trkpt lat="43.54013" lon="1.11124">
        <ele>289.627131</ele>
        <time>2020-09-20T08:51:16.000Z</time>
      </trkpt>
      <trkpt lat="43.54019" lon="1.11128">
        <ele>289.93155</ele>
        <time>2020-09-20T08:51:19.000Z</time>
      </trkpt>
      <trkpt lat="43.54024" lon="1.11128">
        <ele>290.147955</ele>
        <time>2020-09-20T08:51:21.000Z</time>
      </trkpt>
      <trkpt lat="43.54032" lon="1.11135">
        <ele>290.590746</ele>
        <time>2020-09-20T08:51:25.000Z</time>
      </trkpt>
      <trkpt lat="43.54034" lon="1.11137">
        <ele>290.699686</ele>
        <time>2020-09-20T08:51:26.000Z</time>
      </trkpt>
      <trkpt lat="43.54042" lon="1.11145">
        <ele>291.144837</ele>
        <time>2020-09-20T08:51:29.000Z</time>
      </trkpt>
      <trkpt lat="43.54059" lon="1.1116">
        <ele>292.057564</ele>
        <time>2020-09-20T08:51:34.000Z</time>
      </trkpt>
      <trkpt lat="43.54067" lon="1.11168">
        <ele>292.499189</ele>
        <time>2020-09-20T08:51:36.000Z</time>
      </trkpt>
      <trkpt lat="43.54076" lon="1.11176">
        <ele>292.200583</ele>
        <time>2020-09-20T08:51:38.000Z</time>
      </trkpt>
      <trkpt lat="43.54083" lon="1.11181">
        <ele>291.289437</ele>
        <time>2020-09-20T08:51:40.000Z</time>
      </trkpt>
      <trkpt lat="43.54088" lon="1.11183">
        <ele>290.734543</ele>
        <time>2020-09-20T08:51:41.000Z</time>
      </trkpt>
      <trkpt lat="43.54094" lon="1.11185">
        <ele>290.154057</ele>
        <time>2020-09-20T08:51:42.000Z</time>
      </trkpt>
      <trkpt lat="43.54099" lon="1.11187">
        <ele>289.506682</ele>
        <time>2020-09-20T08:51:43.000Z</time>
      </trkpt>
      <trkpt lat="43.54105" lon="1.11191">
        <ele>288.855141</ele>
        <time>2020-09-20T08:51:44.000Z</time>
      </trkpt>
      <trkpt lat="43.5411" lon="1.11192">
        <ele>288.310754</ele>
        <time>2020-09-20T08:51:45.000Z</time>
      </trkpt>
      <trkpt lat="43.5412" lon="1.11192">
        <ele>287.240366</ele>
        <time>2020-09-20T08:51:47.000Z</time>
      </trkpt>
      <trkpt lat="43.54133" lon="1.11196">
        <ele>285.854695</ele>
        <time>2020-09-20T08:51:49.000Z</time>
      </trkpt>
      <trkpt lat="43.54136" lon="1.11201">
        <ele>285.374789</ele>
        <time>2020-09-20T08:51:50.000Z</time>
      </trkpt>
      <trkpt lat="43.54138" lon="1.11206">
        <ele>284.903204</ele>
        <time>2020-09-20T08:51:51.000Z</time>
      </trkpt>
      <trkpt lat="43.54142" lon="1.1121">
        <ele>284.343635</ele>
        <time>2020-09-20T08:51:52.000Z</time>
      </trkpt>
      <trkpt lat="43.54146" lon="1.11214">
        <ele>283.830552</ele>
        <time>2020-09-20T08:51:53.000Z</time>
      </trkpt>
      <trkpt lat="43.54149" lon="1.11222">
        <ele>283.125086</ele>
        <time>2020-09-20T08:51:55.000Z</time>
      </trkpt>
      <trkpt lat="43.5415" lon="1.11225">
        <ele>282.836223</ele>
        <time>2020-09-20T08:51:56.000Z</time>
      </trkpt>
      <trkpt lat="43.54152" lon="1.11227">
        <ele>282.575708</ele>
        <time>2020-09-20T08:51:57.000Z</time>
      </trkpt>
      <trkpt lat="43.54157" lon="1.11234">
        <ele>281.880261</ele>
        <time>2020-09-20T08:51:59.000Z</time>
      </trkpt>
      <trkpt lat="43.54159" lon="1.11239">
        <ele>281.363561</ele>
        <time>2020-09-20T08:52:00.000Z</time>
      </trkpt>
      <trkpt lat="43.54163" lon="1.11245">
        <ele>280.777223</ele>
        <time>2020-09-20T08:52:01.000Z</time>
      </trkpt>
      <trkpt lat="43.5417" lon="1.11256">
        <ele>279.657878</ele>
        <time>2020-09-20T08:52:03.000Z</time>
      </trkpt>
      <trkpt lat="43.54173" lon="1.11261">
        <ele>279.127673</ele>
        <time>2020-09-20T08:52:04.000Z</time>
      </trkpt>
      <trkpt lat="43.54175" lon="1.11266">
        <ele>278.666011</ele>
        <time>2020-09-20T08:52:05.000Z</time>
      </trkpt>
      <trkpt lat="43.54179" lon="1.11279">
        <ele>277.579548</ele>
        <time>2020-09-20T08:52:07.000Z</time>
      </trkpt>
      <trkpt lat="43.54182" lon="1.11295">
        <ele>276.278972</ele>
        <time>2020-09-20T08:52:09.000Z</time>
      </trkpt>
      <trkpt lat="43.54183" lon="1.11304">
        <ele>275.595797</ele>
        <time>2020-09-20T08:52:10.000Z</time>
      </trkpt>
      <trkpt lat="43.54184" lon="1.11313">
        <ele>274.880284</ele>
        <time>2020-09-20T08:52:11.000Z</time>
      </trkpt>
      <trkpt lat="43.54187" lon="1.11322">
        <ele>274.128938</ele>
        <time>2020-09-20T08:52:12.000Z</time>
      </trkpt>
      <trkpt lat="43.54189" lon="1.11331">
        <ele>273.422243</ele>
        <time>2020-09-20T08:52:13.000Z</time>
      </trkpt>
      <trkpt lat="43.54194" lon="1.11349">
        <ele>272.611538</ele>
        <time>2020-09-20T08:52:15.000Z</time>
      </trkpt>
      <trkpt lat="43.54201" lon="1.11367">
        <ele>271.781282</ele>
        <time>2020-09-20T08:52:17.000Z</time>
      </trkpt>
      <trkpt lat="43.54207" lon="1.11382">
        <ele>271.025537</ele>
        <time>2020-09-20T08:52:19.000Z</time>
      </trkpt>
      <trkpt lat="43.54211" lon="1.11389">
        <ele>270.647364</ele>
        <time>2020-09-20T08:52:20.000Z</time>
      </trkpt>
      <trkpt lat="43.54214" lon="1.11397">
        <ele>270.248489</ele>
        <time>2020-09-20T08:52:21.000Z</time>
      </trkpt>
      <trkpt lat="43.54217" lon="1.11405">
        <ele>269.895938</ele>
        <time>2020-09-20T08:52:22.000Z</time>
      </trkpt>
      <trkpt lat="43.54219" lon="1.11413">
        <ele>269.522574</ele>
        <time>2020-09-20T08:52:23.000Z</time>
      </trkpt>
      <trkpt lat="43.54224" lon="1.11428">
        <ele>268.80882</ele>
        <time>2020-09-20T08:52:25.000Z</time>
      </trkpt>
      <trkpt lat="43.54231" lon="1.11458">
        <ele>267.459149</ele>
        <time>2020-09-20T08:52:29.000Z</time>
      </trkpt>
      <trkpt lat="43.5423" lon="1.11467">
        <ele>267.089735</ele>
        <time>2020-09-20T08:52:30.000Z</time>
      </trkpt>
      <trkpt lat="43.5423" lon="1.11474">
        <ele>266.798511</ele>
        <time>2020-09-20T08:52:31.000Z</time>
      </trkpt>
      <trkpt lat="43.54231" lon="1.1148">
        <ele>266.514866</ele>
        <time>2020-09-20T08:52:32.000Z</time>
      </trkpt>
      <trkpt lat="43.54234" lon="1.11487">
        <ele>266.176582</ele>
        <time>2020-09-20T08:52:33.000Z</time>
      </trkpt>
      <trkpt lat="43.54242" lon="1.11504">
        <ele>265.32891</ele>
        <time>2020-09-20T08:52:35.000Z</time>
      </trkpt>
      <trkpt lat="43.54246" lon="1.11512">
        <ele>264.889792</ele>
        <time>2020-09-20T08:52:36.000Z</time>
      </trkpt>
      <trkpt lat="43.5425" lon="1.1152">
        <ele>264.470414</ele>
        <time>2020-09-20T08:52:37.000Z</time>
      </trkpt>
      <trkpt lat="43.54255" lon="1.11527">
        <ele>264.07421</ele>
        <time>2020-09-20T08:52:38.000Z</time>
      </trkpt>
      <trkpt lat="43.54269" lon="1.11545">
        <ele>262.93569</ele>
        <time>2020-09-20T08:52:41.000Z</time>
      </trkpt>
      <trkpt lat="43.54274" lon="1.11549">
        <ele>262.664903</ele>
        <time>2020-09-20T08:52:42.000Z</time>
      </trkpt>
      <trkpt lat="43.5428" lon="1.11552">
        <ele>262.38715</ele>
        <time>2020-09-20T08:52:43.000Z</time>
      </trkpt>
      <trkpt lat="43.54291" lon="1.1156">
        <ele>261.819991</ele>
        <time>2020-09-20T08:52:45.000Z</time>
      </trkpt>
      <trkpt lat="43.54301" lon="1.11568">
        <ele>261.331822</ele>
        <time>2020-09-20T08:52:47.000Z</time>
      </trkpt>
      <trkpt lat="43.54318" lon="1.1158">
        <ele>260.459146</ele>
        <time>2020-09-20T08:52:51.000Z</time>
      </trkpt>
      <trkpt lat="43.54324" lon="1.11585">
        <ele>260.165886</ele>
        <time>2020-09-20T08:52:52.000Z</time>
      </trkpt>
      <trkpt lat="43.54339" lon="1.11603">
        <ele>259.271731</ele>
        <time>2020-09-20T08:52:55.000Z</time>
      </trkpt>
      <trkpt lat="43.54344" lon="1.1161">
        <ele>258.957256</ele>
        <time>2020-09-20T08:52:56.000Z</time>
      </trkpt>
      <trkpt lat="43.54355" lon="1.1162">
        <ele>258.383746</ele>
        <time>2020-09-20T08:52:58.000Z</time>
      </trkpt>
      <trkpt lat="43.54366" lon="1.11626">
        <ele>257.823432</ele>
        <time>2020-09-20T08:53:00.000Z</time>
      </trkpt>
      <trkpt lat="43.54368" lon="1.11635">
        <ele>257.530826</ele>
        <time>2020-09-20T08:53:02.000Z</time>
      </trkpt>
      <trkpt lat="43.54368" lon="1.1164">
        <ele>257.373865</ele>
        <time>2020-09-20T08:53:03.000Z</time>
      </trkpt>
      <trkpt lat="43.5437" lon="1.11645">
        <ele>257.184419</ele>
        <time>2020-09-20T08:53:04.000Z</time>
      </trkpt>
      <trkpt lat="43.54372" lon="1.11649">
        <ele>257.026105</ele>
        <time>2020-09-20T08:53:05.000Z</time>
      </trkpt>
      <trkpt lat="43.54374" lon="1.11652">
        <ele>256.894703</ele>
        <time>2020-09-20T08:53:06.000Z</time>
      </trkpt>
      <trkpt lat="43.54381" lon="1.11659">
        <ele>256.493779</ele>
        <time>2020-09-20T08:53:08.000Z</time>
      </trkpt>
      <trkpt lat="43.54392" lon="1.11668">
        <ele>255.966615</ele>
        <time>2020-09-20T08:53:10.000Z</time>
      </trkpt>
      <trkpt lat="43.54401" lon="1.11675">
        <ele>255.473826</ele>
        <time>2020-09-20T08:53:12.000Z</time>
      </trkpt>
      <trkpt lat="43.54412" lon="1.11682">
        <ele>254.960092</ele>
        <time>2020-09-20T08:53:14.000Z</time>
      </trkpt>
      <trkpt lat="43.54418" lon="1.11687">
        <ele>255.064124</ele>
        <time>2020-09-20T08:53:15.000Z</time>
      </trkpt>
      <trkpt lat="43.54425" lon="1.1169">
        <ele>255.357142</ele>
        <time>2020-09-20T08:53:16.000Z</time>
      </trkpt>
      <trkpt lat="43.54443" lon="1.11703">
        <ele>256.139923</ele>
        <time>2020-09-20T08:53:19.000Z</time>
      </trkpt>
      <trkpt lat="43.54451" lon="1.11708">
        <ele>256.472698</ele>
        <time>2020-09-20T08:53:21.000Z</time>
      </trkpt>
      <trkpt lat="43.54454" lon="1.11708">
        <ele>256.58341</ele>
        <time>2020-09-20T08:53:22.000Z</time>
      </trkpt>
      <trkpt lat="43.54467" lon="1.11705">
        <ele>257.066048</ele>
        <time>2020-09-20T08:53:26.000Z</time>
      </trkpt>
      <trkpt lat="43.54469" lon="1.11702">
        <ele>257.172294</ele>
        <time>2020-09-20T08:53:27.000Z</time>
      </trkpt>
      <trkpt lat="43.54474" lon="1.11698">
        <ele>257.389387</ele>
        <time>2020-09-20T08:53:29.000Z</time>
      </trkpt>
      <trkpt lat="43.54487" lon="1.1169">
        <ele>257.954017</ele>
        <time>2020-09-20T08:53:33.000Z</time>
      </trkpt>
      <trkpt lat="43.5449" lon="1.11688">
        <ele>258.079388</ele>
        <time>2020-09-20T08:53:34.000Z</time>
      </trkpt>
      <trkpt lat="43.54493" lon="1.11682">
        <ele>258.273304</ele>
        <time>2020-09-20T08:53:36.000Z</time>
      </trkpt>
      <trkpt lat="43.54497" lon="1.11672">
        <ele>258.583999</ele>
        <time>2020-09-20T08:53:39.000Z</time>
      </trkpt>
      <trkpt lat="43.54498" lon="1.1167">
        <ele>258.659829</ele>
        <time>2020-09-20T08:53:40.000Z</time>
      </trkpt>
      <trkpt lat="43.54499" lon="1.11663">
        <ele>258.846277</ele>
        <time>2020-09-20T08:53:43.000Z</time>
      </trkpt>
      <trkpt lat="43.545" lon="1.1166">
        <ele>258.9308</ele>
        <time>2020-09-20T08:53:44.000Z</time>
      </trkpt>
      <trkpt lat="43.54502" lon="1.11653">
        <ele>259.140945</ele>
        <time>2020-09-20T08:53:46.000Z</time>
      </trkpt>
      <trkpt lat="43.54505" lon="1.11643">
        <ele>259.431385</ele>
        <time>2020-09-20T08:53:49.000Z</time>
      </trkpt>
      <trkpt lat="43.54506" lon="1.11641">
        <ele>259.518834</ele>
        <time>2020-09-20T08:53:50.000Z</time>
      </trkpt>
      <trkpt lat="43.54512" lon="1.11628">
        <ele>259.941549</ele>
        <time>2020-09-20T08:53:54.000Z</time>
      </trkpt>
      <trkpt lat="43.54513" lon="1.11625">
        <ele>260.032852</ele>
        <time>2020-09-20T08:53:55.000Z</time>
      </trkpt>
      <trkpt lat="43.54516" lon="1.11619">
        <ele>260.22288</ele>
        <time>2020-09-20T08:53:57.000Z</time>
      </trkpt>
      <trkpt lat="43.54518" lon="1.11613">
        <ele>260.415293</ele>
        <time>2020-09-20T08:53:59.000Z</time>
      </trkpt>
      <trkpt lat="43.5452" lon="1.11609">
        <ele>260.526594</ele>
        <time>2020-09-20T08:54:00.000Z</time>
      </trkpt>
      <trkpt lat="43.54522" lon="1.11603">
        <ele>260.715443</ele>
        <time>2020-09-20T08:54:02.000Z</time>
      </trkpt>
      <trkpt lat="43.54523" lon="1.11598">
        <ele>260.862672</ele>
        <time>2020-09-20T08:54:04.000Z</time>
      </trkpt>
      <trkpt lat="43.54524" lon="1.11595">
        <ele>260.94064</ele>
        <time>2020-09-20T08:54:05.000Z</time>
      </trkpt>
      <trkpt lat="43.54526" lon="1.11593">
        <ele>261.031737</ele>
        <time>2020-09-20T08:54:06.000Z</time>
      </trkpt>
      <trkpt lat="43.54528" lon="1.11591">
        <ele>261.120726</ele>
        <time>2020-09-20T08:54:07.000Z</time>
      </trkpt>
      <trkpt lat="43.54535" lon="1.11586">
        <ele>261.42987</ele>
        <time>2020-09-20T08:54:10.000Z</time>
      </trkpt>
      <trkpt lat="43.54539" lon="1.1158">
        <ele>261.660401</ele>
        <time>2020-09-20T08:54:12.000Z</time>
      </trkpt>
      <trkpt lat="43.54547" lon="1.11573">
        <ele>261.509297</ele>
        <time>2020-09-20T08:54:15.000Z</time>
      </trkpt>
      <trkpt lat="43.54557" lon="1.11568">
        <ele>261.276751</ele>
        <time>2020-09-20T08:54:18.000Z</time>
      </trkpt>
      <trkpt lat="43.54559" lon="1.11565">
        <ele>261.22029</ele>
        <time>2020-09-20T08:54:19.000Z</time>
      </trkpt>
      <trkpt lat="43.54561" lon="1.11558">
        <ele>261.096916</ele>
        <time>2020-09-20T08:54:21.000Z</time>
      </trkpt>
      <trkpt lat="43.54571" lon="1.11549">
        <ele>260.858142</ele>
        <time>2020-09-20T08:54:25.000Z</time>
      </trkpt>
      <trkpt lat="43.54574" lon="1.11546">
        <ele>260.778937</ele>
        <time>2020-09-20T08:54:26.000Z</time>
      </trkpt>
      <trkpt lat="43.54579" lon="1.11535">
        <ele>260.575807</ele>
        <time>2020-09-20T08:54:29.000Z</time>
      </trkpt>
      <trkpt lat="43.54587" lon="1.11523">
        <ele>260.324268</ele>
        <time>2020-09-20T08:54:32.000Z</time>
      </trkpt>
      <trkpt lat="43.54599" lon="1.11504">
        <ele>259.942889</ele>
        <time>2020-09-20T08:54:36.000Z</time>
      </trkpt>
      <trkpt lat="43.54601" lon="1.11499">
        <ele>259.861074</ele>
        <time>2020-09-20T08:54:37.000Z</time>
      </trkpt>
      <trkpt lat="43.54612" lon="1.11491">
        <ele>259.582413</ele>
        <time>2020-09-20T08:54:40.000Z</time>
      </trkpt>
      <trkpt lat="43.54622" lon="1.11478">
        <ele>259.297603</ele>
        <time>2020-09-20T08:54:43.000Z</time>
      </trkpt>
      <trkpt lat="43.54633" lon="1.11465">
        <ele>258.988032</ele>
        <time>2020-09-20T08:54:46.000Z</time>
      </trkpt>
      <trkpt lat="43.54638" lon="1.11456">
        <ele>258.813414</ele>
        <time>2020-09-20T08:54:48.000Z</time>
      </trkpt>
      <trkpt lat="43.54637" lon="1.11452">
        <ele>258.743909</ele>
        <time>2020-09-20T08:54:49.000Z</time>
      </trkpt>
      <trkpt lat="43.54644" lon="1.11433">
        <ele>258.416827</ele>
        <time>2020-09-20T08:54:53.000Z</time>
      </trkpt>
      <trkpt lat="43.54651" lon="1.11421">
        <ele>258.185867</ele>
        <time>2020-09-20T08:54:55.000Z</time>
      </trkpt>
      <trkpt lat="43.54659" lon="1.11411">
        <ele>257.946922</ele>
        <time>2020-09-20T08:54:57.000Z</time>
      </trkpt>
      <trkpt lat="43.54666" lon="1.11403">
        <ele>257.409817</ele>
        <time>2020-09-20T08:54:59.000Z</time>
      </trkpt>
      <trkpt lat="43.54669" lon="1.11399">
        <ele>257.049485</ele>
        <time>2020-09-20T08:55:00.000Z</time>
      </trkpt>
      <trkpt lat="43.54678" lon="1.11396">
        <ele>256.297592</ele>
        <time>2020-09-20T08:55:03.000Z</time>
      </trkpt>
      <trkpt lat="43.54691" lon="1.11399">
        <ele>255.220106</ele>
        <time>2020-09-20T08:55:07.000Z</time>
      </trkpt>
      <trkpt lat="43.54695" lon="1.11396">
        <ele>254.865275</ele>
        <time>2020-09-20T08:55:08.000Z</time>
      </trkpt>
      <trkpt lat="43.547" lon="1.11395">
        <ele>254.475266</ele>
        <time>2020-09-20T08:55:09.000Z</time>
      </trkpt>
      <trkpt lat="43.54704" lon="1.11394">
        <ele>254.086312</ele>
        <time>2020-09-20T08:55:10.000Z</time>
      </trkpt>
      <trkpt lat="43.5471" lon="1.11394">
        <ele>253.615656</ele>
        <time>2020-09-20T08:55:11.000Z</time>
      </trkpt>
      <trkpt lat="43.54715" lon="1.11394">
        <ele>253.186223</ele>
        <time>2020-09-20T08:55:12.000Z</time>
      </trkpt>
      <trkpt lat="43.5472" lon="1.11395">
        <ele>252.789042</ele>
        <time>2020-09-20T08:55:13.000Z</time>
      </trkpt>
      <trkpt lat="43.54724" lon="1.11394">
        <ele>252.474006</ele>
        <time>2020-09-20T08:55:14.000Z</time>
      </trkpt>
      <trkpt lat="43.5473" lon="1.11387">
        <ele>251.838948</ele>
        <time>2020-09-20T08:55:16.000Z</time>
      </trkpt>
      <trkpt lat="43.54733" lon="1.11386">
        <ele>251.571609</ele>
        <time>2020-09-20T08:55:17.000Z</time>
      </trkpt>
      <trkpt lat="43.54744" lon="1.11383">
        <ele>250.662867</ele>
        <time>2020-09-20T08:55:20.000Z</time>
      </trkpt>
      <trkpt lat="43.54749" lon="1.1138">
        <ele>250.253353</ele>
        <time>2020-09-20T08:55:21.000Z</time>
      </trkpt>
      <trkpt lat="43.54753" lon="1.11379">
        <ele>249.860966</ele>
        <time>2020-09-20T08:55:22.000Z</time>
      </trkpt>
      <trkpt lat="43.54764" lon="1.11377">
        <ele>248.947214</ele>
        <time>2020-09-20T08:55:24.000Z</time>
      </trkpt>
      <trkpt lat="43.54768" lon="1.11378">
        <ele>248.576444</ele>
        <time>2020-09-20T08:55:25.000Z</time>
      </trkpt>
      <trkpt lat="43.54773" lon="1.11381">
        <ele>248.188212</ele>
        <time>2020-09-20T08:55:26.000Z</time>
      </trkpt>
      <trkpt lat="43.54777" lon="1.11383">
        <ele>247.835859</ele>
        <time>2020-09-20T08:55:27.000Z</time>
      </trkpt>
      <trkpt lat="43.54781" lon="1.11385">
        <ele>247.436426</ele>
        <time>2020-09-20T08:55:28.000Z</time>
      </trkpt>
      <trkpt lat="43.54786" lon="1.11383">
        <ele>247.020937</ele>
        <time>2020-09-20T08:55:29.000Z</time>
      </trkpt>
      <trkpt lat="43.5479" lon="1.1138">
        <ele>246.660904</ele>
        <time>2020-09-20T08:55:30.000Z</time>
      </trkpt>
      <trkpt lat="43.54794" lon="1.11379">
        <ele>246.367142</ele>
        <time>2020-09-20T08:55:31.000Z</time>
      </trkpt>
      <trkpt lat="43.54801" lon="1.1138">
        <ele>245.768742</ele>
        <time>2020-09-20T08:55:33.000Z</time>
      </trkpt>
      <trkpt lat="43.54804" lon="1.1138">
        <ele>245.496389</ele>
        <time>2020-09-20T08:55:34.000Z</time>
      </trkpt>
      <trkpt lat="43.54815" lon="1.1138">
        <ele>244.638252</ele>
        <time>2020-09-20T08:55:37.000Z</time>
      </trkpt>
      <trkpt lat="43.54819" lon="1.11381">
        <ele>244.306855</ele>
        <time>2020-09-20T08:55:38.000Z</time>
      </trkpt>
      <trkpt lat="43.54826" lon="1.11385">
        <ele>243.646627</ele>
        <time>2020-09-20T08:55:40.000Z</time>
      </trkpt>
      <trkpt lat="43.5483" lon="1.11387">
        <ele>243.316728</ele>
        <time>2020-09-20T08:55:41.000Z</time>
      </trkpt>
      <trkpt lat="43.54832" lon="1.11387">
        <ele>243.149018</ele>
        <time>2020-09-20T08:55:42.000Z</time>
      </trkpt>
      <trkpt lat="43.54834" lon="1.11382">
        <ele>242.966781</ele>
        <time>2020-09-20T08:55:44.000Z</time>
      </trkpt>
      <trkpt lat="43.54836" lon="1.11376">
        <ele>242.871243</ele>
        <time>2020-09-20T08:55:46.000Z</time>
      </trkpt>
      <trkpt lat="43.54837" lon="1.11368">
        <ele>242.752874</ele>
        <time>2020-09-20T08:55:49.000Z</time>
      </trkpt>
      <trkpt lat="43.54838" lon="1.11367">
        <ele>242.728673</ele>
        <time>2020-09-20T08:55:51.000Z</time>
      </trkpt>
      <trkpt lat="43.54838" lon="1.11368">
        <ele>242.707568</ele>
        <time>2020-09-20T08:55:53.000Z</time>
      </trkpt>
      <trkpt lat="43.54844" lon="1.11358">
        <ele>242.517603</ele>
        <time>2020-09-20T08:59:54.000Z</time>
      </trkpt>
      <trkpt lat="43.54844" lon="1.11355">
        <ele>242.477202</ele>
        <time>2020-09-20T08:59:55.000Z</time>
      </trkpt>
      <trkpt lat="43.54844" lon="1.11352">
        <ele>242.430466</ele>
        <time>2020-09-20T08:59:56.000Z</time>
      </trkpt>
      <trkpt lat="43.54845" lon="1.11349">
        <ele>242.378173</ele>
        <time>2020-09-20T08:59:57.000Z</time>
      </trkpt>
      <trkpt lat="43.54846" lon="1.11326">
        <ele>242.042871</ele>
        <time>2020-09-20T09:00:02.000Z</time>
      </trkpt>
      <trkpt lat="43.54846" lon="1.11301">
        <ele>241.666203</ele>
        <time>2020-09-20T09:00:07.000Z</time>
      </trkpt>
      <trkpt lat="43.54845" lon="1.11284">
        <ele>241.411752</ele>
        <time>2020-09-20T09:00:10.000Z</time>
      </trkpt>
      <trkpt lat="43.54844" lon="1.11273">
        <ele>241.241635</ele>
        <time>2020-09-20T09:00:12.000Z</time>
      </trkpt>
      <trkpt lat="43.54842" lon="1.11261">
        <ele>241.05326</ele>
        <time>2020-09-20T09:00:14.000Z</time>
      </trkpt>
      <trkpt lat="43.5484" lon="1.1124">
        <ele>240.741791</ele>
        <time>2020-09-20T09:00:17.000Z</time>
      </trkpt>
      <trkpt lat="43.54839" lon="1.11233">
        <ele>240.631389</ele>
        <time>2020-09-20T09:00:18.000Z</time>
      </trkpt>
      <trkpt lat="43.54837" lon="1.1121">
        <ele>240.287965</ele>
        <time>2020-09-20T09:00:21.000Z</time>
      </trkpt>
      <trkpt lat="43.54837" lon="1.11202">
        <ele>240.165804</ele>
        <time>2020-09-20T09:00:22.000Z</time>
      </trkpt>
      <trkpt lat="43.54835" lon="1.11177">
        <ele>239.799499</ele>
        <time>2020-09-20T09:00:25.000Z</time>
      </trkpt>
      <trkpt lat="43.54834" lon="1.11155">
        <ele>239.460868</ele>
        <time>2020-09-20T09:00:28.000Z</time>
      </trkpt>
      <trkpt lat="43.54834" lon="1.11147">
        <ele>239.345783</ele>
        <time>2020-09-20T09:00:29.000Z</time>
      </trkpt>
      <trkpt lat="43.54834" lon="1.11115">
        <ele>239.33374</ele>
        <time>2020-09-20T09:00:33.000Z</time>
      </trkpt>
      <trkpt lat="43.54835" lon="1.11106">
        <ele>239.337204</ele>
        <time>2020-09-20T09:00:34.000Z</time>
      </trkpt>
      <trkpt lat="43.54836" lon="1.11069">
        <ele>239.351233</ele>
        <time>2020-09-20T09:00:38.000Z</time>
      </trkpt>
      <trkpt lat="43.54823" lon="1.11041">
        <ele>239.363662</ele>
        <time>2020-09-20T09:00:42.000Z</time>
      </trkpt>
      <trkpt lat="43.5481" lon="1.11008">
        <ele>239.377999</ele>
        <time>2020-09-20T09:00:47.000Z</time>
      </trkpt>
      <trkpt lat="43.54806" lon="1.10994">
        <ele>239.383593</ele>
        <time>2020-09-20T09:00:49.000Z</time>
      </trkpt>
      <trkpt lat="43.54801" lon="1.10973">
        <ele>239.391819</ele>
        <time>2020-09-20T09:00:52.000Z</time>
      </trkpt>
      <trkpt lat="43.54797" lon="1.10954">
        <ele>239.399457</ele>
        <time>2020-09-20T09:00:55.000Z</time>
      </trkpt>
      <trkpt lat="43.54792" lon="1.10944">
        <ele>239.403987</ele>
        <time>2020-09-20T09:00:57.000Z</time>
      </trkpt>
      <trkpt lat="43.5479" lon="1.10939">
        <ele>239.406154</ele>
        <time>2020-09-20T09:00:58.000Z</time>
      </trkpt>
      <trkpt lat="43.54786" lon="1.1092">
        <ele>239.413581</ele>
        <time>2020-09-20T09:01:01.000Z</time>
      </trkpt>
      <trkpt lat="43.54781" lon="1.10908">
        <ele>239.477019</ele>
        <time>2020-09-20T09:01:03.000Z</time>
      </trkpt>
      <trkpt lat="43.54774" lon="1.10898">
        <ele>239.592264</ele>
        <time>2020-09-20T09:01:05.000Z</time>
      </trkpt>
      <trkpt lat="43.5477" lon="1.10893">
        <ele>239.651637</ele>
        <time>2020-09-20T09:01:06.000Z</time>
      </trkpt>
      <trkpt lat="43.54766" lon="1.10887">
        <ele>239.711009</ele>
        <time>2020-09-20T09:01:07.000Z</time>
      </trkpt>
      <trkpt lat="43.54762" lon="1.10876">
        <ele>239.817502</ele>
        <time>2020-09-20T09:01:09.000Z</time>
      </trkpt>
      <trkpt lat="43.54761" lon="1.1087">
        <ele>239.871873</ele>
        <time>2020-09-20T09:01:10.000Z</time>
      </trkpt>
      <trkpt lat="43.54761" lon="1.10841">
        <ele>240.104082</ele>
        <time>2020-09-20T09:01:14.000Z</time>
      </trkpt>
      <trkpt lat="43.54753" lon="1.10825">
        <ele>240.262327</ele>
        <time>2020-09-20T09:01:17.000Z</time>
      </trkpt>
      <trkpt lat="43.54746" lon="1.10815">
        <ele>240.380304</ele>
        <time>2020-09-20T09:01:19.000Z</time>
      </trkpt>
      <trkpt lat="43.54735" lon="1.10798">
        <ele>240.564</ele>
        <time>2020-09-20T09:01:22.000Z</time>
      </trkpt>
      <trkpt lat="43.54715" lon="1.10773">
        <ele>240.863111</ele>
        <time>2020-09-20T09:01:27.000Z</time>
      </trkpt>
      <trkpt lat="43.54712" lon="1.10767">
        <ele>240.924448</ele>
        <time>2020-09-20T09:01:28.000Z</time>
      </trkpt>
      <trkpt lat="43.54709" lon="1.10762">
        <ele>240.980043</ele>
        <time>2020-09-20T09:01:29.000Z</time>
      </trkpt>
      <trkpt lat="43.54705" lon="1.10741">
        <ele>241.155271</ele>
        <time>2020-09-20T09:01:32.000Z</time>
      </trkpt>
      <trkpt lat="43.54699" lon="1.10712">
        <ele>241.403976</ele>
        <time>2020-09-20T09:01:36.000Z</time>
      </trkpt>
      <trkpt lat="43.54695" lon="1.107">
        <ele>241.475133</ele>
        <time>2020-09-20T09:01:38.000Z</time>
      </trkpt>
      <trkpt lat="43.54688" lon="1.10675">
        <ele>241.576512</ele>
        <time>2020-09-20T09:01:42.000Z</time>
      </trkpt>
      <trkpt lat="43.54686" lon="1.10667">
        <ele>241.605666</ele>
        <time>2020-09-20T09:01:43.000Z</time>
      </trkpt>
      <trkpt lat="43.5467" lon="1.10616">
        <ele>241.812377</ele>
        <time>2020-09-20T09:01:50.000Z</time>
      </trkpt>
      <trkpt lat="43.54656" lon="1.10572">
        <ele>241.992646</ele>
        <time>2020-09-20T09:01:56.000Z</time>
      </trkpt>
      <trkpt lat="43.54633" lon="1.10509">
        <ele>242.257028</ele>
        <time>2020-09-20T09:02:05.000Z</time>
      </trkpt>
      <trkpt lat="43.54621" lon="1.10473">
        <ele>242.50104</ele>
        <time>2020-09-20T09:02:10.000Z</time>
      </trkpt>
      <trkpt lat="43.54613" lon="1.10453">
        <ele>242.85761</ele>
        <time>2020-09-20T09:02:13.000Z</time>
      </trkpt>
      <trkpt lat="43.54606" lon="1.10432">
        <ele>243.217551</ele>
        <time>2020-09-20T09:02:16.000Z</time>
      </trkpt>
      <trkpt lat="43.54604" lon="1.10416">
        <ele>243.45453</ele>
        <time>2020-09-20T09:02:18.000Z</time>
      </trkpt>
      <trkpt lat="43.54603" lon="1.10401">
        <ele>243.687472</ele>
        <time>2020-09-20T09:02:20.000Z</time>
      </trkpt>
      <trkpt lat="43.54604" lon="1.10371">
        <ele>244.154887</ele>
        <time>2020-09-20T09:02:24.000Z</time>
      </trkpt>
      <trkpt lat="43.54604" lon="1.10363">
        <ele>244.271358</ele>
        <time>2020-09-20T09:02:25.000Z</time>
      </trkpt>
      <trkpt lat="43.54605" lon="1.10356">
        <ele>244.383874</ele>
        <time>2020-09-20T09:02:26.000Z</time>
      </trkpt>
      <trkpt lat="43.54608" lon="1.10342">
        <ele>244.608928</ele>
        <time>2020-09-20T09:02:28.000Z</time>
      </trkpt>
      <trkpt lat="43.5461" lon="1.10334">
        <ele>244.727016</ele>
        <time>2020-09-20T09:02:29.000Z</time>
      </trkpt>
      <trkpt lat="43.54612" lon="1.10327">
        <ele>244.846171</ele>
        <time>2020-09-20T09:02:30.000Z</time>
      </trkpt>
      <trkpt lat="43.54613" lon="1.10305">
        <ele>245.181966</ele>
        <time>2020-09-20T09:02:33.000Z</time>
      </trkpt>
      <trkpt lat="43.54614" lon="1.10298">
        <ele>245.294263</ele>
        <time>2020-09-20T09:02:34.000Z</time>
      </trkpt>
      <trkpt lat="43.54616" lon="1.10261">
        <ele>245.863576</ele>
        <time>2020-09-20T09:02:39.000Z</time>
      </trkpt>
      <trkpt lat="43.54619" lon="1.10226">
        <ele>246.408953</ele>
        <time>2020-09-20T09:02:44.000Z</time>
      </trkpt>
      <trkpt lat="43.5462" lon="1.10199">
        <ele>246.826667</ele>
        <time>2020-09-20T09:02:48.000Z</time>
      </trkpt>
      <trkpt lat="43.54623" lon="1.1018">
        <ele>247.132602</ele>
        <time>2020-09-20T09:02:51.000Z</time>
      </trkpt>
      <trkpt lat="43.54626" lon="1.10167">
        <ele>247.344276</ele>
        <time>2020-09-20T09:02:53.000Z</time>
      </trkpt>
      <trkpt lat="43.54629" lon="1.10157">
        <ele>247.506205</ele>
        <time>2020-09-20T09:02:55.000Z</time>
      </trkpt>
      <trkpt lat="43.54627" lon="1.10154">
        <ele>247.579393</ele>
        <time>2020-09-20T09:02:58.000Z</time>
      </trkpt>
      <trkpt lat="43.54627" lon="1.10164">
        <ele>247.738356</ele>
        <time>2020-09-20T09:03:01.000Z</time>
      </trkpt>
      <trkpt lat="43.54625" lon="1.10187">
        <ele>248.10776</ele>
        <time>2020-09-20T09:03:05.000Z</time>
      </trkpt>
      <trkpt lat="43.54626" lon="1.10192">
        <ele>248.177965</ele>
        <time>2020-09-20T09:03:06.000Z</time>
      </trkpt>
      <trkpt lat="43.54636" lon="1.10197">
        <ele>248.407439</ele>
        <time>2020-09-20T09:03:09.000Z</time>
      </trkpt>
      <trkpt lat="43.54655" lon="1.10205">
        <ele>248.830457</ele>
        <time>2020-09-20T09:03:13.000Z</time>
      </trkpt>
      <trkpt lat="43.54659" lon="1.10208">
        <ele>248.936598</ele>
        <time>2020-09-20T09:03:14.000Z</time>
      </trkpt>
      <trkpt lat="43.54664" lon="1.1021">
        <ele>249.042341</ele>
        <time>2020-09-20T09:03:15.000Z</time>
      </trkpt>
      <trkpt lat="43.54673" lon="1.10215">
        <ele>249.256366</ele>
        <time>2020-09-20T09:03:17.000Z</time>
      </trkpt>
      <trkpt lat="43.54683" lon="1.10218">
        <ele>249.470683</ele>
        <time>2020-09-20T09:03:19.000Z</time>
      </trkpt>
      <trkpt lat="43.54693" lon="1.10222">
        <ele>249.684586</ele>
        <time>2020-09-20T09:03:21.000Z</time>
      </trkpt>
      <trkpt lat="43.54728" lon="1.10237">
        <ele>250.196341</ele>
        <time>2020-09-20T09:03:28.000Z</time>
      </trkpt>
      <trkpt lat="43.54765" lon="1.10253">
        <ele>250.500855</ele>
        <time>2020-09-20T09:03:35.000Z</time>
      </trkpt>
      <trkpt lat="43.54775" lon="1.10258">
        <ele>250.588976</ele>
        <time>2020-09-20T09:03:37.000Z</time>
      </trkpt>
      <trkpt lat="43.5479" lon="1.10265">
        <ele>250.712162</ele>
        <time>2020-09-20T09:03:40.000Z</time>
      </trkpt>
      <trkpt lat="43.54795" lon="1.10267">
        <ele>250.749715</ele>
        <time>2020-09-20T09:03:41.000Z</time>
      </trkpt>
      <trkpt lat="43.54815" lon="1.10277">
        <ele>250.917463</ele>
        <time>2020-09-20T09:03:46.000Z</time>
      </trkpt>
      <trkpt lat="43.54821" lon="1.10281">
        <ele>250.972487</ele>
        <time>2020-09-20T09:03:48.000Z</time>
      </trkpt>
      <trkpt lat="43.54823" lon="1.10284">
        <ele>250.996026</ele>
        <time>2020-09-20T09:03:49.000Z</time>
      </trkpt>
      <trkpt lat="43.54825" lon="1.10293">
        <ele>251.046964</ele>
        <time>2020-09-20T09:03:51.000Z</time>
      </trkpt>
      <trkpt lat="43.54823" lon="1.10303">
        <ele>251.107107</ele>
        <time>2020-09-20T09:03:53.000Z</time>
      </trkpt>
      <trkpt lat="43.5482" lon="1.10316">
        <ele>251.18294</ele>
        <time>2020-09-20T09:03:55.000Z</time>
      </trkpt>
      <trkpt lat="43.54812" lon="1.10348">
        <ele>251.377041</ele>
        <time>2020-09-20T09:03:59.000Z</time>
      </trkpt>
      <trkpt lat="43.54805" lon="1.10373">
        <ele>251.488044</ele>
        <time>2020-09-20T09:04:02.000Z</time>
      </trkpt>
      <trkpt lat="43.54803" lon="1.10388">
        <ele>251.528921</ele>
        <time>2020-09-20T09:04:04.000Z</time>
      </trkpt>
      <trkpt lat="43.54807" lon="1.10398">
        <ele>251.561157</ele>
        <time>2020-09-20T09:04:06.000Z</time>
      </trkpt>
      <trkpt lat="43.54811" lon="1.10401">
        <ele>251.578347</ele>
        <time>2020-09-20T09:04:07.000Z</time>
      </trkpt>
      <trkpt lat="43.54824" lon="1.10406">
        <ele>251.632099</ele>
        <time>2020-09-20T09:04:10.000Z</time>
      </trkpt>
      <trkpt lat="43.54858" lon="1.10414">
        <ele>251.765781</ele>
        <time>2020-09-20T09:04:17.000Z</time>
      </trkpt>
      <trkpt lat="43.54876" lon="1.10419">
        <ele>251.839313</ele>
        <time>2020-09-20T09:04:21.000Z</time>
      </trkpt>
      <trkpt lat="43.54885" lon="1.10415">
        <ele>251.87287</ele>
        <time>2020-09-20T09:04:23.000Z</time>
      </trkpt>
      <trkpt lat="43.54888" lon="1.10411">
        <ele>251.890392</ele>
        <time>2020-09-20T09:04:24.000Z</time>
      </trkpt>
      <trkpt lat="43.54892" lon="1.10399">
        <ele>251.928095</ele>
        <time>2020-09-20T09:04:26.000Z</time>
      </trkpt>
      <trkpt lat="43.54895" lon="1.10386">
        <ele>251.967109</ele>
        <time>2020-09-20T09:04:28.000Z</time>
      </trkpt>
      <trkpt lat="43.54897" lon="1.10379">
        <ele>251.985868</ele>
        <time>2020-09-20T09:04:29.000Z</time>
      </trkpt>
      <trkpt lat="43.54903" lon="1.10353">
        <ele>252.063652</ele>
        <time>2020-09-20T09:04:33.000Z</time>
      </trkpt>
      <trkpt lat="43.54913" lon="1.10324">
        <ele>252.081851</ele>
        <time>2020-09-20T09:04:38.000Z</time>
      </trkpt>
      <trkpt lat="43.54916" lon="1.10321">
        <ele>251.961851</ele>
        <time>2020-09-20T09:04:39.000Z</time>
      </trkpt>
      <trkpt lat="43.5493" lon="1.1032">
        <ele>251.52901</ele>
        <time>2020-09-20T09:04:42.000Z</time>
      </trkpt>
      <trkpt lat="43.54963" lon="1.10325">
        <ele>250.558498</ele>
        <time>2020-09-20T09:04:47.000Z</time>
      </trkpt>
      <trkpt lat="43.5497" lon="1.10327">
        <ele>250.337254</ele>
        <time>2020-09-20T09:04:48.000Z</time>
      </trkpt>
      <trkpt lat="43.54977" lon="1.10328">
        <ele>250.109765</ele>
        <time>2020-09-20T09:04:49.000Z</time>
      </trkpt>
      <trkpt lat="43.55001" lon="1.10331">
        <ele>249.394196</ele>
        <time>2020-09-20T09:04:52.000Z</time>
      </trkpt>
      <trkpt lat="43.55009" lon="1.10332">
        <ele>249.146338</ele>
        <time>2020-09-20T09:04:53.000Z</time>
      </trkpt>
      <trkpt lat="43.55026" lon="1.10335">
        <ele>248.644865</ele>
        <time>2020-09-20T09:04:55.000Z</time>
      </trkpt>
      <trkpt lat="43.55051" lon="1.10338">
        <ele>247.879905</ele>
        <time>2020-09-20T09:04:58.000Z</time>
      </trkpt>
      <trkpt lat="43.55077" lon="1.10342">
        <ele>247.095097</ele>
        <time>2020-09-20T09:05:01.000Z</time>
      </trkpt>
      <trkpt lat="43.55086" lon="1.10343">
        <ele>246.828575</ele>
        <time>2020-09-20T09:05:02.000Z</time>
      </trkpt>
      <trkpt lat="43.55095" lon="1.10344">
        <ele>246.616225</ele>
        <time>2020-09-20T09:05:03.000Z</time>
      </trkpt>
      <trkpt lat="43.55113" lon="1.10347">
        <ele>246.250796</ele>
        <time>2020-09-20T09:05:05.000Z</time>
      </trkpt>
      <trkpt lat="43.55139" lon="1.1035">
        <ele>245.717818</ele>
        <time>2020-09-20T09:05:08.000Z</time>
      </trkpt>
      <trkpt lat="43.55164" lon="1.10353">
        <ele>245.197918</ele>
        <time>2020-09-20T09:05:11.000Z</time>
      </trkpt>
      <trkpt lat="43.55203" lon="1.10354">
        <ele>244.409522</ele>
        <time>2020-09-20T09:05:16.000Z</time>
      </trkpt>
      <trkpt lat="43.5521" lon="1.10353">
        <ele>244.270568</ele>
        <time>2020-09-20T09:05:17.000Z</time>
      </trkpt>
      <trkpt lat="43.55239" lon="1.10349">
        <ele>243.678928</ele>
        <time>2020-09-20T09:05:22.000Z</time>
      </trkpt>
      <trkpt lat="43.55244" lon="1.10348">
        <ele>243.57828</ele>
        <time>2020-09-20T09:05:23.000Z</time>
      </trkpt>
      <trkpt lat="43.55252" lon="1.10341">
        <ele>243.382497</ele>
        <time>2020-09-20T09:05:25.000Z</time>
      </trkpt>
      <trkpt lat="43.55257" lon="1.10327">
        <ele>243.161469</ele>
        <time>2020-09-20T09:05:27.000Z</time>
      </trkpt>
      <trkpt lat="43.55261" lon="1.10313">
        <ele>243.230432</ele>
        <time>2020-09-20T09:05:29.000Z</time>
      </trkpt>
      <trkpt lat="43.5528" lon="1.10256">
        <ele>244.097576</ele>
        <time>2020-09-20T09:05:37.000Z</time>
      </trkpt>
      <trkpt lat="43.55287" lon="1.10232">
        <ele>244.455788</ele>
        <time>2020-09-20T09:05:41.000Z</time>
      </trkpt>
      <trkpt lat="43.5529" lon="1.10229">
        <ele>244.530779</ele>
        <time>2020-09-20T09:05:42.000Z</time>
      </trkpt>
      <trkpt lat="43.55301" lon="1.10232">
        <ele>244.742643</ele>
        <time>2020-09-20T09:05:45.000Z</time>
      </trkpt>
      <trkpt lat="43.55312" lon="1.10233">
        <ele>244.964888</ele>
        <time>2020-09-20T09:05:48.000Z</time>
      </trkpt>
      <trkpt lat="43.5533" lon="1.10225">
        <ele>245.311226</ele>
        <time>2020-09-20T09:05:52.000Z</time>
      </trkpt>
      <trkpt lat="43.55343" lon="1.1023">
        <ele>245.578213</ele>
        <time>2020-09-20T09:05:55.000Z</time>
      </trkpt>
      <trkpt lat="43.55353" lon="1.10235">
        <ele>245.784624</ele>
        <time>2020-09-20T09:05:57.000Z</time>
      </trkpt>
      <trkpt lat="43.55358" lon="1.10238">
        <ele>245.889248</ele>
        <time>2020-09-20T09:05:58.000Z</time>
      </trkpt>
      <trkpt lat="43.55385" lon="1.1025">
        <ele>246.425642</ele>
        <time>2020-09-20T09:06:03.000Z</time>
      </trkpt>
      <trkpt lat="43.55401" lon="1.10258">
        <ele>247.330981</ele>
        <time>2020-09-20T09:06:06.000Z</time>
      </trkpt>
      <trkpt lat="43.55406" lon="1.1026">
        <ele>247.729842</ele>
        <time>2020-09-20T09:06:07.000Z</time>
      </trkpt>
      <trkpt lat="43.55427" lon="1.1027">
        <ele>249.320125</ele>
        <time>2020-09-20T09:06:11.000Z</time>
      </trkpt>
      <trkpt lat="43.55442" lon="1.10277">
        <ele>250.470949</ele>
        <time>2020-09-20T09:06:14.000Z</time>
      </trkpt>
      <trkpt lat="43.55447" lon="1.10279">
        <ele>250.84104</ele>
        <time>2020-09-20T09:06:15.000Z</time>
      </trkpt>
      <trkpt lat="43.55461" lon="1.10286">
        <ele>251.904035</ele>
        <time>2020-09-20T09:06:18.000Z</time>
      </trkpt>
      <trkpt lat="43.55475" lon="1.10292">
        <ele>252.907853</ele>
        <time>2020-09-20T09:06:21.000Z</time>
      </trkpt>
      <trkpt lat="43.55487" lon="1.10298">
        <ele>253.879596</ele>
        <time>2020-09-20T09:06:24.000Z</time>
      </trkpt>
      <trkpt lat="43.55492" lon="1.103">
        <ele>254.199025</ele>
        <time>2020-09-20T09:06:25.000Z</time>
      </trkpt>
      <trkpt lat="43.55509" lon="1.10308">
        <ele>255.502037</ele>
        <time>2020-09-20T09:06:29.000Z</time>
      </trkpt>
      <trkpt lat="43.55521" lon="1.10314">
        <ele>256.45018</ele>
        <time>2020-09-20T09:06:32.000Z</time>
      </trkpt>
      <trkpt lat="43.55533" lon="1.10319">
        <ele>257.349554</ele>
        <time>2020-09-20T09:06:35.000Z</time>
      </trkpt>
      <trkpt lat="43.55544" lon="1.10323">
        <ele>258.165662</ele>
        <time>2020-09-20T09:06:38.000Z</time>
      </trkpt>
      <trkpt lat="43.55552" lon="1.10325">
        <ele>258.7269</ele>
        <time>2020-09-20T09:06:40.000Z</time>
      </trkpt>
      <trkpt lat="43.55556" lon="1.10327">
        <ele>258.999909</ele>
        <time>2020-09-20T09:06:41.000Z</time>
      </trkpt>
      <trkpt lat="43.55567" lon="1.10331">
        <ele>259.681674</ele>
        <time>2020-09-20T09:06:44.000Z</time>
      </trkpt>
      <trkpt lat="43.55578" lon="1.10336">
        <ele>260.235463</ele>
        <time>2020-09-20T09:06:47.000Z</time>
      </trkpt>
      <trkpt lat="43.55582" lon="1.10338">
        <ele>260.415938</ele>
        <time>2020-09-20T09:06:48.000Z</time>
      </trkpt>
      <trkpt lat="43.55593" lon="1.10343">
        <ele>260.951765</ele>
        <time>2020-09-20T09:06:51.000Z</time>
      </trkpt>
      <trkpt lat="43.55604" lon="1.10349">
        <ele>261.50287</ele>
        <time>2020-09-20T09:06:54.000Z</time>
      </trkpt>
      <trkpt lat="43.55608" lon="1.1035">
        <ele>261.671191</ele>
        <time>2020-09-20T09:06:55.000Z</time>
      </trkpt>
      <trkpt lat="43.55622" lon="1.10357">
        <ele>262.385241</ele>
        <time>2020-09-20T09:06:59.000Z</time>
      </trkpt>
      <trkpt lat="43.55637" lon="1.10363">
        <ele>263.114654</ele>
        <time>2020-09-20T09:07:03.000Z</time>
      </trkpt>
      <trkpt lat="43.55652" lon="1.10369">
        <ele>263.819246</ele>
        <time>2020-09-20T09:07:07.000Z</time>
      </trkpt>
      <trkpt lat="43.55661" lon="1.10373">
        <ele>264.262763</ele>
        <time>2020-09-20T09:07:10.000Z</time>
      </trkpt>
      <trkpt lat="43.55664" lon="1.10375">
        <ele>264.419306</ele>
        <time>2020-09-20T09:07:11.000Z</time>
      </trkpt>
      <trkpt lat="43.55674" lon="1.1038">
        <ele>264.901114</ele>
        <time>2020-09-20T09:07:14.000Z</time>
      </trkpt>
      <trkpt lat="43.55682" lon="1.10384">
        <ele>265.304507</ele>
        <time>2020-09-20T09:07:16.000Z</time>
      </trkpt>
      <trkpt lat="43.55699" lon="1.10391">
        <ele>266.128344</ele>
        <time>2020-09-20T09:07:19.000Z</time>
      </trkpt>
      <trkpt lat="43.55706" lon="1.10394">
        <ele>266.479401</ele>
        <time>2020-09-20T09:07:20.000Z</time>
      </trkpt>
      <trkpt lat="43.55721" lon="1.104">
        <ele>267.199985</ele>
        <time>2020-09-20T09:07:22.000Z</time>
      </trkpt>
      <trkpt lat="43.55734" lon="1.10406">
        <ele>267.809322</ele>
        <time>2020-09-20T09:07:24.000Z</time>
      </trkpt>
      <trkpt lat="43.5574" lon="1.10408">
        <ele>267.950742</ele>
        <time>2020-09-20T09:07:25.000Z</time>
      </trkpt>
      <trkpt lat="43.55755" lon="1.10416">
        <ele>268.34689</ele>
        <time>2020-09-20T09:07:29.000Z</time>
      </trkpt>
      <trkpt lat="43.55761" lon="1.10418">
        <ele>268.476556</ele>
        <time>2020-09-20T09:07:31.000Z</time>
      </trkpt>
      <trkpt lat="43.55768" lon="1.10421">
        <ele>268.663617</ele>
        <time>2020-09-20T09:07:34.000Z</time>
      </trkpt>
      <trkpt lat="43.5577" lon="1.10423">
        <ele>268.717602</ele>
        <time>2020-09-20T09:07:35.000Z</time>
      </trkpt>
      <trkpt lat="43.55771" lon="1.10426">
        <ele>268.773564</ele>
        <time>2020-09-20T09:07:39.000Z</time>
      </trkpt>
      <trkpt lat="43.55773" lon="1.10425">
        <ele>268.816385</ele>
        <time>2020-09-20T09:15:57.000Z</time>
      </trkpt>
      <trkpt lat="43.55774" lon="1.10426">
        <ele>268.85206</ele>
        <time>2020-09-20T09:15:58.000Z</time>
      </trkpt>
      <trkpt lat="43.55775" lon="1.10428">
        <ele>268.88629</ele>
        <time>2020-09-20T09:15:59.000Z</time>
      </trkpt>
      <trkpt lat="43.55775" lon="1.10441">
        <ele>269.107894</ele>
        <time>2020-09-20T09:16:05.000Z</time>
      </trkpt>
      <trkpt lat="43.55775" lon="1.10443">
        <ele>269.152813</ele>
        <time>2020-09-20T09:16:06.000Z</time>
      </trkpt>
      <trkpt lat="43.55775" lon="1.10456">
        <ele>269.361874</ele>
        <time>2020-09-20T09:16:11.000Z</time>
      </trkpt>
      <trkpt lat="43.55777" lon="1.10468">
        <ele>269.587228</ele>
        <time>2020-09-20T09:16:16.000Z</time>
      </trkpt>
      <trkpt lat="43.55779" lon="1.10479">
        <ele>269.768119</ele>
        <time>2020-09-20T09:16:20.000Z</time>
      </trkpt>
      <trkpt lat="43.5578" lon="1.10484">
        <ele>269.869711</ele>
        <time>2020-09-20T09:16:22.000Z</time>
      </trkpt>
      <trkpt lat="43.55783" lon="1.10493">
        <ele>270.034174</ele>
        <time>2020-09-20T09:16:25.000Z</time>
      </trkpt>
      <trkpt lat="43.55784" lon="1.10502">
        <ele>270.194859</ele>
        <time>2020-09-20T09:16:28.000Z</time>
      </trkpt>
      <trkpt lat="43.55788" lon="1.10518">
        <ele>270.484007</ele>
        <time>2020-09-20T09:16:33.000Z</time>
      </trkpt>
      <trkpt lat="43.55796" lon="1.10537">
        <ele>270.865409</ele>
        <time>2020-09-20T09:16:39.000Z</time>
      </trkpt>
      <trkpt lat="43.55799" lon="1.10546">
        <ele>271.04537</ele>
        <time>2020-09-20T09:16:42.000Z</time>
      </trkpt>
      <trkpt lat="43.55804" lon="1.1056">
        <ele>271.302094</ele>
        <time>2020-09-20T09:16:46.000Z</time>
      </trkpt>
      <trkpt lat="43.55811" lon="1.10577">
        <ele>271.653087</ele>
        <time>2020-09-20T09:16:51.000Z</time>
      </trkpt>
      <trkpt lat="43.55814" lon="1.10584">
        <ele>271.788564</ele>
        <time>2020-09-20T09:16:53.000Z</time>
      </trkpt>
      <trkpt lat="43.55823" lon="1.10605">
        <ele>272.53284</ele>
        <time>2020-09-20T09:16:59.000Z</time>
      </trkpt>
      <trkpt lat="43.55824" lon="1.10609">
        <ele>272.737595</ele>
        <time>2020-09-20T09:17:00.000Z</time>
      </trkpt>
      <trkpt lat="43.55831" lon="1.10633">
        <ele>274.100741</ele>
        <time>2020-09-20T09:17:06.000Z</time>
      </trkpt>
      <trkpt lat="43.55833" lon="1.10652">
        <ele>275.131524</ele>
        <time>2020-09-20T09:17:10.000Z</time>
      </trkpt>
      <trkpt lat="43.55835" lon="1.10666">
        <ele>275.887348</ele>
        <time>2020-09-20T09:17:13.000Z</time>
      </trkpt>
      <trkpt lat="43.55836" lon="1.10674">
        <ele>276.338347</ele>
        <time>2020-09-20T09:17:15.000Z</time>
      </trkpt>
      <trkpt lat="43.55837" lon="1.10683">
        <ele>276.802477</ele>
        <time>2020-09-20T09:17:17.000Z</time>
      </trkpt>
      <trkpt lat="43.55839" lon="1.10701">
        <ele>277.781042</ele>
        <time>2020-09-20T09:17:21.000Z</time>
      </trkpt>
      <trkpt lat="43.5584" lon="1.10705">
        <ele>278.024041</ele>
        <time>2020-09-20T09:17:22.000Z</time>
      </trkpt>
      <trkpt lat="43.55841" lon="1.10723">
        <ele>278.947742</ele>
        <time>2020-09-20T09:17:26.000Z</time>
      </trkpt>
      <trkpt lat="43.55843" lon="1.10735">
        <ele>279.624575</ele>
        <time>2020-09-20T09:17:29.000Z</time>
      </trkpt>
      <trkpt lat="43.55845" lon="1.10753">
        <ele>280.566607</ele>
        <time>2020-09-20T09:17:33.000Z</time>
      </trkpt>
      <trkpt lat="43.55847" lon="1.10775">
        <ele>281.766146</ele>
        <time>2020-09-20T09:17:38.000Z</time>
      </trkpt>
      <trkpt lat="43.55848" lon="1.10785">
        <ele>282.264437</ele>
        <time>2020-09-20T09:17:40.000Z</time>
      </trkpt>
      <trkpt lat="43.55851" lon="1.108">
        <ele>283.121043</ele>
        <time>2020-09-20T09:17:44.000Z</time>
      </trkpt>
      <trkpt lat="43.55854" lon="1.10808">
        <ele>283.573191</ele>
        <time>2020-09-20T09:17:46.000Z</time>
      </trkpt>
      <trkpt lat="43.55857" lon="1.10816">
        <ele>284.054984</ele>
        <time>2020-09-20T09:17:48.000Z</time>
      </trkpt>
      <trkpt lat="43.55863" lon="1.10825">
        <ele>284.691676</ele>
        <time>2020-09-20T09:17:51.000Z</time>
      </trkpt>
      <trkpt lat="43.55865" lon="1.10827">
        <ele>284.893046</ele>
        <time>2020-09-20T09:17:52.000Z</time>
      </trkpt>
      <trkpt lat="43.55867" lon="1.1083">
        <ele>285.103394</ele>
        <time>2020-09-20T09:17:53.000Z</time>
      </trkpt>
      <trkpt lat="43.55871" lon="1.10835">
        <ele>285.439484</ele>
        <time>2020-09-20T09:17:55.000Z</time>
      </trkpt>
      <trkpt lat="43.55876" lon="1.1084">
        <ele>285.743251</ele>
        <time>2020-09-20T09:17:57.000Z</time>
      </trkpt>
      <trkpt lat="43.55881" lon="1.10845">
        <ele>286.037207</ele>
        <time>2020-09-20T09:17:59.000Z</time>
      </trkpt>
      <trkpt lat="43.55888" lon="1.10853">
        <ele>286.505727</ele>
        <time>2020-09-20T09:18:02.000Z</time>
      </trkpt>
      <trkpt lat="43.55893" lon="1.10859">
        <ele>286.830284</ele>
        <time>2020-09-20T09:18:04.000Z</time>
      </trkpt>
      <trkpt lat="43.55901" lon="1.10869">
        <ele>287.363725</ele>
        <time>2020-09-20T09:18:07.000Z</time>
      </trkpt>
      <trkpt lat="43.5591" lon="1.10885">
        <ele>288.087818</ele>
        <time>2020-09-20T09:18:11.000Z</time>
      </trkpt>
      <trkpt lat="43.55911" lon="1.1089">
        <ele>288.26031</ele>
        <time>2020-09-20T09:18:12.000Z</time>
      </trkpt>
      <trkpt lat="43.55921" lon="1.10929">
        <ele>289.748617</ele>
        <time>2020-09-20T09:18:20.000Z</time>
      </trkpt>
      <trkpt lat="43.55923" lon="1.10934">
        <ele>289.973192</ele>
        <time>2020-09-20T09:18:21.000Z</time>
      </trkpt>
      <trkpt lat="43.55929" lon="1.10963">
        <ele>291.039226</ele>
        <time>2020-09-20T09:18:26.000Z</time>
      </trkpt>
      <trkpt lat="43.55933" lon="1.10994">
        <ele>292.15008</ele>
        <time>2020-09-20T09:18:31.000Z</time>
      </trkpt>
      <trkpt lat="43.55933" lon="1.11">
        <ele>292.375312</ele>
        <time>2020-09-20T09:18:32.000Z</time>
      </trkpt>
      <trkpt lat="43.55937" lon="1.11025">
        <ele>293.292801</ele>
        <time>2020-09-20T09:18:36.000Z</time>
      </trkpt>
      <trkpt lat="43.55939" lon="1.11043">
        <ele>293.943101</ele>
        <time>2020-09-20T09:18:39.000Z</time>
      </trkpt>
      <trkpt lat="43.55941" lon="1.11049">
        <ele>294.155445</ele>
        <time>2020-09-20T09:18:40.000Z</time>
      </trkpt>
      <trkpt lat="43.55946" lon="1.1108">
        <ele>294.876665</ele>
        <time>2020-09-20T09:18:45.000Z</time>
      </trkpt>
      <trkpt lat="43.55946" lon="1.11093">
        <ele>295.168282</ele>
        <time>2020-09-20T09:18:47.000Z</time>
      </trkpt>
      <trkpt lat="43.55947" lon="1.11099">
        <ele>295.312595</ele>
        <time>2020-09-20T09:18:48.000Z</time>
      </trkpt>
      <trkpt lat="43.55949" lon="1.11118">
        <ele>295.749525</ele>
        <time>2020-09-20T09:18:51.000Z</time>
      </trkpt>
      <trkpt lat="43.5595" lon="1.11124">
        <ele>295.890255</ele>
        <time>2020-09-20T09:18:52.000Z</time>
      </trkpt>
      <trkpt lat="43.55953" lon="1.11143">
        <ele>296.31464</ele>
        <time>2020-09-20T09:18:55.000Z</time>
      </trkpt>
      <trkpt lat="43.55956" lon="1.11161">
        <ele>296.736799</ele>
        <time>2020-09-20T09:18:58.000Z</time>
      </trkpt>
      <trkpt lat="43.55958" lon="1.11173">
        <ele>297.013148</ele>
        <time>2020-09-20T09:19:00.000Z</time>
      </trkpt>
      <trkpt lat="43.55961" lon="1.11197">
        <ele>297.549836</ele>
        <time>2020-09-20T09:19:04.000Z</time>
      </trkpt>
      <trkpt lat="43.55961" lon="1.11203">
        <ele>297.689658</ele>
        <time>2020-09-20T09:19:05.000Z</time>
      </trkpt>
      <trkpt lat="43.5596" lon="1.11235">
        <ele>298.414757</ele>
        <time>2020-09-20T09:19:10.000Z</time>
      </trkpt>
      <trkpt lat="43.5596" lon="1.11242">
        <ele>298.563788</ele>
        <time>2020-09-20T09:19:11.000Z</time>
      </trkpt>
      <trkpt lat="43.55958" lon="1.11288">
        <ele>299.601125</ele>
        <time>2020-09-20T09:19:18.000Z</time>
      </trkpt>
      <trkpt lat="43.55952" lon="1.11332">
        <ele>300.150934</ele>
        <time>2020-09-20T09:19:25.000Z</time>
      </trkpt>
      <trkpt lat="43.55951" lon="1.11339">
        <ele>300.221073</ele>
        <time>2020-09-20T09:19:26.000Z</time>
      </trkpt>
      <trkpt lat="43.55944" lon="1.11381">
        <ele>300.685514</ele>
        <time>2020-09-20T09:19:33.000Z</time>
      </trkpt>
      <trkpt lat="43.55943" lon="1.11388">
        <ele>300.752208</ele>
        <time>2020-09-20T09:19:34.000Z</time>
      </trkpt>
      <trkpt lat="43.55938" lon="1.11425">
        <ele>301.15258</ele>
        <time>2020-09-20T09:19:40.000Z</time>
      </trkpt>
      <trkpt lat="43.55937" lon="1.11431">
        <ele>301.219395</ele>
        <time>2020-09-20T09:19:41.000Z</time>
      </trkpt>
      <trkpt lat="43.55935" lon="1.1145">
        <ele>301.42023</ele>
        <time>2020-09-20T09:19:44.000Z</time>
      </trkpt>
      <trkpt lat="43.55937" lon="1.11469">
        <ele>301.627995</ele>
        <time>2020-09-20T09:19:47.000Z</time>
      </trkpt>
      <trkpt lat="43.55937" lon="1.11475">
        <ele>301.696123</ele>
        <time>2020-09-20T09:19:48.000Z</time>
      </trkpt>
      <trkpt lat="43.55939" lon="1.11482">
        <ele>301.763847</ele>
        <time>2020-09-20T09:19:49.000Z</time>
      </trkpt>
      <trkpt lat="43.55947" lon="1.11512">
        <ele>302.106993</ele>
        <time>2020-09-20T09:19:54.000Z</time>
      </trkpt>
      <trkpt lat="43.55961" lon="1.11543">
        <ele>301.715934</ele>
        <time>2020-09-20T09:20:00.000Z</time>
      </trkpt>
      <trkpt lat="43.5597" lon="1.11555">
        <ele>300.873877</ele>
        <time>2020-09-20T09:20:03.000Z</time>
      </trkpt>
      <trkpt lat="43.55977" lon="1.11563">
        <ele>300.241556</ele>
        <time>2020-09-20T09:20:05.000Z</time>
      </trkpt>
      <trkpt lat="43.55995" lon="1.11585">
        <ele>298.584901</ele>
        <time>2020-09-20T09:20:09.000Z</time>
      </trkpt>
      <trkpt lat="43.55999" lon="1.11593">
        <ele>298.088733</ele>
        <time>2020-09-20T09:20:10.000Z</time>
      </trkpt>
      <trkpt lat="43.56007" lon="1.1161">
        <ele>297.080234</ele>
        <time>2020-09-20T09:20:12.000Z</time>
      </trkpt>
      <trkpt lat="43.5601" lon="1.11618">
        <ele>296.615094</ele>
        <time>2020-09-20T09:20:13.000Z</time>
      </trkpt>
      <trkpt lat="43.56012" lon="1.11626">
        <ele>296.193509</ele>
        <time>2020-09-20T09:20:14.000Z</time>
      </trkpt>
      <trkpt lat="43.56013" lon="1.11634">
        <ele>295.785103</ele>
        <time>2020-09-20T09:20:15.000Z</time>
      </trkpt>
      <trkpt lat="43.56014" lon="1.11648">
        <ele>295.102103</ele>
        <time>2020-09-20T09:20:17.000Z</time>
      </trkpt>
      <trkpt lat="43.56013" lon="1.11657">
        <ele>294.667854</ele>
        <time>2020-09-20T09:20:19.000Z</time>
      </trkpt>
      <trkpt lat="43.56014" lon="1.11659">
        <ele>294.533855</ele>
        <time>2020-09-20T09:20:21.000Z</time>
      </trkpt>
      <trkpt lat="43.56014" lon="1.11659">
        <ele>294.526981</ele>
        <time>2020-09-20T09:20:22.000Z</time>
      </trkpt>
      <trkpt lat="43.56021" lon="1.11669">
        <ele>293.867436</ele>
        <time>2020-09-20T09:20:30.000Z</time>
      </trkpt>
      <trkpt lat="43.56023" lon="1.11673">
        <ele>293.585081</ele>
        <time>2020-09-20T09:20:31.000Z</time>
      </trkpt>
      <trkpt lat="43.56025" lon="1.11678">
        <ele>293.305778</ele>
        <time>2020-09-20T09:20:32.000Z</time>
      </trkpt>
      <trkpt lat="43.5603" lon="1.11689">
        <ele>292.687566</ele>
        <time>2020-09-20T09:20:34.000Z</time>
      </trkpt>
      <trkpt lat="43.56034" lon="1.11699">
        <ele>292.068542</ele>
        <time>2020-09-20T09:20:36.000Z</time>
      </trkpt>
      <trkpt lat="43.56038" lon="1.11702">
        <ele>291.766338</ele>
        <time>2020-09-20T09:20:37.000Z</time>
      </trkpt>
      <trkpt lat="43.5605" lon="1.11701">
        <ele>290.932422</ele>
        <time>2020-09-20T09:20:39.000Z</time>
      </trkpt>
      <trkpt lat="43.56056" lon="1.117">
        <ele>290.554724</ele>
        <time>2020-09-20T09:20:40.000Z</time>
      </trkpt>
      <trkpt lat="43.5606" lon="1.11699">
        <ele>290.265838</ele>
        <time>2020-09-20T09:20:41.000Z</time>
      </trkpt>
      <trkpt lat="43.56063" lon="1.11699">
        <ele>290.024779</ele>
        <time>2020-09-20T09:20:42.000Z</time>
      </trkpt>
      <trkpt lat="43.56066" lon="1.11697">
        <ele>289.786102</ele>
        <time>2020-09-20T09:20:43.000Z</time>
      </trkpt>
      <trkpt lat="43.5607" lon="1.11692">
        <ele>289.369716</ele>
        <time>2020-09-20T09:20:45.000Z</time>
      </trkpt>
      <trkpt lat="43.5607" lon="1.11691">
        <ele>289.282899</ele>
        <time>2020-09-20T09:20:46.000Z</time>
      </trkpt>
      <trkpt lat="43.56072" lon="1.11687">
        <ele>289.001733</ele>
        <time>2020-09-20T09:20:48.000Z</time>
      </trkpt>
      <trkpt lat="43.56077" lon="1.11682">
        <ele>288.545904</ele>
        <time>2020-09-20T09:20:50.000Z</time>
      </trkpt>
      <trkpt lat="43.56081" lon="1.1168">
        <ele>288.162688</ele>
        <time>2020-09-20T09:20:51.000Z</time>
      </trkpt>
      <trkpt lat="43.56086" lon="1.11677">
        <ele>287.774619</ele>
        <time>2020-09-20T09:20:52.000Z</time>
      </trkpt>
      <trkpt lat="43.5609" lon="1.11674">
        <ele>287.3702</ele>
        <time>2020-09-20T09:20:53.000Z</time>
      </trkpt>
      <trkpt lat="43.56094" lon="1.11671">
        <ele>287.0038</ele>
        <time>2020-09-20T09:20:54.000Z</time>
      </trkpt>
      <trkpt lat="43.56098" lon="1.11669">
        <ele>286.732531</ele>
        <time>2020-09-20T09:20:55.000Z</time>
      </trkpt>
      <trkpt lat="43.56099" lon="1.11667">
        <ele>286.554517</ele>
        <time>2020-09-20T09:20:56.000Z</time>
      </trkpt>
      <trkpt lat="43.56099" lon="1.11664">
        <ele>286.411995</ele>
        <time>2020-09-20T09:20:57.000Z</time>
      </trkpt>
      <trkpt lat="43.56103" lon="1.11661">
        <ele>286.062766</ele>
        <time>2020-09-20T09:20:59.000Z</time>
      </trkpt>
      <trkpt lat="43.56113" lon="1.11652">
        <ele>285.115264</ele>
        <time>2020-09-20T09:21:03.000Z</time>
      </trkpt>
      <trkpt lat="43.56121" lon="1.11643">
        <ele>284.330789</ele>
        <time>2020-09-20T09:21:05.000Z</time>
      </trkpt>
      <trkpt lat="43.56129" lon="1.11638">
        <ele>283.595556</ele>
        <time>2020-09-20T09:21:07.000Z</time>
      </trkpt>
      <trkpt lat="43.56135" lon="1.11626">
        <ele>282.772072</ele>
        <time>2020-09-20T09:21:10.000Z</time>
      </trkpt>
      <trkpt lat="43.56136" lon="1.11615">
        <ele>282.176951</ele>
        <time>2020-09-20T09:21:12.000Z</time>
      </trkpt>
      <trkpt lat="43.56138" lon="1.11613">
        <ele>282.005971</ele>
        <time>2020-09-20T09:21:13.000Z</time>
      </trkpt>
      <trkpt lat="43.56139" lon="1.11612">
        <ele>281.898687</ele>
        <time>2020-09-20T09:21:14.000Z</time>
      </trkpt>
      <trkpt lat="43.5614" lon="1.11612">
        <ele>281.786382</ele>
        <time>2020-09-20T09:21:16.000Z</time>
      </trkpt>
      <trkpt lat="43.56143" lon="1.11612">
        <ele>281.573986</ele>
        <time>2020-09-20T09:21:18.000Z</time>
      </trkpt>
      <trkpt lat="43.56145" lon="1.11612">
        <ele>281.423763</ele>
        <time>2020-09-20T09:21:19.000Z</time>
      </trkpt>
      <trkpt lat="43.5615" lon="1.11612">
        <ele>280.975871</ele>
        <time>2020-09-20T09:21:22.000Z</time>
      </trkpt>
      <trkpt lat="43.56153" lon="1.11612">
        <ele>280.786574</ele>
        <time>2020-09-20T09:21:23.000Z</time>
      </trkpt>
      <trkpt lat="43.56155" lon="1.11612">
        <ele>280.582259</ele>
        <time>2020-09-20T09:21:24.000Z</time>
      </trkpt>
      <trkpt lat="43.56165" lon="1.11612">
        <ele>279.84308</ele>
        <time>2020-09-20T09:21:27.000Z</time>
      </trkpt>
      <trkpt lat="43.56167" lon="1.11613">
        <ele>279.653655</ele>
        <time>2020-09-20T09:21:28.000Z</time>
      </trkpt>
      <trkpt lat="43.56179" lon="1.11613">
        <ele>278.718729</ele>
        <time>2020-09-20T09:21:32.000Z</time>
      </trkpt>
      <trkpt lat="43.56182" lon="1.11614">
        <ele>278.450659</ele>
        <time>2020-09-20T09:21:33.000Z</time>
      </trkpt>
      <trkpt lat="43.56195" lon="1.11617">
        <ele>277.481815</ele>
        <time>2020-09-20T09:21:36.000Z</time>
      </trkpt>
      <trkpt lat="43.562" lon="1.11618">
        <ele>277.066695</ele>
        <time>2020-09-20T09:21:37.000Z</time>
      </trkpt>
      <trkpt lat="43.56211" lon="1.11619">
        <ele>276.175977</ele>
        <time>2020-09-20T09:21:39.000Z</time>
      </trkpt>
      <trkpt lat="43.56217" lon="1.1162">
        <ele>275.853489</ele>
        <time>2020-09-20T09:21:40.000Z</time>
      </trkpt>
      <trkpt lat="43.56221" lon="1.1162">
        <ele>275.814417</ele>
        <time>2020-09-20T09:21:41.000Z</time>
      </trkpt>
      <trkpt lat="43.56228" lon="1.11623">
        <ele>275.75002</ele>
        <time>2020-09-20T09:21:43.000Z</time>
      </trkpt>
      <trkpt lat="43.56231" lon="1.11635">
        <ele>275.672604</ele>
        <time>2020-09-20T09:21:46.000Z</time>
      </trkpt>
      <trkpt lat="43.56234" lon="1.11652">
        <ele>275.56157</ele>
        <time>2020-09-20T09:21:50.000Z</time>
      </trkpt>
      <trkpt lat="43.56236" lon="1.11663">
        <ele>275.492379</ele>
        <time>2020-09-20T09:21:52.000Z</time>
      </trkpt>
      <trkpt lat="43.56236" lon="1.1168">
        <ele>275.385319</ele>
        <time>2020-09-20T09:21:55.000Z</time>
      </trkpt>
      <trkpt lat="43.56235" lon="1.11684">
        <ele>275.358028</ele>
        <time>2020-09-20T09:21:56.000Z</time>
      </trkpt>
      <trkpt lat="43.56231" lon="1.117">
        <ele>275.250083</ele>
        <time>2020-09-20T09:22:00.000Z</time>
      </trkpt>
      <trkpt lat="43.56227" lon="1.11723">
        <ele>275.104003</ele>
        <time>2020-09-20T09:22:05.000Z</time>
      </trkpt>
      <trkpt lat="43.56227" lon="1.11727">
        <ele>275.078222</ele>
        <time>2020-09-20T09:22:06.000Z</time>
      </trkpt>
      <trkpt lat="43.56227" lon="1.11732">
        <ele>275.045132</ele>
        <time>2020-09-20T09:22:08.000Z</time>
      </trkpt>
      <trkpt lat="43.56227" lon="1.11735">
        <ele>275.026258</ele>
        <time>2020-09-20T09:22:11.000Z</time>
      </trkpt>
      <trkpt lat="43.56225" lon="1.11743">
        <ele>274.969826</ele>
        <time>2020-09-20T09:22:29.000Z</time>
      </trkpt>
      <trkpt lat="43.56226" lon="1.11745">
        <ele>274.954035</ele>
        <time>2020-09-20T09:22:30.000Z</time>
      </trkpt>
      <trkpt lat="43.56231" lon="1.11755">
        <ele>274.881264</ele>
        <time>2020-09-20T09:22:33.000Z</time>
      </trkpt>
      <trkpt lat="43.56234" lon="1.1176">
        <ele>274.842047</ele>
        <time>2020-09-20T09:22:34.000Z</time>
      </trkpt>
      <trkpt lat="43.56238" lon="1.1177">
        <ele>274.766537</ele>
        <time>2020-09-20T09:22:36.000Z</time>
      </trkpt>
      <trkpt lat="43.5624" lon="1.11776">
        <ele>274.726171</ele>
        <time>2020-09-20T09:22:37.000Z</time>
      </trkpt>
      <trkpt lat="43.56241" lon="1.11782">
        <ele>274.688341</ele>
        <time>2020-09-20T09:22:38.000Z</time>
      </trkpt>
      <trkpt lat="43.56242" lon="1.11787">
        <ele>274.654319</ele>
        <time>2020-09-20T09:22:39.000Z</time>
      </trkpt>
      <trkpt lat="43.56246" lon="1.11801">
        <ele>274.562145</ele>
        <time>2020-09-20T09:22:42.000Z</time>
      </trkpt>
      <trkpt lat="43.56248" lon="1.1182">
        <ele>274.437987</ele>
        <time>2020-09-20T09:22:47.000Z</time>
      </trkpt>
      <trkpt lat="43.56247" lon="1.11824">
        <ele>274.415522</ele>
        <time>2020-09-20T09:22:48.000Z</time>
      </trkpt>
      <trkpt lat="43.56244" lon="1.11824">
        <ele>274.3843</ele>
        <time>2020-09-20T09:22:50.000Z</time>
      </trkpt>
      <trkpt lat="43.56243" lon="1.11822">
        <ele>274.37054</ele>
        <time>2020-09-20T09:22:51.000Z</time>
      </trkpt>
      <trkpt lat="43.56241" lon="1.11821">
        <ele>274.356247</ele>
        <time>2020-09-20T09:22:52.000Z</time>
      </trkpt>
      <trkpt lat="43.56238" lon="1.11821">
        <ele>274.329296</ele>
        <time>2020-09-20T09:22:54.000Z</time>
      </trkpt>
      <trkpt lat="43.56236" lon="1.11821">
        <ele>274.312692</ele>
        <time>2020-09-20T09:22:55.000Z</time>
      </trkpt>
      <trkpt lat="43.56234" lon="1.11823">
        <ele>274.52964</ele>
        <time>2020-09-20T09:22:56.000Z</time>
      </trkpt>
      <trkpt lat="43.56225" lon="1.11832">
        <ele>275.71072</ele>
        <time>2020-09-20T09:23:00.000Z</time>
      </trkpt>
      <trkpt lat="43.56222" lon="1.11836">
        <ele>276.147468</ele>
        <time>2020-09-20T09:23:02.000Z</time>
      </trkpt>
      <trkpt lat="43.56219" lon="1.1184">
        <ele>276.556782</ele>
        <time>2020-09-20T09:23:04.000Z</time>
      </trkpt>
      <trkpt lat="43.56219" lon="1.11842">
        <ele>276.679992</ele>
        <time>2020-09-20T09:23:05.000Z</time>
      </trkpt>
      <trkpt lat="43.5622" lon="1.11843">
        <ele>276.841939</ele>
        <time>2020-09-20T09:23:06.000Z</time>
      </trkpt>
      <trkpt lat="43.56221" lon="1.11847">
        <ele>277.184538</ele>
        <time>2020-09-20T09:23:08.000Z</time>
      </trkpt>
      <trkpt lat="43.56223" lon="1.11852">
        <ele>277.560268</ele>
        <time>2020-09-20T09:23:11.000Z</time>
      </trkpt>
      <trkpt lat="43.56223" lon="1.11852">
        <ele>277.611999</ele>
        <time>2020-09-20T09:23:12.000Z</time>
      </trkpt>
      <trkpt lat="43.56223" lon="1.11862">
        <ele>278.348385</ele>
        <time>2020-09-20T09:23:20.000Z</time>
      </trkpt>
      <trkpt lat="43.56224" lon="1.11873">
        <ele>279.228638</ele>
        <time>2020-09-20T09:23:24.000Z</time>
      </trkpt>
      <trkpt lat="43.56224" lon="1.11876">
        <ele>279.447473</ele>
        <time>2020-09-20T09:23:25.000Z</time>
      </trkpt>
      <trkpt lat="43.56226" lon="1.11893">
        <ele>280.715674</ele>
        <time>2020-09-20T09:23:29.000Z</time>
      </trkpt>
      <trkpt lat="43.56225" lon="1.11897">
        <ele>281.044659</ele>
        <time>2020-09-20T09:23:30.000Z</time>
      </trkpt>
      <trkpt lat="43.56223" lon="1.11913">
        <ele>282.290001</ele>
        <time>2020-09-20T09:23:34.000Z</time>
      </trkpt>
      <trkpt lat="43.56223" lon="1.11917">
        <ele>282.593723</ele>
        <time>2020-09-20T09:23:35.000Z</time>
      </trkpt>
      <trkpt lat="43.56224" lon="1.11922">
        <ele>282.961717</ele>
        <time>2020-09-20T09:23:36.000Z</time>
      </trkpt>
      <trkpt lat="43.56225" lon="1.11935">
        <ele>283.953162</ele>
        <time>2020-09-20T09:23:39.000Z</time>
      </trkpt>
      <trkpt lat="43.56225" lon="1.11938">
        <ele>284.212021</ele>
        <time>2020-09-20T09:23:40.000Z</time>
      </trkpt>
      <trkpt lat="43.56224" lon="1.11942">
        <ele>284.497767</ele>
        <time>2020-09-20T09:23:41.000Z</time>
      </trkpt>
      <trkpt lat="43.56219" lon="1.11949">
        <ele>285.241816</ele>
        <time>2020-09-20T09:23:44.000Z</time>
      </trkpt>
      <trkpt lat="43.56215" lon="1.11958">
        <ele>286.046918</ele>
        <time>2020-09-20T09:23:47.000Z</time>
      </trkpt>
      <trkpt lat="43.5621" lon="1.11961">
        <ele>286.60836</ele>
        <time>2020-09-20T09:23:49.000Z</time>
      </trkpt>
      <trkpt lat="43.56209" lon="1.11963">
        <ele>286.837593</ele>
        <time>2020-09-20T09:23:50.000Z</time>
      </trkpt>
      <trkpt lat="43.56207" lon="1.11972">
        <ele>287.563541</ele>
        <time>2020-09-20T09:23:53.000Z</time>
      </trkpt>
      <trkpt lat="43.56207" lon="1.11988">
        <ele>288.777711</ele>
        <time>2020-09-20T09:23:58.000Z</time>
      </trkpt>
      <trkpt lat="43.56207" lon="1.11994">
        <ele>289.234948</ele>
        <time>2020-09-20T09:24:00.000Z</time>
      </trkpt>
      <trkpt lat="43.5621" lon="1.11998">
        <ele>289.620653</ele>
        <time>2020-09-20T09:24:02.000Z</time>
      </trkpt>
      <trkpt lat="43.5621" lon="1.12">
        <ele>289.775675</ele>
        <time>2020-09-20T09:24:03.000Z</time>
      </trkpt>
      <trkpt lat="43.56211" lon="1.12001">
        <ele>289.930697</ele>
        <time>2020-09-20T09:24:04.000Z</time>
      </trkpt>
      <trkpt lat="43.56214" lon="1.12009">
        <ele>290.629254</ele>
        <time>2020-09-20T09:24:09.000Z</time>
      </trkpt>
      <trkpt lat="43.56215" lon="1.12012">
        <ele>290.834322</ele>
        <time>2020-09-20T09:24:10.000Z</time>
      </trkpt>
      <trkpt lat="43.56216" lon="1.12015">
        <ele>291.073268</ele>
        <time>2020-09-20T09:24:11.000Z</time>
      </trkpt>
      <trkpt lat="43.56215" lon="1.12026">
        <ele>291.902803</ele>
        <time>2020-09-20T09:24:14.000Z</time>
      </trkpt>
      <trkpt lat="43.56213" lon="1.12049">
        <ele>293.257534</ele>
        <time>2020-09-20T09:24:20.000Z</time>
      </trkpt>
      <trkpt lat="43.56214" lon="1.12067">
        <ele>293.550078</ele>
        <time>2020-09-20T09:24:25.000Z</time>
      </trkpt>
      <trkpt lat="43.5621" lon="1.12089">
        <ele>293.894056</ele>
        <time>2020-09-20T09:24:31.000Z</time>
      </trkpt>
      <trkpt lat="43.56209" lon="1.12091">
        <ele>293.942586</ele>
        <time>2020-09-20T09:24:32.000Z</time>
      </trkpt>
      <trkpt lat="43.56201" lon="1.12105">
        <ele>294.220232</ele>
        <time>2020-09-20T09:24:37.000Z</time>
      </trkpt>
      <trkpt lat="43.56199" lon="1.12108">
        <ele>294.28409</ele>
        <time>2020-09-20T09:24:38.000Z</time>
      </trkpt>
      <trkpt lat="43.56196" lon="1.12113">
        <ele>294.390289</ele>
        <time>2020-09-20T09:24:40.000Z</time>
      </trkpt>
      <trkpt lat="43.56193" lon="1.12117">
        <ele>294.481152</ele>
        <time>2020-09-20T09:24:42.000Z</time>
      </trkpt>
      <trkpt lat="43.56193" lon="1.12119">
        <ele>294.523072</ele>
        <time>2020-09-20T09:24:43.000Z</time>
      </trkpt>
      <trkpt lat="43.56195" lon="1.12126">
        <ele>294.637157</ele>
        <time>2020-09-20T09:24:45.000Z</time>
      </trkpt>
      <trkpt lat="43.56197" lon="1.12129">
        <ele>294.708239</ele>
        <time>2020-09-20T09:24:46.000Z</time>
      </trkpt>
      <trkpt lat="43.562" lon="1.12132">
        <ele>294.787065</ele>
        <time>2020-09-20T09:24:47.000Z</time>
      </trkpt>
      <trkpt lat="43.56211" lon="1.12141">
        <ele>295.0613</ele>
        <time>2020-09-20T09:24:50.000Z</time>
      </trkpt>
      <trkpt lat="43.56235" lon="1.12164">
        <ele>295.693686</ele>
        <time>2020-09-20T09:24:56.000Z</time>
      </trkpt>
      <trkpt lat="43.56255" lon="1.12189">
        <ele>296.287636</ele>
        <time>2020-09-20T09:25:02.000Z</time>
      </trkpt>
      <trkpt lat="43.56268" lon="1.12206">
        <ele>296.678686</ele>
        <time>2020-09-20T09:25:06.000Z</time>
      </trkpt>
      <trkpt lat="43.56276" lon="1.12215">
        <ele>296.898966</ele>
        <time>2020-09-20T09:25:08.000Z</time>
      </trkpt>
      <trkpt lat="43.56291" lon="1.12229">
        <ele>296.04604</ele>
        <time>2020-09-20T09:25:11.000Z</time>
      </trkpt>
      <trkpt lat="43.56297" lon="1.12234">
        <ele>295.402984</ele>
        <time>2020-09-20T09:25:12.000Z</time>
      </trkpt>
      <trkpt lat="43.56304" lon="1.12237">
        <ele>294.736761</ele>
        <time>2020-09-20T09:25:13.000Z</time>
      </trkpt>
      <trkpt lat="43.5632" lon="1.12242">
        <ele>293.279964</ele>
        <time>2020-09-20T09:25:15.000Z</time>
      </trkpt>
      <trkpt lat="43.56328" lon="1.12245">
        <ele>292.452426</ele>
        <time>2020-09-20T09:25:16.000Z</time>
      </trkpt>
      <trkpt lat="43.56347" lon="1.12251">
        <ele>290.71779</ele>
        <time>2020-09-20T09:25:18.000Z</time>
      </trkpt>
      <trkpt lat="43.56366" lon="1.12262">
        <ele>288.826806</ele>
        <time>2020-09-20T09:25:20.000Z</time>
      </trkpt>
      <trkpt lat="43.56375" lon="1.12269">
        <ele>287.831238</ele>
        <time>2020-09-20T09:25:21.000Z</time>
      </trkpt>
      <trkpt lat="43.56382" lon="1.1228">
        <ele>286.883434</ele>
        <time>2020-09-20T09:25:22.000Z</time>
      </trkpt>
      <trkpt lat="43.56388" lon="1.12293">
        <ele>285.886708</ele>
        <time>2020-09-20T09:25:23.000Z</time>
      </trkpt>
      <trkpt lat="43.5639" lon="1.12308">
        <ele>284.873321</ele>
        <time>2020-09-20T09:25:24.000Z</time>
      </trkpt>
      <trkpt lat="43.56392" lon="1.12324">
        <ele>283.780389</ele>
        <time>2020-09-20T09:25:25.000Z</time>
      </trkpt>
      <trkpt lat="43.56392" lon="1.1234">
        <ele>282.735713</ele>
        <time>2020-09-20T09:25:26.000Z</time>
      </trkpt>
      <trkpt lat="43.56389" lon="1.12368">
        <ele>280.834557</ele>
        <time>2020-09-20T09:25:28.000Z</time>
      </trkpt>
      <trkpt lat="43.56384" lon="1.1239">
        <ele>280.11323</ele>
        <time>2020-09-20T09:25:30.000Z</time>
      </trkpt>
      <trkpt lat="43.5638" lon="1.12407">
        <ele>279.715122</ele>
        <time>2020-09-20T09:25:32.000Z</time>
      </trkpt>
      <trkpt lat="43.56377" lon="1.12412">
        <ele>279.55834</ele>
        <time>2020-09-20T09:25:33.000Z</time>
      </trkpt>
      <trkpt lat="43.5637" lon="1.1242">
        <ele>279.273872</ele>
        <time>2020-09-20T09:25:35.000Z</time>
      </trkpt>
      <trkpt lat="43.56365" lon="1.12423">
        <ele>279.104426</ele>
        <time>2020-09-20T09:25:36.000Z</time>
      </trkpt>
      <trkpt lat="43.56349" lon="1.12434">
        <ele>278.539484</ele>
        <time>2020-09-20T09:25:39.000Z</time>
      </trkpt>
      <trkpt lat="43.56337" lon="1.12442">
        <ele>278.116546</ele>
        <time>2020-09-20T09:25:42.000Z</time>
      </trkpt>
      <trkpt lat="43.56335" lon="1.12443">
        <ele>278.065951</ele>
        <time>2020-09-20T09:25:43.000Z</time>
      </trkpt>
      <trkpt lat="43.56335" lon="1.12444">
        <ele>278.04697</ele>
        <time>2020-09-20T09:25:44.000Z</time>
      </trkpt>
      <trkpt lat="43.56327" lon="1.12452">
        <ele>277.751746</ele>
        <time>2020-09-20T09:26:27.000Z</time>
      </trkpt>
      <trkpt lat="43.56327" lon="1.12452">
        <ele>277.740686</ele>
        <time>2020-09-20T09:26:29.000Z</time>
      </trkpt>
      <trkpt lat="43.56324" lon="1.12459">
        <ele>277.54901</ele>
        <time>2020-09-20T09:26:41.000Z</time>
      </trkpt>
      <trkpt lat="43.56321" lon="1.12465">
        <ele>277.388644</ele>
        <time>2020-09-20T09:26:44.000Z</time>
      </trkpt>
      <trkpt lat="43.5632" lon="1.12465">
        <ele>277.367835</ele>
        <time>2020-09-20T09:26:45.000Z</time>
      </trkpt>
      <trkpt lat="43.5632" lon="1.12466">
        <ele>277.358558</ele>
        <time>2020-09-20T09:26:46.000Z</time>
      </trkpt>
      <trkpt lat="43.56319" lon="1.12466">
        <ele>277.336107</ele>
        <time>2020-09-20T09:26:52.000Z</time>
      </trkpt>
      <trkpt lat="43.56319" lon="1.12466">
        <ele>277.330577</ele>
        <time>2020-09-20T09:26:54.000Z</time>
      </trkpt>
      <trkpt lat="43.56315" lon="1.1248">
        <ele>276.985748</ele>
        <time>2020-09-20T09:27:02.000Z</time>
      </trkpt>
      <trkpt lat="43.56313" lon="1.12488">
        <ele>276.794485</ele>
        <time>2020-09-20T09:27:03.000Z</time>
      </trkpt>
      <trkpt lat="43.563" lon="1.12528">
        <ele>275.795438</ele>
        <time>2020-09-20T09:27:08.000Z</time>
      </trkpt>
      <trkpt lat="43.56299" lon="1.12536">
        <ele>275.600452</ele>
        <time>2020-09-20T09:27:09.000Z</time>
      </trkpt>
      <trkpt lat="43.56294" lon="1.12562">
        <ele>275.011991</ele>
        <time>2020-09-20T09:27:12.000Z</time>
      </trkpt>
      <trkpt lat="43.56293" lon="1.12579">
        <ele>274.972515</ele>
        <time>2020-09-20T09:27:14.000Z</time>
      </trkpt>
      <trkpt lat="43.5629" lon="1.12611">
        <ele>275.168084</ele>
        <time>2020-09-20T09:27:18.000Z</time>
      </trkpt>
      <trkpt lat="43.56289" lon="1.12619">
        <ele>275.216347</ele>
        <time>2020-09-20T09:27:19.000Z</time>
      </trkpt>
      <trkpt lat="43.56286" lon="1.12643">
        <ele>275.364097</ele>
        <time>2020-09-20T09:27:22.000Z</time>
      </trkpt>
      <trkpt lat="43.56285" lon="1.12659">
        <ele>275.460003</ele>
        <time>2020-09-20T09:27:24.000Z</time>
      </trkpt>
      <trkpt lat="43.56284" lon="1.12707">
        <ele>275.74752</ele>
        <time>2020-09-20T09:27:30.000Z</time>
      </trkpt>
      <trkpt lat="43.56284" lon="1.1273">
        <ele>275.887368</ele>
        <time>2020-09-20T09:27:33.000Z</time>
      </trkpt>
      <trkpt lat="43.56286" lon="1.12753">
        <ele>276.027183</ele>
        <time>2020-09-20T09:27:36.000Z</time>
      </trkpt>
      <trkpt lat="43.56285" lon="1.12785">
        <ele>276.219252</ele>
        <time>2020-09-20T09:27:41.000Z</time>
      </trkpt>
      <trkpt lat="43.56285" lon="1.12788">
        <ele>276.234873</ele>
        <time>2020-09-20T09:27:42.000Z</time>
      </trkpt>
      <trkpt lat="43.56285" lon="1.12789">
        <ele>276.240872</ele>
        <time>2020-09-20T09:27:44.000Z</time>
      </trkpt>
      <trkpt lat="43.56285" lon="1.12789">
        <ele>276.241472</ele>
        <time>2020-09-20T09:27:45.000Z</time>
      </trkpt>
      <trkpt lat="43.56286" lon="1.12801">
        <ele>276.313038</ele>
        <time>2020-09-20T09:27:54.000Z</time>
      </trkpt>
      <trkpt lat="43.56287" lon="1.12807">
        <ele>276.350229</ele>
        <time>2020-09-20T09:27:55.000Z</time>
      </trkpt>
      <trkpt lat="43.56287" lon="1.12838">
        <ele>276.950876</ele>
        <time>2020-09-20T09:28:00.000Z</time>
      </trkpt>
      <trkpt lat="43.56285" lon="1.12858">
        <ele>277.389864</ele>
        <time>2020-09-20T09:28:03.000Z</time>
      </trkpt>
      <trkpt lat="43.56284" lon="1.12864">
        <ele>277.535469</ele>
        <time>2020-09-20T09:28:04.000Z</time>
      </trkpt>
      <trkpt lat="43.56283" lon="1.1287">
        <ele>277.679254</ele>
        <time>2020-09-20T09:28:05.000Z</time>
      </trkpt>
      <trkpt lat="43.56282" lon="1.12877">
        <ele>277.834232</ele>
        <time>2020-09-20T09:28:06.000Z</time>
      </trkpt>
      <trkpt lat="43.56281" lon="1.1289">
        <ele>278.130724</ele>
        <time>2020-09-20T09:28:08.000Z</time>
      </trkpt>
      <trkpt lat="43.56279" lon="1.12909">
        <ele>278.569711</ele>
        <time>2020-09-20T09:28:11.000Z</time>
      </trkpt>
      <trkpt lat="43.56277" lon="1.12929">
        <ele>279.01847</ele>
        <time>2020-09-20T09:28:14.000Z</time>
      </trkpt>
      <trkpt lat="43.56273" lon="1.12967">
        <ele>279.898565</ele>
        <time>2020-09-20T09:28:20.000Z</time>
      </trkpt>
      <trkpt lat="43.56269" lon="1.12998">
        <ele>280.608906</ele>
        <time>2020-09-20T09:28:25.000Z</time>
      </trkpt>
      <trkpt lat="43.56268" lon="1.13012">
        <ele>280.909862</ele>
        <time>2020-09-20T09:28:27.000Z</time>
      </trkpt>
      <trkpt lat="43.56266" lon="1.13038">
        <ele>281.505814</ele>
        <time>2020-09-20T09:28:31.000Z</time>
      </trkpt>
      <trkpt lat="43.56266" lon="1.13044">
        <ele>281.64582</ele>
        <time>2020-09-20T09:28:32.000Z</time>
      </trkpt>
      <trkpt lat="43.56267" lon="1.13057">
        <ele>281.933152</ele>
        <time>2020-09-20T09:28:34.000Z</time>
      </trkpt>
      <trkpt lat="43.56269" lon="1.13091">
        <ele>281.895876</ele>
        <time>2020-09-20T09:28:39.000Z</time>
      </trkpt>
      <trkpt lat="43.56265" lon="1.13144">
        <ele>281.740032</ele>
        <time>2020-09-20T09:28:46.000Z</time>
      </trkpt>
      <trkpt lat="43.56258" lon="1.13185">
        <ele>281.615559</ele>
        <time>2020-09-20T09:28:52.000Z</time>
      </trkpt>
      <trkpt lat="43.56255" lon="1.13206">
        <ele>281.553137</ele>
        <time>2020-09-20T09:28:55.000Z</time>
      </trkpt>
      <trkpt lat="43.56252" lon="1.13228">
        <ele>281.487273</ele>
        <time>2020-09-20T09:28:58.000Z</time>
      </trkpt>
      <trkpt lat="43.5625" lon="1.13235">
        <ele>281.465042</ele>
        <time>2020-09-20T09:28:59.000Z</time>
      </trkpt>
      <trkpt lat="43.56245" lon="1.13263">
        <ele>281.380119</ele>
        <time>2020-09-20T09:29:03.000Z</time>
      </trkpt>
      <trkpt lat="43.56243" lon="1.13276">
        <ele>281.341392</ele>
        <time>2020-09-20T09:29:05.000Z</time>
      </trkpt>
      <trkpt lat="43.56243" lon="1.13287">
        <ele>281.308242</ele>
        <time>2020-09-20T09:29:07.000Z</time>
      </trkpt>
      <trkpt lat="43.56256" lon="1.13297">
        <ele>281.019804</ele>
        <time>2020-09-20T09:29:10.000Z</time>
      </trkpt>
      <trkpt lat="43.56275" lon="1.13304">
        <ele>279.070659</ele>
        <time>2020-09-20T09:29:13.000Z</time>
      </trkpt>
      <trkpt lat="43.5629" lon="1.1331">
        <ele>277.527038</ele>
        <time>2020-09-20T09:29:15.000Z</time>
      </trkpt>
      <trkpt lat="43.56307" lon="1.13316">
        <ele>275.811095</ele>
        <time>2020-09-20T09:29:17.000Z</time>
      </trkpt>
      <trkpt lat="43.56316" lon="1.13319">
        <ele>274.87495</ele>
        <time>2020-09-20T09:29:18.000Z</time>
      </trkpt>
      <trkpt lat="43.56326" lon="1.13322">
        <ele>273.897316</ele>
        <time>2020-09-20T09:29:19.000Z</time>
      </trkpt>
      <trkpt lat="43.56335" lon="1.13325">
        <ele>272.913056</ele>
        <time>2020-09-20T09:29:20.000Z</time>
      </trkpt>
      <trkpt lat="43.56345" lon="1.13328">
        <ele>271.954606</ele>
        <time>2020-09-20T09:29:21.000Z</time>
      </trkpt>
      <trkpt lat="43.56354" lon="1.13331">
        <ele>271.00211</ele>
        <time>2020-09-20T09:29:22.000Z</time>
      </trkpt>
      <trkpt lat="43.56364" lon="1.13334">
        <ele>270.046739</ele>
        <time>2020-09-20T09:29:23.000Z</time>
      </trkpt>
      <trkpt lat="43.56374" lon="1.13337">
        <ele>269.04835</ele>
        <time>2020-09-20T09:29:24.000Z</time>
      </trkpt>
      <trkpt lat="43.56384" lon="1.13341">
        <ele>268.005491</ele>
        <time>2020-09-20T09:29:25.000Z</time>
      </trkpt>
      <trkpt lat="43.56395" lon="1.13345">
        <ele>266.922837</ele>
        <time>2020-09-20T09:29:26.000Z</time>
      </trkpt>
      <trkpt lat="43.56406" lon="1.13349">
        <ele>265.779515</ele>
        <time>2020-09-20T09:29:27.000Z</time>
      </trkpt>
      <trkpt lat="43.56417" lon="1.13354">
        <ele>264.613393</ele>
        <time>2020-09-20T09:29:28.000Z</time>
      </trkpt>
      <trkpt lat="43.56429" lon="1.13358">
        <ele>263.382414</ele>
        <time>2020-09-20T09:29:29.000Z</time>
      </trkpt>
      <trkpt lat="43.56453" lon="1.13366">
        <ele>260.833042</ele>
        <time>2020-09-20T09:29:31.000Z</time>
      </trkpt>
      <trkpt lat="43.56464" lon="1.1337">
        <ele>259.639434</ele>
        <time>2020-09-20T09:29:32.000Z</time>
      </trkpt>
      <trkpt lat="43.56475" lon="1.13373">
        <ele>258.496865</ele>
        <time>2020-09-20T09:29:33.000Z</time>
      </trkpt>
      <trkpt lat="43.56485" lon="1.13377">
        <ele>257.362681</ele>
        <time>2020-09-20T09:29:34.000Z</time>
      </trkpt>
      <trkpt lat="43.56505" lon="1.13383">
        <ele>255.194989</ele>
        <time>2020-09-20T09:29:36.000Z</time>
      </trkpt>
      <trkpt lat="43.56515" lon="1.13387">
        <ele>254.131876</ele>
        <time>2020-09-20T09:29:37.000Z</time>
      </trkpt>
      <trkpt lat="43.56525" lon="1.1339">
        <ele>253.080836</ele>
        <time>2020-09-20T09:29:38.000Z</time>
      </trkpt>
      <trkpt lat="43.56544" lon="1.13397">
        <ele>250.95922</ele>
        <time>2020-09-20T09:29:40.000Z</time>
      </trkpt>
      <trkpt lat="43.56564" lon="1.13405">
        <ele>248.832989</ele>
        <time>2020-09-20T09:29:42.000Z</time>
      </trkpt>
      <trkpt lat="43.5658" lon="1.13412">
        <ele>247.071124</ele>
        <time>2020-09-20T09:29:44.000Z</time>
      </trkpt>
      <trkpt lat="43.56586" lon="1.13414">
        <ele>246.347288</ele>
        <time>2020-09-20T09:29:45.000Z</time>
      </trkpt>
      <trkpt lat="43.56594" lon="1.13417">
        <ele>245.555017</ele>
        <time>2020-09-20T09:29:46.000Z</time>
      </trkpt>
      <trkpt lat="43.56601" lon="1.1342">
        <ele>244.722049</ele>
        <time>2020-09-20T09:29:47.000Z</time>
      </trkpt>
      <trkpt lat="43.56616" lon="1.13426">
        <ele>243.907773</ele>
        <time>2020-09-20T09:29:49.000Z</time>
      </trkpt>
      <trkpt lat="43.56632" lon="1.13432">
        <ele>243.063139</ele>
        <time>2020-09-20T09:29:51.000Z</time>
      </trkpt>
      <trkpt lat="43.56656" lon="1.1344">
        <ele>241.747901</ele>
        <time>2020-09-20T09:29:54.000Z</time>
      </trkpt>
      <trkpt lat="43.56688" lon="1.13453">
        <ele>239.973316</ele>
        <time>2020-09-20T09:29:58.000Z</time>
      </trkpt>
      <trkpt lat="43.56703" lon="1.13459">
        <ele>239.189423</ele>
        <time>2020-09-20T09:30:00.000Z</time>
      </trkpt>
      <trkpt lat="43.56709" lon="1.13462">
        <ele>238.82537</ele>
        <time>2020-09-20T09:30:01.000Z</time>
      </trkpt>
      <trkpt lat="43.56737" lon="1.13471">
        <ele>237.306133</ele>
        <time>2020-09-20T09:30:05.000Z</time>
      </trkpt>
      <trkpt lat="43.5675" lon="1.13476">
        <ele>236.606339</ele>
        <time>2020-09-20T09:30:07.000Z</time>
      </trkpt>
      <trkpt lat="43.56769" lon="1.13481">
        <ele>235.583174</ele>
        <time>2020-09-20T09:30:10.000Z</time>
      </trkpt>
      <trkpt lat="43.56782" lon="1.13485">
        <ele>235.396767</ele>
        <time>2020-09-20T09:30:12.000Z</time>
      </trkpt>
      <trkpt lat="43.56813" lon="1.13494">
        <ele>236.041259</ele>
        <time>2020-09-20T09:30:17.000Z</time>
      </trkpt>
      <trkpt lat="43.5682" lon="1.13496">
        <ele>236.169666</ele>
        <time>2020-09-20T09:30:18.000Z</time>
      </trkpt>
      <trkpt lat="43.56844" lon="1.13506">
        <ele>236.680557</ele>
        <time>2020-09-20T09:30:22.000Z</time>
      </trkpt>
      <trkpt lat="43.56856" lon="1.13511">
        <ele>236.931852</ele>
        <time>2020-09-20T09:30:24.000Z</time>
      </trkpt>
      <trkpt lat="43.56879" lon="1.13521">
        <ele>237.424379</ele>
        <time>2020-09-20T09:30:28.000Z</time>
      </trkpt>
      <trkpt lat="43.56908" lon="1.13532">
        <ele>238.01975</ele>
        <time>2020-09-20T09:30:33.000Z</time>
      </trkpt>
      <trkpt lat="43.56929" lon="1.13541">
        <ele>238.472011</ele>
        <time>2020-09-20T09:30:37.000Z</time>
      </trkpt>
      <trkpt lat="43.56939" lon="1.13546">
        <ele>238.68605</ele>
        <time>2020-09-20T09:30:39.000Z</time>
      </trkpt>
      <trkpt lat="43.56944" lon="1.13548">
        <ele>238.788696</ele>
        <time>2020-09-20T09:30:40.000Z</time>
      </trkpt>
      <trkpt lat="43.56963" lon="1.13556">
        <ele>239.662799</ele>
        <time>2020-09-20T09:30:44.000Z</time>
      </trkpt>
      <trkpt lat="43.56973" lon="1.13559">
        <ele>240.168492</ele>
        <time>2020-09-20T09:30:46.000Z</time>
      </trkpt>
      <trkpt lat="43.56987" lon="1.13565">
        <ele>240.90293</ele>
        <time>2020-09-20T09:30:49.000Z</time>
      </trkpt>
      <trkpt lat="43.56996" lon="1.13569">
        <ele>241.400151</ele>
        <time>2020-09-20T09:30:51.000Z</time>
      </trkpt>
      <trkpt lat="43.57001" lon="1.13571">
        <ele>241.650638</ele>
        <time>2020-09-20T09:30:52.000Z</time>
      </trkpt>
      <trkpt lat="43.5701" lon="1.13575">
        <ele>242.150257</ele>
        <time>2020-09-20T09:30:54.000Z</time>
      </trkpt>
      <trkpt lat="43.57023" lon="1.13582">
        <ele>242.876043</ele>
        <time>2020-09-20T09:30:57.000Z</time>
      </trkpt>
      <trkpt lat="43.57027" lon="1.13584">
        <ele>243.092716</ele>
        <time>2020-09-20T09:30:58.000Z</time>
      </trkpt>
      <trkpt lat="43.5704" lon="1.13591">
        <ele>243.781741</ele>
        <time>2020-09-20T09:31:01.000Z</time>
      </trkpt>
      <trkpt lat="43.57053" lon="1.13596">
        <ele>244.459378</ele>
        <time>2020-09-20T09:31:04.000Z</time>
      </trkpt>
      <trkpt lat="43.57057" lon="1.13598">
        <ele>244.685655</ele>
        <time>2020-09-20T09:31:05.000Z</time>
      </trkpt>
      <trkpt lat="43.57073" lon="1.13605">
        <ele>245.563716</ele>
        <time>2020-09-20T09:31:09.000Z</time>
      </trkpt>
      <trkpt lat="43.57081" lon="1.13609">
        <ele>245.971897</ele>
        <time>2020-09-20T09:31:11.000Z</time>
      </trkpt>
      <trkpt lat="43.57089" lon="1.13613">
        <ele>246.410036</ele>
        <time>2020-09-20T09:31:13.000Z</time>
      </trkpt>
      <trkpt lat="43.57103" lon="1.13619">
        <ele>247.145809</ele>
        <time>2020-09-20T09:31:16.000Z</time>
      </trkpt>
      <trkpt lat="43.57107" lon="1.13621">
        <ele>247.397408</ele>
        <time>2020-09-20T09:31:17.000Z</time>
      </trkpt>
      <trkpt lat="43.57116" lon="1.13625">
        <ele>247.852451</ele>
        <time>2020-09-20T09:31:19.000Z</time>
      </trkpt>
      <trkpt lat="43.57125" lon="1.13628">
        <ele>248.336409</ele>
        <time>2020-09-20T09:31:21.000Z</time>
      </trkpt>
      <trkpt lat="43.57134" lon="1.1363">
        <ele>248.867366</ele>
        <time>2020-09-20T09:31:23.000Z</time>
      </trkpt>
      <trkpt lat="43.57139" lon="1.13632">
        <ele>249.150541</ele>
        <time>2020-09-20T09:31:24.000Z</time>
      </trkpt>
      <trkpt lat="43.57152" lon="1.13642">
        <ele>250.02033</ele>
        <time>2020-09-20T09:31:27.000Z</time>
      </trkpt>
      <trkpt lat="43.57156" lon="1.13647">
        <ele>250.333346</ele>
        <time>2020-09-20T09:31:28.000Z</time>
      </trkpt>
      <trkpt lat="43.57188" lon="1.13685">
        <ele>252.682175</ele>
        <time>2020-09-20T09:31:36.000Z</time>
      </trkpt>
      <trkpt lat="43.57194" lon="1.13693">
        <ele>253.203836</ele>
        <time>2020-09-20T09:31:38.000Z</time>
      </trkpt>
      <trkpt lat="43.57198" lon="1.13698">
        <ele>253.461194</ele>
        <time>2020-09-20T09:31:39.000Z</time>
      </trkpt>
      <trkpt lat="43.57208" lon="1.1371">
        <ele>254.219614</ele>
        <time>2020-09-20T09:31:42.000Z</time>
      </trkpt>
      <trkpt lat="43.57217" lon="1.13722">
        <ele>254.930936</ele>
        <time>2020-09-20T09:31:45.000Z</time>
      </trkpt>
      <trkpt lat="43.57222" lon="1.13731">
        <ele>255.400689</ele>
        <time>2020-09-20T09:31:47.000Z</time>
      </trkpt>
      <trkpt lat="43.57224" lon="1.13735">
        <ele>255.640247</ele>
        <time>2020-09-20T09:31:48.000Z</time>
      </trkpt>
      <trkpt lat="43.57229" lon="1.13745">
        <ele>256.116058</ele>
        <time>2020-09-20T09:31:50.000Z</time>
      </trkpt>
      <trkpt lat="43.57235" lon="1.13753">
        <ele>256.594565</ele>
        <time>2020-09-20T09:31:52.000Z</time>
      </trkpt>
      <trkpt lat="43.57242" lon="1.13759">
        <ele>257.052579</ele>
        <time>2020-09-20T09:31:54.000Z</time>
      </trkpt>
      <trkpt lat="43.57251" lon="1.13769">
        <ele>257.692253</ele>
        <time>2020-09-20T09:31:57.000Z</time>
      </trkpt>
      <trkpt lat="43.57259" lon="1.13777">
        <ele>258.240891</ele>
        <time>2020-09-20T09:32:00.000Z</time>
      </trkpt>
      <trkpt lat="43.57268" lon="1.13787">
        <ele>259.010006</ele>
        <time>2020-09-20T09:32:04.000Z</time>
      </trkpt>
      <trkpt lat="43.57273" lon="1.13794">
        <ele>259.46693</ele>
        <time>2020-09-20T09:32:06.000Z</time>
      </trkpt>
      <trkpt lat="43.57279" lon="1.13801">
        <ele>259.953815</ele>
        <time>2020-09-20T09:32:08.000Z</time>
      </trkpt>
      <trkpt lat="43.57284" lon="1.13807">
        <ele>260.421741</ele>
        <time>2020-09-20T09:32:10.000Z</time>
      </trkpt>
      <trkpt lat="43.5729" lon="1.13814">
        <ele>260.905577</ele>
        <time>2020-09-20T09:32:12.000Z</time>
      </trkpt>
      <trkpt lat="43.57293" lon="1.13817">
        <ele>261.134646</ele>
        <time>2020-09-20T09:32:13.000Z</time>
      </trkpt>
      <trkpt lat="43.57302" lon="1.13827">
        <ele>261.871999</ele>
        <time>2020-09-20T09:32:16.000Z</time>
      </trkpt>
      <trkpt lat="43.57309" lon="1.13836">
        <ele>262.534622</ele>
        <time>2020-09-20T09:32:19.000Z</time>
      </trkpt>
      <trkpt lat="43.57314" lon="1.13841">
        <ele>262.926839</ele>
        <time>2020-09-20T09:32:21.000Z</time>
      </trkpt>
      <trkpt lat="43.57322" lon="1.13852">
        <ele>263.665805</ele>
        <time>2020-09-20T09:32:25.000Z</time>
      </trkpt>
      <trkpt lat="43.57337" lon="1.1387">
        <ele>264.909318</ele>
        <time>2020-09-20T09:32:31.000Z</time>
      </trkpt>
      <trkpt lat="43.5735" lon="1.13887">
        <ele>266.102995</ele>
        <time>2020-09-20T09:32:36.000Z</time>
      </trkpt>
      <trkpt lat="43.57356" lon="1.13893">
        <ele>266.539111</ele>
        <time>2020-09-20T09:32:38.000Z</time>
      </trkpt>
      <trkpt lat="43.57369" lon="1.13897">
        <ele>267.40324</ele>
        <time>2020-09-20T09:32:42.000Z</time>
      </trkpt>
      <trkpt lat="43.57376" lon="1.1389">
        <ele>267.991476</ele>
        <time>2020-09-20T09:32:46.000Z</time>
      </trkpt>
      <trkpt lat="43.57379" lon="1.13886">
        <ele>268.263123</ele>
        <time>2020-09-20T09:32:48.000Z</time>
      </trkpt>
      <trkpt lat="43.57388" lon="1.1387">
        <ele>269.195895</ele>
        <time>2020-09-20T09:32:54.000Z</time>
      </trkpt>
      <trkpt lat="43.57393" lon="1.13861">
        <ele>269.705445</ele>
        <time>2020-09-20T09:32:57.000Z</time>
      </trkpt>
      <trkpt lat="43.57397" lon="1.13853">
        <ele>269.712029</ele>
        <time>2020-09-20T09:33:00.000Z</time>
      </trkpt>
      <trkpt lat="43.57405" lon="1.13847">
        <ele>269.447297</ele>
        <time>2020-09-20T09:33:04.000Z</time>
      </trkpt>
      <trkpt lat="43.57407" lon="1.13848">
        <ele>269.400001</ele>
        <time>2020-09-20T09:33:05.000Z</time>
      </trkpt>
      <trkpt lat="43.57407" lon="1.13849">
        <ele>269.360715</ele>
        <time>2020-09-20T09:33:09.000Z</time>
      </trkpt>
      <trkpt lat="43.57406" lon="1.13854">
        <ele>269.261298</ele>
        <time>2020-09-20T09:34:30.000Z</time>
      </trkpt>
      <trkpt lat="43.57407" lon="1.13856">
        <ele>269.220778</ele>
        <time>2020-09-20T09:34:31.000Z</time>
      </trkpt>
      <trkpt lat="43.57407" lon="1.13857">
        <ele>269.197197</ele>
        <time>2020-09-20T09:34:32.000Z</time>
      </trkpt>
      <trkpt lat="43.57407" lon="1.13857">
        <ele>269.188197</ele>
        <time>2020-09-20T09:34:33.000Z</time>
      </trkpt>
      <trkpt lat="43.57408" lon="1.13869">
        <ele>268.946055</ele>
        <time>2020-09-20T09:34:43.000Z</time>
      </trkpt>
      <trkpt lat="43.5741" lon="1.1387">
        <ele>268.884295</ele>
        <time>2020-09-20T09:34:45.000Z</time>
      </trkpt>
      <trkpt lat="43.57411" lon="1.1387">
        <ele>268.848051</ele>
        <time>2020-09-20T09:34:46.000Z</time>
      </trkpt>
      <trkpt lat="43.57418" lon="1.13877">
        <ele>268.597445</ele>
        <time>2020-09-20T09:34:51.000Z</time>
      </trkpt>
      <trkpt lat="43.57426" lon="1.13881">
        <ele>268.337249</ele>
        <time>2020-09-20T09:34:55.000Z</time>
      </trkpt>
      <trkpt lat="43.57427" lon="1.13883">
        <ele>268.288265</ele>
        <time>2020-09-20T09:34:56.000Z</time>
      </trkpt>
      <trkpt lat="43.57428" lon="1.13885">
        <ele>268.236577</ele>
        <time>2020-09-20T09:34:57.000Z</time>
      </trkpt>
      <trkpt lat="43.57432" lon="1.13889">
        <ele>268.10187</ele>
        <time>2020-09-20T09:34:59.000Z</time>
      </trkpt>
      <trkpt lat="43.57436" lon="1.13889">
        <ele>267.9696</ele>
        <time>2020-09-20T09:35:01.000Z</time>
      </trkpt>
      <trkpt lat="43.57441" lon="1.1389">
        <ele>267.829641</ele>
        <time>2020-09-20T09:35:03.000Z</time>
      </trkpt>
      <trkpt lat="43.57448" lon="1.13897">
        <ele>267.574703</ele>
        <time>2020-09-20T09:35:06.000Z</time>
      </trkpt>
      <trkpt lat="43.57451" lon="1.13898">
        <ele>267.494214</ele>
        <time>2020-09-20T09:35:07.000Z</time>
      </trkpt>
      <trkpt lat="43.57453" lon="1.13898">
        <ele>267.432231</ele>
        <time>2020-09-20T09:35:08.000Z</time>
      </trkpt>
      <trkpt lat="43.57456" lon="1.13902">
        <ele>267.296548</ele>
        <time>2020-09-20T09:35:10.000Z</time>
      </trkpt>
      <trkpt lat="43.57459" lon="1.13904">
        <ele>267.203987</ele>
        <time>2020-09-20T09:35:11.000Z</time>
      </trkpt>
      <trkpt lat="43.5747" lon="1.13913">
        <ele>266.841531</ele>
        <time>2020-09-20T09:35:15.000Z</time>
      </trkpt>
      <trkpt lat="43.57476" lon="1.13917">
        <ele>266.635267</ele>
        <time>2020-09-20T09:35:18.000Z</time>
      </trkpt>
      <trkpt lat="43.57489" lon="1.13928">
        <ele>266.197321</ele>
        <time>2020-09-20T09:35:24.000Z</time>
      </trkpt>
      <trkpt lat="43.57496" lon="1.13936">
        <ele>265.925956</ele>
        <time>2020-09-20T09:35:26.000Z</time>
      </trkpt>
      <trkpt lat="43.57499" lon="1.13938">
        <ele>265.824431</ele>
        <time>2020-09-20T09:35:27.000Z</time>
      </trkpt>
      <trkpt lat="43.57505" lon="1.13941">
        <ele>265.630115</ele>
        <time>2020-09-20T09:35:29.000Z</time>
      </trkpt>
      <trkpt lat="43.57507" lon="1.13939">
        <ele>265.556092</ele>
        <time>2020-09-20T09:35:30.000Z</time>
      </trkpt>
      <trkpt lat="43.5751" lon="1.13937">
        <ele>265.464192</ele>
        <time>2020-09-20T09:35:31.000Z</time>
      </trkpt>
      <trkpt lat="43.57515" lon="1.13927">
        <ele>265.207191</ele>
        <time>2020-09-20T09:35:34.000Z</time>
      </trkpt>
      <trkpt lat="43.57522" lon="1.13914">
        <ele>264.87302</ele>
        <time>2020-09-20T09:35:38.000Z</time>
      </trkpt>
      <trkpt lat="43.57527" lon="1.1391">
        <ele>264.711114</ele>
        <time>2020-09-20T09:35:40.000Z</time>
      </trkpt>
      <trkpt lat="43.57533" lon="1.13909">
        <ele>264.67954</ele>
        <time>2020-09-20T09:35:42.000Z</time>
      </trkpt>
      <trkpt lat="43.57539" lon="1.13903">
        <ele>265.01643</ele>
        <time>2020-09-20T09:35:45.000Z</time>
      </trkpt>
      <trkpt lat="43.57541" lon="1.13893">
        <ele>265.401397</ele>
        <time>2020-09-20T09:35:49.000Z</time>
      </trkpt>
      <trkpt lat="43.57545" lon="1.13886">
        <ele>265.707334</ele>
        <time>2020-09-20T09:35:52.000Z</time>
      </trkpt>
      <trkpt lat="43.57547" lon="1.13883">
        <ele>265.819866</ele>
        <time>2020-09-20T09:35:53.000Z</time>
      </trkpt>
      <trkpt lat="43.57549" lon="1.13876">
        <ele>266.076809</ele>
        <time>2020-09-20T09:35:55.000Z</time>
      </trkpt>
      <trkpt lat="43.5755" lon="1.13873">
        <ele>266.187693</ele>
        <time>2020-09-20T09:35:56.000Z</time>
      </trkpt>
      <trkpt lat="43.57554" lon="1.1387">
        <ele>266.417272</ele>
        <time>2020-09-20T09:35:58.000Z</time>
      </trkpt>
      <trkpt lat="43.57557" lon="1.1387">
        <ele>266.515869</ele>
        <time>2020-09-20T09:35:59.000Z</time>
      </trkpt>
      <trkpt lat="43.57561" lon="1.13867">
        <ele>266.761812</ele>
        <time>2020-09-20T09:36:03.000Z</time>
      </trkpt>
      <trkpt lat="43.57566" lon="1.13856">
        <ele>267.199028</ele>
        <time>2020-09-20T09:36:06.000Z</time>
      </trkpt>
      <trkpt lat="43.57569" lon="1.13852">
        <ele>267.369012</ele>
        <time>2020-09-20T09:36:07.000Z</time>
      </trkpt>
      <trkpt lat="43.57573" lon="1.13847">
        <ele>267.648639</ele>
        <time>2020-09-20T09:36:09.000Z</time>
      </trkpt>
      <trkpt lat="43.57576" lon="1.13844">
        <ele>267.794224</ele>
        <time>2020-09-20T09:36:10.000Z</time>
      </trkpt>
      <trkpt lat="43.57582" lon="1.13836">
        <ele>268.193984</ele>
        <time>2020-09-20T09:36:13.000Z</time>
      </trkpt>
      <trkpt lat="43.57585" lon="1.13835">
        <ele>268.339239</ele>
        <time>2020-09-20T09:36:14.000Z</time>
      </trkpt>
      <trkpt lat="43.57588" lon="1.13833">
        <ele>268.488823</ele>
        <time>2020-09-20T09:36:15.000Z</time>
      </trkpt>
      <trkpt lat="43.57596" lon="1.13827">
        <ele>268.928622</ele>
        <time>2020-09-20T09:36:19.000Z</time>
      </trkpt>
      <trkpt lat="43.57605" lon="1.13819">
        <ele>269.39383</ele>
        <time>2020-09-20T09:36:22.000Z</time>
      </trkpt>
      <trkpt lat="43.57617" lon="1.13805">
        <ele>270.155498</ele>
        <time>2020-09-20T09:36:27.000Z</time>
      </trkpt>
      <trkpt lat="43.57622" lon="1.13799">
        <ele>270.448719</ele>
        <time>2020-09-20T09:36:29.000Z</time>
      </trkpt>
      <trkpt lat="43.57624" lon="1.13796">
        <ele>270.584608</ele>
        <time>2020-09-20T09:36:30.000Z</time>
      </trkpt>
      <trkpt lat="43.57629" lon="1.13792">
        <ele>270.847552</ele>
        <time>2020-09-20T09:36:32.000Z</time>
      </trkpt>
      <trkpt lat="43.57634" lon="1.13784">
        <ele>271.202245</ele>
        <time>2020-09-20T09:36:34.000Z</time>
      </trkpt>
      <trkpt lat="43.57638" lon="1.13772">
        <ele>271.632081</ele>
        <time>2020-09-20T09:36:37.000Z</time>
      </trkpt>
      <trkpt lat="43.57641" lon="1.13764">
        <ele>271.941611</ele>
        <time>2020-09-20T09:36:39.000Z</time>
      </trkpt>
      <trkpt lat="43.57644" lon="1.13757">
        <ele>272.212012</ele>
        <time>2020-09-20T09:36:41.000Z</time>
      </trkpt>
      <trkpt lat="43.57646" lon="1.13746">
        <ele>272.594289</ele>
        <time>2020-09-20T09:36:44.000Z</time>
      </trkpt>
      <trkpt lat="43.57648" lon="1.13731">
        <ele>273.427151</ele>
        <time>2020-09-20T09:36:48.000Z</time>
      </trkpt>
      <trkpt lat="43.5765" lon="1.13728">
        <ele>273.813404</ele>
        <time>2020-09-20T09:36:49.000Z</time>
      </trkpt>
      <trkpt lat="43.57658" lon="1.13716">
        <ele>275.267234</ele>
        <time>2020-09-20T09:36:53.000Z</time>
      </trkpt>
      <trkpt lat="43.57663" lon="1.13711">
        <ele>276.007849</ele>
        <time>2020-09-20T09:36:55.000Z</time>
      </trkpt>
      <trkpt lat="43.57667" lon="1.13711">
        <ele>276.563411</ele>
        <time>2020-09-20T09:36:57.000Z</time>
      </trkpt>
      <trkpt lat="43.57669" lon="1.13711">
        <ele>276.827102</ele>
        <time>2020-09-20T09:36:58.000Z</time>
      </trkpt>
      <trkpt lat="43.57675" lon="1.13716">
        <ele>277.661059</ele>
        <time>2020-09-20T09:37:01.000Z</time>
      </trkpt>
      <trkpt lat="43.57677" lon="1.13718">
        <ele>277.9541</ele>
        <time>2020-09-20T09:37:02.000Z</time>
      </trkpt>
      <trkpt lat="43.57686" lon="1.13723">
        <ele>279.22723</ele>
        <time>2020-09-20T09:37:06.000Z</time>
      </trkpt>
      <trkpt lat="43.57692" lon="1.1373">
        <ele>280.155509</ele>
        <time>2020-09-20T09:37:09.000Z</time>
      </trkpt>
      <trkpt lat="43.57695" lon="1.13734">
        <ele>280.746786</ele>
        <time>2020-09-20T09:37:11.000Z</time>
      </trkpt>
      <trkpt lat="43.577" lon="1.13741">
        <ele>281.615422</ele>
        <time>2020-09-20T09:37:14.000Z</time>
      </trkpt>
      <trkpt lat="43.57704" lon="1.13746">
        <ele>282.26407</ele>
        <time>2020-09-20T09:37:16.000Z</time>
      </trkpt>
      <trkpt lat="43.57711" lon="1.13747">
        <ele>283.142862</ele>
        <time>2020-09-20T09:37:19.000Z</time>
      </trkpt>
      <trkpt lat="43.57716" lon="1.13748">
        <ele>283.747889</ele>
        <time>2020-09-20T09:37:21.000Z</time>
      </trkpt>
      <trkpt lat="43.57719" lon="1.13748">
        <ele>284.112914</ele>
        <time>2020-09-20T09:37:22.000Z</time>
      </trkpt>
      <trkpt lat="43.57727" lon="1.13746">
        <ele>285.132506</ele>
        <time>2020-09-20T09:37:25.000Z</time>
      </trkpt>
      <trkpt lat="43.57732" lon="1.13746">
        <ele>285.757008</ele>
        <time>2020-09-20T09:37:27.000Z</time>
      </trkpt>
      <trkpt lat="43.57734" lon="1.13747">
        <ele>286.010872</ele>
        <time>2020-09-20T09:37:28.000Z</time>
      </trkpt>
      <trkpt lat="43.57736" lon="1.13748">
        <ele>286.258977</ele>
        <time>2020-09-20T09:37:29.000Z</time>
      </trkpt>
      <trkpt lat="43.57742" lon="1.13751">
        <ele>287.11792</ele>
        <time>2020-09-20T09:37:32.000Z</time>
      </trkpt>
      <trkpt lat="43.5775" lon="1.13756">
        <ele>288.21189</ele>
        <time>2020-09-20T09:37:36.000Z</time>
      </trkpt>
      <trkpt lat="43.57755" lon="1.13758">
        <ele>288.85097</ele>
        <time>2020-09-20T09:37:38.000Z</time>
      </trkpt>
      <trkpt lat="43.57757" lon="1.13758">
        <ele>289.1259</ele>
        <time>2020-09-20T09:37:39.000Z</time>
      </trkpt>
      <trkpt lat="43.57765" lon="1.1376">
        <ele>290.079971</ele>
        <time>2020-09-20T09:37:42.000Z</time>
      </trkpt>
      <trkpt lat="43.57773" lon="1.1376">
        <ele>291.104314</ele>
        <time>2020-09-20T09:37:45.000Z</time>
      </trkpt>
      <trkpt lat="43.57778" lon="1.1376">
        <ele>291.741562</ele>
        <time>2020-09-20T09:37:47.000Z</time>
      </trkpt>
      <trkpt lat="43.57786" lon="1.13764">
        <ele>292.795709</ele>
        <time>2020-09-20T09:37:50.000Z</time>
      </trkpt>
      <trkpt lat="43.57788" lon="1.13766">
        <ele>293.121137</ele>
        <time>2020-09-20T09:37:51.000Z</time>
      </trkpt>
      <trkpt lat="43.57791" lon="1.13767">
        <ele>293.461609</ele>
        <time>2020-09-20T09:37:52.000Z</time>
      </trkpt>
      <trkpt lat="43.578" lon="1.13773">
        <ele>294.747646</ele>
        <time>2020-09-20T09:37:56.000Z</time>
      </trkpt>
      <trkpt lat="43.57804" lon="1.13776">
        <ele>295.36059</ele>
        <time>2020-09-20T09:37:58.000Z</time>
      </trkpt>
      <trkpt lat="43.57814" lon="1.13786">
        <ele>295.580228</ele>
        <time>2020-09-20T09:38:02.000Z</time>
      </trkpt>
      <trkpt lat="43.57819" lon="1.13789">
        <ele>295.659617</ele>
        <time>2020-09-20T09:38:04.000Z</time>
      </trkpt>
      <trkpt lat="43.57826" lon="1.13795">
        <ele>295.776152</ele>
        <time>2020-09-20T09:38:07.000Z</time>
      </trkpt>
      <trkpt lat="43.5783" lon="1.13797">
        <ele>295.837359</ele>
        <time>2020-09-20T09:38:09.000Z</time>
      </trkpt>
      <trkpt lat="43.57832" lon="1.13799">
        <ele>295.862247</ele>
        <time>2020-09-20T09:38:10.000Z</time>
      </trkpt>
      <trkpt lat="43.57834" lon="1.13807">
        <ele>295.948422</ele>
        <time>2020-09-20T09:38:14.000Z</time>
      </trkpt>
      <trkpt lat="43.57833" lon="1.13812">
        <ele>295.997032</ele>
        <time>2020-09-20T09:38:16.000Z</time>
      </trkpt>
      <trkpt lat="43.57831" lon="1.13821">
        <ele>296.093363</ele>
        <time>2020-09-20T09:38:21.000Z</time>
      </trkpt>
      <trkpt lat="43.57831" lon="1.13821">
        <ele>296.102084</ele>
        <time>2020-09-20T09:38:23.000Z</time>
      </trkpt>
      <trkpt lat="43.57829" lon="1.13832">
        <ele>296.219478</ele>
        <time>2020-09-20T09:39:40.000Z</time>
      </trkpt>
      <trkpt lat="43.57828" lon="1.13835">
        <ele>296.249891</ele>
        <time>2020-09-20T09:39:41.000Z</time>
      </trkpt>
      <trkpt lat="43.57827" lon="1.13838">
        <ele>296.281836</ele>
        <time>2020-09-20T09:39:42.000Z</time>
      </trkpt>
      <trkpt lat="43.57822" lon="1.13849">
        <ele>296.413582</ele>
        <time>2020-09-20T09:39:46.000Z</time>
      </trkpt>
      <trkpt lat="43.57816" lon="1.13865">
        <ele>296.597297</ele>
        <time>2020-09-20T09:39:51.000Z</time>
      </trkpt>
      <trkpt lat="43.57811" lon="1.13876">
        <ele>296.727591</ele>
        <time>2020-09-20T09:39:54.000Z</time>
      </trkpt>
      <trkpt lat="43.57802" lon="1.13898">
        <ele>296.997118</ele>
        <time>2020-09-20T09:40:00.000Z</time>
      </trkpt>
      <trkpt lat="43.57788" lon="1.13926">
        <ele>297.338602</ele>
        <time>2020-09-20T09:40:06.000Z</time>
      </trkpt>
      <trkpt lat="43.57783" lon="1.13937">
        <ele>297.470621</ele>
        <time>2020-09-20T09:40:08.000Z</time>
      </trkpt>
      <trkpt lat="43.5778" lon="1.13942">
        <ele>297.541061</ele>
        <time>2020-09-20T09:40:09.000Z</time>
      </trkpt>
      <trkpt lat="43.57774" lon="1.13955">
        <ele>297.688971</ele>
        <time>2020-09-20T09:40:11.000Z</time>
      </trkpt>
      <trkpt lat="43.57763" lon="1.13975">
        <ele>297.951867</ele>
        <time>2020-09-20T09:40:14.000Z</time>
      </trkpt>
      <trkpt lat="43.57754" lon="1.13987">
        <ele>296.983184</ele>
        <time>2020-09-20T09:40:16.000Z</time>
      </trkpt>
      <trkpt lat="43.57735" lon="1.14017">
        <ele>294.713868</ele>
        <time>2020-09-20T09:40:20.000Z</time>
      </trkpt>
      <trkpt lat="43.5773" lon="1.14025">
        <ele>294.105276</ele>
        <time>2020-09-20T09:40:21.000Z</time>
      </trkpt>
      <trkpt lat="43.57725" lon="1.14033">
        <ele>293.519987</ele>
        <time>2020-09-20T09:40:22.000Z</time>
      </trkpt>
      <trkpt lat="43.57716" lon="1.1405">
        <ele>292.262084</ele>
        <time>2020-09-20T09:40:24.000Z</time>
      </trkpt>
      <trkpt lat="43.57707" lon="1.14066">
        <ele>291.1381</ele>
        <time>2020-09-20T09:40:26.000Z</time>
      </trkpt>
      <trkpt lat="43.57703" lon="1.14074">
        <ele>290.599452</ele>
        <time>2020-09-20T09:40:27.000Z</time>
      </trkpt>
      <trkpt lat="43.57697" lon="1.1409">
        <ele>289.553425</ele>
        <time>2020-09-20T09:40:29.000Z</time>
      </trkpt>
      <trkpt lat="43.57694" lon="1.14099">
        <ele>289.014633</ele>
        <time>2020-09-20T09:40:30.000Z</time>
      </trkpt>
      <trkpt lat="43.57687" lon="1.14115">
        <ele>287.951621</ele>
        <time>2020-09-20T09:40:32.000Z</time>
      </trkpt>
      <trkpt lat="43.57676" lon="1.14142">
        <ele>286.10029</ele>
        <time>2020-09-20T09:40:35.000Z</time>
      </trkpt>
      <trkpt lat="43.57672" lon="1.14152">
        <ele>285.45178</ele>
        <time>2020-09-20T09:40:36.000Z</time>
      </trkpt>
      <trkpt lat="43.57667" lon="1.14162">
        <ele>284.790308</ele>
        <time>2020-09-20T09:40:37.000Z</time>
      </trkpt>
      <trkpt lat="43.57664" lon="1.14171">
        <ele>284.191108</ele>
        <time>2020-09-20T09:40:38.000Z</time>
      </trkpt>
      <trkpt lat="43.57657" lon="1.1419">
        <ele>282.587678</ele>
        <time>2020-09-20T09:40:40.000Z</time>
      </trkpt>
      <trkpt lat="43.57653" lon="1.142">
        <ele>281.505557</ele>
        <time>2020-09-20T09:40:41.000Z</time>
      </trkpt>
      <trkpt lat="43.57645" lon="1.14218">
        <ele>279.569781</ele>
        <time>2020-09-20T09:40:43.000Z</time>
      </trkpt>
      <trkpt lat="43.57642" lon="1.14227">
        <ele>278.684149</ele>
        <time>2020-09-20T09:40:44.000Z</time>
      </trkpt>
      <trkpt lat="43.57638" lon="1.14235">
        <ele>277.788736</ele>
        <time>2020-09-20T09:40:45.000Z</time>
      </trkpt>
      <trkpt lat="43.57635" lon="1.14244">
        <ele>276.896746</ele>
        <time>2020-09-20T09:40:46.000Z</time>
      </trkpt>
      <trkpt lat="43.57632" lon="1.14251">
        <ele>276.153421</ele>
        <time>2020-09-20T09:40:47.000Z</time>
      </trkpt>
      <trkpt lat="43.57631" lon="1.14256">
        <ele>275.629169</ele>
        <time>2020-09-20T09:40:48.000Z</time>
      </trkpt>
      <trkpt lat="43.5763" lon="1.14273">
        <ele>274.120685</ele>
        <time>2020-09-20T09:40:51.000Z</time>
      </trkpt>
      <trkpt lat="43.57629" lon="1.14279">
        <ele>273.506888</ele>
        <time>2020-09-20T09:40:52.000Z</time>
      </trkpt>
      <trkpt lat="43.57628" lon="1.14287">
        <ele>272.789598</ele>
        <time>2020-09-20T09:40:53.000Z</time>
      </trkpt>
      <trkpt lat="43.57629" lon="1.14295">
        <ele>272.074937</ele>
        <time>2020-09-20T09:40:54.000Z</time>
      </trkpt>
      <trkpt lat="43.57629" lon="1.14304">
        <ele>271.270665</ele>
        <time>2020-09-20T09:40:55.000Z</time>
      </trkpt>
      <trkpt lat="43.57629" lon="1.14311">
        <ele>270.635516</ele>
        <time>2020-09-20T09:40:56.000Z</time>
      </trkpt>
      <trkpt lat="43.57627" lon="1.1432">
        <ele>269.706559</ele>
        <time>2020-09-20T09:40:58.000Z</time>
      </trkpt>
      <trkpt lat="43.57627" lon="1.14326">
        <ele>269.213029</ele>
        <time>2020-09-20T09:40:59.000Z</time>
      </trkpt>
      <trkpt lat="43.57626" lon="1.14337">
        <ele>268.172593</ele>
        <time>2020-09-20T09:41:01.000Z</time>
      </trkpt>
      <trkpt lat="43.57626" lon="1.14342">
        <ele>267.733718</ele>
        <time>2020-09-20T09:41:02.000Z</time>
      </trkpt>
      <trkpt lat="43.57627" lon="1.14356">
        <ele>266.403642</ele>
        <time>2020-09-20T09:41:05.000Z</time>
      </trkpt>
      <trkpt lat="43.57626" lon="1.14362">
        <ele>265.839184</ele>
        <time>2020-09-20T09:41:06.000Z</time>
      </trkpt>
      <trkpt lat="43.57626" lon="1.14368">
        <ele>265.299573</ele>
        <time>2020-09-20T09:41:07.000Z</time>
      </trkpt>
      <trkpt lat="43.57626" lon="1.14373">
        <ele>264.868355</ele>
        <time>2020-09-20T09:41:08.000Z</time>
      </trkpt>
      <trkpt lat="43.57628" lon="1.14376">
        <ele>264.444852</ele>
        <time>2020-09-20T09:41:09.000Z</time>
      </trkpt>
      <trkpt lat="43.5763" lon="1.1438">
        <ele>264.022868</ele>
        <time>2020-09-20T09:41:10.000Z</time>
      </trkpt>
      <trkpt lat="43.57633" lon="1.14384">
        <ele>263.536412</ele>
        <time>2020-09-20T09:41:11.000Z</time>
      </trkpt>
      <trkpt lat="43.57638" lon="1.14392">
        <ele>262.523623</ele>
        <time>2020-09-20T09:41:13.000Z</time>
      </trkpt>
      <trkpt lat="43.57639" lon="1.14396">
        <ele>262.192788</ele>
        <time>2020-09-20T09:41:14.000Z</time>
      </trkpt>
      <trkpt lat="43.57641" lon="1.144">
        <ele>261.763251</ele>
        <time>2020-09-20T09:41:15.000Z</time>
      </trkpt>
      <trkpt lat="43.57644" lon="1.14404">
        <ele>261.180395</ele>
        <time>2020-09-20T09:41:16.000Z</time>
      </trkpt>
      <trkpt lat="43.57646" lon="1.14409">
        <ele>260.870188</ele>
        <time>2020-09-20T09:41:17.000Z</time>
      </trkpt>
      <trkpt lat="43.57647" lon="1.14413">
        <ele>260.677195</ele>
        <time>2020-09-20T09:41:18.000Z</time>
      </trkpt>
      <trkpt lat="43.57648" lon="1.14417">
        <ele>260.520622</ele>
        <time>2020-09-20T09:41:19.000Z</time>
      </trkpt>
      <trkpt lat="43.57649" lon="1.14422">
        <ele>260.278717</ele>
        <time>2020-09-20T09:41:20.000Z</time>
      </trkpt>
      <trkpt lat="43.5765" lon="1.14435">
        <ele>259.715576</ele>
        <time>2020-09-20T09:41:22.000Z</time>
      </trkpt>
      <trkpt lat="43.5765" lon="1.14445">
        <ele>259.286638</ele>
        <time>2020-09-20T09:41:24.000Z</time>
      </trkpt>
      <trkpt lat="43.5765" lon="1.14451">
        <ele>259.002328</ele>
        <time>2020-09-20T09:41:27.000Z</time>
      </trkpt>
      <trkpt lat="43.57651" lon="1.14454">
        <ele>258.879182</ele>
        <time>2020-09-20T09:41:29.000Z</time>
      </trkpt>
      <trkpt lat="43.5765" lon="1.14461">
        <ele>258.557653</ele>
        <time>2020-09-20T09:41:32.000Z</time>
      </trkpt>
      <trkpt lat="43.57648" lon="1.14465">
        <ele>258.390676</ele>
        <time>2020-09-20T09:41:33.000Z</time>
      </trkpt>
      <trkpt lat="43.57649" lon="1.14469">
        <ele>258.217778</ele>
        <time>2020-09-20T09:41:34.000Z</time>
      </trkpt>
      <trkpt lat="43.5765" lon="1.14475">
        <ele>257.925358</ele>
        <time>2020-09-20T09:41:36.000Z</time>
      </trkpt>
      <trkpt lat="43.5765" lon="1.14478">
        <ele>257.791547</ele>
        <time>2020-09-20T09:41:37.000Z</time>
      </trkpt>
      <trkpt lat="43.57645" lon="1.14489">
        <ele>257.251302</ele>
        <time>2020-09-20T09:41:41.000Z</time>
      </trkpt>
      <trkpt lat="43.57636" lon="1.1449">
        <ele>256.67791</ele>
        <time>2020-09-20T09:41:44.000Z</time>
      </trkpt>
      <trkpt lat="43.57632" lon="1.1449">
        <ele>256.444769</ele>
        <time>2020-09-20T09:41:45.000Z</time>
      </trkpt>
      <trkpt lat="43.57618" lon="1.14486">
        <ele>255.616973</ele>
        <time>2020-09-20T09:41:50.000Z</time>
      </trkpt>
      <trkpt lat="43.57611" lon="1.14491">
        <ele>255.147827</ele>
        <time>2020-09-20T09:41:52.000Z</time>
      </trkpt>
      <trkpt lat="43.57605" lon="1.145">
        <ele>254.616376</ele>
        <time>2020-09-20T09:41:54.000Z</time>
      </trkpt>
      <trkpt lat="43.57598" lon="1.14512">
        <ele>253.977272</ele>
        <time>2020-09-20T09:41:57.000Z</time>
      </trkpt>
      <trkpt lat="43.57596" lon="1.14515">
        <ele>253.773502</ele>
        <time>2020-09-20T09:41:58.000Z</time>
      </trkpt>
      <trkpt lat="43.57588" lon="1.14527">
        <ele>253.09187</ele>
        <time>2020-09-20T09:42:01.000Z</time>
      </trkpt>
      <trkpt lat="43.5758" lon="1.14542">
        <ele>252.285177</ele>
        <time>2020-09-20T09:42:05.000Z</time>
      </trkpt>
      <trkpt lat="43.57569" lon="1.14543">
        <ele>251.616507</ele>
        <time>2020-09-20T09:42:08.000Z</time>
      </trkpt>
      <trkpt lat="43.57566" lon="1.14543">
        <ele>251.407462</ele>
        <time>2020-09-20T09:42:09.000Z</time>
      </trkpt>
      <trkpt lat="43.57556" lon="1.14547">
        <ele>250.833322</ele>
        <time>2020-09-20T09:42:12.000Z</time>
      </trkpt>
      <trkpt lat="43.57548" lon="1.14557">
        <ele>250.393544</ele>
        <time>2020-09-20T09:42:16.000Z</time>
      </trkpt>
      <trkpt lat="43.57537" lon="1.1456">
        <ele>250.671036</ele>
        <time>2020-09-20T09:42:20.000Z</time>
      </trkpt>
      <trkpt lat="43.57531" lon="1.14561">
        <ele>250.82579</ele>
        <time>2020-09-20T09:42:22.000Z</time>
      </trkpt>
      <trkpt lat="43.57524" lon="1.14562">
        <ele>250.979885</ele>
        <time>2020-09-20T09:42:24.000Z</time>
      </trkpt>
      <trkpt lat="43.57521" lon="1.14561">
        <ele>251.066297</ele>
        <time>2020-09-20T09:42:25.000Z</time>
      </trkpt>
      <trkpt lat="43.57515" lon="1.14556">
        <ele>251.226665</ele>
        <time>2020-09-20T09:42:27.000Z</time>
      </trkpt>
      <trkpt lat="43.57505" lon="1.1455">
        <ele>251.488234</ele>
        <time>2020-09-20T09:42:30.000Z</time>
      </trkpt>
      <trkpt lat="43.57498" lon="1.14559">
        <ele>251.72354</ele>
        <time>2020-09-20T09:42:33.000Z</time>
      </trkpt>
      <trkpt lat="43.5749" lon="1.14575">
        <ele>252.059753</ele>
        <time>2020-09-20T09:42:37.000Z</time>
      </trkpt>
      <trkpt lat="43.57488" lon="1.14579">
        <ele>252.144527</ele>
        <time>2020-09-20T09:42:38.000Z</time>
      </trkpt>
      <trkpt lat="43.57476" lon="1.14598">
        <ele>252.587323</ele>
        <time>2020-09-20T09:42:43.000Z</time>
      </trkpt>
      <trkpt lat="43.57474" lon="1.14603">
        <ele>252.680474</ele>
        <time>2020-09-20T09:42:44.000Z</time>
      </trkpt>
      <trkpt lat="43.57465" lon="1.1462">
        <ele>253.045334</ele>
        <time>2020-09-20T09:42:48.000Z</time>
      </trkpt>
      <trkpt lat="43.57462" lon="1.14625">
        <ele>253.166504</ele>
        <time>2020-09-20T09:42:51.000Z</time>
      </trkpt>
      <trkpt lat="43.57462" lon="1.14625">
        <ele>253.176283</ele>
        <time>2020-09-20T09:42:52.000Z</time>
      </trkpt>
      <trkpt lat="43.57458" lon="1.14632">
        <ele>253.324715</ele>
        <time>2020-09-20T09:43:04.000Z</time>
      </trkpt>
      <trkpt lat="43.57457" lon="1.14635">
        <ele>253.383855</ele>
        <time>2020-09-20T09:43:06.000Z</time>
      </trkpt>
      <trkpt lat="43.57459" lon="1.14639">
        <ele>253.474627</ele>
        <time>2020-09-20T09:43:09.000Z</time>
      </trkpt>
      <trkpt lat="43.57459" lon="1.14642">
        <ele>253.512969</ele>
        <time>2020-09-20T09:43:10.000Z</time>
      </trkpt>
      <trkpt lat="43.57459" lon="1.14647">
        <ele>253.600141</ele>
        <time>2020-09-20T09:43:13.000Z</time>
      </trkpt>
      <trkpt lat="43.57456" lon="1.14657">
        <ele>253.791879</ele>
        <time>2020-09-20T09:43:17.000Z</time>
      </trkpt>
      <trkpt lat="43.57456" lon="1.1466">
        <ele>253.840914</ele>
        <time>2020-09-20T09:43:18.000Z</time>
      </trkpt>
      <trkpt lat="43.57456" lon="1.14663">
        <ele>253.903838</ele>
        <time>2020-09-20T09:43:19.000Z</time>
      </trkpt>
      <trkpt lat="43.57456" lon="1.1467">
        <ele>254.015308</ele>
        <time>2020-09-20T09:43:21.000Z</time>
      </trkpt>
      <trkpt lat="43.57458" lon="1.14671">
        <ele>254.059031</ele>
        <time>2020-09-20T09:43:22.000Z</time>
      </trkpt>
      <trkpt lat="43.57464" lon="1.14676">
        <ele>254.227085</ele>
        <time>2020-09-20T09:43:26.000Z</time>
      </trkpt>
      <trkpt lat="43.57464" lon="1.14678">
        <ele>254.262024</ele>
        <time>2020-09-20T09:43:27.000Z</time>
      </trkpt>
      <trkpt lat="43.57468" lon="1.14681">
        <ele>254.376196</ele>
        <time>2020-09-20T09:43:31.000Z</time>
      </trkpt>
      <trkpt lat="43.57472" lon="1.14689">
        <ele>254.537089</ele>
        <time>2020-09-20T09:43:35.000Z</time>
      </trkpt>
      <trkpt lat="43.57473" lon="1.1469">
        <ele>254.57471</ele>
        <time>2020-09-20T09:43:36.000Z</time>
      </trkpt>
      <trkpt lat="43.5748" lon="1.14688">
        <ele>254.927608</ele>
        <time>2020-09-20T09:43:39.000Z</time>
      </trkpt>
      <trkpt lat="43.57484" lon="1.14689">
        <ele>255.254924</ele>
        <time>2020-09-20T09:43:41.000Z</time>
      </trkpt>
      <trkpt lat="43.57486" lon="1.1469">
        <ele>255.450351</ele>
        <time>2020-09-20T09:43:42.000Z</time>
      </trkpt>
      <trkpt lat="43.57488" lon="1.14691">
        <ele>255.630837</ele>
        <time>2020-09-20T09:43:43.000Z</time>
      </trkpt>
      <trkpt lat="43.57488" lon="1.14703">
        <ele>256.321186</ele>
        <time>2020-09-20T09:43:47.000Z</time>
      </trkpt>
      <trkpt lat="43.57486" lon="1.14705">
        <ele>256.509491</ele>
        <time>2020-09-20T09:43:48.000Z</time>
      </trkpt>
      <trkpt lat="43.57484" lon="1.14707">
        <ele>256.722531</ele>
        <time>2020-09-20T09:43:49.000Z</time>
      </trkpt>
      <trkpt lat="43.57482" lon="1.14714">
        <ele>257.157201</ele>
        <time>2020-09-20T09:43:51.000Z</time>
      </trkpt>
      <trkpt lat="43.5748" lon="1.14725">
        <ele>257.848266</ele>
        <time>2020-09-20T09:43:55.000Z</time>
      </trkpt>
      <trkpt lat="43.57481" lon="1.14726">
        <ele>257.932813</ele>
        <time>2020-09-20T09:43:56.000Z</time>
      </trkpt>
      <trkpt lat="43.57482" lon="1.14727">
        <ele>258.03025</ele>
        <time>2020-09-20T09:43:58.000Z</time>
      </trkpt>
      <trkpt lat="43.57483" lon="1.14729">
        <ele>258.204663</ele>
        <time>2020-09-20T09:44:00.000Z</time>
      </trkpt>
      <trkpt lat="43.57485" lon="1.14732">
        <ele>258.46537</ele>
        <time>2020-09-20T09:44:02.000Z</time>
      </trkpt>
      <trkpt lat="43.57488" lon="1.14736">
        <ele>258.819725</ele>
        <time>2020-09-20T09:44:04.000Z</time>
      </trkpt>
      <trkpt lat="43.57488" lon="1.14739">
        <ele>259.014966</ele>
        <time>2020-09-20T09:44:05.000Z</time>
      </trkpt>
      <trkpt lat="43.57489" lon="1.14743">
        <ele>259.210937</ele>
        <time>2020-09-20T09:44:06.000Z</time>
      </trkpt>
      <trkpt lat="43.5749" lon="1.14749">
        <ele>259.625094</ele>
        <time>2020-09-20T09:44:08.000Z</time>
      </trkpt>
      <trkpt lat="43.57493" lon="1.14754">
        <ele>259.991123</ele>
        <time>2020-09-20T09:44:10.000Z</time>
      </trkpt>
      <trkpt lat="43.57495" lon="1.14755">
        <ele>260.178396</ele>
        <time>2020-09-20T09:44:11.000Z</time>
      </trkpt>
      <trkpt lat="43.57498" lon="1.14756">
        <ele>260.418282</ele>
        <time>2020-09-20T09:44:12.000Z</time>
      </trkpt>
      <trkpt lat="43.57503" lon="1.1476">
        <ele>260.931874</ele>
        <time>2020-09-20T09:44:15.000Z</time>
      </trkpt>
      <trkpt lat="43.57506" lon="1.14764">
        <ele>261.271578</ele>
        <time>2020-09-20T09:44:17.000Z</time>
      </trkpt>
      <trkpt lat="43.57512" lon="1.14771">
        <ele>261.911789</ele>
        <time>2020-09-20T09:44:20.000Z</time>
      </trkpt>
      <trkpt lat="43.57516" lon="1.14779">
        <ele>262.515277</ele>
        <time>2020-09-20T09:44:23.000Z</time>
      </trkpt>
      <trkpt lat="43.57518" lon="1.1478">
        <ele>262.720511</ele>
        <time>2020-09-20T09:44:24.000Z</time>
      </trkpt>
      <trkpt lat="43.5752" lon="1.14781">
        <ele>262.876296</ele>
        <time>2020-09-20T09:44:25.000Z</time>
      </trkpt>
      <trkpt lat="43.57522" lon="1.14786">
        <ele>263.252284</ele>
        <time>2020-09-20T09:44:27.000Z</time>
      </trkpt>
      <trkpt lat="43.57525" lon="1.14795">
        <ele>263.838373</ele>
        <time>2020-09-20T09:44:29.000Z</time>
      </trkpt>
      <trkpt lat="43.57527" lon="1.14798">
        <ele>264.068259</ele>
        <time>2020-09-20T09:44:30.000Z</time>
      </trkpt>
      <trkpt lat="43.57532" lon="1.14801">
        <ele>264.512792</ele>
        <time>2020-09-20T09:44:32.000Z</time>
      </trkpt>
      <trkpt lat="43.57534" lon="1.14809">
        <ele>265.030355</ele>
        <time>2020-09-20T09:44:35.000Z</time>
      </trkpt>
      <trkpt lat="43.57534" lon="1.14811">
        <ele>265.151196</ele>
        <time>2020-09-20T09:44:36.000Z</time>
      </trkpt>
      <trkpt lat="43.5754" lon="1.14817">
        <ele>265.75858</ele>
        <time>2020-09-20T09:44:40.000Z</time>
      </trkpt>
      <trkpt lat="43.57542" lon="1.14818">
        <ele>265.925462</ele>
        <time>2020-09-20T09:44:41.000Z</time>
      </trkpt>
      <trkpt lat="43.57547" lon="1.14827">
        <ele>266.579371</ele>
        <time>2020-09-20T09:44:44.000Z</time>
      </trkpt>
      <trkpt lat="43.57552" lon="1.14841">
        <ele>267.588311</ele>
        <time>2020-09-20T09:44:48.000Z</time>
      </trkpt>
      <trkpt lat="43.57555" lon="1.14845">
        <ele>267.870592</ele>
        <time>2020-09-20T09:44:49.000Z</time>
      </trkpt>
      <trkpt lat="43.57562" lon="1.14855">
        <ele>268.766059</ele>
        <time>2020-09-20T09:44:53.000Z</time>
      </trkpt>
      <trkpt lat="43.57566" lon="1.1486">
        <ele>269.235446</ele>
        <time>2020-09-20T09:44:55.000Z</time>
      </trkpt>
      <trkpt lat="43.5757" lon="1.14866">
        <ele>269.690478</ele>
        <time>2020-09-20T09:44:57.000Z</time>
      </trkpt>
      <trkpt lat="43.57575" lon="1.14875">
        <ele>270.473765</ele>
        <time>2020-09-20T09:45:01.000Z</time>
      </trkpt>
      <trkpt lat="43.57576" lon="1.14878">
        <ele>270.656546</ele>
        <time>2020-09-20T09:45:02.000Z</time>
      </trkpt>
      <trkpt lat="43.57577" lon="1.14881">
        <ele>270.861033</ele>
        <time>2020-09-20T09:45:03.000Z</time>
      </trkpt>
      <trkpt lat="43.57579" lon="1.14887">
        <ele>271.34746</ele>
        <time>2020-09-20T09:45:05.000Z</time>
      </trkpt>
      <trkpt lat="43.5758" lon="1.14891">
        <ele>271.609784</ele>
        <time>2020-09-20T09:45:06.000Z</time>
      </trkpt>
      <trkpt lat="43.57582" lon="1.14894">
        <ele>271.876755</ele>
        <time>2020-09-20T09:45:07.000Z</time>
      </trkpt>
      <trkpt lat="43.57586" lon="1.14903">
        <ele>272.586098</ele>
        <time>2020-09-20T09:45:10.000Z</time>
      </trkpt>
      <trkpt lat="43.57587" lon="1.1491">
        <ele>273.044722</ele>
        <time>2020-09-20T09:45:12.000Z</time>
      </trkpt>
      <trkpt lat="43.57589" lon="1.14913">
        <ele>273.254617</ele>
        <time>2020-09-20T09:45:13.000Z</time>
      </trkpt>
      <trkpt lat="43.57592" lon="1.14922">
        <ele>273.944997</ele>
        <time>2020-09-20T09:45:16.000Z</time>
      </trkpt>
      <trkpt lat="43.57593" lon="1.14925">
        <ele>274.137231</ele>
        <time>2020-09-20T09:45:17.000Z</time>
      </trkpt>
      <trkpt lat="43.57596" lon="1.14925">
        <ele>274.441993</ele>
        <time>2020-09-20T09:45:19.000Z</time>
      </trkpt>
      <trkpt lat="43.576" lon="1.14924">
        <ele>274.75885</ele>
        <time>2020-09-20T09:45:21.000Z</time>
      </trkpt>
      <trkpt lat="43.57602" lon="1.14924">
        <ele>274.998628</ele>
        <time>2020-09-20T09:45:23.000Z</time>
      </trkpt>
      <trkpt lat="43.57604" lon="1.14929">
        <ele>275.328952</ele>
        <time>2020-09-20T09:45:25.000Z</time>
      </trkpt>
      <trkpt lat="43.57604" lon="1.14936">
        <ele>275.816928</ele>
        <time>2020-09-20T09:45:27.000Z</time>
      </trkpt>
      <trkpt lat="43.57605" lon="1.14948">
        <ele>276.616481</ele>
        <time>2020-09-20T09:45:30.000Z</time>
      </trkpt>
      <trkpt lat="43.57605" lon="1.14953">
        <ele>276.939376</ele>
        <time>2020-09-20T09:45:31.000Z</time>
      </trkpt>
      <trkpt lat="43.57607" lon="1.14969">
        <ele>277.99985</ele>
        <time>2020-09-20T09:45:35.000Z</time>
      </trkpt>
      <trkpt lat="43.57608" lon="1.14972">
        <ele>278.260984</ele>
        <time>2020-09-20T09:45:36.000Z</time>
      </trkpt>
      <trkpt lat="43.57612" lon="1.14991">
        <ele>279.559857</ele>
        <time>2020-09-20T09:45:41.000Z</time>
      </trkpt>
      <trkpt lat="43.57612" lon="1.14995">
        <ele>279.812894</ele>
        <time>2020-09-20T09:45:42.000Z</time>
      </trkpt>
      <trkpt lat="43.57614" lon="1.15003">
        <ele>280.317146</ele>
        <time>2020-09-20T09:45:44.000Z</time>
      </trkpt>
      <trkpt lat="43.57616" lon="1.15019">
        <ele>281.397598</ele>
        <time>2020-09-20T09:45:49.000Z</time>
      </trkpt>
      <trkpt lat="43.57624" lon="1.1503">
        <ele>282.418278</ele>
        <time>2020-09-20T09:45:55.000Z</time>
      </trkpt>
      <trkpt lat="43.57631" lon="1.1503">
        <ele>283.000458</ele>
        <time>2020-09-20T09:45:58.000Z</time>
      </trkpt>
      <trkpt lat="43.57634" lon="1.15027">
        <ele>283.397614</ele>
        <time>2020-09-20T09:46:00.000Z</time>
      </trkpt>
      <trkpt lat="43.5764" lon="1.15022">
        <ele>283.951764</ele>
        <time>2020-09-20T09:46:03.000Z</time>
      </trkpt>
      <trkpt lat="43.57645" lon="1.15018">
        <ele>284.497234</ele>
        <time>2020-09-20T09:46:06.000Z</time>
      </trkpt>
      <trkpt lat="43.57652" lon="1.15013">
        <ele>285.19497</ele>
        <time>2020-09-20T09:46:10.000Z</time>
      </trkpt>
      <trkpt lat="43.57655" lon="1.15011">
        <ele>285.558512</ele>
        <time>2020-09-20T09:46:12.000Z</time>
      </trkpt>
      <trkpt lat="43.57664" lon="1.15002">
        <ele>286.365284</ele>
        <time>2020-09-20T09:46:16.000Z</time>
      </trkpt>
      <trkpt lat="43.57668" lon="1.14998">
        <ele>286.599277</ele>
        <time>2020-09-20T09:46:18.000Z</time>
      </trkpt>
      <trkpt lat="43.57672" lon="1.14994">
        <ele>286.834998</ele>
        <time>2020-09-20T09:46:20.000Z</time>
      </trkpt>
      <trkpt lat="43.57681" lon="1.14982">
        <ele>287.443105</ele>
        <time>2020-09-20T09:46:25.000Z</time>
      </trkpt>
      <trkpt lat="43.57687" lon="1.14976">
        <ele>287.806722</ele>
        <time>2020-09-20T09:46:28.000Z</time>
      </trkpt>
      <trkpt lat="43.57697" lon="1.14966">
        <ele>288.417651</ele>
        <time>2020-09-20T09:46:33.000Z</time>
      </trkpt>
      <trkpt lat="43.57701" lon="1.14962">
        <ele>288.663274</ele>
        <time>2020-09-20T09:46:35.000Z</time>
      </trkpt>
      <trkpt lat="43.57714" lon="1.14947">
        <ele>289.495319</ele>
        <time>2020-09-20T09:46:42.000Z</time>
      </trkpt>
      <trkpt lat="43.57718" lon="1.14942">
        <ele>289.735717</ele>
        <time>2020-09-20T09:46:44.000Z</time>
      </trkpt>
      <trkpt lat="43.57731" lon="1.14925">
        <ele>290.615493</ele>
        <time>2020-09-20T09:46:51.000Z</time>
      </trkpt>
      <trkpt lat="43.57739" lon="1.14917">
        <ele>291.101019</ele>
        <time>2020-09-20T09:46:55.000Z</time>
      </trkpt>
      <trkpt lat="43.57756" lon="1.14901">
        <ele>292.105281</ele>
        <time>2020-09-20T09:47:03.000Z</time>
      </trkpt>
      <trkpt lat="43.57759" lon="1.14898">
        <ele>292.247027</ele>
        <time>2020-09-20T09:47:04.000Z</time>
      </trkpt>
      <trkpt lat="43.57771" lon="1.14888">
        <ele>292.96523</ele>
        <time>2020-09-20T09:47:09.000Z</time>
      </trkpt>
      <trkpt lat="43.57788" lon="1.14877">
        <ele>293.858491</ele>
        <time>2020-09-20T09:47:15.000Z</time>
      </trkpt>
      <trkpt lat="43.57809" lon="1.14872">
        <ele>294.89344</ele>
        <time>2020-09-20T09:47:22.000Z</time>
      </trkpt>
      <trkpt lat="43.57815" lon="1.1487">
        <ele>295.041801</ele>
        <time>2020-09-20T09:47:24.000Z</time>
      </trkpt>
      <trkpt lat="43.57833" lon="1.14868">
        <ele>295.461875</ele>
        <time>2020-09-20T09:47:30.000Z</time>
      </trkpt>
      <trkpt lat="43.57856" lon="1.14865">
        <ele>295.998646</ele>
        <time>2020-09-20T09:47:38.000Z</time>
      </trkpt>
      <trkpt lat="43.57858" lon="1.14865">
        <ele>296.065145</ele>
        <time>2020-09-20T09:47:39.000Z</time>
      </trkpt>
      <trkpt lat="43.57878" lon="1.14863">
        <ele>296.513941</ele>
        <time>2020-09-20T09:47:46.000Z</time>
      </trkpt>
      <trkpt lat="43.57885" lon="1.14863">
        <ele>296.699351</ele>
        <time>2020-09-20T09:47:49.000Z</time>
      </trkpt>
      <trkpt lat="43.57903" lon="1.14864">
        <ele>297.119608</ele>
        <time>2020-09-20T09:47:56.000Z</time>
      </trkpt>
      <trkpt lat="43.57916" lon="1.14865">
        <ele>297.418145</ele>
        <time>2020-09-20T09:48:01.000Z</time>
      </trkpt>
      <trkpt lat="43.57921" lon="1.14865">
        <ele>297.540288</ele>
        <time>2020-09-20T09:48:03.000Z</time>
      </trkpt>
      <trkpt lat="43.57939" lon="1.1487">
        <ele>297.962981</ele>
        <time>2020-09-20T09:48:10.000Z</time>
      </trkpt>
      <trkpt lat="43.57951" lon="1.14886">
        <ele>298.354307</ele>
        <time>2020-09-20T09:48:16.000Z</time>
      </trkpt>
      <trkpt lat="43.57958" lon="1.14902">
        <ele>298.660522</ele>
        <time>2020-09-20T09:48:20.000Z</time>
      </trkpt>
      <trkpt lat="43.57965" lon="1.14918">
        <ele>298.983434</ele>
        <time>2020-09-20T09:48:24.000Z</time>
      </trkpt>
      <trkpt lat="43.57981" lon="1.1495">
        <ele>298.513707</ele>
        <time>2020-09-20T09:48:32.000Z</time>
      </trkpt>
      <trkpt lat="43.57991" lon="1.14966">
        <ele>298.102145</ele>
        <time>2020-09-20T09:48:36.000Z</time>
      </trkpt>
      <trkpt lat="43.57995" lon="1.14971">
        <ele>297.964844</ele>
        <time>2020-09-20T09:48:38.000Z</time>
      </trkpt>
      <trkpt lat="43.57997" lon="1.14973">
        <ele>297.882477</ele>
        <time>2020-09-20T09:48:42.000Z</time>
      </trkpt>
      <trkpt lat="43.57998" lon="1.14973">
        <ele>297.868177</ele>
        <time>2020-09-20T09:50:48.000Z</time>
      </trkpt>
      <trkpt lat="43.57997" lon="1.14976">
        <ele>297.803555</ele>
        <time>2020-09-20T09:50:49.000Z</time>
      </trkpt>
      <trkpt lat="43.57996" lon="1.14994">
        <ele>297.447869</ele>
        <time>2020-09-20T09:50:53.000Z</time>
      </trkpt>
      <trkpt lat="43.57994" lon="1.15012">
        <ele>297.087608</ele>
        <time>2020-09-20T09:50:56.000Z</time>
      </trkpt>
      <trkpt lat="43.57993" lon="1.15033">
        <ele>296.669082</ele>
        <time>2020-09-20T09:50:59.000Z</time>
      </trkpt>
      <trkpt lat="43.5799" lon="1.15065">
        <ele>296.022043</ele>
        <time>2020-09-20T09:51:03.000Z</time>
      </trkpt>
      <trkpt lat="43.57989" lon="1.15082">
        <ele>295.673944</ele>
        <time>2020-09-20T09:51:05.000Z</time>
      </trkpt>
      <trkpt lat="43.57987" lon="1.15101">
        <ele>295.310373</ele>
        <time>2020-09-20T09:51:07.000Z</time>
      </trkpt>
      <trkpt lat="43.57985" lon="1.15119">
        <ele>294.93763</ele>
        <time>2020-09-20T09:51:09.000Z</time>
      </trkpt>
      <trkpt lat="43.57983" lon="1.15138">
        <ele>294.551216</ele>
        <time>2020-09-20T09:51:11.000Z</time>
      </trkpt>
      <trkpt lat="43.57978" lon="1.15188">
        <ele>293.707725</ele>
        <time>2020-09-20T09:51:16.000Z</time>
      </trkpt>
      <trkpt lat="43.57977" lon="1.15198">
        <ele>293.555292</ele>
        <time>2020-09-20T09:51:17.000Z</time>
      </trkpt>
      <trkpt lat="43.57975" lon="1.15218">
        <ele>293.25215</ele>
        <time>2020-09-20T09:51:19.000Z</time>
      </trkpt>
      <trkpt lat="43.57966" lon="1.15266">
        <ele>292.517557</ele>
        <time>2020-09-20T09:51:24.000Z</time>
      </trkpt>
      <trkpt lat="43.57961" lon="1.15293">
        <ele>292.104194</ele>
        <time>2020-09-20T09:51:27.000Z</time>
      </trkpt>
      <trkpt lat="43.57951" lon="1.15353">
        <ele>291.186074</ele>
        <time>2020-09-20T09:51:34.000Z</time>
      </trkpt>
      <trkpt lat="43.57951" lon="1.15361">
        <ele>291.062832</ele>
        <time>2020-09-20T09:51:35.000Z</time>
      </trkpt>
      <trkpt lat="43.57948" lon="1.15391">
        <ele>290.609689</ele>
        <time>2020-09-20T09:51:39.000Z</time>
      </trkpt>
      <trkpt lat="43.57947" lon="1.15394">
        <ele>290.555907</ele>
        <time>2020-09-20T09:51:40.000Z</time>
      </trkpt>
      <trkpt lat="43.57947" lon="1.15395">
        <ele>290.547366</ele>
        <time>2020-09-20T09:51:42.000Z</time>
      </trkpt>
      <trkpt lat="43.57948" lon="1.15387">
        <ele>290.464179</ele>
        <time>2020-09-20T09:51:58.000Z</time>
      </trkpt>
      <trkpt lat="43.57949" lon="1.15375">
        <ele>290.417466</ele>
        <time>2020-09-20T09:52:01.000Z</time>
      </trkpt>
      <trkpt lat="43.5795" lon="1.15365">
        <ele>290.378587</ele>
        <time>2020-09-20T09:52:03.000Z</time>
      </trkpt>
      <trkpt lat="43.57952" lon="1.15345">
        <ele>290.301666</ele>
        <time>2020-09-20T09:52:07.000Z</time>
      </trkpt>
      <trkpt lat="43.57951" lon="1.15337">
        <ele>290.269759</ele>
        <time>2020-09-20T09:52:09.000Z</time>
      </trkpt>
      <trkpt lat="43.57944" lon="1.15332">
        <ele>290.229831</ele>
        <time>2020-09-20T09:52:12.000Z</time>
      </trkpt>
      <trkpt lat="43.57936" lon="1.15341">
        <ele>290.174776</ele>
        <time>2020-09-20T09:52:16.000Z</time>
      </trkpt>
      <trkpt lat="43.57934" lon="1.15345">
        <ele>290.157692</ele>
        <time>2020-09-20T09:52:17.000Z</time>
      </trkpt>
      <trkpt lat="43.57924" lon="1.15364">
        <ele>290.067892</ele>
        <time>2020-09-20T09:52:21.000Z</time>
      </trkpt>
      <trkpt lat="43.57908" lon="1.15391">
        <ele>289.932569</ele>
        <time>2020-09-20T09:52:27.000Z</time>
      </trkpt>
      <trkpt lat="43.57901" lon="1.15402">
        <ele>289.874209</ele>
        <time>2020-09-20T09:52:29.000Z</time>
      </trkpt>
      <trkpt lat="43.57893" lon="1.15414">
        <ele>289.81434</ele>
        <time>2020-09-20T09:52:31.000Z</time>
      </trkpt>
      <trkpt lat="43.57875" lon="1.15436">
        <ele>289.687973</ele>
        <time>2020-09-20T09:52:35.000Z</time>
      </trkpt>
      <trkpt lat="43.57847" lon="1.15465">
        <ele>289.498427</ele>
        <time>2020-09-20T09:52:41.000Z</time>
      </trkpt>
      <trkpt lat="43.57838" lon="1.15475">
        <ele>289.429558</ele>
        <time>2020-09-20T09:52:43.000Z</time>
      </trkpt>
      <trkpt lat="43.5781" lon="1.15505">
        <ele>289.22239</ele>
        <time>2020-09-20T09:52:49.000Z</time>
      </trkpt>
      <trkpt lat="43.57806" lon="1.1551">
        <ele>289.187996</ele>
        <time>2020-09-20T09:52:50.000Z</time>
      </trkpt>
      <trkpt lat="43.57784" lon="1.15537">
        <ele>289.018387</ele>
        <time>2020-09-20T09:52:55.000Z</time>
      </trkpt>
      <trkpt lat="43.5778" lon="1.15542">
        <ele>288.983368</ele>
        <time>2020-09-20T09:52:56.000Z</time>
      </trkpt>
      <trkpt lat="43.57747" lon="1.15578">
        <ele>288.73851</ele>
        <time>2020-09-20T09:53:03.000Z</time>
      </trkpt>
      <trkpt lat="43.57721" lon="1.15611">
        <ele>288.52976</ele>
        <time>2020-09-20T09:53:09.000Z</time>
      </trkpt>
      <trkpt lat="43.577" lon="1.15641">
        <ele>288.391001</ele>
        <time>2020-09-20T09:53:14.000Z</time>
      </trkpt>
      <trkpt lat="43.57683" lon="1.15666">
        <ele>288.29438</ele>
        <time>2020-09-20T09:53:18.000Z</time>
      </trkpt>
      <trkpt lat="43.57679" lon="1.15673">
        <ele>288.270713</ele>
        <time>2020-09-20T09:53:19.000Z</time>
      </trkpt>
      <trkpt lat="43.57675" lon="1.15679">
        <ele>288.24644</ele>
        <time>2020-09-20T09:53:20.000Z</time>
      </trkpt>
      <trkpt lat="43.57667" lon="1.15692">
        <ele>288.199201</ele>
        <time>2020-09-20T09:53:22.000Z</time>
      </trkpt>
      <trkpt lat="43.57654" lon="1.1571">
        <ele>288.127021</ele>
        <time>2020-09-20T09:53:25.000Z</time>
      </trkpt>
      <trkpt lat="43.57633" lon="1.15739">
        <ele>288.011441</ele>
        <time>2020-09-20T09:53:30.000Z</time>
      </trkpt>
      <trkpt lat="43.57607" lon="1.15772">
        <ele>287.875754</ele>
        <time>2020-09-20T09:53:36.000Z</time>
      </trkpt>
      <trkpt lat="43.57588" lon="1.15801">
        <ele>287.756066</ele>
        <time>2020-09-20T09:53:41.000Z</time>
      </trkpt>
      <trkpt lat="43.57579" lon="1.15812">
        <ele>287.636705</ele>
        <time>2020-09-20T09:53:43.000Z</time>
      </trkpt>
      <trkpt lat="43.57576" lon="1.15818">
        <ele>287.57919</ele>
        <time>2020-09-20T09:53:44.000Z</time>
      </trkpt>
      <trkpt lat="43.57565" lon="1.15836">
        <ele>287.400329</ele>
        <time>2020-09-20T09:53:47.000Z</time>
      </trkpt>
      <trkpt lat="43.57561" lon="1.15842">
        <ele>287.342149</ele>
        <time>2020-09-20T09:53:48.000Z</time>
      </trkpt>
      <trkpt lat="43.5755" lon="1.15861">
        <ele>287.158117</ele>
        <time>2020-09-20T09:53:51.000Z</time>
      </trkpt>
      <trkpt lat="43.57545" lon="1.15876">
        <ele>287.038111</ele>
        <time>2020-09-20T09:53:53.000Z</time>
      </trkpt>
      <trkpt lat="43.57531" lon="1.15921">
        <ele>286.664031</ele>
        <time>2020-09-20T09:53:59.000Z</time>
      </trkpt>
      <trkpt lat="43.57517" lon="1.15959">
        <ele>286.344886</ele>
        <time>2020-09-20T09:54:04.000Z</time>
      </trkpt>
      <trkpt lat="43.57511" lon="1.15975">
        <ele>286.208129</ele>
        <time>2020-09-20T09:54:06.000Z</time>
      </trkpt>
      <trkpt lat="43.57503" lon="1.15999">
        <ele>286.009315</ele>
        <time>2020-09-20T09:54:09.000Z</time>
      </trkpt>
      <trkpt lat="43.57493" lon="1.1603">
        <ele>285.758633</ele>
        <time>2020-09-20T09:54:13.000Z</time>
      </trkpt>
      <trkpt lat="43.57475" lon="1.16075">
        <ele>285.387338</ele>
        <time>2020-09-20T09:54:19.000Z</time>
      </trkpt>
      <trkpt lat="43.57463" lon="1.16104">
        <ele>285.142303</ele>
        <time>2020-09-20T09:54:23.000Z</time>
      </trkpt>
      <trkpt lat="43.57454" lon="1.16124">
        <ele>284.967295</ele>
        <time>2020-09-20T09:54:26.000Z</time>
      </trkpt>
      <trkpt lat="43.5744" lon="1.1616">
        <ele>284.67048</ele>
        <time>2020-09-20T09:54:31.000Z</time>
      </trkpt>
      <trkpt lat="43.57438" lon="1.16167">
        <ele>284.612009</ele>
        <time>2020-09-20T09:54:32.000Z</time>
      </trkpt>
      <trkpt lat="43.57419" lon="1.16209">
        <ele>284.255881</ele>
        <time>2020-09-20T09:54:38.000Z</time>
      </trkpt>
      <trkpt lat="43.57412" lon="1.16222">
        <ele>284.13479</ele>
        <time>2020-09-20T09:54:40.000Z</time>
      </trkpt>
      <trkpt lat="43.574" lon="1.16242">
        <ele>282.834614</ele>
        <time>2020-09-20T09:54:43.000Z</time>
      </trkpt>
      <trkpt lat="43.57384" lon="1.16272">
        <ele>280.389521</ele>
        <time>2020-09-20T09:54:47.000Z</time>
      </trkpt>
      <trkpt lat="43.57374" lon="1.16287">
        <ele>279.078062</ele>
        <time>2020-09-20T09:54:49.000Z</time>
      </trkpt>
      <trkpt lat="43.57362" lon="1.16304">
        <ele>277.541474</ele>
        <time>2020-09-20T09:54:51.000Z</time>
      </trkpt>
      <trkpt lat="43.57355" lon="1.16313">
        <ele>276.650092</ele>
        <time>2020-09-20T09:54:52.000Z</time>
      </trkpt>
      <trkpt lat="43.57349" lon="1.16322">
        <ele>275.862099</ele>
        <time>2020-09-20T09:54:53.000Z</time>
      </trkpt>
      <trkpt lat="43.57343" lon="1.1633">
        <ele>275.157276</ele>
        <time>2020-09-20T09:54:54.000Z</time>
      </trkpt>
      <trkpt lat="43.57338" lon="1.16336">
        <ele>274.533418</ele>
        <time>2020-09-20T09:54:55.000Z</time>
      </trkpt>
      <trkpt lat="43.57334" lon="1.16342">
        <ele>274.0092</ele>
        <time>2020-09-20T09:54:56.000Z</time>
      </trkpt>
      <trkpt lat="43.5733" lon="1.16347">
        <ele>273.502666</ele>
        <time>2020-09-20T09:54:57.000Z</time>
      </trkpt>
      <trkpt lat="43.57322" lon="1.16357">
        <ele>272.502892</ele>
        <time>2020-09-20T09:54:59.000Z</time>
      </trkpt>
      <trkpt lat="43.57312" lon="1.1637">
        <ele>271.330398</ele>
        <time>2020-09-20T09:55:01.000Z</time>
      </trkpt>
      <trkpt lat="43.57301" lon="1.16385">
        <ele>269.888092</ele>
        <time>2020-09-20T09:55:03.000Z</time>
      </trkpt>
      <trkpt lat="43.57294" lon="1.16393">
        <ele>269.051617</ele>
        <time>2020-09-20T09:55:04.000Z</time>
      </trkpt>
      <trkpt lat="43.57285" lon="1.16399">
        <ele>268.192347</ele>
        <time>2020-09-20T09:55:05.000Z</time>
      </trkpt>
      <trkpt lat="43.57277" lon="1.16404">
        <ele>267.372045</ele>
        <time>2020-09-20T09:55:06.000Z</time>
      </trkpt>
      <trkpt lat="43.5727" lon="1.16408">
        <ele>266.573476</ele>
        <time>2020-09-20T09:55:07.000Z</time>
      </trkpt>
      <trkpt lat="43.57256" lon="1.16415">
        <ele>265.151889</ele>
        <time>2020-09-20T09:55:09.000Z</time>
      </trkpt>
      <trkpt lat="43.57243" lon="1.16422">
        <ele>263.730921</ele>
        <time>2020-09-20T09:55:11.000Z</time>
      </trkpt>
      <trkpt lat="43.57237" lon="1.16426">
        <ele>263.061003</ele>
        <time>2020-09-20T09:55:12.000Z</time>
      </trkpt>
      <trkpt lat="43.57231" lon="1.16431">
        <ele>262.378687</ele>
        <time>2020-09-20T09:55:13.000Z</time>
      </trkpt>
      <trkpt lat="43.57218" lon="1.16443">
        <ele>260.857396</ele>
        <time>2020-09-20T09:55:15.000Z</time>
      </trkpt>
      <trkpt lat="43.57211" lon="1.1645">
        <ele>260.00503</ele>
        <time>2020-09-20T09:55:16.000Z</time>
      </trkpt>
      <trkpt lat="43.57205" lon="1.16457">
        <ele>259.159188</ele>
        <time>2020-09-20T09:55:17.000Z</time>
      </trkpt>
      <trkpt lat="43.57197" lon="1.16464">
        <ele>258.274266</ele>
        <time>2020-09-20T09:55:18.000Z</time>
      </trkpt>
      <trkpt lat="43.5719" lon="1.1647">
        <ele>257.463945</ele>
        <time>2020-09-20T09:55:19.000Z</time>
      </trkpt>
      <trkpt lat="43.57174" lon="1.16482">
        <ele>255.65263</ele>
        <time>2020-09-20T09:55:21.000Z</time>
      </trkpt>
      <trkpt lat="43.57158" lon="1.16497">
        <ele>253.731505</ele>
        <time>2020-09-20T09:55:23.000Z</time>
      </trkpt>
      <trkpt lat="43.5715" lon="1.16502">
        <ele>252.807266</ele>
        <time>2020-09-20T09:55:24.000Z</time>
      </trkpt>
      <trkpt lat="43.57141" lon="1.16506">
        <ele>251.919492</ele>
        <time>2020-09-20T09:55:25.000Z</time>
      </trkpt>
      <trkpt lat="43.57132" lon="1.16511">
        <ele>250.99371</ele>
        <time>2020-09-20T09:55:26.000Z</time>
      </trkpt>
      <trkpt lat="43.57124" lon="1.16516">
        <ele>250.080918</ele>
        <time>2020-09-20T09:55:27.000Z</time>
      </trkpt>
      <trkpt lat="43.57108" lon="1.16527">
        <ele>248.638223</ele>
        <time>2020-09-20T09:55:29.000Z</time>
      </trkpt>
      <trkpt lat="43.57094" lon="1.16542">
        <ele>247.224234</ele>
        <time>2020-09-20T09:55:31.000Z</time>
      </trkpt>
      <trkpt lat="43.57084" lon="1.1656">
        <ele>245.914494</ele>
        <time>2020-09-20T09:55:33.000Z</time>
      </trkpt>
      <trkpt lat="43.57077" lon="1.1659">
        <ele>244.031037</ele>
        <time>2020-09-20T09:55:36.000Z</time>
      </trkpt>
      <trkpt lat="43.57076" lon="1.166">
        <ele>243.462265</ele>
        <time>2020-09-20T09:55:37.000Z</time>
      </trkpt>
      <trkpt lat="43.57073" lon="1.16617">
        <ele>242.447855</ele>
        <time>2020-09-20T09:55:39.000Z</time>
      </trkpt>
      <trkpt lat="43.57066" lon="1.16633">
        <ele>241.321059</ele>
        <time>2020-09-20T09:55:41.000Z</time>
      </trkpt>
      <trkpt lat="43.57061" lon="1.16641">
        <ele>240.719722</ele>
        <time>2020-09-20T09:55:42.000Z</time>
      </trkpt>
      <trkpt lat="43.57056" lon="1.16648">
        <ele>240.12859</ele>
        <time>2020-09-20T09:55:43.000Z</time>
      </trkpt>
      <trkpt lat="43.57045" lon="1.16657">
        <ele>239.135646</ele>
        <time>2020-09-20T09:55:45.000Z</time>
      </trkpt>
      <trkpt lat="43.57033" lon="1.1666">
        <ele>238.123626</ele>
        <time>2020-09-20T09:55:47.000Z</time>
      </trkpt>
      <trkpt lat="43.57027" lon="1.16662">
        <ele>237.674559</ele>
        <time>2020-09-20T09:55:48.000Z</time>
      </trkpt>
      <trkpt lat="43.57023" lon="1.16663">
        <ele>237.350906</ele>
        <time>2020-09-20T09:55:49.000Z</time>
      </trkpt>
      <trkpt lat="43.5702" lon="1.16662">
        <ele>237.045909</ele>
        <time>2020-09-20T09:55:50.000Z</time>
      </trkpt>
      <trkpt lat="43.57015" lon="1.1666">
        <ele>236.666321</ele>
        <time>2020-09-20T09:55:51.000Z</time>
      </trkpt>
      <trkpt lat="43.57003" lon="1.16658">
        <ele>235.709648</ele>
        <time>2020-09-20T09:55:53.000Z</time>
      </trkpt>
      <trkpt lat="43.56997" lon="1.16658">
        <ele>235.259502</ele>
        <time>2020-09-20T09:55:54.000Z</time>
      </trkpt>
      <trkpt lat="43.56991" lon="1.16657">
        <ele>234.82873</ele>
        <time>2020-09-20T09:55:55.000Z</time>
      </trkpt>
      <trkpt lat="43.56978" lon="1.16652">
        <ele>233.900209</ele>
        <time>2020-09-20T09:55:57.000Z</time>
      </trkpt>
      <trkpt lat="43.56963" lon="1.1665">
        <ele>232.869764</ele>
        <time>2020-09-20T09:55:59.000Z</time>
      </trkpt>
      <trkpt lat="43.56955" lon="1.16649">
        <ele>232.310678</ele>
        <time>2020-09-20T09:56:00.000Z</time>
      </trkpt>
      <trkpt lat="43.56947" lon="1.16648">
        <ele>231.766559</ele>
        <time>2020-09-20T09:56:01.000Z</time>
      </trkpt>
      <trkpt lat="43.56933" lon="1.16646">
        <ele>230.79239</ele>
        <time>2020-09-20T09:56:03.000Z</time>
      </trkpt>
      <trkpt lat="43.5692" lon="1.16645">
        <ele>229.898281</ele>
        <time>2020-09-20T09:56:05.000Z</time>
      </trkpt>
      <trkpt lat="43.56913" lon="1.16645">
        <ele>229.424286</ele>
        <time>2020-09-20T09:56:06.000Z</time>
      </trkpt>
      <trkpt lat="43.56898" lon="1.16646">
        <ele>228.425829</ele>
        <time>2020-09-20T09:56:08.000Z</time>
      </trkpt>
      <trkpt lat="43.56884" lon="1.16646">
        <ele>227.443544</ele>
        <time>2020-09-20T09:56:10.000Z</time>
      </trkpt>
      <trkpt lat="43.56869" lon="1.16648">
        <ele>226.395164</ele>
        <time>2020-09-20T09:56:13.000Z</time>
      </trkpt>
      <trkpt lat="43.56852" lon="1.16648">
        <ele>225.247978</ele>
        <time>2020-09-20T09:56:16.000Z</time>
      </trkpt>
      <trkpt lat="43.5684" lon="1.16648">
        <ele>224.423623</ele>
        <time>2020-09-20T09:56:18.000Z</time>
      </trkpt>
      <trkpt lat="43.56836" lon="1.16649">
        <ele>224.153472</ele>
        <time>2020-09-20T09:56:19.000Z</time>
      </trkpt>
      <trkpt lat="43.56833" lon="1.16649">
        <ele>223.924129</ele>
        <time>2020-09-20T09:56:20.000Z</time>
      </trkpt>
      <trkpt lat="43.56829" lon="1.1665">
        <ele>223.683504</ele>
        <time>2020-09-20T09:56:21.000Z</time>
      </trkpt>
      <trkpt lat="43.56826" lon="1.1665">
        <ele>223.468477</ele>
        <time>2020-09-20T09:56:22.000Z</time>
      </trkpt>
      <trkpt lat="43.56815" lon="1.16652">
        <ele>222.915485</ele>
        <time>2020-09-20T09:56:25.000Z</time>
      </trkpt>
      <trkpt lat="43.568" lon="1.1665">
        <ele>222.297353</ele>
        <time>2020-09-20T09:56:30.000Z</time>
      </trkpt>
      <trkpt lat="43.56797" lon="1.16649">
        <ele>222.18587</ele>
        <time>2020-09-20T09:56:31.000Z</time>
      </trkpt>
      <trkpt lat="43.56791" lon="1.16647">
        <ele>221.954393</ele>
        <time>2020-09-20T09:56:33.000Z</time>
      </trkpt>
      <trkpt lat="43.56782" lon="1.1665">
        <ele>221.578323</ele>
        <time>2020-09-20T09:56:36.000Z</time>
      </trkpt>
      <trkpt lat="43.56764" lon="1.16651">
        <ele>220.86729</ele>
        <time>2020-09-20T09:56:41.000Z</time>
      </trkpt>
      <trkpt lat="43.56748" lon="1.16649">
        <ele>220.210019</ele>
        <time>2020-09-20T09:56:45.000Z</time>
      </trkpt>
      <trkpt lat="43.56743" lon="1.16648">
        <ele>220.01789</ele>
        <time>2020-09-20T09:56:46.000Z</time>
      </trkpt>
      <trkpt lat="43.56733" lon="1.16646">
        <ele>219.616125</ele>
        <time>2020-09-20T09:56:49.000Z</time>
      </trkpt>
      <trkpt lat="43.5673" lon="1.16641">
        <ele>219.437319</ele>
        <time>2020-09-20T09:56:51.000Z</time>
      </trkpt>
      <trkpt lat="43.56727" lon="1.16638">
        <ele>219.299449</ele>
        <time>2020-09-20T09:56:52.000Z</time>
      </trkpt>
      <trkpt lat="43.56714" lon="1.16628">
        <ele>218.690146</ele>
        <time>2020-09-20T09:56:56.000Z</time>
      </trkpt>
      <trkpt lat="43.56707" lon="1.16627">
        <ele>218.418232</ele>
        <time>2020-09-20T09:56:58.000Z</time>
      </trkpt>
      <trkpt lat="43.56704" lon="1.16629">
        <ele>218.268719</ele>
        <time>2020-09-20T09:56:59.000Z</time>
      </trkpt>
      <trkpt lat="43.56697" lon="1.16635">
        <ele>217.971273</ele>
        <time>2020-09-20T09:57:01.000Z</time>
      </trkpt>
      <trkpt lat="43.56687" lon="1.16637">
        <ele>217.571426</ele>
        <time>2020-09-20T09:57:03.000Z</time>
      </trkpt>
      <trkpt lat="43.56676" lon="1.16637">
        <ele>217.121284</ele>
        <time>2020-09-20T09:57:05.000Z</time>
      </trkpt>
      <trkpt lat="43.56663" lon="1.16635">
        <ele>216.615512</ele>
        <time>2020-09-20T09:57:07.000Z</time>
      </trkpt>
      <trkpt lat="43.56653" lon="1.16632">
        <ele>216.18989</ele>
        <time>2020-09-20T09:57:09.000Z</time>
      </trkpt>
      <trkpt lat="43.56647" lon="1.1663">
        <ele>216.041451</ele>
        <time>2020-09-20T09:57:10.000Z</time>
      </trkpt>
      <trkpt lat="43.56642" lon="1.16629">
        <ele>215.94087</ele>
        <time>2020-09-20T09:57:11.000Z</time>
      </trkpt>
      <trkpt lat="43.56635" lon="1.16627">
        <ele>215.825176</ele>
        <time>2020-09-20T09:57:12.000Z</time>
      </trkpt>
      <trkpt lat="43.56628" lon="1.16625">
        <ele>215.711663</ele>
        <time>2020-09-20T09:57:13.000Z</time>
      </trkpt>
      <trkpt lat="43.56622" lon="1.16623">
        <ele>215.606156</ele>
        <time>2020-09-20T09:57:14.000Z</time>
      </trkpt>
      <trkpt lat="43.56617" lon="1.16621">
        <ele>215.50855</ele>
        <time>2020-09-20T09:57:15.000Z</time>
      </trkpt>
      <trkpt lat="43.56608" lon="1.16617">
        <ele>215.345385</ele>
        <time>2020-09-20T09:57:17.000Z</time>
      </trkpt>
      <trkpt lat="43.56604" lon="1.16616">
        <ele>215.271832</ele>
        <time>2020-09-20T09:57:18.000Z</time>
      </trkpt>
      <trkpt lat="43.56584" lon="1.16613">
        <ele>214.939533</ele>
        <time>2020-09-20T09:57:22.000Z</time>
      </trkpt>
      <trkpt lat="43.5658" lon="1.16612">
        <ele>214.86016</ele>
        <time>2020-09-20T09:57:23.000Z</time>
      </trkpt>
      <trkpt lat="43.56575" lon="1.16611">
        <ele>214.788528</ele>
        <time>2020-09-20T09:57:24.000Z</time>
      </trkpt>
      <trkpt lat="43.56567" lon="1.16608">
        <ele>214.637335</ele>
        <time>2020-09-20T09:57:26.000Z</time>
      </trkpt>
      <trkpt lat="43.56563" lon="1.16607">
        <ele>214.565343</ele>
        <time>2020-09-20T09:57:27.000Z</time>
      </trkpt>
      <trkpt lat="43.56554" lon="1.16606">
        <ele>214.408291</ele>
        <time>2020-09-20T09:57:29.000Z</time>
      </trkpt>
      <trkpt lat="43.56534" lon="1.166">
        <ele>214.066873</ele>
        <time>2020-09-20T09:57:33.000Z</time>
      </trkpt>
      <trkpt lat="43.5653" lon="1.166">
        <ele>214.002055</ele>
        <time>2020-09-20T09:57:34.000Z</time>
      </trkpt>
      <trkpt lat="43.56522" lon="1.16601">
        <ele>213.861742</ele>
        <time>2020-09-20T09:57:36.000Z</time>
      </trkpt>
      <trkpt lat="43.56518" lon="1.166">
        <ele>213.791585</ele>
        <time>2020-09-20T09:57:37.000Z</time>
      </trkpt>
      <trkpt lat="43.56511" lon="1.16597">
        <ele>213.669908</ele>
        <time>2020-09-20T09:57:40.000Z</time>
      </trkpt>
      <trkpt lat="43.5651" lon="1.16596">
        <ele>213.645118</ele>
        <time>2020-09-20T09:57:41.000Z</time>
      </trkpt>
      <trkpt lat="43.56508" lon="1.1659">
        <ele>213.568324</ele>
        <time>2020-09-20T09:57:43.000Z</time>
      </trkpt>
      <trkpt lat="43.5651" lon="1.16582">
        <ele>213.464172</ele>
        <time>2020-09-20T09:57:45.000Z</time>
      </trkpt>
      <trkpt lat="43.5651" lon="1.1656">
        <ele>213.192265</ele>
        <time>2020-09-20T09:57:50.000Z</time>
      </trkpt>
      <trkpt lat="43.56512" lon="1.16533">
        <ele>213.075436</ele>
        <time>2020-09-20T09:57:55.000Z</time>
      </trkpt>
      <trkpt lat="43.56514" lon="1.1649">
        <ele>213.228385</ele>
        <time>2020-09-20T09:58:02.000Z</time>
      </trkpt>
      <trkpt lat="43.56519" lon="1.16445">
        <ele>213.385031</ele>
        <time>2020-09-20T09:58:09.000Z</time>
      </trkpt>
      <trkpt lat="43.56529" lon="1.1638">
        <ele>213.617481</ele>
        <time>2020-09-20T09:58:19.000Z</time>
      </trkpt>
      <trkpt lat="43.56542" lon="1.16313">
        <ele>213.860099</ele>
        <time>2020-09-20T09:58:29.000Z</time>
      </trkpt>
      <trkpt lat="43.5655" lon="1.16262">
        <ele>213.976044</ele>
        <time>2020-09-20T09:58:36.000Z</time>
      </trkpt>
      <trkpt lat="43.56555" lon="1.16235">
        <ele>214.027888</ele>
        <time>2020-09-20T09:58:40.000Z</time>
      </trkpt>
      <trkpt lat="43.56559" lon="1.1621">
        <ele>214.076152</ele>
        <time>2020-09-20T09:58:44.000Z</time>
      </trkpt>
      <trkpt lat="43.56561" lon="1.16194">
        <ele>214.108551</ele>
        <time>2020-09-20T09:58:47.000Z</time>
      </trkpt>
      <trkpt lat="43.5656" lon="1.16189">
        <ele>214.117759</ele>
        <time>2020-09-20T09:58:48.000Z</time>
      </trkpt>
      <trkpt lat="43.56557" lon="1.16186">
        <ele>214.127667</ele>
        <time>2020-09-20T09:58:49.000Z</time>
      </trkpt>
      <trkpt lat="43.56547" lon="1.16178">
        <ele>214.157151</ele>
        <time>2020-09-20T09:58:53.000Z</time>
      </trkpt>
      <trkpt lat="43.56538" lon="1.16175">
        <ele>214.183214</ele>
        <time>2020-09-20T09:58:57.000Z</time>
      </trkpt>
      <trkpt lat="43.56533" lon="1.16176">
        <ele>214.195512</ele>
        <time>2020-09-20T09:58:59.000Z</time>
      </trkpt>
      <trkpt lat="43.56519" lon="1.16173">
        <ele>214.233091</ele>
        <time>2020-09-20T09:59:04.000Z</time>
      </trkpt>
      <trkpt lat="43.56502" lon="1.16166">
        <ele>214.278184</ele>
        <time>2020-09-20T09:59:09.000Z</time>
      </trkpt>
      <trkpt lat="43.56499" lon="1.16165">
        <ele>214.287862</ele>
        <time>2020-09-20T09:59:10.000Z</time>
      </trkpt>
      <trkpt lat="43.5648" lon="1.16156">
        <ele>214.340235</ele>
        <time>2020-09-20T09:59:16.000Z</time>
      </trkpt>
      <trkpt lat="43.5647" lon="1.16149">
        <ele>214.383201</ele>
        <time>2020-09-20T09:59:20.000Z</time>
      </trkpt>
      <trkpt lat="43.56465" lon="1.16149">
        <ele>214.470137</ele>
        <time>2020-09-20T09:59:22.000Z</time>
      </trkpt>
      <trkpt lat="43.5646" lon="1.1615">
        <ele>214.552885</ele>
        <time>2020-09-20T09:59:24.000Z</time>
      </trkpt>
      <trkpt lat="43.5645" lon="1.16143">
        <ele>214.733076</ele>
        <time>2020-09-20T09:59:28.000Z</time>
      </trkpt>
      <trkpt lat="43.56443" lon="1.1614">
        <ele>214.854676</ele>
        <time>2020-09-20T09:59:31.000Z</time>
      </trkpt>
      <trkpt lat="43.56439" lon="1.16136">
        <ele>214.940972</ele>
        <time>2020-09-20T09:59:35.000Z</time>
      </trkpt>
      <trkpt lat="43.56438" lon="1.16136">
        <ele>214.944456</ele>
        <time>2020-09-20T09:59:36.000Z</time>
      </trkpt>
      <trkpt lat="43.56418" lon="1.16133">
        <ele>215.283485</ele>
        <time>2020-09-20T10:00:09.000Z</time>
      </trkpt>
      <trkpt lat="43.56414" lon="1.1613">
        <ele>215.353176</ele>
        <time>2020-09-20T10:00:12.000Z</time>
      </trkpt>
      <trkpt lat="43.56413" lon="1.16129">
        <ele>215.375545</ele>
        <time>2020-09-20T10:00:13.000Z</time>
      </trkpt>
      <trkpt lat="43.5641" lon="1.16127">
        <ele>215.43496</ele>
        <time>2020-09-20T10:00:15.000Z</time>
      </trkpt>
      <trkpt lat="43.56405" lon="1.16125">
        <ele>215.515872</ele>
        <time>2020-09-20T10:00:17.000Z</time>
      </trkpt>
      <trkpt lat="43.564" lon="1.16122">
        <ele>215.608647</ele>
        <time>2020-09-20T10:00:19.000Z</time>
      </trkpt>
      <trkpt lat="43.5639" lon="1.16119">
        <ele>215.778753</ele>
        <time>2020-09-20T10:00:23.000Z</time>
      </trkpt>
      <trkpt lat="43.56387" lon="1.16118">
        <ele>215.82214</ele>
        <time>2020-09-20T10:00:24.000Z</time>
      </trkpt>
      <trkpt lat="43.56383" lon="1.16119">
        <ele>215.897937</ele>
        <time>2020-09-20T10:00:26.000Z</time>
      </trkpt>
      <trkpt lat="43.5638" lon="1.16119">
        <ele>215.937317</ele>
        <time>2020-09-20T10:00:27.000Z</time>
      </trkpt>
      <trkpt lat="43.56372" lon="1.16112">
        <ele>216.099653</ele>
        <time>2020-09-20T10:00:31.000Z</time>
      </trkpt>
      <trkpt lat="43.5637" lon="1.16111">
        <ele>216.133758</ele>
        <time>2020-09-20T10:00:32.000Z</time>
      </trkpt>
      <trkpt lat="43.56361" lon="1.16115">
        <ele>216.275904</ele>
        <time>2020-09-20T10:00:36.000Z</time>
      </trkpt>
      <trkpt lat="43.56359" lon="1.16115">
        <ele>216.315498</ele>
        <time>2020-09-20T10:00:37.000Z</time>
      </trkpt>
      <trkpt lat="43.56346" lon="1.16115">
        <ele>216.523508</ele>
        <time>2020-09-20T10:00:41.000Z</time>
      </trkpt>
      <trkpt lat="43.56332" lon="1.16116">
        <ele>216.759657</ele>
        <time>2020-09-20T10:00:46.000Z</time>
      </trkpt>
      <trkpt lat="43.56318" lon="1.16113">
        <ele>216.983076</ele>
        <time>2020-09-20T10:00:51.000Z</time>
      </trkpt>
      <trkpt lat="43.56301" lon="1.16112">
        <ele>217.263874</ele>
        <time>2020-09-20T10:00:57.000Z</time>
      </trkpt>
      <trkpt lat="43.56289" lon="1.16109">
        <ele>217.588706</ele>
        <time>2020-09-20T10:01:02.000Z</time>
      </trkpt>
      <trkpt lat="43.56272" lon="1.16109">
        <ele>218.059679</ele>
        <time>2020-09-20T10:01:08.000Z</time>
      </trkpt>
      <trkpt lat="43.56266" lon="1.16108">
        <ele>218.256503</ele>
        <time>2020-09-20T10:01:11.000Z</time>
      </trkpt>
      <trkpt lat="43.56263" lon="1.16109">
        <ele>218.344647</ele>
        <time>2020-09-20T10:01:12.000Z</time>
      </trkpt>
      <trkpt lat="43.56249" lon="1.16108">
        <ele>218.721886</ele>
        <time>2020-09-20T10:01:17.000Z</time>
      </trkpt>
      <trkpt lat="43.56239" lon="1.16107">
        <ele>219.015335</ele>
        <time>2020-09-20T10:01:21.000Z</time>
      </trkpt>
      <trkpt lat="43.56234" lon="1.16105">
        <ele>219.173483</ele>
        <time>2020-09-20T10:01:23.000Z</time>
      </trkpt>
      <trkpt lat="43.56222" lon="1.16105">
        <ele>219.500952</ele>
        <time>2020-09-20T10:01:27.000Z</time>
      </trkpt>
      <trkpt lat="43.56204" lon="1.16103">
        <ele>220.035768</ele>
        <time>2020-09-20T10:01:34.000Z</time>
      </trkpt>
      <trkpt lat="43.56201" lon="1.16103">
        <ele>220.108026</ele>
        <time>2020-09-20T10:01:35.000Z</time>
      </trkpt>
      <trkpt lat="43.5619" lon="1.16102">
        <ele>220.444587</ele>
        <time>2020-09-20T10:01:39.000Z</time>
      </trkpt>
      <trkpt lat="43.56184" lon="1.16101">
        <ele>220.597266</ele>
        <time>2020-09-20T10:01:41.000Z</time>
      </trkpt>
      <trkpt lat="43.56175" lon="1.161">
        <ele>220.854447</ele>
        <time>2020-09-20T10:01:45.000Z</time>
      </trkpt>
      <trkpt lat="43.56174" lon="1.16099">
        <ele>220.910157</ele>
        <time>2020-09-20T10:01:46.000Z</time>
      </trkpt>
      <trkpt lat="43.56167" lon="1.16098">
        <ele>221.100379</ele>
        <time>2020-09-20T10:01:49.000Z</time>
      </trkpt>
      <trkpt lat="43.56161" lon="1.16098">
        <ele>221.264677</ele>
        <time>2020-09-20T10:01:52.000Z</time>
      </trkpt>
      <trkpt lat="43.56151" lon="1.16095">
        <ele>221.580974</ele>
        <time>2020-09-20T10:01:58.000Z</time>
      </trkpt>
      <trkpt lat="43.56145" lon="1.16095">
        <ele>221.739103</ele>
        <time>2020-09-20T10:02:01.000Z</time>
      </trkpt>
      <trkpt lat="43.56143" lon="1.16099">
        <ele>221.843579</ele>
        <time>2020-09-20T10:02:03.000Z</time>
      </trkpt>
      <trkpt lat="43.56142" lon="1.16115">
        <ele>222.180024</ele>
        <time>2020-09-20T10:02:08.000Z</time>
      </trkpt>
      <trkpt lat="43.56142" lon="1.16145">
        <ele>222.37173</ele>
        <time>2020-09-20T10:02:14.000Z</time>
      </trkpt>
      <trkpt lat="43.5614" lon="1.16163">
        <ele>222.259165</ele>
        <time>2020-09-20T10:02:17.000Z</time>
      </trkpt>
      <trkpt lat="43.56139" lon="1.1618">
        <ele>222.147974</ele>
        <time>2020-09-20T10:02:20.000Z</time>
      </trkpt>
      <trkpt lat="43.56136" lon="1.16211">
        <ele>221.947174</ele>
        <time>2020-09-20T10:02:25.000Z</time>
      </trkpt>
      <trkpt lat="43.56136" lon="1.16218">
        <ele>221.903528</ele>
        <time>2020-09-20T10:02:26.000Z</time>
      </trkpt>
      <trkpt lat="43.56135" lon="1.16252">
        <ele>221.687085</ele>
        <time>2020-09-20T10:02:31.000Z</time>
      </trkpt>
      <trkpt lat="43.56135" lon="1.16258">
        <ele>221.645336</ele>
        <time>2020-09-20T10:02:32.000Z</time>
      </trkpt>
      <trkpt lat="43.56135" lon="1.16265">
        <ele>221.602304</ele>
        <time>2020-09-20T10:02:33.000Z</time>
      </trkpt>
      <trkpt lat="43.56134" lon="1.16271">
        <ele>221.559719</ele>
        <time>2020-09-20T10:02:34.000Z</time>
      </trkpt>
      <trkpt lat="43.56133" lon="1.16299">
        <ele>221.385305</ele>
        <time>2020-09-20T10:02:38.000Z</time>
      </trkpt>
      <trkpt lat="43.56131" lon="1.16322">
        <ele>221.236391</ele>
        <time>2020-09-20T10:02:41.000Z</time>
      </trkpt>
      <trkpt lat="43.5613" lon="1.16337">
        <ele>221.138963</ele>
        <time>2020-09-20T10:02:43.000Z</time>
      </trkpt>
      <trkpt lat="43.56128" lon="1.16344">
        <ele>221.092998</ele>
        <time>2020-09-20T10:02:44.000Z</time>
      </trkpt>
      <trkpt lat="43.56127" lon="1.16364">
        <ele>220.959208</ele>
        <time>2020-09-20T10:02:47.000Z</time>
      </trkpt>
      <trkpt lat="43.56126" lon="1.16371">
        <ele>220.912615</ele>
        <time>2020-09-20T10:02:48.000Z</time>
      </trkpt>
      <trkpt lat="43.56121" lon="1.16401">
        <ele>220.423039</ele>
        <time>2020-09-20T10:02:52.000Z</time>
      </trkpt>
      <trkpt lat="43.56113" lon="1.16446">
        <ele>219.587215</ele>
        <time>2020-09-20T10:02:58.000Z</time>
      </trkpt>
      <trkpt lat="43.56112" lon="1.16454">
        <ele>219.442111</ele>
        <time>2020-09-20T10:02:59.000Z</time>
      </trkpt>
      <trkpt lat="43.56107" lon="1.16486">
        <ele>218.850648</ele>
        <time>2020-09-20T10:03:03.000Z</time>
      </trkpt>
      <trkpt lat="43.56105" lon="1.16502">
        <ele>218.550695</ele>
        <time>2020-09-20T10:03:05.000Z</time>
      </trkpt>
      <trkpt lat="43.561" lon="1.16548">
        <ele>217.709897</ele>
        <time>2020-09-20T10:03:10.000Z</time>
      </trkpt>
      <trkpt lat="43.56099" lon="1.16559">
        <ele>217.524554</ele>
        <time>2020-09-20T10:03:11.000Z</time>
      </trkpt>
      <trkpt lat="43.56097" lon="1.16581">
        <ele>217.119544</ele>
        <time>2020-09-20T10:03:13.000Z</time>
      </trkpt>
      <trkpt lat="43.56095" lon="1.16604">
        <ele>216.691236</ele>
        <time>2020-09-20T10:03:15.000Z</time>
      </trkpt>
      <trkpt lat="43.56094" lon="1.16617">
        <ele>216.463796</ele>
        <time>2020-09-20T10:03:16.000Z</time>
      </trkpt>
      <trkpt lat="43.56094" lon="1.1663">
        <ele>216.185207</ele>
        <time>2020-09-20T10:03:17.000Z</time>
      </trkpt>
      <trkpt lat="43.56091" lon="1.16658">
        <ele>215.56232</ele>
        <time>2020-09-20T10:03:19.000Z</time>
      </trkpt>
      <trkpt lat="43.5609" lon="1.16671">
        <ele>215.258279</ele>
        <time>2020-09-20T10:03:20.000Z</time>
      </trkpt>
      <trkpt lat="43.56088" lon="1.16685">
        <ele>214.954688</ele>
        <time>2020-09-20T10:03:21.000Z</time>
      </trkpt>
      <trkpt lat="43.56086" lon="1.16724">
        <ele>214.071742</ele>
        <time>2020-09-20T10:03:24.000Z</time>
      </trkpt>
      <trkpt lat="43.56084" lon="1.16763">
        <ele>213.203596</ele>
        <time>2020-09-20T10:03:27.000Z</time>
      </trkpt>
      <trkpt lat="43.5608" lon="1.1685">
        <ele>211.263519</ele>
        <time>2020-09-20T10:03:34.000Z</time>
      </trkpt>
      <trkpt lat="43.56079" lon="1.16862">
        <ele>210.993526</ele>
        <time>2020-09-20T10:03:35.000Z</time>
      </trkpt>
      <trkpt lat="43.56076" lon="1.16898">
        <ele>210.654421</ele>
        <time>2020-09-20T10:03:38.000Z</time>
      </trkpt>
      <trkpt lat="43.56074" lon="1.16932">
        <ele>210.400139</ele>
        <time>2020-09-20T10:03:41.000Z</time>
      </trkpt>
      <trkpt lat="43.56071" lon="1.16986">
        <ele>210.00469</ele>
        <time>2020-09-20T10:03:46.000Z</time>
      </trkpt>
      <trkpt lat="43.56068" lon="1.17041">
        <ele>209.595141</ele>
        <time>2020-09-20T10:03:52.000Z</time>
      </trkpt>
      <trkpt lat="43.56067" lon="1.17058">
        <ele>209.471537</ele>
        <time>2020-09-20T10:03:54.000Z</time>
      </trkpt>
      <trkpt lat="43.56065" lon="1.17073">
        <ele>209.357288</ele>
        <time>2020-09-20T10:03:56.000Z</time>
      </trkpt>
      <trkpt lat="43.56065" lon="1.17081">
        <ele>209.300897</ele>
        <time>2020-09-20T10:03:57.000Z</time>
      </trkpt>
      <trkpt lat="43.56061" lon="1.17117">
        <ele>209.036142</ele>
        <time>2020-09-20T10:04:02.000Z</time>
      </trkpt>
      <trkpt lat="43.5606" lon="1.17133">
        <ele>208.960802</ele>
        <time>2020-09-20T10:04:04.000Z</time>
      </trkpt>
      <trkpt lat="43.5606" lon="1.17166">
        <ele>208.80325</ele>
        <time>2020-09-20T10:04:08.000Z</time>
      </trkpt>
      <trkpt lat="43.56059" lon="1.17235">
        <ele>208.477293</ele>
        <time>2020-09-20T10:04:16.000Z</time>
      </trkpt>
      <trkpt lat="43.56054" lon="1.1727">
        <ele>208.311586</ele>
        <time>2020-09-20T10:04:20.000Z</time>
      </trkpt>
      <trkpt lat="43.5605" lon="1.17286">
        <ele>208.229963</ele>
        <time>2020-09-20T10:04:22.000Z</time>
      </trkpt>
      <trkpt lat="43.56039" lon="1.17318">
        <ele>208.064009</ele>
        <time>2020-09-20T10:04:26.000Z</time>
      </trkpt>
      <trkpt lat="43.56033" lon="1.17333">
        <ele>207.983371</ele>
        <time>2020-09-20T10:04:28.000Z</time>
      </trkpt>
      <trkpt lat="43.5601" lon="1.17383">
        <ele>207.8257</ele>
        <time>2020-09-20T10:04:35.000Z</time>
      </trkpt>
      <trkpt lat="43.55997" lon="1.17412">
        <ele>207.776932</ele>
        <time>2020-09-20T10:04:39.000Z</time>
      </trkpt>
      <trkpt lat="43.5599" lon="1.17427">
        <ele>207.752426</ele>
        <time>2020-09-20T10:04:41.000Z</time>
      </trkpt>
      <trkpt lat="43.55978" lon="1.17457">
        <ele>207.703839</ele>
        <time>2020-09-20T10:04:45.000Z</time>
      </trkpt>
      <trkpt lat="43.55964" lon="1.17486">
        <ele>207.654625</ele>
        <time>2020-09-20T10:04:49.000Z</time>
      </trkpt>
      <trkpt lat="43.55946" lon="1.1752">
        <ele>207.595224</ele>
        <time>2020-09-20T10:04:54.000Z</time>
      </trkpt>
      <trkpt lat="43.55942" lon="1.17527">
        <ele>207.583408</ele>
        <time>2020-09-20T10:04:55.000Z</time>
      </trkpt>
      <trkpt lat="43.55918" lon="1.17562">
        <ele>207.526996</ele>
        <time>2020-09-20T10:05:01.000Z</time>
      </trkpt>
      <trkpt lat="43.55897" lon="1.17592">
        <ele>207.526996</ele>
        <time>2020-09-20T10:05:06.000Z</time>
      </trkpt>
      <trkpt lat="43.55874" lon="1.17623">
        <ele>207.526996</ele>
        <time>2020-09-20T10:05:11.000Z</time>
      </trkpt>
      <trkpt lat="43.55868" lon="1.17628">
        <ele>207.526996</ele>
        <time>2020-09-20T10:05:12.000Z</time>
      </trkpt>
      <trkpt lat="43.55842" lon="1.17656">
        <ele>207.526996</ele>
        <time>2020-09-20T10:05:17.000Z</time>
      </trkpt>
      <trkpt lat="43.55811" lon="1.17693">
        <ele>207.526996</ele>
        <time>2020-09-20T10:05:24.000Z</time>
      </trkpt>
      <trkpt lat="43.55807" lon="1.17697">
        <ele>207.526996</ele>
        <time>2020-09-20T10:05:25.000Z</time>
      </trkpt>
      <trkpt lat="43.55795" lon="1.17708">
        <ele>207.526996</ele>
        <time>2020-09-20T10:05:28.000Z</time>
      </trkpt>
      <trkpt lat="43.55791" lon="1.17712">
        <ele>207.526996</ele>
        <time>2020-09-20T10:05:29.000Z</time>
      </trkpt>
      <trkpt lat="43.55784" lon="1.17718">
        <ele>207.526996</ele>
        <time>2020-09-20T10:05:31.000Z</time>
      </trkpt>
      <trkpt lat="43.55778" lon="1.17719">
        <ele>207.526996</ele>
        <time>2020-09-20T10:05:33.000Z</time>
      </trkpt>
      <trkpt lat="43.55774" lon="1.1772">
        <ele>207.526996</ele>
        <time>2020-09-20T10:05:37.000Z</time>
      </trkpt>
      <trkpt lat="43.55769" lon="1.17716">
        <ele>207.526996</ele>
        <time>2020-09-20T10:05:42.000Z</time>
      </trkpt>
      <trkpt lat="43.55765" lon="1.17707">
        <ele>207.526996</ele>
        <time>2020-09-20T10:05:46.000Z</time>
      </trkpt>
      <trkpt lat="43.55763" lon="1.17706">
        <ele>207.526996</ele>
        <time>2020-09-20T10:05:47.000Z</time>
      </trkpt>
      <trkpt lat="43.55761" lon="1.17704">
        <ele>207.526996</ele>
        <time>2020-09-20T10:05:49.000Z</time>
      </trkpt>
      <trkpt lat="43.5576" lon="1.17701">
        <ele>207.526996</ele>
        <time>2020-09-20T10:05:51.000Z</time>
      </trkpt>
      <trkpt lat="43.5576" lon="1.17701">
        <ele>207.526996</ele>
        <time>2020-09-20T10:05:52.000Z</time>
      </trkpt>
    </trkseg>
  </trk>
</gpx>